<?xml version='1.0' encoding='UTF-8'?>
<gpx version="1.1" creator="https://www.komoot.de" xmlns="http://www.topografix.com/GPX/1/1" xmlns:xsi="http://www.w3.org/2001/XMLSchema-instance" xsi:schemaLocation="http://www.topografix.com/GPX/1/1 http://www.topografix.com/GPX/1/1/gpx.xsd">
  <metadata>
    <name>ANELLO 2 VALLI, PERCORSO LUNGO</name>
    <author>
      <link href="https://www.komoot.de">
        <text>komoot</text>
        <type>text/html</type>
      </link>
    </author>
  </metadata>
  <trk>
    <name>ANELLO 2 VALLI, PERCORSO LUNGO</name>
    <trkseg>
      <trkpt lat="45.580418" lon="10.227166">
        <ele>180.170520</ele>
        <time>2021-03-10T13:27:31.205Z</time>
      </trkpt>
      <trkpt lat="45.580095" lon="10.227265">
        <ele>180.170520</ele>
        <time>2021-03-10T13:27:37.076Z</time>
      </trkpt>
      <trkpt lat="45.580047" lon="10.227067">
        <ele>180.170520</ele>
        <time>2021-03-10T13:27:39.671Z</time>
      </trkpt>
      <trkpt lat="45.579999" lon="10.226866">
        <ele>180.170520</ele>
        <time>2021-03-10T13:27:42.295Z</time>
      </trkpt>
      <trkpt lat="45.579979" lon="10.226776">
        <ele>180.170520</ele>
        <time>2021-03-10T13:27:43.295Z</time>
      </trkpt>
      <trkpt lat="45.579954" lon="10.226659">
        <ele>180.170520</ele>
        <time>2021-03-10T13:27:44.602Z</time>
      </trkpt>
      <trkpt lat="45.579825" lon="10.226697">
        <ele>180.169630</ele>
        <time>2021-03-10T13:27:46.897Z</time>
      </trkpt>
      <trkpt lat="45.579778" lon="10.226712">
        <ele>180.165238</ele>
        <time>2021-03-10T13:27:47.674Z</time>
      </trkpt>
      <trkpt lat="45.579582" lon="10.225789">
        <ele>180.103668</ele>
        <time>2021-03-10T13:27:57.657Z</time>
      </trkpt>
      <trkpt lat="45.579439" lon="10.225264">
        <ele>180.067707</ele>
        <time>2021-03-10T13:28:03.248Z</time>
      </trkpt>
      <trkpt lat="45.579498" lon="10.225180">
        <ele>180.060111</ele>
        <time>2021-03-10T13:28:04.340Z</time>
      </trkpt>
      <trkpt lat="45.579678" lon="10.225026">
        <ele>180.040977</ele>
        <time>2021-03-10T13:28:07.179Z</time>
      </trkpt>
      <trkpt lat="45.579814" lon="10.224960">
        <ele>180.027877</ele>
        <time>2021-03-10T13:28:09.188Z</time>
      </trkpt>
      <trkpt lat="45.579870" lon="10.224940">
        <ele>180.022613</ele>
        <time>2021-03-10T13:28:09.949Z</time>
      </trkpt>
      <trkpt lat="45.580095" lon="10.224840">
        <ele>180.021342</ele>
        <time>2021-03-10T13:28:13.096Z</time>
      </trkpt>
      <trkpt lat="45.581116" lon="10.224621">
        <ele>180.282432</ele>
        <time>2021-03-10T13:28:28.276Z</time>
      </trkpt>
      <trkpt lat="45.581515" lon="10.224606">
        <ele>180.383368</ele>
        <time>2021-03-10T13:28:35.035Z</time>
      </trkpt>
      <trkpt lat="45.581968" lon="10.224616">
        <ele>180.671928</ele>
        <time>2021-03-10T13:28:43.548Z</time>
      </trkpt>
      <trkpt lat="45.582207" lon="10.224571">
        <ele>181.022645</ele>
        <time>2021-03-10T13:28:48.012Z</time>
      </trkpt>
      <trkpt lat="45.582656" lon="10.224456">
        <ele>181.686288</ele>
        <time>2021-03-10T13:28:57.125Z</time>
      </trkpt>
      <trkpt lat="45.583291" lon="10.224410">
        <ele>182.611308</ele>
        <time>2021-03-10T13:29:10.906Z</time>
      </trkpt>
      <trkpt lat="45.583333" lon="10.224400">
        <ele>182.673254</ele>
        <time>2021-03-10T13:29:11.858Z</time>
      </trkpt>
      <trkpt lat="45.583667" lon="10.224345">
        <ele>183.183583</ele>
        <time>2021-03-10T13:29:19.449Z</time>
      </trkpt>
      <trkpt lat="45.583897" lon="10.224365">
        <ele>183.603096</ele>
        <time>2021-03-10T13:29:24.764Z</time>
      </trkpt>
      <trkpt lat="45.583939" lon="10.224381">
        <ele>183.682232</ele>
        <time>2021-03-10T13:29:25.789Z</time>
      </trkpt>
      <trkpt lat="45.584165" lon="10.224467">
        <ele>184.108028</ele>
        <time>2021-03-10T13:29:31.048Z</time>
      </trkpt>
      <trkpt lat="45.584210" lon="10.224484">
        <ele>184.192771</ele>
        <time>2021-03-10T13:29:32.069Z</time>
      </trkpt>
      <trkpt lat="45.584634" lon="10.224574">
        <ele>184.973175</ele>
        <time>2021-03-10T13:29:41.569Z</time>
      </trkpt>
      <trkpt lat="45.585390" lon="10.224874">
        <ele>186.379384</ele>
        <time>2021-03-10T13:29:58.945Z</time>
      </trkpt>
      <trkpt lat="45.585864" lon="10.225031">
        <ele>186.862311</ele>
        <time>2021-03-10T13:30:08.981Z</time>
      </trkpt>
      <trkpt lat="45.586711" lon="10.224846">
        <ele>187.712738</ele>
        <time>2021-03-10T13:30:24.339Z</time>
      </trkpt>
      <trkpt lat="45.587353" lon="10.224730">
        <ele>188.354117</ele>
        <time>2021-03-10T13:30:35.377Z</time>
      </trkpt>
      <trkpt lat="45.587607" lon="10.224713">
        <ele>188.605456</ele>
        <time>2021-03-10T13:30:40.004Z</time>
      </trkpt>
      <trkpt lat="45.587928" lon="10.224746">
        <ele>188.923566</ele>
        <time>2021-03-10T13:30:46.074Z</time>
      </trkpt>
      <trkpt lat="45.588008" lon="10.224760">
        <ele>189.003232</ele>
        <time>2021-03-10T13:30:47.626Z</time>
      </trkpt>
      <trkpt lat="45.588075" lon="10.224777">
        <ele>189.070493</ele>
        <time>2021-03-10T13:30:48.919Z</time>
      </trkpt>
      <trkpt lat="45.588794" lon="10.224925">
        <ele>189.788518</ele>
        <time>2021-03-10T13:31:02.504Z</time>
      </trkpt>
      <trkpt lat="45.589368" lon="10.224994">
        <ele>190.560795</ele>
        <time>2021-03-10T13:31:14.771Z</time>
      </trkpt>
      <trkpt lat="45.589447" lon="10.225084">
        <ele>190.706490</ele>
        <time>2021-03-10T13:31:16.980Z</time>
      </trkpt>
      <trkpt lat="45.589525" lon="10.225232">
        <ele>190.893461</ele>
        <time>2021-03-10T13:31:19.785Z</time>
      </trkpt>
      <trkpt lat="45.589479" lon="10.225368">
        <ele>191.045895</ele>
        <time>2021-03-10T13:31:22.155Z</time>
      </trkpt>
      <trkpt lat="45.589487" lon="10.225470">
        <ele>191.149472</ele>
        <time>2021-03-10T13:31:23.713Z</time>
      </trkpt>
      <trkpt lat="45.589525" lon="10.225556">
        <ele>191.252111</ele>
        <time>2021-03-10T13:31:25.187Z</time>
      </trkpt>
      <trkpt lat="45.589546" lon="10.225582">
        <ele>191.292179</ele>
        <time>2021-03-10T13:31:25.743Z</time>
      </trkpt>
      <trkpt lat="45.589624" lon="10.225622">
        <ele>191.411683</ele>
        <time>2021-03-10T13:31:27.522Z</time>
      </trkpt>
      <trkpt lat="45.589705" lon="10.225602">
        <ele>191.530221</ele>
        <time>2021-03-10T13:31:29.301Z</time>
      </trkpt>
      <trkpt lat="45.589790" lon="10.225469">
        <ele>191.711985</ele>
        <time>2021-03-10T13:31:31.939Z</time>
      </trkpt>
      <trkpt lat="45.589988" lon="10.225366">
        <ele>192.015843</ele>
        <time>2021-03-10T13:31:36.243Z</time>
      </trkpt>
      <trkpt lat="45.590176" lon="10.225355">
        <ele>192.287177</ele>
        <time>2021-03-10T13:31:39.980Z</time>
      </trkpt>
      <trkpt lat="45.591743" lon="10.225506">
        <ele>193.829888</ele>
        <time>2021-03-10T13:32:09.784Z</time>
      </trkpt>
      <trkpt lat="45.591784" lon="10.225509">
        <ele>193.868159</ele>
        <time>2021-03-10T13:32:10.465Z</time>
      </trkpt>
      <trkpt lat="45.592142" lon="10.225537">
        <ele>194.193147</ele>
        <time>2021-03-10T13:32:16.886Z</time>
      </trkpt>
      <trkpt lat="45.592766" lon="10.225544">
        <ele>194.442070</ele>
        <time>2021-03-10T13:32:26.944Z</time>
      </trkpt>
      <trkpt lat="45.592901" lon="10.225596">
        <ele>194.497844</ele>
        <time>2021-03-10T13:32:29.084Z</time>
      </trkpt>
      <trkpt lat="45.593019" lon="10.225687">
        <ele>194.551331</ele>
        <time>2021-03-10T13:32:31.147Z</time>
      </trkpt>
      <trkpt lat="45.593084" lon="10.225784">
        <ele>194.588819</ele>
        <time>2021-03-10T13:32:32.533Z</time>
      </trkpt>
      <trkpt lat="45.593169" lon="10.225842">
        <ele>194.626393</ele>
        <time>2021-03-10T13:32:33.977Z</time>
      </trkpt>
      <trkpt lat="45.593318" lon="10.225838">
        <ele>194.685840</ele>
        <time>2021-03-10T13:32:36.347Z</time>
      </trkpt>
      <trkpt lat="45.593399" lon="10.225777">
        <ele>194.722363</ele>
        <time>2021-03-10T13:32:37.751Z</time>
      </trkpt>
      <trkpt lat="45.593461" lon="10.225680">
        <ele>194.759034</ele>
        <time>2021-03-10T13:32:39.228Z</time>
      </trkpt>
      <trkpt lat="45.593501" lon="10.225499">
        <ele>194.812017</ele>
        <time>2021-03-10T13:32:41.484Z</time>
      </trkpt>
      <trkpt lat="45.593474" lon="10.225313">
        <ele>194.865040</ele>
        <time>2021-03-10T13:32:43.604Z</time>
      </trkpt>
      <trkpt lat="45.593427" lon="10.225219">
        <ele>194.897289</ele>
        <time>2021-03-10T13:32:44.973Z</time>
      </trkpt>
      <trkpt lat="45.593409" lon="10.225118">
        <ele>194.943874</ele>
        <time>2021-03-10T13:32:46.226Z</time>
      </trkpt>
      <trkpt lat="45.593418" lon="10.225022">
        <ele>194.991776</ele>
        <time>2021-03-10T13:32:47.459Z</time>
      </trkpt>
      <trkpt lat="45.593512" lon="10.224876">
        <ele>195.089895</ele>
        <time>2021-03-10T13:32:49.811Z</time>
      </trkpt>
      <trkpt lat="45.594013" lon="10.224606">
        <ele>195.468327</ele>
        <time>2021-03-10T13:32:59.380Z</time>
      </trkpt>
      <trkpt lat="45.595140" lon="10.224278">
        <ele>196.276161</ele>
        <time>2021-03-10T13:33:19.775Z</time>
      </trkpt>
      <trkpt lat="45.595855" lon="10.223677">
        <ele>196.834602</ele>
        <time>2021-03-10T13:33:35.899Z</time>
      </trkpt>
      <trkpt lat="45.596926" lon="10.222656">
        <ele>197.590690</ele>
        <time>2021-03-10T13:33:56.190Z</time>
      </trkpt>
      <trkpt lat="45.597070" lon="10.222485">
        <ele>197.672535</ele>
        <time>2021-03-10T13:33:59.045Z</time>
      </trkpt>
      <trkpt lat="45.597461" lon="10.221909">
        <ele>197.918009</ele>
        <time>2021-03-10T13:34:08.337Z</time>
      </trkpt>
      <trkpt lat="45.597602" lon="10.221695">
        <ele>198.007920</ele>
        <time>2021-03-10T13:34:11.865Z</time>
      </trkpt>
      <trkpt lat="45.598126" lon="10.220940">
        <ele>198.499300</ele>
        <time>2021-03-10T13:34:24.940Z</time>
      </trkpt>
      <trkpt lat="45.598805" lon="10.220051">
        <ele>199.316968</ele>
        <time>2021-03-10T13:34:41.517Z</time>
      </trkpt>
      <trkpt lat="45.598963" lon="10.219862">
        <ele>199.499921</ele>
        <time>2021-03-10T13:34:45.449Z</time>
      </trkpt>
      <trkpt lat="45.599021" lon="10.219793">
        <ele>199.566929</ele>
        <time>2021-03-10T13:34:46.924Z</time>
      </trkpt>
      <trkpt lat="45.599333" lon="10.219404">
        <ele>199.990191</ele>
        <time>2021-03-10T13:34:55.262Z</time>
      </trkpt>
      <trkpt lat="45.600180" lon="10.218463">
        <ele>201.263245</ele>
        <time>2021-03-10T13:35:16.701Z</time>
      </trkpt>
      <trkpt lat="45.600685" lon="10.217961">
        <ele>201.979630</ele>
        <time>2021-03-10T13:35:28.509Z</time>
      </trkpt>
      <trkpt lat="45.601193" lon="10.217359">
        <ele>202.644010</ele>
        <time>2021-03-10T13:35:40.742Z</time>
      </trkpt>
      <trkpt lat="45.601689" lon="10.216820">
        <ele>203.271322</ele>
        <time>2021-03-10T13:35:52.540Z</time>
      </trkpt>
      <trkpt lat="45.601919" lon="10.216572">
        <ele>203.561387</ele>
        <time>2021-03-10T13:35:57.969Z</time>
      </trkpt>
      <trkpt lat="45.601978" lon="10.216491">
        <ele>203.643751</ele>
        <time>2021-03-10T13:35:59.440Z</time>
      </trkpt>
      <trkpt lat="45.602050" lon="10.216316">
        <ele>203.802588</ele>
        <time>2021-03-10T13:36:02.034Z</time>
      </trkpt>
      <trkpt lat="45.602108" lon="10.216347">
        <ele>203.878595</ele>
        <time>2021-03-10T13:36:03.235Z</time>
      </trkpt>
      <trkpt lat="45.602164" lon="10.216314">
        <ele>203.952945</ele>
        <time>2021-03-10T13:36:04.392Z</time>
      </trkpt>
      <trkpt lat="45.602188" lon="10.216192">
        <ele>204.061778</ele>
        <time>2021-03-10T13:36:06.017Z</time>
      </trkpt>
      <trkpt lat="45.602421" lon="10.216052">
        <ele>204.372018</ele>
        <time>2021-03-10T13:36:10.802Z</time>
      </trkpt>
      <trkpt lat="45.603633" lon="10.214782">
        <ele>206.268811</ele>
        <time>2021-03-10T13:36:41.037Z</time>
      </trkpt>
      <trkpt lat="45.604770" lon="10.213839">
        <ele>208.168309</ele>
        <time>2021-03-10T13:37:09.110Z</time>
      </trkpt>
      <trkpt lat="45.605393" lon="10.213251">
        <ele>208.857644</ele>
        <time>2021-03-10T13:37:23.012Z</time>
      </trkpt>
      <trkpt lat="45.605645" lon="10.213248">
        <ele>209.026406</ele>
        <time>2021-03-10T13:37:27.430Z</time>
      </trkpt>
      <trkpt lat="45.605691" lon="10.213328">
        <ele>209.074920</ele>
        <time>2021-03-10T13:37:28.672Z</time>
      </trkpt>
      <trkpt lat="45.605786" lon="10.213359">
        <ele>209.140175</ele>
        <time>2021-03-10T13:37:30.346Z</time>
      </trkpt>
      <trkpt lat="45.605849" lon="10.213320">
        <ele>209.186151</ele>
        <time>2021-03-10T13:37:31.513Z</time>
      </trkpt>
      <trkpt lat="45.605890" lon="10.213234">
        <ele>209.234907</ele>
        <time>2021-03-10T13:37:32.765Z</time>
      </trkpt>
      <trkpt lat="45.605896" lon="10.213141">
        <ele>209.278662</ele>
        <time>2021-03-10T13:37:33.856Z</time>
      </trkpt>
      <trkpt lat="45.605893" lon="10.213124">
        <ele>209.286875</ele>
        <time>2021-03-10T13:37:34.050Z</time>
      </trkpt>
      <trkpt lat="45.605914" lon="10.212911">
        <ele>209.387650</ele>
        <time>2021-03-10T13:37:36.572Z</time>
      </trkpt>
      <trkpt lat="45.606020" lon="10.212737">
        <ele>209.495743</ele>
        <time>2021-03-10T13:37:39.252Z</time>
      </trkpt>
      <trkpt lat="45.606129" lon="10.212558">
        <ele>209.606921</ele>
        <time>2021-03-10T13:37:41.946Z</time>
      </trkpt>
      <trkpt lat="45.606413" lon="10.212090">
        <ele>209.855778</ele>
        <time>2021-03-10T13:37:48.978Z</time>
      </trkpt>
      <trkpt lat="45.607215" lon="10.210768">
        <ele>210.477591</ele>
        <time>2021-03-10T13:38:09.376Z</time>
      </trkpt>
      <trkpt lat="45.607533" lon="10.210356">
        <ele>210.706873</ele>
        <time>2021-03-10T13:38:16.946Z</time>
      </trkpt>
      <trkpt lat="45.607980" lon="10.209912">
        <ele>211.038847</ele>
        <time>2021-03-10T13:38:26.600Z</time>
      </trkpt>
      <trkpt lat="45.608070" lon="10.209822">
        <ele>211.105835</ele>
        <time>2021-03-10T13:38:28.478Z</time>
      </trkpt>
      <trkpt lat="45.608205" lon="10.209700">
        <ele>211.203243</ele>
        <time>2021-03-10T13:38:31.324Z</time>
      </trkpt>
      <trkpt lat="45.609071" lon="10.208932">
        <ele>211.748627</ele>
        <time>2021-03-10T13:38:49.199Z</time>
      </trkpt>
      <trkpt lat="45.609400" lon="10.208725">
        <ele>211.779015</ele>
        <time>2021-03-10T13:38:54.906Z</time>
      </trkpt>
      <trkpt lat="45.609575" lon="10.208562">
        <ele>211.796672</ele>
        <time>2021-03-10T13:38:58.071Z</time>
      </trkpt>
      <trkpt lat="45.609784" lon="10.208307">
        <ele>211.819901</ele>
        <time>2021-03-10T13:39:02.075Z</time>
      </trkpt>
      <trkpt lat="45.609903" lon="10.208301">
        <ele>211.829967</ele>
        <time>2021-03-10T13:39:03.806Z</time>
      </trkpt>
      <trkpt lat="45.609956" lon="10.208258">
        <ele>211.835119</ele>
        <time>2021-03-10T13:39:04.673Z</time>
      </trkpt>
      <trkpt lat="45.610018" lon="10.208115">
        <ele>211.845069</ele>
        <time>2021-03-10T13:39:06.333Z</time>
      </trkpt>
      <trkpt lat="45.610006" lon="10.207948">
        <ele>211.854997</ele>
        <time>2021-03-10T13:39:08.039Z</time>
      </trkpt>
      <trkpt lat="45.609938" lon="10.207834">
        <ele>211.863856</ele>
        <time>2021-03-10T13:39:09.556Z</time>
      </trkpt>
      <trkpt lat="45.609836" lon="10.207792">
        <ele>211.872830</ele>
        <time>2021-03-10T13:39:11.039Z</time>
      </trkpt>
      <trkpt lat="45.609731" lon="10.207842">
        <ele>211.882186</ele>
        <time>2021-03-10T13:39:12.627Z</time>
      </trkpt>
      <trkpt lat="45.609665" lon="10.207970">
        <ele>211.868449</ele>
        <time>2021-03-10T13:39:14.215Z</time>
      </trkpt>
      <trkpt lat="45.609664" lon="10.208140">
        <ele>211.804996</ele>
        <time>2021-03-10T13:39:15.875Z</time>
      </trkpt>
      <trkpt lat="45.609621" lon="10.208349">
        <ele>211.723684</ele>
        <time>2021-03-10T13:39:18.020Z</time>
      </trkpt>
      <trkpt lat="45.609537" lon="10.208506">
        <ele>211.649911</ele>
        <time>2021-03-10T13:39:19.963Z</time>
      </trkpt>
      <trkpt lat="45.609428" lon="10.208588">
        <ele>211.584192</ele>
        <time>2021-03-10T13:39:21.620Z</time>
      </trkpt>
      <trkpt lat="45.609141" lon="10.208688">
        <ele>211.426579</ele>
        <time>2021-03-10T13:39:25.517Z</time>
      </trkpt>
      <trkpt lat="45.609103" lon="10.208588">
        <ele>211.384104</ele>
        <time>2021-03-10T13:39:26.535Z</time>
      </trkpt>
      <trkpt lat="45.609108" lon="10.208405">
        <ele>211.315748</ele>
        <time>2021-03-10T13:39:28.149Z</time>
      </trkpt>
      <trkpt lat="45.609102" lon="10.208129">
        <ele>211.212682</ele>
        <time>2021-03-10T13:39:30.576Z</time>
      </trkpt>
      <trkpt lat="45.608960" lon="10.207649">
        <ele>211.018163</ele>
        <time>2021-03-10T13:39:35.162Z</time>
      </trkpt>
      <trkpt lat="45.608742" lon="10.207124">
        <ele>210.828547</ele>
        <time>2021-03-10T13:39:40.575Z</time>
      </trkpt>
      <trkpt lat="45.608547" lon="10.206772">
        <ele>210.707263</ele>
        <time>2021-03-10T13:39:44.707Z</time>
      </trkpt>
      <trkpt lat="45.608508" lon="10.206520">
        <ele>210.637547</ele>
        <time>2021-03-10T13:39:47.184Z</time>
      </trkpt>
      <trkpt lat="45.608509" lon="10.206513">
        <ele>210.635617</ele>
        <time>2021-03-10T13:39:47.256Z</time>
      </trkpt>
      <trkpt lat="45.608564" lon="10.206272">
        <ele>210.567142</ele>
        <time>2021-03-10T13:39:49.798Z</time>
      </trkpt>
      <trkpt lat="45.608764" lon="10.205897">
        <ele>210.439767</ele>
        <time>2021-03-10T13:39:54.629Z</time>
      </trkpt>
      <trkpt lat="45.608847" lon="10.205746">
        <ele>210.387894</ele>
        <time>2021-03-10T13:39:56.557Z</time>
      </trkpt>
      <trkpt lat="45.609183" lon="10.205185">
        <ele>210.236624</ele>
        <time>2021-03-10T13:40:03.660Z</time>
      </trkpt>
      <trkpt lat="45.609656" lon="10.204703">
        <ele>210.248241</ele>
        <time>2021-03-10T13:40:11.553Z</time>
      </trkpt>
      <trkpt lat="45.609919" lon="10.204598">
        <ele>210.253703</ele>
        <time>2021-03-10T13:40:15.728Z</time>
      </trkpt>
      <trkpt lat="45.609832" lon="10.204415">
        <ele>210.256798</ele>
        <time>2021-03-10T13:40:18.050Z</time>
      </trkpt>
      <trkpt lat="45.609782" lon="10.204267">
        <ele>210.259098</ele>
        <time>2021-03-10T13:40:19.852Z</time>
      </trkpt>
      <trkpt lat="45.609612" lon="10.203393">
        <ele>210.310983</ele>
        <time>2021-03-10T13:40:30.007Z</time>
      </trkpt>
      <trkpt lat="45.609591" lon="10.203290">
        <ele>210.350017</ele>
        <time>2021-03-10T13:40:31.166Z</time>
      </trkpt>
      <trkpt lat="45.609504" lon="10.202845">
        <ele>210.518126</ele>
        <time>2021-03-10T13:40:36.256Z</time>
      </trkpt>
      <trkpt lat="45.609533" lon="10.202683">
        <ele>210.578966</ele>
        <time>2021-03-10T13:40:38.274Z</time>
      </trkpt>
      <trkpt lat="45.609576" lon="10.202592">
        <ele>210.618921</ele>
        <time>2021-03-10T13:40:39.504Z</time>
      </trkpt>
      <trkpt lat="45.609609" lon="10.202571">
        <ele>210.637708</ele>
        <time>2021-03-10T13:40:40.051Z</time>
      </trkpt>
      <trkpt lat="45.609813" lon="10.202549">
        <ele>210.744109</ele>
        <time>2021-03-10T13:40:43.198Z</time>
      </trkpt>
      <trkpt lat="45.610008" lon="10.202430">
        <ele>210.854384</ele>
        <time>2021-03-10T13:40:46.755Z</time>
      </trkpt>
      <trkpt lat="45.610215" lon="10.202325">
        <ele>210.968621</ele>
        <time>2021-03-10T13:40:50.626Z</time>
      </trkpt>
      <trkpt lat="45.610675" lon="10.202066">
        <ele>211.245714</ele>
        <time>2021-03-10T13:40:59.859Z</time>
      </trkpt>
      <trkpt lat="45.610832" lon="10.201899">
        <ele>211.448759</ele>
        <time>2021-03-10T13:41:03.636Z</time>
      </trkpt>
      <trkpt lat="45.610969" lon="10.201635">
        <ele>211.687340</ele>
        <time>2021-03-10T13:41:07.995Z</time>
      </trkpt>
      <trkpt lat="45.611033" lon="10.201323">
        <ele>211.923327</ele>
        <time>2021-03-10T13:41:12.135Z</time>
      </trkpt>
      <trkpt lat="45.610983" lon="10.200345">
        <ele>212.635056</ele>
        <time>2021-03-10T13:41:24.918Z</time>
      </trkpt>
      <trkpt lat="45.611004" lon="10.199984">
        <ele>212.897976</ele>
        <time>2021-03-10T13:41:29.922Z</time>
      </trkpt>
      <trkpt lat="45.611010" lon="10.199888">
        <ele>212.967930</ele>
        <time>2021-03-10T13:41:31.415Z</time>
      </trkpt>
      <trkpt lat="45.611020" lon="10.199397">
        <ele>213.379128</ele>
        <time>2021-03-10T13:41:38.467Z</time>
      </trkpt>
      <trkpt lat="45.611054" lon="10.199006">
        <ele>213.727016</ele>
        <time>2021-03-10T13:41:43.668Z</time>
      </trkpt>
      <trkpt lat="45.611113" lon="10.198865">
        <ele>213.872084</ele>
        <time>2021-03-10T13:41:46.062Z</time>
      </trkpt>
      <trkpt lat="45.611203" lon="10.198850">
        <ele>213.986451</ele>
        <time>2021-03-10T13:41:47.659Z</time>
      </trkpt>
      <trkpt lat="45.611282" lon="10.198717">
        <ele>214.140506</ele>
        <time>2021-03-10T13:41:49.898Z</time>
      </trkpt>
      <trkpt lat="45.611288" lon="10.198651">
        <ele>214.199270</ele>
        <time>2021-03-10T13:41:50.882Z</time>
      </trkpt>
      <trkpt lat="45.611258" lon="10.198534">
        <ele>214.309295</ele>
        <time>2021-03-10T13:41:52.727Z</time>
      </trkpt>
      <trkpt lat="45.611212" lon="10.198477">
        <ele>214.386132</ele>
        <time>2021-03-10T13:41:53.850Z</time>
      </trkpt>
      <trkpt lat="45.611124" lon="10.198452">
        <ele>214.499378</ele>
        <time>2021-03-10T13:41:55.453Z</time>
      </trkpt>
      <trkpt lat="45.611027" lon="10.198363">
        <ele>214.644860</ele>
        <time>2021-03-10T13:41:57.744Z</time>
      </trkpt>
      <trkpt lat="45.610973" lon="10.198267">
        <ele>214.753628</ele>
        <time>2021-03-10T13:41:59.620Z</time>
      </trkpt>
      <trkpt lat="45.610942" lon="10.198134">
        <ele>214.877406</ele>
        <time>2021-03-10T13:42:01.435Z</time>
      </trkpt>
      <trkpt lat="45.610951" lon="10.197722">
        <ele>215.241356</ele>
        <time>2021-03-10T13:42:07.253Z</time>
      </trkpt>
      <trkpt lat="45.610934" lon="10.197613">
        <ele>215.339960</ele>
        <time>2021-03-10T13:42:08.718Z</time>
      </trkpt>
      <trkpt lat="45.610938" lon="10.197355">
        <ele>215.699467</ele>
        <time>2021-03-10T13:42:12.381Z</time>
      </trkpt>
      <trkpt lat="45.610949" lon="10.197133">
        <ele>216.010613</ele>
        <time>2021-03-10T13:42:15.752Z</time>
      </trkpt>
      <trkpt lat="45.610957" lon="10.196619">
        <ele>216.729391</ele>
        <time>2021-03-10T13:42:23.639Z</time>
      </trkpt>
      <trkpt lat="45.610977" lon="10.196094">
        <ele>217.464457</ele>
        <time>2021-03-10T13:42:31.975Z</time>
      </trkpt>
      <trkpt lat="45.610993" lon="10.195715">
        <ele>217.995283</ele>
        <time>2021-03-10T13:42:38.375Z</time>
      </trkpt>
      <trkpt lat="45.611021" lon="10.195093">
        <ele>218.866670</ele>
        <time>2021-03-10T13:42:50.133Z</time>
      </trkpt>
      <trkpt lat="45.611067" lon="10.195045">
        <ele>218.971674</ele>
        <time>2021-03-10T13:42:51.736Z</time>
      </trkpt>
      <trkpt lat="45.611068" lon="10.194964">
        <ele>219.062041</ele>
        <time>2021-03-10T13:42:53.005Z</time>
      </trkpt>
      <trkpt lat="45.611035" lon="10.194918">
        <ele>219.135538</ele>
        <time>2021-03-10T13:42:53.967Z</time>
      </trkpt>
      <trkpt lat="45.610989" lon="10.194916">
        <ele>219.208924</ele>
        <time>2021-03-10T13:42:54.924Z</time>
      </trkpt>
      <trkpt lat="45.610950" lon="10.194607">
        <ele>219.559167</ele>
        <time>2021-03-10T13:43:00.189Z</time>
      </trkpt>
      <trkpt lat="45.610935" lon="10.194191">
        <ele>220.023816</ele>
        <time>2021-03-10T13:43:06.056Z</time>
      </trkpt>
      <trkpt lat="45.610912" lon="10.194086">
        <ele>220.146548</ele>
        <time>2021-03-10T13:43:07.736Z</time>
      </trkpt>
      <trkpt lat="45.610872" lon="10.194016">
        <ele>220.247371</ele>
        <time>2021-03-10T13:43:08.772Z</time>
      </trkpt>
      <trkpt lat="45.610421" lon="10.193411">
        <ele>221.233592</ele>
        <time>2021-03-10T13:43:22.003Z</time>
      </trkpt>
      <trkpt lat="45.610235" lon="10.193602">
        <ele>221.598779</ele>
        <time>2021-03-10T13:43:26.442Z</time>
      </trkpt>
      <trkpt lat="45.610030" lon="10.193756">
        <ele>221.793101</ele>
        <time>2021-03-10T13:43:30.845Z</time>
      </trkpt>
      <trkpt lat="45.609813" lon="10.193813">
        <ele>221.767465</ele>
        <time>2021-03-10T13:43:35.163Z</time>
      </trkpt>
      <trkpt lat="45.609372" lon="10.193666">
        <ele>221.714849</ele>
        <time>2021-03-10T13:43:41.754Z</time>
      </trkpt>
      <trkpt lat="45.609313" lon="10.193649">
        <ele>221.707856</ele>
        <time>2021-03-10T13:43:42.474Z</time>
      </trkpt>
      <trkpt lat="45.609184" lon="10.193604">
        <ele>221.692427</ele>
        <time>2021-03-10T13:43:44.212Z</time>
      </trkpt>
      <trkpt lat="45.608991" lon="10.193537">
        <ele>221.669350</ele>
        <time>2021-03-10T13:43:46.515Z</time>
      </trkpt>
      <trkpt lat="45.608881" lon="10.193499">
        <ele>221.656201</ele>
        <time>2021-03-10T13:43:47.807Z</time>
      </trkpt>
      <trkpt lat="45.608735" lon="10.193448">
        <ele>221.638737</ele>
        <time>2021-03-10T13:43:49.614Z</time>
      </trkpt>
      <trkpt lat="45.608647" lon="10.193417">
        <ele>221.628207</ele>
        <time>2021-03-10T13:43:50.687Z</time>
      </trkpt>
      <trkpt lat="45.608494" lon="10.193310">
        <ele>221.608415</ele>
        <time>2021-03-10T13:43:53.232Z</time>
      </trkpt>
      <trkpt lat="45.608480" lon="10.193295">
        <ele>221.606383</ele>
        <time>2021-03-10T13:43:53.527Z</time>
      </trkpt>
      <trkpt lat="45.608461" lon="10.193290">
        <ele>221.604138</ele>
        <time>2021-03-10T13:43:53.801Z</time>
      </trkpt>
      <trkpt lat="45.608378" lon="10.193239">
        <ele>221.596950</ele>
        <time>2021-03-10T13:43:55.211Z</time>
      </trkpt>
      <trkpt lat="45.608237" lon="10.193122">
        <ele>221.604651</ele>
        <time>2021-03-10T13:43:57.790Z</time>
      </trkpt>
      <trkpt lat="45.607637" lon="10.192754">
        <ele>221.635489</ele>
        <time>2021-03-10T13:44:08.201Z</time>
      </trkpt>
      <trkpt lat="45.607062" lon="10.192482">
        <ele>221.664096</ele>
        <time>2021-03-10T13:44:16.949Z</time>
      </trkpt>
      <trkpt lat="45.606851" lon="10.192377">
        <ele>221.674648</ele>
        <time>2021-03-10T13:44:20.276Z</time>
      </trkpt>
      <trkpt lat="45.606523" lon="10.192226">
        <ele>221.691358</ele>
        <time>2021-03-10T13:44:25.915Z</time>
      </trkpt>
      <trkpt lat="45.605780" lon="10.191822">
        <ele>221.730538</ele>
        <time>2021-03-10T13:44:38.320Z</time>
      </trkpt>
      <trkpt lat="45.605655" lon="10.191754">
        <ele>221.737129</ele>
        <time>2021-03-10T13:44:40.227Z</time>
      </trkpt>
      <trkpt lat="45.605103" lon="10.191295">
        <ele>221.768604</ele>
        <time>2021-03-10T13:44:49.166Z</time>
      </trkpt>
      <trkpt lat="45.605041" lon="10.191240">
        <ele>221.823630</ele>
        <time>2021-03-10T13:44:50.140Z</time>
      </trkpt>
      <trkpt lat="45.604644" lon="10.190876">
        <ele>222.305945</ele>
        <time>2021-03-10T13:44:57.126Z</time>
      </trkpt>
      <trkpt lat="45.604631" lon="10.190862">
        <ele>222.322589</ele>
        <time>2021-03-10T13:44:57.385Z</time>
      </trkpt>
      <trkpt lat="45.604339" lon="10.190556">
        <ele>222.692841</ele>
        <time>2021-03-10T13:45:03.882Z</time>
      </trkpt>
      <trkpt lat="45.604106" lon="10.190277">
        <ele>223.003666</ele>
        <time>2021-03-10T13:45:10.095Z</time>
      </trkpt>
      <trkpt lat="45.604068" lon="10.190239">
        <ele>223.051090</ele>
        <time>2021-03-10T13:45:11.115Z</time>
      </trkpt>
      <trkpt lat="45.603874" lon="10.190022">
        <ele>223.302999</ele>
        <time>2021-03-10T13:45:16.187Z</time>
      </trkpt>
      <trkpt lat="45.603555" lon="10.189734">
        <ele>223.875636</ele>
        <time>2021-03-10T13:45:24.433Z</time>
      </trkpt>
      <trkpt lat="45.602802" lon="10.189269">
        <ele>226.674512</ele>
        <time>2021-03-10T13:45:46.361Z</time>
      </trkpt>
      <trkpt lat="45.602434" lon="10.188970">
        <ele>228.118874</ele>
        <time>2021-03-10T13:45:59.084Z</time>
      </trkpt>
      <trkpt lat="45.602275" lon="10.188814">
        <ele>228.776922</ele>
        <time>2021-03-10T13:46:05.155Z</time>
      </trkpt>
      <trkpt lat="45.602048" lon="10.188552">
        <ele>229.781906</ele>
        <time>2021-03-10T13:46:15.045Z</time>
      </trkpt>
      <trkpt lat="45.601719" lon="10.188110">
        <ele>231.873077</ele>
        <time>2021-03-10T13:46:30.397Z</time>
      </trkpt>
      <trkpt lat="45.601395" lon="10.187833">
        <ele>233.621604</ele>
        <time>2021-03-10T13:46:42.853Z</time>
      </trkpt>
      <trkpt lat="45.601188" lon="10.187651">
        <ele>234.747170</ele>
        <time>2021-03-10T13:46:50.866Z</time>
      </trkpt>
      <trkpt lat="45.601057" lon="10.187541">
        <ele>235.450839</ele>
        <time>2021-03-10T13:46:56.015Z</time>
      </trkpt>
      <trkpt lat="45.600871" lon="10.187339">
        <ele>236.532743</ele>
        <time>2021-03-10T13:47:03.889Z</time>
      </trkpt>
      <trkpt lat="45.600734" lon="10.187198">
        <ele>237.314627</ele>
        <time>2021-03-10T13:47:09.642Z</time>
      </trkpt>
      <trkpt lat="45.600535" lon="10.187000">
        <ele>238.453467</ele>
        <time>2021-03-10T13:47:17.793Z</time>
      </trkpt>
      <trkpt lat="45.600468" lon="10.186913">
        <ele>238.891115</ele>
        <time>2021-03-10T13:47:20.779Z</time>
      </trkpt>
      <trkpt lat="45.600418" lon="10.186791">
        <ele>239.369389</ele>
        <time>2021-03-10T13:47:24.020Z</time>
      </trkpt>
      <trkpt lat="45.599784" lon="10.184729">
        <ele>247.054063</ele>
        <time>2021-03-10T13:48:17.264Z</time>
      </trkpt>
      <trkpt lat="45.599710" lon="10.184004">
        <ele>250.287344</ele>
        <time>2021-03-10T13:48:36.501Z</time>
      </trkpt>
      <trkpt lat="45.599649" lon="10.183614">
        <ele>252.050892</ele>
        <time>2021-03-10T13:48:47.091Z</time>
      </trkpt>
      <trkpt lat="45.599406" lon="10.182607">
        <ele>256.751667</ele>
        <time>2021-03-10T13:49:16.472Z</time>
      </trkpt>
      <trkpt lat="45.599374" lon="10.182424">
        <ele>257.584088</ele>
        <time>2021-03-10T13:49:22.354Z</time>
      </trkpt>
      <trkpt lat="45.599354" lon="10.182012">
        <ele>260.449391</ele>
        <time>2021-03-10T13:49:36.348Z</time>
      </trkpt>
      <trkpt lat="45.599337" lon="10.181649">
        <ele>263.352921</ele>
        <time>2021-03-10T13:49:49.842Z</time>
      </trkpt>
      <trkpt lat="45.599273" lon="10.181295">
        <ele>266.270935</ele>
        <time>2021-03-10T13:50:04.139Z</time>
      </trkpt>
      <trkpt lat="45.599146" lon="10.180952">
        <ele>269.368047</ele>
        <time>2021-03-10T13:50:19.988Z</time>
      </trkpt>
      <trkpt lat="45.598399" lon="10.179359">
        <ele>285.680631</ele>
        <time>2021-03-10T13:51:54.187Z</time>
      </trkpt>
      <trkpt lat="45.598348" lon="10.178814">
        <ele>290.801199</ele>
        <time>2021-03-10T13:52:26.051Z</time>
      </trkpt>
      <trkpt lat="45.598287" lon="10.178322">
        <ele>295.454389</ele>
        <time>2021-03-10T13:52:52.335Z</time>
      </trkpt>
      <trkpt lat="45.598151" lon="10.177977">
        <ele>299.142076</ele>
        <time>2021-03-10T13:53:10.294Z</time>
      </trkpt>
      <trkpt lat="45.598132" lon="10.177916">
        <ele>299.763893</ele>
        <time>2021-03-10T13:53:12.736Z</time>
      </trkpt>
      <trkpt lat="45.597970" lon="10.177251">
        <ele>302.484609</ele>
        <time>2021-03-10T13:53:39.298Z</time>
      </trkpt>
      <trkpt lat="45.597958" lon="10.177106">
        <ele>302.452669</ele>
        <time>2021-03-10T13:53:44.814Z</time>
      </trkpt>
      <trkpt lat="45.597839" lon="10.176132">
        <ele>302.236385</ele>
        <time>2021-03-10T13:53:59.693Z</time>
      </trkpt>
      <trkpt lat="45.597806" lon="10.176003">
        <ele>302.206339</ele>
        <time>2021-03-10T13:54:00.619Z</time>
      </trkpt>
      <trkpt lat="45.597758" lon="10.175886">
        <ele>302.176671</ele>
        <time>2021-03-10T13:54:01.482Z</time>
      </trkpt>
      <trkpt lat="45.597685" lon="10.175802">
        <ele>302.147370</ele>
        <time>2021-03-10T13:54:02.385Z</time>
      </trkpt>
      <trkpt lat="45.597249" lon="10.175483">
        <ele>301.299723</ele>
        <time>2021-03-10T13:54:06.695Z</time>
      </trkpt>
      <trkpt lat="45.597204" lon="10.175395">
        <ele>300.247750</ele>
        <time>2021-03-10T13:54:07.327Z</time>
      </trkpt>
      <trkpt lat="45.597222" lon="10.175315">
        <ele>299.436695</ele>
        <time>2021-03-10T13:54:07.811Z</time>
      </trkpt>
      <trkpt lat="45.597280" lon="10.175266">
        <ele>298.507334</ele>
        <time>2021-03-10T13:54:08.379Z</time>
      </trkpt>
      <trkpt lat="45.597617" lon="10.175088">
        <ele>293.551551</ele>
        <time>2021-03-10T13:54:11.380Z</time>
      </trkpt>
      <trkpt lat="45.597680" lon="10.174974">
        <ele>292.149504</ele>
        <time>2021-03-10T13:54:12.231Z</time>
      </trkpt>
      <trkpt lat="45.597733" lon="10.174804">
        <ele>290.353269</ele>
        <time>2021-03-10T13:54:13.314Z</time>
      </trkpt>
      <trkpt lat="45.597942" lon="10.173505">
        <ele>277.488989</ele>
        <time>2021-03-10T13:54:21.048Z</time>
      </trkpt>
      <trkpt lat="45.597973" lon="10.172968">
        <ele>272.338354</ele>
        <time>2021-03-10T13:54:24.178Z</time>
      </trkpt>
      <trkpt lat="45.597971" lon="10.172225">
        <ele>265.239983</ele>
        <time>2021-03-10T13:54:28.518Z</time>
      </trkpt>
      <trkpt lat="45.597915" lon="10.171925">
        <ele>262.273661</ele>
        <time>2021-03-10T13:54:30.337Z</time>
      </trkpt>
      <trkpt lat="45.597767" lon="10.171399">
        <ele>256.857363</ele>
        <time>2021-03-10T13:54:33.670Z</time>
      </trkpt>
      <trkpt lat="45.597696" lon="10.170804">
        <ele>251.357047</ele>
        <time>2021-03-10T13:54:37.239Z</time>
      </trkpt>
      <trkpt lat="45.597690" lon="10.169544">
        <ele>241.385440</ele>
        <time>2021-03-10T13:54:44.714Z</time>
      </trkpt>
      <trkpt lat="45.597644" lon="10.168001">
        <ele>229.791967</ele>
        <time>2021-03-10T13:54:53.955Z</time>
      </trkpt>
      <trkpt lat="45.597682" lon="10.167232">
        <ele>224.914436</ele>
        <time>2021-03-10T13:54:58.615Z</time>
      </trkpt>
      <trkpt lat="45.597862" lon="10.165209">
        <ele>213.436483</ele>
        <time>2021-03-10T13:55:11.174Z</time>
      </trkpt>
      <trkpt lat="45.597925" lon="10.164488">
        <ele>210.467505</ele>
        <time>2021-03-10T13:55:15.784Z</time>
      </trkpt>
      <trkpt lat="45.598213" lon="10.162050">
        <ele>202.349731</ele>
        <time>2021-03-10T13:55:32.665Z</time>
      </trkpt>
      <trkpt lat="45.598290" lon="10.161296">
        <ele>200.432721</ele>
        <time>2021-03-10T13:55:38.090Z</time>
      </trkpt>
      <trkpt lat="45.598299" lon="10.160617">
        <ele>198.767698</ele>
        <time>2021-03-10T13:55:42.882Z</time>
      </trkpt>
      <trkpt lat="45.598289" lon="10.160533">
        <ele>198.580868</ele>
        <time>2021-03-10T13:55:43.489Z</time>
      </trkpt>
      <trkpt lat="45.598187" lon="10.160296">
        <ele>197.970770</ele>
        <time>2021-03-10T13:55:45.448Z</time>
      </trkpt>
      <trkpt lat="45.597923" lon="10.159986">
        <ele>196.900032</ele>
        <time>2021-03-10T13:55:48.961Z</time>
      </trkpt>
      <trkpt lat="45.597881" lon="10.159789">
        <ele>196.448469</ele>
        <time>2021-03-10T13:55:50.445Z</time>
      </trkpt>
      <trkpt lat="45.597901" lon="10.158933">
        <ele>194.570497</ele>
        <time>2021-03-10T13:55:56.581Z</time>
      </trkpt>
      <trkpt lat="45.597986" lon="10.158291">
        <ele>193.207886</ele>
        <time>2021-03-10T13:56:01.139Z</time>
      </trkpt>
      <trkpt lat="45.598059" lon="10.158144">
        <ele>192.908601</ele>
        <time>2021-03-10T13:56:02.994Z</time>
      </trkpt>
      <trkpt lat="45.598088" lon="10.158072">
        <ele>192.770669</ele>
        <time>2021-03-10T13:56:03.829Z</time>
      </trkpt>
      <trkpt lat="45.598101" lon="10.157894">
        <ele>192.473533</ele>
        <time>2021-03-10T13:56:05.611Z</time>
      </trkpt>
      <trkpt lat="45.597975" lon="10.157217">
        <ele>191.310435</ele>
        <time>2021-03-10T13:56:12.899Z</time>
      </trkpt>
      <trkpt lat="45.598016" lon="10.156152">
        <ele>189.539556</ele>
        <time>2021-03-10T13:56:21.253Z</time>
      </trkpt>
      <trkpt lat="45.597929" lon="10.155751">
        <ele>189.155980</ele>
        <time>2021-03-10T13:56:24.685Z</time>
      </trkpt>
      <trkpt lat="45.597920" lon="10.155735">
        <ele>189.155719</ele>
        <time>2021-03-10T13:56:24.852Z</time>
      </trkpt>
      <trkpt lat="45.597883" lon="10.155640">
        <ele>189.154340</ele>
        <time>2021-03-10T13:56:25.736Z</time>
      </trkpt>
      <trkpt lat="45.597835" lon="10.155558">
        <ele>189.152984</ele>
        <time>2021-03-10T13:56:26.597Z</time>
      </trkpt>
      <trkpt lat="45.597885" lon="10.155439">
        <ele>189.151223</ele>
        <time>2021-03-10T13:56:27.736Z</time>
      </trkpt>
      <trkpt lat="45.597886" lon="10.155051">
        <ele>189.146300</ele>
        <time>2021-03-10T13:56:31.023Z</time>
      </trkpt>
      <trkpt lat="45.597781" lon="10.154202">
        <ele>189.135363</ele>
        <time>2021-03-10T13:56:39.692Z</time>
      </trkpt>
      <trkpt lat="45.597757" lon="10.153308">
        <ele>189.373264</ele>
        <time>2021-03-10T13:56:52.334Z</time>
      </trkpt>
      <trkpt lat="45.597788" lon="10.153148">
        <ele>189.667948</ele>
        <time>2021-03-10T13:56:55.152Z</time>
      </trkpt>
      <trkpt lat="45.597831" lon="10.153053">
        <ele>189.868779</ele>
        <time>2021-03-10T13:56:57.037Z</time>
      </trkpt>
      <trkpt lat="45.597864" lon="10.153021">
        <ele>189.969944</ele>
        <time>2021-03-10T13:56:57.972Z</time>
      </trkpt>
      <trkpt lat="45.597874" lon="10.153001">
        <ele>190.013576</ele>
        <time>2021-03-10T13:56:58.349Z</time>
      </trkpt>
      <trkpt lat="45.597895" lon="10.152963">
        <ele>190.099527</ele>
        <time>2021-03-10T13:56:59.142Z</time>
      </trkpt>
      <trkpt lat="45.598045" lon="10.152868">
        <ele>190.515737</ele>
        <time>2021-03-10T13:57:03.221Z</time>
      </trkpt>
      <trkpt lat="45.598574" lon="10.152710">
        <ele>191.886702</ele>
        <time>2021-03-10T13:57:16.614Z</time>
      </trkpt>
      <trkpt lat="45.598849" lon="10.152588">
        <ele>192.617161</ele>
        <time>2021-03-10T13:57:24.229Z</time>
      </trkpt>
      <trkpt lat="45.599406" lon="10.151975">
        <ele>194.708318</ele>
        <time>2021-03-10T13:57:43.963Z</time>
      </trkpt>
      <trkpt lat="45.599610" lon="10.151755">
        <ele>195.636896</ele>
        <time>2021-03-10T13:57:51.345Z</time>
      </trkpt>
      <trkpt lat="45.599787" lon="10.151660">
        <ele>196.323886</ele>
        <time>2021-03-10T13:57:56.723Z</time>
      </trkpt>
      <trkpt lat="45.599976" lon="10.151702">
        <ele>197.018877</ele>
        <time>2021-03-10T13:58:02.447Z</time>
      </trkpt>
      <trkpt lat="45.600071" lon="10.151776">
        <ele>197.412000</ele>
        <time>2021-03-10T13:58:05.662Z</time>
      </trkpt>
      <trkpt lat="45.600111" lon="10.151857">
        <ele>197.664048</ele>
        <time>2021-03-10T13:58:07.591Z</time>
      </trkpt>
      <trkpt lat="45.600192" lon="10.151855">
        <ele>197.958409</ele>
        <time>2021-03-10T13:58:10.002Z</time>
      </trkpt>
      <trkpt lat="45.600231" lon="10.151750">
        <ele>198.260627</ele>
        <time>2021-03-10T13:58:12.584Z</time>
      </trkpt>
      <trkpt lat="45.600347" lon="10.151748">
        <ele>198.682149</ele>
        <time>2021-03-10T13:58:16.076Z</time>
      </trkpt>
      <trkpt lat="45.600766" lon="10.151800">
        <ele>200.210332</ele>
        <time>2021-03-10T13:58:28.657Z</time>
      </trkpt>
      <trkpt lat="45.601195" lon="10.151798">
        <ele>202.599396</ele>
        <time>2021-03-10T13:58:41.863Z</time>
      </trkpt>
      <trkpt lat="45.601690" lon="10.151747">
        <ele>205.371676</ele>
        <time>2021-03-10T13:58:59.074Z</time>
      </trkpt>
      <trkpt lat="45.602139" lon="10.151621">
        <ele>207.927705</ele>
        <time>2021-03-10T13:59:17.573Z</time>
      </trkpt>
      <trkpt lat="45.602428" lon="10.151580">
        <ele>209.550013</ele>
        <time>2021-03-10T13:59:30.178Z</time>
      </trkpt>
      <trkpt lat="45.602464" lon="10.151582">
        <ele>209.751263</ele>
        <time>2021-03-10T13:59:31.755Z</time>
      </trkpt>
      <trkpt lat="45.602732" lon="10.151469">
        <ele>211.544501</ele>
        <time>2021-03-10T13:59:43.782Z</time>
      </trkpt>
      <trkpt lat="45.603779" lon="10.151013">
        <ele>219.023889</ele>
        <time>2021-03-10T14:00:32.388Z</time>
      </trkpt>
      <trkpt lat="45.604167" lon="10.150835">
        <ele>221.808483</ele>
        <time>2021-03-10T14:00:49.457Z</time>
      </trkpt>
      <trkpt lat="45.604406" lon="10.150790">
        <ele>222.941608</ele>
        <time>2021-03-10T14:00:58.764Z</time>
      </trkpt>
      <trkpt lat="45.604571" lon="10.150800">
        <ele>223.420677</ele>
        <time>2021-03-10T14:01:04.964Z</time>
      </trkpt>
      <trkpt lat="45.604772" lon="10.150813">
        <ele>224.004342</ele>
        <time>2021-03-10T14:01:10.810Z</time>
      </trkpt>
      <trkpt lat="45.604977" lon="10.150823">
        <ele>224.599361</ele>
        <time>2021-03-10T14:01:16.616Z</time>
      </trkpt>
      <trkpt lat="45.605362" lon="10.150803">
        <ele>225.716922</ele>
        <time>2021-03-10T14:01:25.950Z</time>
      </trkpt>
      <trkpt lat="45.605733" lon="10.150921">
        <ele>226.819455</ele>
        <time>2021-03-10T14:01:33.915Z</time>
      </trkpt>
      <trkpt lat="45.605806" lon="10.150913">
        <ele>227.031837</ele>
        <time>2021-03-10T14:01:35.180Z</time>
      </trkpt>
      <trkpt lat="45.605961" lon="10.150821">
        <ele>227.518691</ele>
        <time>2021-03-10T14:01:38.526Z</time>
      </trkpt>
      <trkpt lat="45.606086" lon="10.150609">
        <ele>227.859714</ele>
        <time>2021-03-10T14:01:42.163Z</time>
      </trkpt>
      <trkpt lat="45.606175" lon="10.150544">
        <ele>227.936470</ele>
        <time>2021-03-10T14:01:43.672Z</time>
      </trkpt>
      <trkpt lat="45.606437" lon="10.150566">
        <ele>228.138031</ele>
        <time>2021-03-10T14:01:48.139Z</time>
      </trkpt>
      <trkpt lat="45.606840" lon="10.150669">
        <ele>228.452440</ele>
        <time>2021-03-10T14:01:54.429Z</time>
      </trkpt>
      <trkpt lat="45.607147" lon="10.150641">
        <ele>228.688692</ele>
        <time>2021-03-10T14:01:59.308Z</time>
      </trkpt>
      <trkpt lat="45.607311" lon="10.150626">
        <ele>228.814901</ele>
        <time>2021-03-10T14:02:01.960Z</time>
      </trkpt>
      <trkpt lat="45.607541" lon="10.150751">
        <ele>229.003875</ele>
        <time>2021-03-10T14:02:06.536Z</time>
      </trkpt>
      <trkpt lat="45.607785" lon="10.150836">
        <ele>229.280790</ele>
        <time>2021-03-10T14:02:11.661Z</time>
      </trkpt>
      <trkpt lat="45.608037" lon="10.150904">
        <ele>229.944033</ele>
        <time>2021-03-10T14:02:17.546Z</time>
      </trkpt>
      <trkpt lat="45.608593" lon="10.150980">
        <ele>231.388541</ele>
        <time>2021-03-10T14:02:30.741Z</time>
      </trkpt>
      <trkpt lat="45.609073" lon="10.151009">
        <ele>232.631044</ele>
        <time>2021-03-10T14:02:43.186Z</time>
      </trkpt>
      <trkpt lat="45.610031" lon="10.150831">
        <ele>236.030006</ele>
        <time>2021-03-10T14:03:11.518Z</time>
      </trkpt>
      <trkpt lat="45.610373" lon="10.150892">
        <ele>237.531042</ele>
        <time>2021-03-10T14:03:22.198Z</time>
      </trkpt>
      <trkpt lat="45.610466" lon="10.150913">
        <ele>237.941100</ele>
        <time>2021-03-10T14:03:25.280Z</time>
      </trkpt>
      <trkpt lat="45.610768" lon="10.150955">
        <ele>239.262587</ele>
        <time>2021-03-10T14:03:35.134Z</time>
      </trkpt>
      <trkpt lat="45.611148" lon="10.150900">
        <ele>240.926033</ele>
        <time>2021-03-10T14:03:48.178Z</time>
      </trkpt>
      <trkpt lat="45.611541" lon="10.150803">
        <ele>243.074738</ele>
        <time>2021-03-10T14:04:02.786Z</time>
      </trkpt>
      <trkpt lat="45.611776" lon="10.150785">
        <ele>244.514886</ele>
        <time>2021-03-10T14:04:11.986Z</time>
      </trkpt>
      <trkpt lat="45.612272" lon="10.150717">
        <ele>247.564088</ele>
        <time>2021-03-10T14:04:31.188Z</time>
      </trkpt>
      <trkpt lat="45.612595" lon="10.150572">
        <ele>249.635854</ele>
        <time>2021-03-10T14:04:43.990Z</time>
      </trkpt>
      <trkpt lat="45.612613" lon="10.150564">
        <ele>249.751206</ele>
        <time>2021-03-10T14:04:44.709Z</time>
      </trkpt>
      <trkpt lat="45.612687" lon="10.150541">
        <ele>250.214629</ele>
        <time>2021-03-10T14:04:47.705Z</time>
      </trkpt>
      <trkpt lat="45.612735" lon="10.150536">
        <ele>250.509144</ele>
        <time>2021-03-10T14:04:49.627Z</time>
      </trkpt>
      <trkpt lat="45.613275" lon="10.150655">
        <ele>254.257113</ele>
        <time>2021-03-10T14:05:13.045Z</time>
      </trkpt>
      <trkpt lat="45.613811" lon="10.150455">
        <ele>258.790014</ele>
        <time>2021-03-10T14:05:39.615Z</time>
      </trkpt>
      <trkpt lat="45.613926" lon="10.150444">
        <ele>259.733138</ele>
        <time>2021-03-10T14:05:45.305Z</time>
      </trkpt>
      <trkpt lat="45.614560" lon="10.150591">
        <ele>264.988805</ele>
        <time>2021-03-10T14:06:16.761Z</time>
      </trkpt>
      <trkpt lat="45.615045" lon="10.150652">
        <ele>268.931837</ele>
        <time>2021-03-10T14:06:40.561Z</time>
      </trkpt>
      <trkpt lat="45.615420" lon="10.150618">
        <ele>271.927941</ele>
        <time>2021-03-10T14:06:59.913Z</time>
      </trkpt>
      <trkpt lat="45.615993" lon="10.150566">
        <ele>276.506004</ele>
        <time>2021-03-10T14:07:28.687Z</time>
      </trkpt>
      <trkpt lat="45.616325" lon="10.150555">
        <ele>279.153948</ele>
        <time>2021-03-10T14:07:43.252Z</time>
      </trkpt>
      <trkpt lat="45.616452" lon="10.150599">
        <ele>280.195903</ele>
        <time>2021-03-10T14:07:49.317Z</time>
      </trkpt>
      <trkpt lat="45.616806" lon="10.150880">
        <ele>282.908179</ele>
        <time>2021-03-10T14:08:04.614Z</time>
      </trkpt>
      <trkpt lat="45.617432" lon="10.151231">
        <ele>286.652612</ele>
        <time>2021-03-10T14:08:29.685Z</time>
      </trkpt>
      <trkpt lat="45.617592" lon="10.151270">
        <ele>287.556442</ele>
        <time>2021-03-10T14:08:35.436Z</time>
      </trkpt>
      <trkpt lat="45.617629" lon="10.151279">
        <ele>287.765440</ele>
        <time>2021-03-10T14:08:36.750Z</time>
      </trkpt>
      <trkpt lat="45.618142" lon="10.151449">
        <ele>290.697857</ele>
        <time>2021-03-10T14:08:56.006Z</time>
      </trkpt>
      <trkpt lat="45.618330" lon="10.151546">
        <ele>291.799733</ele>
        <time>2021-03-10T14:09:02.592Z</time>
      </trkpt>
      <trkpt lat="45.618751" lon="10.151979">
        <ele>294.297172</ele>
        <time>2021-03-10T14:09:20.569Z</time>
      </trkpt>
      <trkpt lat="45.618767" lon="10.152029">
        <ele>294.482370</ele>
        <time>2021-03-10T14:09:21.996Z</time>
      </trkpt>
      <trkpt lat="45.618829" lon="10.152024">
        <ele>294.781411</ele>
        <time>2021-03-10T14:09:24.195Z</time>
      </trkpt>
      <trkpt lat="45.619217" lon="10.151989">
        <ele>296.653577</ele>
        <time>2021-03-10T14:09:39.554Z</time>
      </trkpt>
      <trkpt lat="45.619696" lon="10.152052">
        <ele>298.969985</ele>
        <time>2021-03-10T14:09:55.432Z</time>
      </trkpt>
      <trkpt lat="45.619849" lon="10.152007">
        <ele>299.722199</ele>
        <time>2021-03-10T14:09:59.961Z</time>
      </trkpt>
      <trkpt lat="45.620087" lon="10.151796">
        <ele>301.119939</ele>
        <time>2021-03-10T14:10:07.198Z</time>
      </trkpt>
      <trkpt lat="45.620200" lon="10.151730">
        <ele>301.750234</ele>
        <time>2021-03-10T14:10:11.004Z</time>
      </trkpt>
      <trkpt lat="45.620462" lon="10.151632">
        <ele>303.148627</ele>
        <time>2021-03-10T14:10:19.084Z</time>
      </trkpt>
      <trkpt lat="45.620492" lon="10.151578">
        <ele>303.397684</ele>
        <time>2021-03-10T14:10:20.849Z</time>
      </trkpt>
      <trkpt lat="45.620463" lon="10.151487">
        <ele>303.758834</ele>
        <time>2021-03-10T14:10:23.069Z</time>
      </trkpt>
      <trkpt lat="45.620425" lon="10.151467">
        <ele>303.967923</ele>
        <time>2021-03-10T14:10:24.242Z</time>
      </trkpt>
      <trkpt lat="45.620038" lon="10.151570">
        <ele>306.000565</ele>
        <time>2021-03-10T14:10:38.336Z</time>
      </trkpt>
      <trkpt lat="45.619821" lon="10.151693">
        <ele>307.205908</ele>
        <time>2021-03-10T14:10:47.790Z</time>
      </trkpt>
      <trkpt lat="45.619718" lon="10.151665">
        <ele>307.747287</ele>
        <time>2021-03-10T14:10:51.697Z</time>
      </trkpt>
      <trkpt lat="45.619719" lon="10.151603">
        <ele>307.971260</ele>
        <time>2021-03-10T14:10:53.336Z</time>
      </trkpt>
      <trkpt lat="45.619812" lon="10.151522">
        <ele>308.533561</ele>
        <time>2021-03-10T14:10:58.004Z</time>
      </trkpt>
      <trkpt lat="45.620349" lon="10.151216">
        <ele>312.456463</ele>
        <time>2021-03-10T14:11:21.552Z</time>
      </trkpt>
      <trkpt lat="45.620660" lon="10.151208">
        <ele>314.880983</ele>
        <time>2021-03-10T14:11:34.201Z</time>
      </trkpt>
      <trkpt lat="45.621380" lon="10.151038">
        <ele>320.569120</ele>
        <time>2021-03-10T14:12:11.757Z</time>
      </trkpt>
      <trkpt lat="45.622369" lon="10.150965">
        <ele>327.512008</ele>
        <time>2021-03-10T14:12:58.701Z</time>
      </trkpt>
      <trkpt lat="45.622418" lon="10.150906">
        <ele>327.926900</ele>
        <time>2021-03-10T14:13:01.135Z</time>
      </trkpt>
      <trkpt lat="45.622396" lon="10.150845">
        <ele>328.237784</ele>
        <time>2021-03-10T14:13:02.837Z</time>
      </trkpt>
      <trkpt lat="45.622216" lon="10.150840">
        <ele>329.403795</ele>
        <time>2021-03-10T14:13:08.982Z</time>
      </trkpt>
      <trkpt lat="45.622108" lon="10.150875">
        <ele>330.121012</ele>
        <time>2021-03-10T14:13:12.842Z</time>
      </trkpt>
      <trkpt lat="45.621749" lon="10.150806">
        <ele>332.467032</ele>
        <time>2021-03-10T14:13:26.484Z</time>
      </trkpt>
      <trkpt lat="45.621499" lon="10.150714">
        <ele>334.138956</ele>
        <time>2021-03-10T14:13:36.541Z</time>
      </trkpt>
      <trkpt lat="45.620812" lon="10.150598">
        <ele>338.729877</ele>
        <time>2021-03-10T14:14:02.639Z</time>
      </trkpt>
      <trkpt lat="45.620724" lon="10.150573">
        <ele>339.330592</ele>
        <time>2021-03-10T14:14:05.313Z</time>
      </trkpt>
      <trkpt lat="45.620702" lon="10.150532">
        <ele>339.572583</ele>
        <time>2021-03-10T14:14:06.736Z</time>
      </trkpt>
      <trkpt lat="45.620713" lon="10.150475">
        <ele>339.849478</ele>
        <time>2021-03-10T14:14:08.764Z</time>
      </trkpt>
      <trkpt lat="45.620827" lon="10.150412">
        <ele>340.667786</ele>
        <time>2021-03-10T14:14:13.934Z</time>
      </trkpt>
      <trkpt lat="45.621490" lon="10.150450">
        <ele>345.110418</ele>
        <time>2021-03-10T14:14:40.309Z</time>
      </trkpt>
      <trkpt lat="45.622188" lon="10.150432">
        <ele>351.437122</ele>
        <time>2021-03-10T14:15:14.270Z</time>
      </trkpt>
      <trkpt lat="45.622703" lon="10.150242">
        <ele>357.455034</ele>
        <time>2021-03-10T14:15:45.668Z</time>
      </trkpt>
      <trkpt lat="45.622764" lon="10.150208">
        <ele>358.195816</ele>
        <time>2021-03-10T14:15:49.896Z</time>
      </trkpt>
      <trkpt lat="45.622763" lon="10.150137">
        <ele>358.757772</ele>
        <time>2021-03-10T14:15:53.043Z</time>
      </trkpt>
      <trkpt lat="45.622739" lon="10.150104">
        <ele>359.134512</ele>
        <time>2021-03-10T14:15:55.194Z</time>
      </trkpt>
      <trkpt lat="45.622398" lon="10.150228">
        <ele>363.115641</ele>
        <time>2021-03-10T14:16:19.449Z</time>
      </trkpt>
      <trkpt lat="45.622166" lon="10.150250">
        <ele>365.746415</ele>
        <time>2021-03-10T14:16:36.210Z</time>
      </trkpt>
      <trkpt lat="45.622141" lon="10.150184">
        <ele>366.340377</ele>
        <time>2021-03-10T14:16:39.821Z</time>
      </trkpt>
      <trkpt lat="45.622189" lon="10.150103">
        <ele>367.180507</ele>
        <time>2021-03-10T14:16:44.838Z</time>
      </trkpt>
      <trkpt lat="45.622313" lon="10.150035">
        <ele>368.780985</ele>
        <time>2021-03-10T14:16:53.781Z</time>
      </trkpt>
      <trkpt lat="45.622915" lon="10.149816">
        <ele>376.538554</ele>
        <time>2021-03-10T14:17:31.860Z</time>
      </trkpt>
      <trkpt lat="45.622995" lon="10.149642">
        <ele>378.357280</ele>
        <time>2021-03-10T14:17:41.962Z</time>
      </trkpt>
      <trkpt lat="45.623009" lon="10.149545">
        <ele>379.222343</ele>
        <time>2021-03-10T14:17:46.378Z</time>
      </trkpt>
      <trkpt lat="45.622980" lon="10.149219">
        <ele>382.092612</ele>
        <time>2021-03-10T14:18:02.808Z</time>
      </trkpt>
      <trkpt lat="45.623043" lon="10.149026">
        <ele>383.952868</ele>
        <time>2021-03-10T14:18:12.529Z</time>
      </trkpt>
      <trkpt lat="45.623176" lon="10.148959">
        <ele>385.713904</ele>
        <time>2021-03-10T14:18:22.527Z</time>
      </trkpt>
      <trkpt lat="45.623579" lon="10.149263">
        <ele>390.942027</ele>
        <time>2021-03-10T14:18:52.513Z</time>
      </trkpt>
      <trkpt lat="45.623687" lon="10.149280">
        <ele>391.776997</ele>
        <time>2021-03-10T14:18:58.026Z</time>
      </trkpt>
      <trkpt lat="45.623759" lon="10.149229">
        <ele>392.394473</ele>
        <time>2021-03-10T14:19:02.363Z</time>
      </trkpt>
      <trkpt lat="45.623868" lon="10.148984">
        <ele>393.955070</ele>
        <time>2021-03-10T14:19:13.283Z</time>
      </trkpt>
      <trkpt lat="45.624002" lon="10.148807">
        <ele>395.356977</ele>
        <time>2021-03-10T14:19:21.680Z</time>
      </trkpt>
      <trkpt lat="45.624156" lon="10.148754">
        <ele>396.574230</ele>
        <time>2021-03-10T14:19:28.530Z</time>
      </trkpt>
      <trkpt lat="45.624443" lon="10.148784">
        <ele>398.785648</ele>
        <time>2021-03-10T14:19:40.018Z</time>
      </trkpt>
      <trkpt lat="45.624708" lon="10.148750">
        <ele>400.830297</ele>
        <time>2021-03-10T14:19:49.906Z</time>
      </trkpt>
      <trkpt lat="45.624900" lon="10.148802">
        <ele>402.332008</ele>
        <time>2021-03-10T14:19:57.806Z</time>
      </trkpt>
      <trkpt lat="45.625146" lon="10.148978">
        <ele>404.177341</ele>
        <time>2021-03-10T14:20:08.579Z</time>
      </trkpt>
      <trkpt lat="45.625455" lon="10.148972">
        <ele>405.037461</ele>
        <time>2021-03-10T14:20:20.651Z</time>
      </trkpt>
      <trkpt lat="45.625743" lon="10.148801">
        <ele>405.905410</ele>
        <time>2021-03-10T14:20:28.980Z</time>
      </trkpt>
      <trkpt lat="45.625998" lon="10.148789">
        <ele>406.615537</ele>
        <time>2021-03-10T14:20:34.773Z</time>
      </trkpt>
      <trkpt lat="45.626348" lon="10.148877">
        <ele>407.604637</ele>
        <time>2021-03-10T14:20:41.290Z</time>
      </trkpt>
      <trkpt lat="45.626511" lon="10.148949">
        <ele>408.079469</ele>
        <time>2021-03-10T14:20:43.923Z</time>
      </trkpt>
      <trkpt lat="45.627177" lon="10.149052">
        <ele>410.075056</ele>
        <time>2021-03-10T14:20:58.309Z</time>
      </trkpt>
      <trkpt lat="45.628175" lon="10.149304">
        <ele>413.300817</ele>
        <time>2021-03-10T14:21:23.487Z</time>
      </trkpt>
      <trkpt lat="45.628312" lon="10.149298">
        <ele>413.737089</ele>
        <time>2021-03-10T14:21:27.702Z</time>
      </trkpt>
      <trkpt lat="45.628368" lon="10.149214">
        <ele>413.995414</ele>
        <time>2021-03-10T14:21:31.332Z</time>
      </trkpt>
      <trkpt lat="45.628334" lon="10.149156">
        <ele>414.163875</ele>
        <time>2021-03-10T14:21:33.180Z</time>
      </trkpt>
      <trkpt lat="45.628049" lon="10.149068">
        <ele>415.590419</ele>
        <time>2021-03-10T14:21:43.996Z</time>
      </trkpt>
      <trkpt lat="45.627807" lon="10.148885">
        <ele>417.754995</ele>
        <time>2021-03-10T14:21:54.410Z</time>
      </trkpt>
      <trkpt lat="45.627668" lon="10.148800">
        <ele>418.950348</ele>
        <time>2021-03-10T14:22:01.759Z</time>
      </trkpt>
      <trkpt lat="45.627454" lon="10.148792">
        <ele>420.643024</ele>
        <time>2021-03-10T14:22:10.608Z</time>
      </trkpt>
      <trkpt lat="45.627414" lon="10.148775">
        <ele>420.972978</ele>
        <time>2021-03-10T14:22:12.894Z</time>
      </trkpt>
      <trkpt lat="45.627392" lon="10.148728">
        <ele>421.285710</ele>
        <time>2021-03-10T14:22:15.131Z</time>
      </trkpt>
      <trkpt lat="45.627421" lon="10.148678">
        <ele>421.644903</ele>
        <time>2021-03-10T14:22:17.449Z</time>
      </trkpt>
      <trkpt lat="45.627500" lon="10.148632">
        <ele>422.319358</ele>
        <time>2021-03-10T14:22:21.155Z</time>
      </trkpt>
      <trkpt lat="45.627711" lon="10.148590">
        <ele>424.003821</ele>
        <time>2021-03-10T14:22:32.048Z</time>
      </trkpt>
      <trkpt lat="45.627878" lon="10.148612">
        <ele>425.329882</ele>
        <time>2021-03-10T14:22:40.779Z</time>
      </trkpt>
      <trkpt lat="45.628053" lon="10.148676">
        <ele>426.758143</ele>
        <time>2021-03-10T14:22:49.670Z</time>
      </trkpt>
      <trkpt lat="45.628429" lon="10.148729">
        <ele>429.860530</ele>
        <time>2021-03-10T14:23:09.718Z</time>
      </trkpt>
      <trkpt lat="45.628851" lon="10.148878">
        <ele>433.812134</ele>
        <time>2021-03-10T14:23:33.986Z</time>
      </trkpt>
      <trkpt lat="45.629116" lon="10.148861">
        <ele>436.223664</ele>
        <time>2021-03-10T14:23:48.500Z</time>
      </trkpt>
      <trkpt lat="45.629842" lon="10.149032">
        <ele>442.912639</ele>
        <time>2021-03-10T14:24:25.764Z</time>
      </trkpt>
      <trkpt lat="45.630050" lon="10.149035">
        <ele>444.803657</ele>
        <time>2021-03-10T14:24:35.379Z</time>
      </trkpt>
      <trkpt lat="45.630284" lon="10.149080">
        <ele>447.368307</ele>
        <time>2021-03-10T14:24:45.160Z</time>
      </trkpt>
      <trkpt lat="45.630727" lon="10.149324">
        <ele>452.797606</ele>
        <time>2021-03-10T14:25:08.109Z</time>
      </trkpt>
      <trkpt lat="45.631022" lon="10.149619">
        <ele>456.914517</ele>
        <time>2021-03-10T14:25:27.636Z</time>
      </trkpt>
      <trkpt lat="45.631236" lon="10.149785">
        <ele>459.698860</ele>
        <time>2021-03-10T14:25:42.127Z</time>
      </trkpt>
      <trkpt lat="45.631568" lon="10.149939">
        <ele>463.690617</ele>
        <time>2021-03-10T14:26:06.690Z</time>
      </trkpt>
      <trkpt lat="45.631949" lon="10.149958">
        <ele>469.156467</ele>
        <time>2021-03-10T14:26:37.775Z</time>
      </trkpt>
      <trkpt lat="45.632165" lon="10.149917">
        <ele>472.929778</ele>
        <time>2021-03-10T14:26:58.162Z</time>
      </trkpt>
      <trkpt lat="45.632388" lon="10.149763">
        <ele>477.218189</ele>
        <time>2021-03-10T14:27:23.824Z</time>
      </trkpt>
      <trkpt lat="45.632668" lon="10.149520">
        <ele>482.889991</ele>
        <time>2021-03-10T14:27:52.918Z</time>
      </trkpt>
      <trkpt lat="45.632764" lon="10.149400">
        <ele>485.097978</ele>
        <time>2021-03-10T14:28:04.183Z</time>
      </trkpt>
      <trkpt lat="45.633094" lon="10.148549">
        <ele>496.881295</ele>
        <time>2021-03-10T14:28:55.596Z</time>
      </trkpt>
      <trkpt lat="45.633242" lon="10.148310">
        <ele>500.308882</ele>
        <time>2021-03-10T14:29:11.920Z</time>
      </trkpt>
      <trkpt lat="45.633212" lon="10.148164">
        <ele>501.933304</ele>
        <time>2021-03-10T14:29:23.176Z</time>
      </trkpt>
      <trkpt lat="45.633153" lon="10.148186">
        <ele>502.864118</ele>
        <time>2021-03-10T14:29:28.007Z</time>
      </trkpt>
      <trkpt lat="45.633001" lon="10.148510">
        <ele>507.029062</ele>
        <time>2021-03-10T14:29:52.117Z</time>
      </trkpt>
      <trkpt lat="45.632818" lon="10.148760">
        <ele>510.892587</ele>
        <time>2021-03-10T14:30:11.646Z</time>
      </trkpt>
      <trkpt lat="45.632649" lon="10.149089">
        <ele>515.250423</ele>
        <time>2021-03-10T14:30:35.210Z</time>
      </trkpt>
      <trkpt lat="45.632589" lon="10.149106">
        <ele>516.184194</ele>
        <time>2021-03-10T14:30:39.424Z</time>
      </trkpt>
      <trkpt lat="45.632547" lon="10.149080">
        <ele>516.882865</ele>
        <time>2021-03-10T14:30:43.544Z</time>
      </trkpt>
      <trkpt lat="45.632541" lon="10.148977">
        <ele>517.986194</ele>
        <time>2021-03-10T14:30:50.618Z</time>
      </trkpt>
      <trkpt lat="45.632953" lon="10.148235">
        <ele>527.465199</ele>
        <time>2021-03-10T14:31:29.344Z</time>
      </trkpt>
      <trkpt lat="45.633167" lon="10.147694">
        <ele>532.927757</ele>
        <time>2021-03-10T14:31:56.745Z</time>
      </trkpt>
      <trkpt lat="45.633183" lon="10.147389">
        <ele>535.615746</ele>
        <time>2021-03-10T14:32:11.375Z</time>
      </trkpt>
      <trkpt lat="45.633163" lon="10.147338">
        <ele>536.129628</ele>
        <time>2021-03-10T14:32:14.977Z</time>
      </trkpt>
      <trkpt lat="45.633135" lon="10.147340">
        <ele>536.481979</ele>
        <time>2021-03-10T14:32:17.708Z</time>
      </trkpt>
      <trkpt lat="45.633106" lon="10.147360">
        <ele>536.886628</ele>
        <time>2021-03-10T14:32:20.655Z</time>
      </trkpt>
      <trkpt lat="45.633093" lon="10.147454">
        <ele>537.728740</ele>
        <time>2021-03-10T14:32:26.595Z</time>
      </trkpt>
      <trkpt lat="45.633095" lon="10.147706">
        <ele>539.943557</ele>
        <time>2021-03-10T14:32:40.923Z</time>
      </trkpt>
      <trkpt lat="45.633045" lon="10.147817">
        <ele>541.103958</ele>
        <time>2021-03-10T14:32:48.057Z</time>
      </trkpt>
      <trkpt lat="45.632984" lon="10.147803">
        <ele>541.880435</ele>
        <time>2021-03-10T14:32:52.406Z</time>
      </trkpt>
      <trkpt lat="45.632964" lon="10.147767">
        <ele>542.284518</ele>
        <time>2021-03-10T14:32:54.616Z</time>
      </trkpt>
      <trkpt lat="45.632982" lon="10.147540">
        <ele>544.292274</ele>
        <time>2021-03-10T14:33:04.980Z</time>
      </trkpt>
      <trkpt lat="45.633095" lon="10.146987">
        <ele>547.705672</ele>
        <time>2021-03-10T14:33:26.011Z</time>
      </trkpt>
      <trkpt lat="45.633114" lon="10.146767">
        <ele>548.221434</ele>
        <time>2021-03-10T14:33:32.595Z</time>
      </trkpt>
      <trkpt lat="45.633094" lon="10.146578">
        <ele>548.666186</ele>
        <time>2021-03-10T14:33:37.489Z</time>
      </trkpt>
      <trkpt lat="45.633115" lon="10.146423">
        <ele>549.033530</ele>
        <time>2021-03-10T14:33:41.164Z</time>
      </trkpt>
      <trkpt lat="45.633374" lon="10.145616">
        <ele>551.099496</ele>
        <time>2021-03-10T14:33:55.689Z</time>
      </trkpt>
      <trkpt lat="45.633299" lon="10.145196">
        <ele>552.108065</ele>
        <time>2021-03-10T14:33:59.498Z</time>
      </trkpt>
      <trkpt lat="45.633294" lon="10.144998">
        <ele>552.569049</ele>
        <time>2021-03-10T14:34:01.179Z</time>
      </trkpt>
      <trkpt lat="45.633398" lon="10.144708">
        <ele>553.304167</ele>
        <time>2021-03-10T14:34:03.821Z</time>
      </trkpt>
      <trkpt lat="45.633466" lon="10.144269">
        <ele>554.245307</ele>
        <time>2021-03-10T14:34:07.823Z</time>
      </trkpt>
      <trkpt lat="45.633523" lon="10.144118">
        <ele>554.604476</ele>
        <time>2021-03-10T14:34:09.812Z</time>
      </trkpt>
      <trkpt lat="45.633607" lon="10.143970">
        <ele>555.003455</ele>
        <time>2021-03-10T14:34:12.128Z</time>
      </trkpt>
      <trkpt lat="45.633763" lon="10.143910">
        <ele>555.487010</ele>
        <time>2021-03-10T14:34:15.254Z</time>
      </trkpt>
      <trkpt lat="45.633952" lon="10.143963">
        <ele>556.063526</ele>
        <time>2021-03-10T14:34:19.922Z</time>
      </trkpt>
      <trkpt lat="45.634119" lon="10.144073">
        <ele>556.613887</ele>
        <time>2021-03-10T14:34:24.737Z</time>
      </trkpt>
      <trkpt lat="45.634350" lon="10.144261">
        <ele>557.409475</ele>
        <time>2021-03-10T14:34:32.871Z</time>
      </trkpt>
      <trkpt lat="45.634587" lon="10.144543">
        <ele>558.332331</ele>
        <time>2021-03-10T14:34:45.223Z</time>
      </trkpt>
      <trkpt lat="45.635097" lon="10.144467">
        <ele>563.636958</ele>
        <time>2021-03-10T14:35:12.560Z</time>
      </trkpt>
      <trkpt lat="45.635568" lon="10.144349">
        <ele>568.959068</ele>
        <time>2021-03-10T14:35:43.313Z</time>
      </trkpt>
      <trkpt lat="45.635734" lon="10.144308">
        <ele>570.834016</ele>
        <time>2021-03-10T14:35:54.162Z</time>
      </trkpt>
      <trkpt lat="45.635875" lon="10.144355">
        <ele>572.445424</ele>
        <time>2021-03-10T14:36:04.527Z</time>
      </trkpt>
      <trkpt lat="45.635959" lon="10.144419">
        <ele>573.504748</ele>
        <time>2021-03-10T14:36:10.696Z</time>
      </trkpt>
      <trkpt lat="45.636184" lon="10.144712">
        <ele>576.891605</ele>
        <time>2021-03-10T14:36:31.389Z</time>
      </trkpt>
      <trkpt lat="45.636352" lon="10.144967">
        <ele>579.370190</ele>
        <time>2021-03-10T14:36:46.822Z</time>
      </trkpt>
      <trkpt lat="45.636502" lon="10.145123">
        <ele>580.976755</ele>
        <time>2021-03-10T14:36:57.963Z</time>
      </trkpt>
      <trkpt lat="45.636677" lon="10.145188">
        <ele>582.542947</ele>
        <time>2021-03-10T14:37:08.686Z</time>
      </trkpt>
      <trkpt lat="45.636874" lon="10.145222">
        <ele>584.261802</ele>
        <time>2021-03-10T14:37:19.406Z</time>
      </trkpt>
      <trkpt lat="45.636976" lon="10.145312">
        <ele>585.299978</ele>
        <time>2021-03-10T14:37:25.952Z</time>
      </trkpt>
      <trkpt lat="45.637217" lon="10.145669">
        <ele>588.305542</ele>
        <time>2021-03-10T14:37:43.792Z</time>
      </trkpt>
      <trkpt lat="45.637616" lon="10.145895">
        <ele>592.022984</ele>
        <time>2021-03-10T14:38:01.627Z</time>
      </trkpt>
      <trkpt lat="45.637697" lon="10.146079">
        <ele>593.339889</ele>
        <time>2021-03-10T14:38:06.716Z</time>
      </trkpt>
      <trkpt lat="45.637734" lon="10.146524">
        <ele>594.986841</ele>
        <time>2021-03-10T14:38:17.145Z</time>
      </trkpt>
      <trkpt lat="45.637681" lon="10.148509">
        <ele>600.513999</ele>
        <time>2021-03-10T14:38:58.813Z</time>
      </trkpt>
      <trkpt lat="45.637698" lon="10.148930">
        <ele>601.807633</ele>
        <time>2021-03-10T14:39:06.302Z</time>
      </trkpt>
      <trkpt lat="45.637743" lon="10.149098">
        <ele>602.442073</ele>
        <time>2021-03-10T14:39:09.774Z</time>
      </trkpt>
      <trkpt lat="45.637756" lon="10.149147">
        <ele>602.626894</ele>
        <time>2021-03-10T14:39:10.765Z</time>
      </trkpt>
      <trkpt lat="45.637918" lon="10.149304">
        <ele>603.613887</ele>
        <time>2021-03-10T14:39:15.543Z</time>
      </trkpt>
      <trkpt lat="45.638374" lon="10.149587">
        <ele>606.121002</ele>
        <time>2021-03-10T14:39:31.732Z</time>
      </trkpt>
      <trkpt lat="45.638587" lon="10.149761">
        <ele>607.358194</ele>
        <time>2021-03-10T14:39:40.103Z</time>
      </trkpt>
      <trkpt lat="45.639049" lon="10.150176">
        <ele>610.109830</ele>
        <time>2021-03-10T14:40:01.432Z</time>
      </trkpt>
      <trkpt lat="45.639177" lon="10.150378">
        <ele>611.441142</ele>
        <time>2021-03-10T14:40:09.715Z</time>
      </trkpt>
      <trkpt lat="45.639568" lon="10.150977">
        <ele>615.734296</ele>
        <time>2021-03-10T14:40:41.882Z</time>
      </trkpt>
      <trkpt lat="45.639655" lon="10.151064">
        <ele>616.529720</ele>
        <time>2021-03-10T14:40:48.167Z</time>
      </trkpt>
      <trkpt lat="45.639910" lon="10.151255">
        <ele>618.686586</ele>
        <time>2021-03-10T14:41:04.408Z</time>
      </trkpt>
      <trkpt lat="45.639988" lon="10.151367">
        <ele>619.514754</ele>
        <time>2021-03-10T14:41:10.353Z</time>
      </trkpt>
      <trkpt lat="45.640191" lon="10.151986">
        <ele>623.096606</ele>
        <time>2021-03-10T14:41:30.181Z</time>
      </trkpt>
      <trkpt lat="45.640388" lon="10.152239">
        <ele>623.590646</ele>
        <time>2021-03-10T14:41:37.382Z</time>
      </trkpt>
      <trkpt lat="45.640473" lon="10.152513">
        <ele>623.352803</ele>
        <time>2021-03-10T14:41:40.158Z</time>
      </trkpt>
      <trkpt lat="45.640533" lon="10.152615">
        <ele>623.247038</ele>
        <time>2021-03-10T14:41:41.236Z</time>
      </trkpt>
      <trkpt lat="45.640601" lon="10.152641">
        <ele>623.167159</ele>
        <time>2021-03-10T14:41:41.975Z</time>
      </trkpt>
      <trkpt lat="45.640719" lon="10.152596">
        <ele>623.028568</ele>
        <time>2021-03-10T14:41:43.149Z</time>
      </trkpt>
      <trkpt lat="45.640755" lon="10.152515">
        <ele>622.952413</ele>
        <time>2021-03-10T14:41:43.778Z</time>
      </trkpt>
      <trkpt lat="45.640770" lon="10.152330">
        <ele>622.804644</ele>
        <time>2021-03-10T14:41:45.034Z</time>
      </trkpt>
      <trkpt lat="45.640730" lon="10.151299">
        <ele>621.985351</ele>
        <time>2021-03-10T14:41:52.414Z</time>
      </trkpt>
      <trkpt lat="45.640633" lon="10.150870">
        <ele>622.267518</ele>
        <time>2021-03-10T14:41:55.800Z</time>
      </trkpt>
      <trkpt lat="45.640505" lon="10.150564">
        <ele>623.521458</ele>
        <time>2021-03-10T14:41:58.884Z</time>
      </trkpt>
      <trkpt lat="45.640500" lon="10.150436">
        <ele>623.972275</ele>
        <time>2021-03-10T14:42:00.107Z</time>
      </trkpt>
      <trkpt lat="45.640554" lon="10.150340">
        <ele>624.405554</ele>
        <time>2021-03-10T14:42:01.516Z</time>
      </trkpt>
      <trkpt lat="45.640708" lon="10.150371">
        <ele>625.187754</ele>
        <time>2021-03-10T14:42:05.242Z</time>
      </trkpt>
      <trkpt lat="45.640903" lon="10.150408">
        <ele>626.177129</ele>
        <time>2021-03-10T14:42:10.747Z</time>
      </trkpt>
      <trkpt lat="45.641458" lon="10.150528">
        <ele>629.000299</ele>
        <time>2021-03-10T14:42:38.807Z</time>
      </trkpt>
      <trkpt lat="45.642025" lon="10.150691">
        <ele>631.899324</ele>
        <time>2021-03-10T14:43:14.880Z</time>
      </trkpt>
      <trkpt lat="45.642472" lon="10.150767">
        <ele>634.143509</ele>
        <time>2021-03-10T14:43:38.143Z</time>
      </trkpt>
      <trkpt lat="45.642558" lon="10.150812">
        <ele>634.600047</ele>
        <time>2021-03-10T14:43:41.413Z</time>
      </trkpt>
      <trkpt lat="45.642948" lon="10.151117">
        <ele>636.816016</ele>
        <time>2021-03-10T14:43:55.047Z</time>
      </trkpt>
      <trkpt lat="45.643018" lon="10.151086">
        <ele>637.181342</ele>
        <time>2021-03-10T14:43:56.892Z</time>
      </trkpt>
      <trkpt lat="45.643029" lon="10.150973">
        <ele>637.578999</ele>
        <time>2021-03-10T14:43:58.138Z</time>
      </trkpt>
      <trkpt lat="45.642974" lon="10.150818">
        <ele>638.184847</ele>
        <time>2021-03-10T14:44:00.047Z</time>
      </trkpt>
      <trkpt lat="45.642730" lon="10.150345">
        <ele>639.789231</ele>
        <time>2021-03-10T14:44:05.809Z</time>
      </trkpt>
      <trkpt lat="45.642678" lon="10.150235">
        <ele>639.818701</ele>
        <time>2021-03-10T14:44:07.150Z</time>
      </trkpt>
      <trkpt lat="45.642531" lon="10.149985">
        <ele>639.891202</ele>
        <time>2021-03-10T14:44:09.720Z</time>
      </trkpt>
      <trkpt lat="45.642454" lon="10.149745">
        <ele>639.949809</ele>
        <time>2021-03-10T14:44:11.983Z</time>
      </trkpt>
      <trkpt lat="45.642441" lon="10.149299">
        <ele>640.048881</ele>
        <time>2021-03-10T14:44:15.579Z</time>
      </trkpt>
      <trkpt lat="45.642474" lon="10.148879">
        <ele>640.142683</ele>
        <time>2021-03-10T14:44:18.822Z</time>
      </trkpt>
      <trkpt lat="45.642448" lon="10.148812">
        <ele>640.159690</ele>
        <time>2021-03-10T14:44:19.487Z</time>
      </trkpt>
      <trkpt lat="45.642424" lon="10.148653">
        <ele>640.195792</ele>
        <time>2021-03-10T14:44:21.715Z</time>
      </trkpt>
      <trkpt lat="45.642451" lon="10.148525">
        <ele>640.225466</ele>
        <time>2021-03-10T14:44:24.161Z</time>
      </trkpt>
      <trkpt lat="45.642633" lon="10.148287">
        <ele>640.303749</ele>
        <time>2021-03-10T14:44:32.223Z</time>
      </trkpt>
      <trkpt lat="45.642984" lon="10.147950">
        <ele>640.612722</ele>
        <time>2021-03-10T14:44:44.783Z</time>
      </trkpt>
      <trkpt lat="45.643202" lon="10.147862">
        <ele>640.801038</ele>
        <time>2021-03-10T14:44:50.955Z</time>
      </trkpt>
      <trkpt lat="45.643975" lon="10.147945">
        <ele>641.445489</ele>
        <time>2021-03-10T14:45:08.003Z</time>
      </trkpt>
      <trkpt lat="45.644010" lon="10.147916">
        <ele>641.479116</ele>
        <time>2021-03-10T14:45:08.522Z</time>
      </trkpt>
      <trkpt lat="45.644016" lon="10.147865">
        <ele>641.509175</ele>
        <time>2021-03-10T14:45:08.913Z</time>
      </trkpt>
      <trkpt lat="45.643964" lon="10.147551">
        <ele>641.696727</ele>
        <time>2021-03-10T14:45:11.414Z</time>
      </trkpt>
      <trkpt lat="45.643958" lon="10.147342">
        <ele>641.818304</ele>
        <time>2021-03-10T14:45:12.982Z</time>
      </trkpt>
      <trkpt lat="45.643988" lon="10.147197">
        <ele>641.372543</ele>
        <time>2021-03-10T14:45:14.016Z</time>
      </trkpt>
      <trkpt lat="45.643994" lon="10.147183">
        <ele>641.319113</ele>
        <time>2021-03-10T14:45:14.130Z</time>
      </trkpt>
      <trkpt lat="45.644042" lon="10.147075">
        <ele>640.902721</ele>
        <time>2021-03-10T14:45:15.022Z</time>
      </trkpt>
      <trkpt lat="45.644136" lon="10.146952">
        <ele>640.309809</ele>
        <time>2021-03-10T14:45:16.272Z</time>
      </trkpt>
      <trkpt lat="45.644154" lon="10.146887">
        <ele>640.082334</ele>
        <time>2021-03-10T14:45:16.720Z</time>
      </trkpt>
      <trkpt lat="45.644146" lon="10.146820">
        <ele>639.861182</ele>
        <time>2021-03-10T14:45:17.150Z</time>
      </trkpt>
      <trkpt lat="45.643968" lon="10.146591">
        <ele>638.746991</ele>
        <time>2021-03-10T14:45:19.373Z</time>
      </trkpt>
      <trkpt lat="45.643875" lon="10.146297">
        <ele>637.697049</ele>
        <time>2021-03-10T14:45:21.383Z</time>
      </trkpt>
      <trkpt lat="45.643622" lon="10.146227">
        <ele>636.497765</ele>
        <time>2021-03-10T14:45:23.647Z</time>
      </trkpt>
      <trkpt lat="45.642847" lon="10.145560">
        <ele>633.812680</ele>
        <time>2021-03-10T14:45:32.367Z</time>
      </trkpt>
      <trkpt lat="45.642501" lon="10.144994">
        <ele>634.564194</ele>
        <time>2021-03-10T14:45:41.603Z</time>
      </trkpt>
      <trkpt lat="45.642456" lon="10.144820">
        <ele>634.749634</ele>
        <time>2021-03-10T14:45:45.096Z</time>
      </trkpt>
      <trkpt lat="45.642482" lon="10.144734">
        <ele>634.843289</ele>
        <time>2021-03-10T14:45:47.140Z</time>
      </trkpt>
      <trkpt lat="45.642982" lon="10.144181">
        <ele>635.746918</ele>
        <time>2021-03-10T14:46:07.130Z</time>
      </trkpt>
      <trkpt lat="45.644065" lon="10.143509">
        <ele>636.728155</ele>
        <time>2021-03-10T14:46:41.797Z</time>
      </trkpt>
      <trkpt lat="45.644182" lon="10.143409">
        <ele>636.825284</ele>
        <time>2021-03-10T14:46:43.691Z</time>
      </trkpt>
      <trkpt lat="45.644236" lon="10.143249">
        <ele>636.913800</ele>
        <time>2021-03-10T14:46:45.184Z</time>
      </trkpt>
      <trkpt lat="45.644280" lon="10.142834">
        <ele>637.122921</ele>
        <time>2021-03-10T14:46:48.076Z</time>
      </trkpt>
      <trkpt lat="45.644339" lon="10.142589">
        <ele>637.252021</ele>
        <time>2021-03-10T14:46:49.898Z</time>
      </trkpt>
      <trkpt lat="45.644415" lon="10.142442">
        <ele>637.391321</ele>
        <time>2021-03-10T14:46:51.030Z</time>
      </trkpt>
      <trkpt lat="45.644845" lon="10.142277">
        <ele>638.141221</ele>
        <time>2021-03-10T14:46:55.468Z</time>
      </trkpt>
      <trkpt lat="45.644889" lon="10.142194">
        <ele>638.263881</ele>
        <time>2021-03-10T14:46:56.472Z</time>
      </trkpt>
      <trkpt lat="45.644899" lon="10.142027">
        <ele>638.461255</ele>
        <time>2021-03-10T14:46:58.360Z</time>
      </trkpt>
      <trkpt lat="45.644818" lon="10.141556">
        <ele>639.032425</ele>
        <time>2021-03-10T14:47:04.398Z</time>
      </trkpt>
      <trkpt lat="45.644835" lon="10.141351">
        <ele>639.275519</ele>
        <time>2021-03-10T14:47:06.878Z</time>
      </trkpt>
      <trkpt lat="45.645004" lon="10.140926">
        <ele>639.851279</ele>
        <time>2021-03-10T14:47:18.865Z</time>
      </trkpt>
      <trkpt lat="45.645110" lon="10.140738">
        <ele>640.135688</ele>
        <time>2021-03-10T14:47:26.690Z</time>
      </trkpt>
      <trkpt lat="45.645310" lon="10.140556">
        <ele>641.437393</ele>
        <time>2021-03-10T14:47:37.481Z</time>
      </trkpt>
      <trkpt lat="45.645596" lon="10.140450">
        <ele>644.208018</ele>
        <time>2021-03-10T14:47:53.416Z</time>
      </trkpt>
      <trkpt lat="45.645827" lon="10.140472">
        <ele>646.379091</ele>
        <time>2021-03-10T14:48:07.376Z</time>
      </trkpt>
      <trkpt lat="45.646529" lon="10.140944">
        <ele>653.653304</ele>
        <time>2021-03-10T14:48:57.079Z</time>
      </trkpt>
      <trkpt lat="45.647027" lon="10.141141">
        <ele>656.863876</ele>
        <time>2021-03-10T14:49:22.513Z</time>
      </trkpt>
      <trkpt lat="45.647567" lon="10.141089">
        <ele>655.526921</ele>
        <time>2021-03-10T14:49:33.683Z</time>
      </trkpt>
      <trkpt lat="45.648305" lon="10.140901">
        <ele>653.675194</ele>
        <time>2021-03-10T14:49:40.639Z</time>
      </trkpt>
      <trkpt lat="45.649085" lon="10.140669">
        <ele>648.879975</ele>
        <time>2021-03-10T14:49:47.549Z</time>
      </trkpt>
      <trkpt lat="45.649491" lon="10.140469">
        <ele>644.975218</ele>
        <time>2021-03-10T14:49:51.272Z</time>
      </trkpt>
      <trkpt lat="45.649865" lon="10.140412">
        <ele>641.554981</ele>
        <time>2021-03-10T14:49:54.536Z</time>
      </trkpt>
      <trkpt lat="45.650757" lon="10.140411">
        <ele>633.636251</ele>
        <time>2021-03-10T14:50:02.289Z</time>
      </trkpt>
      <trkpt lat="45.652317" lon="10.140559">
        <ele>620.595080</ele>
        <time>2021-03-10T14:50:15.979Z</time>
      </trkpt>
      <trkpt lat="45.652475" lon="10.140576">
        <ele>619.687194</ele>
        <time>2021-03-10T14:50:17.387Z</time>
      </trkpt>
      <trkpt lat="45.652586" lon="10.140659">
        <ele>618.969532</ele>
        <time>2021-03-10T14:50:18.539Z</time>
      </trkpt>
      <trkpt lat="45.652644" lon="10.140785">
        <ele>618.365270</ele>
        <time>2021-03-10T14:50:19.511Z</time>
      </trkpt>
      <trkpt lat="45.652721" lon="10.141218">
        <ele>616.575753</ele>
        <time>2021-03-10T14:50:22.436Z</time>
      </trkpt>
      <trkpt lat="45.652847" lon="10.142350">
        <ele>611.984688</ele>
        <time>2021-03-10T14:50:29.979Z</time>
      </trkpt>
      <trkpt lat="45.652930" lon="10.142608">
        <ele>610.847148</ele>
        <time>2021-03-10T14:50:31.849Z</time>
      </trkpt>
      <trkpt lat="45.653176" lon="10.143168">
        <ele>608.001930</ele>
        <time>2021-03-10T14:50:36.365Z</time>
      </trkpt>
      <trkpt lat="45.653255" lon="10.143251">
        <ele>607.398097</ele>
        <time>2021-03-10T14:50:37.292Z</time>
      </trkpt>
      <trkpt lat="45.653331" lon="10.143240">
        <ele>606.927500</ele>
        <time>2021-03-10T14:50:37.994Z</time>
      </trkpt>
      <trkpt lat="45.653372" lon="10.143175">
        <ele>606.550476</ele>
        <time>2021-03-10T14:50:38.563Z</time>
      </trkpt>
      <trkpt lat="45.653538" lon="10.142554">
        <ele>603.687422</ele>
        <time>2021-03-10T14:50:42.803Z</time>
      </trkpt>
      <trkpt lat="45.653540" lon="10.142367">
        <ele>602.882061</ele>
        <time>2021-03-10T14:50:43.976Z</time>
      </trkpt>
      <trkpt lat="45.653575" lon="10.142164">
        <ele>601.981694</ele>
        <time>2021-03-10T14:50:45.269Z</time>
      </trkpt>
      <trkpt lat="45.653637" lon="10.141975">
        <ele>601.082644</ele>
        <time>2021-03-10T14:50:46.564Z</time>
      </trkpt>
      <trkpt lat="45.653646" lon="10.141959">
        <ele>600.994206</ele>
        <time>2021-03-10T14:50:46.690Z</time>
      </trkpt>
      <trkpt lat="45.653898" lon="10.141506">
        <ele>598.643156</ele>
        <time>2021-03-10T14:50:50.233Z</time>
      </trkpt>
      <trkpt lat="45.654047" lon="10.140532">
        <ele>594.847161</ele>
        <time>2021-03-10T14:50:56.541Z</time>
      </trkpt>
      <trkpt lat="45.654085" lon="10.140155">
        <ele>593.396998</ele>
        <time>2021-03-10T14:50:59.167Z</time>
      </trkpt>
      <trkpt lat="45.654036" lon="10.139720">
        <ele>591.719496</ele>
        <time>2021-03-10T14:51:02.224Z</time>
      </trkpt>
      <trkpt lat="45.654046" lon="10.139482">
        <ele>590.811745</ele>
        <time>2021-03-10T14:51:03.873Z</time>
      </trkpt>
      <trkpt lat="45.653997" lon="10.139154">
        <ele>589.518381</ele>
        <time>2021-03-10T14:51:06.228Z</time>
      </trkpt>
      <trkpt lat="45.654157" lon="10.139091">
        <ele>588.577013</ele>
        <time>2021-03-10T14:51:07.888Z</time>
      </trkpt>
      <trkpt lat="45.654197" lon="10.139081">
        <ele>588.346669</ele>
        <time>2021-03-10T14:51:08.291Z</time>
      </trkpt>
      <trkpt lat="45.654335" lon="10.139400">
        <ele>586.859158</ele>
        <time>2021-03-10T14:51:10.885Z</time>
      </trkpt>
      <trkpt lat="45.654478" lon="10.139546">
        <ele>585.862590</ele>
        <time>2021-03-10T14:51:12.575Z</time>
      </trkpt>
      <trkpt lat="45.654571" lon="10.139505">
        <ele>585.310555</ele>
        <time>2021-03-10T14:51:13.495Z</time>
      </trkpt>
      <trkpt lat="45.655237" lon="10.138168">
        <ele>578.056911</ele>
        <time>2021-03-10T14:51:23.916Z</time>
      </trkpt>
      <trkpt lat="45.655547" lon="10.137394">
        <ele>571.679124</ele>
        <time>2021-03-10T14:51:29.225Z</time>
      </trkpt>
      <trkpt lat="45.655576" lon="10.137223">
        <ele>570.421095</ele>
        <time>2021-03-10T14:51:30.260Z</time>
      </trkpt>
      <trkpt lat="45.655722" lon="10.136751">
        <ele>566.730880</ele>
        <time>2021-03-10T14:51:33.283Z</time>
      </trkpt>
      <trkpt lat="45.656142" lon="10.135972">
        <ele>560.123659</ele>
        <time>2021-03-10T14:51:39.214Z</time>
      </trkpt>
      <trkpt lat="45.656540" lon="10.134979">
        <ele>554.078252</ele>
        <time>2021-03-10T14:51:46.382Z</time>
      </trkpt>
      <trkpt lat="45.656624" lon="10.134929">
        <ele>553.390811</ele>
        <time>2021-03-10T14:51:47.199Z</time>
      </trkpt>
      <trkpt lat="45.656725" lon="10.134917">
        <ele>552.625031</ele>
        <time>2021-03-10T14:51:48.126Z</time>
      </trkpt>
      <trkpt lat="45.657105" lon="10.134929">
        <ele>549.753064</ele>
        <time>2021-03-10T14:51:51.532Z</time>
      </trkpt>
      <trkpt lat="45.657221" lon="10.134856">
        <ele>548.795529</ele>
        <time>2021-03-10T14:51:52.650Z</time>
      </trkpt>
      <trkpt lat="45.657311" lon="10.134725">
        <ele>547.825428</ele>
        <time>2021-03-10T14:51:53.799Z</time>
      </trkpt>
      <trkpt lat="45.657382" lon="10.134513">
        <ele>546.734216</ele>
        <time>2021-03-10T14:51:55.277Z</time>
      </trkpt>
      <trkpt lat="45.657401" lon="10.134410">
        <ele>546.244825</ele>
        <time>2021-03-10T14:51:55.934Z</time>
      </trkpt>
      <trkpt lat="45.657471" lon="10.134040">
        <ele>544.483852</ele>
        <time>2021-03-10T14:51:58.423Z</time>
      </trkpt>
      <trkpt lat="45.657610" lon="10.133230">
        <ele>540.652150</ele>
        <time>2021-03-10T14:52:04.011Z</time>
      </trkpt>
      <trkpt lat="45.657728" lon="10.132341">
        <ele>536.495050</ele>
        <time>2021-03-10T14:52:09.618Z</time>
      </trkpt>
      <trkpt lat="45.657865" lon="10.131856">
        <ele>533.904385</ele>
        <time>2021-03-10T14:52:12.818Z</time>
      </trkpt>
      <trkpt lat="45.657908" lon="10.131711">
        <ele>533.106439</ele>
        <time>2021-03-10T14:52:13.796Z</time>
      </trkpt>
      <trkpt lat="45.657946" lon="10.131243">
        <ele>530.719633</ele>
        <time>2021-03-10T14:52:16.693Z</time>
      </trkpt>
      <trkpt lat="45.657967" lon="10.130501">
        <ele>526.957625</ele>
        <time>2021-03-10T14:52:21.327Z</time>
      </trkpt>
      <trkpt lat="45.658040" lon="10.129800">
        <ele>523.367203</ele>
        <time>2021-03-10T14:52:25.870Z</time>
      </trkpt>
      <trkpt lat="45.658089" lon="10.129628">
        <ele>522.542609</ele>
        <time>2021-03-10T14:52:27.074Z</time>
      </trkpt>
      <trkpt lat="45.658077" lon="10.129472">
        <ele>521.951303</ele>
        <time>2021-03-10T14:52:28.065Z</time>
      </trkpt>
      <trkpt lat="45.658003" lon="10.129431">
        <ele>521.523536</ele>
        <time>2021-03-10T14:52:28.789Z</time>
      </trkpt>
      <trkpt lat="45.657789" lon="10.129623">
        <ele>520.161901</ele>
        <time>2021-03-10T14:52:31.091Z</time>
      </trkpt>
      <trkpt lat="45.657202" lon="10.130258">
        <ele>516.194963</ele>
        <time>2021-03-10T14:52:37.821Z</time>
      </trkpt>
      <trkpt lat="45.657202" lon="10.130258">
        <ele>516.194963</ele>
        <time>2021-03-10T14:52:37.825Z</time>
      </trkpt>
      <trkpt lat="45.657117" lon="10.130262">
        <ele>515.736517</ele>
        <time>2021-03-10T14:52:38.610Z</time>
      </trkpt>
      <trkpt lat="45.657079" lon="10.130234">
        <ele>515.506105</ele>
        <time>2021-03-10T14:52:39.012Z</time>
      </trkpt>
      <trkpt lat="45.657066" lon="10.130174">
        <ele>515.269428</ele>
        <time>2021-03-10T14:52:39.422Z</time>
      </trkpt>
      <trkpt lat="45.657458" lon="10.129033">
        <ele>512.830610</ele>
        <time>2021-03-10T14:52:48.277Z</time>
      </trkpt>
      <trkpt lat="45.657490" lon="10.128928">
        <ele>512.774146</ele>
        <time>2021-03-10T14:52:49.222Z</time>
      </trkpt>
      <trkpt lat="45.657653" lon="10.128340">
        <ele>512.462338</ele>
        <time>2021-03-10T14:52:55.555Z</time>
      </trkpt>
      <trkpt lat="45.657763" lon="10.128050">
        <ele>512.299694</ele>
        <time>2021-03-10T14:52:59.768Z</time>
      </trkpt>
      <trkpt lat="45.657880" lon="10.127983">
        <ele>512.210816</ele>
        <time>2021-03-10T14:53:01.940Z</time>
      </trkpt>
      <trkpt lat="45.658240" lon="10.128095">
        <ele>511.950993</ele>
        <time>2021-03-10T14:53:09.190Z</time>
      </trkpt>
      <trkpt lat="45.658916" lon="10.128071">
        <ele>512.922251</ele>
        <time>2021-03-10T14:53:24.197Z</time>
      </trkpt>
      <trkpt lat="45.659108" lon="10.128107">
        <ele>513.233161</ele>
        <time>2021-03-10T14:53:28.780Z</time>
      </trkpt>
      <trkpt lat="45.659302" lon="10.128043">
        <ele>513.552820</ele>
        <time>2021-03-10T14:53:33.308Z</time>
      </trkpt>
      <trkpt lat="45.660322" lon="10.127511">
        <ele>514.144894</ele>
        <time>2021-03-10T14:53:57.286Z</time>
      </trkpt>
      <trkpt lat="45.660635" lon="10.127465">
        <ele>513.468142</ele>
        <time>2021-03-10T14:54:00.980Z</time>
      </trkpt>
      <trkpt lat="45.660862" lon="10.127572">
        <ele>512.954092</ele>
        <time>2021-03-10T14:54:03.504Z</time>
      </trkpt>
      <trkpt lat="45.660986" lon="10.127730">
        <ele>512.596963</ele>
        <time>2021-03-10T14:54:05.287Z</time>
      </trkpt>
      <trkpt lat="45.661123" lon="10.128104">
        <ele>511.962219</ele>
        <time>2021-03-10T14:54:08.232Z</time>
      </trkpt>
      <trkpt lat="45.661409" lon="10.128583">
        <ele>511.015197</ele>
        <time>2021-03-10T14:54:12.537Z</time>
      </trkpt>
      <trkpt lat="45.661611" lon="10.128678">
        <ele>509.870085</ele>
        <time>2021-03-10T14:54:14.533Z</time>
      </trkpt>
      <trkpt lat="45.661807" lon="10.128824">
        <ele>508.528956</ele>
        <time>2021-03-10T14:54:16.576Z</time>
      </trkpt>
      <trkpt lat="45.662928" lon="10.129169">
        <ele>501.569695</ele>
        <time>2021-03-10T14:54:27.001Z</time>
      </trkpt>
      <trkpt lat="45.663241" lon="10.129212">
        <ele>499.670520</ele>
        <time>2021-03-10T14:54:29.787Z</time>
      </trkpt>
      <trkpt lat="45.663324" lon="10.129256">
        <ele>499.147196</ele>
        <time>2021-03-10T14:54:30.593Z</time>
      </trkpt>
      <trkpt lat="45.663404" lon="10.129362">
        <ele>498.502557</ele>
        <time>2021-03-10T14:54:31.588Z</time>
      </trkpt>
      <trkpt lat="45.664101" lon="10.131099">
        <ele>490.226388</ele>
        <time>2021-03-10T14:54:44.525Z</time>
      </trkpt>
      <trkpt lat="45.664207" lon="10.131456">
        <ele>488.532849</ele>
        <time>2021-03-10T14:54:47.074Z</time>
      </trkpt>
      <trkpt lat="45.664180" lon="10.132060">
        <ele>485.733589</ele>
        <time>2021-03-10T14:54:50.992Z</time>
      </trkpt>
      <trkpt lat="45.664080" lon="10.132355">
        <ele>484.217155</ele>
        <time>2021-03-10T14:54:53.101Z</time>
      </trkpt>
      <trkpt lat="45.663898" lon="10.132742">
        <ele>482.059711</ele>
        <time>2021-03-10T14:54:56.072Z</time>
      </trkpt>
      <trkpt lat="45.663898" lon="10.132893">
        <ele>481.361319</ele>
        <time>2021-03-10T14:54:57.031Z</time>
      </trkpt>
      <trkpt lat="45.663963" lon="10.133030">
        <ele>480.595456</ele>
        <time>2021-03-10T14:54:58.061Z</time>
      </trkpt>
      <trkpt lat="45.664350" lon="10.133470">
        <ele>477.257568</ele>
        <time>2021-03-10T14:55:02.446Z</time>
      </trkpt>
      <trkpt lat="45.664436" lon="10.133689">
        <ele>475.602384</ele>
        <time>2021-03-10T14:55:03.976Z</time>
      </trkpt>
      <trkpt lat="45.664436" lon="10.133818">
        <ele>474.752408</ele>
        <time>2021-03-10T14:55:04.764Z</time>
      </trkpt>
      <trkpt lat="45.664350" lon="10.134202">
        <ele>472.095501</ele>
        <time>2021-03-10T14:55:07.227Z</time>
      </trkpt>
      <trkpt lat="45.664336" lon="10.134416">
        <ele>470.679296</ele>
        <time>2021-03-10T14:55:08.537Z</time>
      </trkpt>
      <trkpt lat="45.664451" lon="10.135972">
        <ele>460.358708</ele>
        <time>2021-03-10T14:55:17.964Z</time>
      </trkpt>
      <trkpt lat="45.664354" lon="10.136629">
        <ele>455.617733</ele>
        <time>2021-03-10T14:55:21.957Z</time>
      </trkpt>
      <trkpt lat="45.664332" lon="10.136951">
        <ele>453.333487</ele>
        <time>2021-03-10T14:55:23.888Z</time>
      </trkpt>
      <trkpt lat="45.664379" lon="10.137692">
        <ele>448.080325</ele>
        <time>2021-03-10T14:55:28.324Z</time>
      </trkpt>
      <trkpt lat="45.664430" lon="10.137905">
        <ele>446.490675</ele>
        <time>2021-03-10T14:55:29.680Z</time>
      </trkpt>
      <trkpt lat="45.664525" lon="10.138094">
        <ele>444.846992</ele>
        <time>2021-03-10T14:55:31.083Z</time>
      </trkpt>
      <trkpt lat="45.665156" lon="10.138959">
        <ele>439.404376</ele>
        <time>2021-03-10T14:55:38.789Z</time>
      </trkpt>
      <trkpt lat="45.665320" lon="10.139185">
        <ele>438.333689</ele>
        <time>2021-03-10T14:55:40.874Z</time>
      </trkpt>
      <trkpt lat="45.665580" lon="10.139554">
        <ele>436.611666</ele>
        <time>2021-03-10T14:55:44.378Z</time>
      </trkpt>
      <trkpt lat="45.666332" lon="10.140435">
        <ele>434.397298</ele>
        <time>2021-03-10T14:55:56.777Z</time>
      </trkpt>
      <trkpt lat="45.666403" lon="10.140504">
        <ele>434.506848</ele>
        <time>2021-03-10T14:55:59.008Z</time>
      </trkpt>
      <trkpt lat="45.666720" lon="10.141039">
        <ele>435.132514</ele>
        <time>2021-03-10T14:56:13.397Z</time>
      </trkpt>
      <trkpt lat="45.667146" lon="10.141839">
        <ele>436.029668</ele>
        <time>2021-03-10T14:56:29.982Z</time>
      </trkpt>
      <trkpt lat="45.667415" lon="10.142642">
        <ele>434.796256</ele>
        <time>2021-03-10T14:56:38.212Z</time>
      </trkpt>
      <trkpt lat="45.667479" lon="10.142780">
        <ele>434.471358</ele>
        <time>2021-03-10T14:56:39.518Z</time>
      </trkpt>
      <trkpt lat="45.667718" lon="10.143145">
        <ele>433.490155</ele>
        <time>2021-03-10T14:56:43.087Z</time>
      </trkpt>
      <trkpt lat="45.668461" lon="10.144246">
        <ele>428.915930</ele>
        <time>2021-03-10T14:56:53.531Z</time>
      </trkpt>
      <trkpt lat="45.668551" lon="10.144446">
        <ele>427.326919</ele>
        <time>2021-03-10T14:56:54.990Z</time>
      </trkpt>
      <trkpt lat="45.668596" lon="10.144649">
        <ele>425.904315</ele>
        <time>2021-03-10T14:56:56.265Z</time>
      </trkpt>
      <trkpt lat="45.668548" lon="10.145499">
        <ele>420.207917</ele>
        <time>2021-03-10T14:57:01.368Z</time>
      </trkpt>
      <trkpt lat="45.668574" lon="10.145769">
        <ele>418.387309</ele>
        <time>2021-03-10T14:57:02.979Z</time>
      </trkpt>
      <trkpt lat="45.668696" lon="10.146039">
        <ele>416.239556</ele>
        <time>2021-03-10T14:57:04.884Z</time>
      </trkpt>
      <trkpt lat="45.668913" lon="10.146351">
        <ele>413.229699</ele>
        <time>2021-03-10T14:57:07.483Z</time>
      </trkpt>
      <trkpt lat="45.669115" lon="10.146826">
        <ele>409.118141</ele>
        <time>2021-03-10T14:57:10.796Z</time>
      </trkpt>
      <trkpt lat="45.669137" lon="10.146945">
        <ele>408.207947</ele>
        <time>2021-03-10T14:57:11.523Z</time>
      </trkpt>
      <trkpt lat="45.669241" lon="10.147510">
        <ele>403.887668</ele>
        <time>2021-03-10T14:57:14.985Z</time>
      </trkpt>
      <trkpt lat="45.669199" lon="10.148306">
        <ele>397.985062</ele>
        <time>2021-03-10T14:57:19.740Z</time>
      </trkpt>
      <trkpt lat="45.669169" lon="10.148376">
        <ele>397.377872</ele>
        <time>2021-03-10T14:57:20.234Z</time>
      </trkpt>
      <trkpt lat="45.669088" lon="10.148566">
        <ele>395.732151</ele>
        <time>2021-03-10T14:57:21.580Z</time>
      </trkpt>
      <trkpt lat="45.668665" lon="10.149083">
        <ele>392.368048</ele>
        <time>2021-03-10T14:57:26.574Z</time>
      </trkpt>
      <trkpt lat="45.668290" lon="10.149453">
        <ele>389.945951</ele>
        <time>2021-03-10T14:57:30.954Z</time>
      </trkpt>
      <trkpt lat="45.668068" lon="10.149795">
        <ele>388.211426</ele>
        <time>2021-03-10T14:57:34.248Z</time>
      </trkpt>
      <trkpt lat="45.667766" lon="10.150453">
        <ele>385.264938</ele>
        <time>2021-03-10T14:57:39.821Z</time>
      </trkpt>
      <trkpt lat="45.667646" lon="10.150847">
        <ele>383.150831</ele>
        <time>2021-03-10T14:57:42.645Z</time>
      </trkpt>
      <trkpt lat="45.667581" lon="10.151475">
        <ele>380.028071</ele>
        <time>2021-03-10T14:57:46.620Z</time>
      </trkpt>
      <trkpt lat="45.667557" lon="10.151819">
        <ele>378.327560</ele>
        <time>2021-03-10T14:57:48.755Z</time>
      </trkpt>
      <trkpt lat="45.667551" lon="10.151905">
        <ele>377.902433</ele>
        <time>2021-03-10T14:57:49.283Z</time>
      </trkpt>
      <trkpt lat="45.667520" lon="10.152171">
        <ele>376.575937</ele>
        <time>2021-03-10T14:57:50.932Z</time>
      </trkpt>
      <trkpt lat="45.667466" lon="10.152764">
        <ele>373.634369</ele>
        <time>2021-03-10T14:57:54.606Z</time>
      </trkpt>
      <trkpt lat="45.667473" lon="10.153074">
        <ele>372.188113</ele>
        <time>2021-03-10T14:57:56.508Z</time>
      </trkpt>
      <trkpt lat="45.667641" lon="10.153710">
        <ele>369.299501</ele>
        <time>2021-03-10T14:58:00.686Z</time>
      </trkpt>
      <trkpt lat="45.668534" lon="10.156934">
        <ele>356.825154</ele>
        <time>2021-03-10T14:58:23.560Z</time>
      </trkpt>
      <trkpt lat="45.668591" lon="10.157205">
        <ele>356.000592</ele>
        <time>2021-03-10T14:58:25.610Z</time>
      </trkpt>
      <trkpt lat="45.668921" lon="10.158759">
        <ele>352.142371</ele>
        <time>2021-03-10T14:58:37.477Z</time>
      </trkpt>
      <trkpt lat="45.669064" lon="10.159437">
        <ele>350.682268</ele>
        <time>2021-03-10T14:58:42.504Z</time>
      </trkpt>
      <trkpt lat="45.669133" lon="10.159760">
        <ele>349.985925</ele>
        <time>2021-03-10T14:58:44.894Z</time>
      </trkpt>
      <trkpt lat="45.669151" lon="10.159845">
        <ele>349.802812</ele>
        <time>2021-03-10T14:58:45.528Z</time>
      </trkpt>
      <trkpt lat="45.669227" lon="10.160146">
        <ele>349.142981</ele>
        <time>2021-03-10T14:58:47.827Z</time>
      </trkpt>
      <trkpt lat="45.669493" lon="10.161423">
        <ele>346.044390</ele>
        <time>2021-03-10T14:58:57.433Z</time>
      </trkpt>
      <trkpt lat="45.669756" lon="10.162678">
        <ele>342.971698</ele>
        <time>2021-03-10T14:59:06.478Z</time>
      </trkpt>
      <trkpt lat="45.670380" lon="10.166675">
        <ele>332.781654</ele>
        <time>2021-03-10T14:59:34.641Z</time>
      </trkpt>
      <trkpt lat="45.670617" lon="10.168192">
        <ele>329.675792</ele>
        <time>2021-03-10T14:59:46.286Z</time>
      </trkpt>
      <trkpt lat="45.670904" lon="10.170029">
        <ele>326.797673</ele>
        <time>2021-03-10T15:00:00.802Z</time>
      </trkpt>
      <trkpt lat="45.671370" lon="10.173089">
        <ele>320.849426</ele>
        <time>2021-03-10T15:00:23.566Z</time>
      </trkpt>
      <trkpt lat="45.671355" lon="10.173505">
        <ele>319.917155</ele>
        <time>2021-03-10T15:00:26.547Z</time>
      </trkpt>
      <trkpt lat="45.671251" lon="10.173955">
        <ele>318.856373</ele>
        <time>2021-03-10T15:00:29.913Z</time>
      </trkpt>
      <trkpt lat="45.671053" lon="10.174494">
        <ele>317.493522</ele>
        <time>2021-03-10T15:00:34.173Z</time>
      </trkpt>
      <trkpt lat="45.670983" lon="10.174844">
        <ele>316.678744</ele>
        <time>2021-03-10T15:00:36.710Z</time>
      </trkpt>
      <trkpt lat="45.671021" lon="10.176247">
        <ele>313.443444</ele>
        <time>2021-03-10T15:00:46.578Z</time>
      </trkpt>
      <trkpt lat="45.670993" lon="10.176763">
        <ele>312.238765</ele>
        <time>2021-03-10T15:00:50.210Z</time>
      </trkpt>
      <trkpt lat="45.670834" lon="10.177289">
        <ele>310.904778</ele>
        <time>2021-03-10T15:00:54.244Z</time>
      </trkpt>
      <trkpt lat="45.670699" lon="10.177741">
        <ele>309.782591</ele>
        <time>2021-03-10T15:00:57.701Z</time>
      </trkpt>
      <trkpt lat="45.670639" lon="10.178021">
        <ele>309.241707</ele>
        <time>2021-03-10T15:00:59.757Z</time>
      </trkpt>
      <trkpt lat="45.670546" lon="10.179147">
        <ele>307.147686</ele>
        <time>2021-03-10T15:01:07.902Z</time>
      </trkpt>
      <trkpt lat="45.670418" lon="10.180691">
        <ele>304.276604</ele>
        <time>2021-03-10T15:01:19.835Z</time>
      </trkpt>
      <trkpt lat="45.670392" lon="10.181007">
        <ele>303.689281</ele>
        <time>2021-03-10T15:01:22.237Z</time>
      </trkpt>
      <trkpt lat="45.670340" lon="10.181398">
        <ele>302.954593</ele>
        <time>2021-03-10T15:01:25.124Z</time>
      </trkpt>
      <trkpt lat="45.670208" lon="10.181939">
        <ele>301.896854</ele>
        <time>2021-03-10T15:01:29.197Z</time>
      </trkpt>
      <trkpt lat="45.669986" lon="10.182882">
        <ele>300.044861</ele>
        <time>2021-03-10T15:01:36.351Z</time>
      </trkpt>
      <trkpt lat="45.669955" lon="10.183092">
        <ele>299.628728</ele>
        <time>2021-03-10T15:01:37.926Z</time>
      </trkpt>
      <trkpt lat="45.669913" lon="10.184067">
        <ele>297.734811</ele>
        <time>2021-03-10T15:01:45.000Z</time>
      </trkpt>
      <trkpt lat="45.669924" lon="10.184401">
        <ele>297.086533</ele>
        <time>2021-03-10T15:01:47.383Z</time>
      </trkpt>
      <trkpt lat="45.669954" lon="10.184660">
        <ele>296.577532</ele>
        <time>2021-03-10T15:01:49.258Z</time>
      </trkpt>
      <trkpt lat="45.669983" lon="10.184796">
        <ele>296.301852</ele>
        <time>2021-03-10T15:01:50.289Z</time>
      </trkpt>
      <trkpt lat="45.670042" lon="10.185018">
        <ele>295.841362</ele>
        <time>2021-03-10T15:01:51.997Z</time>
      </trkpt>
      <trkpt lat="45.670153" lon="10.185272">
        <ele>295.357733</ele>
        <time>2021-03-10T15:01:54.179Z</time>
      </trkpt>
      <trkpt lat="45.670352" lon="10.185616">
        <ele>295.248288</ele>
        <time>2021-03-10T15:01:57.526Z</time>
      </trkpt>
      <trkpt lat="45.670400" lon="10.185699">
        <ele>295.221885</ele>
        <time>2021-03-10T15:01:58.348Z</time>
      </trkpt>
      <trkpt lat="45.670481" lon="10.185838">
        <ele>295.177529</ele>
        <time>2021-03-10T15:01:59.777Z</time>
      </trkpt>
      <trkpt lat="45.670945" lon="10.186657">
        <ele>294.919136</ele>
        <time>2021-03-10T15:02:09.483Z</time>
      </trkpt>
      <trkpt lat="45.671214" lon="10.187171">
        <ele>294.761758</ele>
        <time>2021-03-10T15:02:19.346Z</time>
      </trkpt>
      <trkpt lat="45.671268" lon="10.187269">
        <ele>294.772988</ele>
        <time>2021-03-10T15:02:21.558Z</time>
      </trkpt>
      <trkpt lat="45.671329" lon="10.187445">
        <ele>294.929902</ele>
        <time>2021-03-10T15:02:25.467Z</time>
      </trkpt>
      <trkpt lat="45.671368" lon="10.187532">
        <ele>295.012460</ele>
        <time>2021-03-10T15:02:27.047Z</time>
      </trkpt>
      <trkpt lat="45.671555" lon="10.187878">
        <ele>295.361826</ele>
        <time>2021-03-10T15:02:34.501Z</time>
      </trkpt>
      <trkpt lat="45.671583" lon="10.187921">
        <ele>295.408770</ele>
        <time>2021-03-10T15:02:35.213Z</time>
      </trkpt>
      <trkpt lat="45.671659" lon="10.188049">
        <ele>295.542927</ele>
        <time>2021-03-10T15:02:36.926Z</time>
      </trkpt>
      <trkpt lat="45.671684" lon="10.188088">
        <ele>295.585198</ele>
        <time>2021-03-10T15:02:37.668Z</time>
      </trkpt>
      <trkpt lat="45.671731" lon="10.188158">
        <ele>295.662734</ele>
        <time>2021-03-10T15:02:40.733Z</time>
      </trkpt>
      <trkpt lat="45.671818" lon="10.188260">
        <ele>295.791286</ele>
        <time>2021-03-10T15:02:45.687Z</time>
      </trkpt>
      <trkpt lat="45.671833" lon="10.188324">
        <ele>295.845202</ele>
        <time>2021-03-10T15:02:47.358Z</time>
      </trkpt>
      <trkpt lat="45.671855" lon="10.188454">
        <ele>295.952034</ele>
        <time>2021-03-10T15:02:50.537Z</time>
      </trkpt>
      <trkpt lat="45.671891" lon="10.188927">
        <ele>296.332053</ele>
        <time>2021-03-10T15:02:56.434Z</time>
      </trkpt>
      <trkpt lat="45.671691" lon="10.188990">
        <ele>296.566128</ele>
        <time>2021-03-10T15:03:00.375Z</time>
      </trkpt>
      <trkpt lat="45.671891" lon="10.188927">
        <ele>296.796355</ele>
        <time>2021-03-10T15:03:03.385Z</time>
      </trkpt>
      <trkpt lat="45.672085" lon="10.188906">
        <ele>296.762568</ele>
        <time>2021-03-10T15:03:07.668Z</time>
      </trkpt>
      <trkpt lat="45.672286" lon="10.188826">
        <ele>296.726336</ele>
        <time>2021-03-10T15:03:10.807Z</time>
      </trkpt>
      <trkpt lat="45.672699" lon="10.188581">
        <ele>296.648694</ele>
        <time>2021-03-10T15:03:18.746Z</time>
      </trkpt>
      <trkpt lat="45.672725" lon="10.188571">
        <ele>296.644018</ele>
        <time>2021-03-10T15:03:19.345Z</time>
      </trkpt>
      <trkpt lat="45.673195" lon="10.188423">
        <ele>296.560442</ele>
        <time>2021-03-10T15:03:24.994Z</time>
      </trkpt>
      <trkpt lat="45.673636" lon="10.188310">
        <ele>296.492368</ele>
        <time>2021-03-10T15:03:30.038Z</time>
      </trkpt>
      <trkpt lat="45.674326" lon="10.188149">
        <ele>297.005715</ele>
        <time>2021-03-10T15:03:41.685Z</time>
      </trkpt>
      <trkpt lat="45.674584" lon="10.188144">
        <ele>297.195179</ele>
        <time>2021-03-10T15:03:47.024Z</time>
      </trkpt>
      <trkpt lat="45.675934" lon="10.188284">
        <ele>298.568317</ele>
        <time>2021-03-10T15:04:14.166Z</time>
      </trkpt>
      <trkpt lat="45.676230" lon="10.188310">
        <ele>299.001227</ele>
        <time>2021-03-10T15:04:20.250Z</time>
      </trkpt>
      <trkpt lat="45.676248" lon="10.188416">
        <ele>299.112491</ele>
        <time>2021-03-10T15:04:21.839Z</time>
      </trkpt>
      <trkpt lat="45.677146" lon="10.188168">
        <ele>300.451765</ele>
        <time>2021-03-10T15:04:41.026Z</time>
      </trkpt>
      <trkpt lat="45.677927" lon="10.187920">
        <ele>301.913482</ele>
        <time>2021-03-10T15:04:58.201Z</time>
      </trkpt>
      <trkpt lat="45.678286" lon="10.187807">
        <ele>302.585110</ele>
        <time>2021-03-10T15:05:06.518Z</time>
      </trkpt>
      <trkpt lat="45.678357" lon="10.187785">
        <ele>302.717844</ele>
        <time>2021-03-10T15:05:08.185Z</time>
      </trkpt>
      <trkpt lat="45.678636" lon="10.187701">
        <ele>303.238781</ele>
        <time>2021-03-10T15:05:14.677Z</time>
      </trkpt>
      <trkpt lat="45.678671" lon="10.187692">
        <ele>303.303755</ele>
        <time>2021-03-10T15:05:15.499Z</time>
      </trkpt>
      <trkpt lat="45.678705" lon="10.187683">
        <ele>303.366932</ele>
        <time>2021-03-10T15:05:16.305Z</time>
      </trkpt>
      <trkpt lat="45.679519" lon="10.187486">
        <ele>304.921391</ele>
        <time>2021-03-10T15:05:35.111Z</time>
      </trkpt>
      <trkpt lat="45.679580" lon="10.187464">
        <ele>305.040901</ele>
        <time>2021-03-10T15:05:36.594Z</time>
      </trkpt>
      <trkpt lat="45.679599" lon="10.187457">
        <ele>305.078174</ele>
        <time>2021-03-10T15:05:37.030Z</time>
      </trkpt>
      <trkpt lat="45.679619" lon="10.187450">
        <ele>305.117289</ele>
        <time>2021-03-10T15:05:37.488Z</time>
      </trkpt>
      <trkpt lat="45.679876" lon="10.187281">
        <ele>305.654601</ele>
        <time>2021-03-10T15:05:43.828Z</time>
      </trkpt>
      <trkpt lat="45.680160" lon="10.187318">
        <ele>306.196373</ele>
        <time>2021-03-10T15:05:50.092Z</time>
      </trkpt>
      <trkpt lat="45.680389" lon="10.187348">
        <ele>306.633245</ele>
        <time>2021-03-10T15:05:55.102Z</time>
      </trkpt>
      <trkpt lat="45.680459" lon="10.187359">
        <ele>306.767029</ele>
        <time>2021-03-10T15:05:56.671Z</time>
      </trkpt>
      <trkpt lat="45.680520" lon="10.187367">
        <ele>306.883402</ele>
        <time>2021-03-10T15:05:58.060Z</time>
      </trkpt>
      <trkpt lat="45.681764" lon="10.187467">
        <ele>309.032759</ele>
        <time>2021-03-10T15:06:25.874Z</time>
      </trkpt>
      <trkpt lat="45.682945" lon="10.187588">
        <ele>310.769594</ele>
        <time>2021-03-10T15:06:50.361Z</time>
      </trkpt>
      <trkpt lat="45.682984" lon="10.187593">
        <ele>310.814280</ele>
        <time>2021-03-10T15:06:51.103Z</time>
      </trkpt>
      <trkpt lat="45.683027" lon="10.187598">
        <ele>310.863515</ele>
        <time>2021-03-10T15:06:51.877Z</time>
      </trkpt>
      <trkpt lat="45.683216" lon="10.187619">
        <ele>311.079855</ele>
        <time>2021-03-10T15:06:55.538Z</time>
      </trkpt>
      <trkpt lat="45.683366" lon="10.187683">
        <ele>311.258482</ele>
        <time>2021-03-10T15:06:58.562Z</time>
      </trkpt>
      <trkpt lat="45.683454" lon="10.187720">
        <ele>311.363153</ele>
        <time>2021-03-10T15:07:00.204Z</time>
      </trkpt>
      <trkpt lat="45.683890" lon="10.187770">
        <ele>311.862322</ele>
        <time>2021-03-10T15:07:08.136Z</time>
      </trkpt>
      <trkpt lat="45.683975" lon="10.187679">
        <ele>311.983457</ele>
        <time>2021-03-10T15:07:10.069Z</time>
      </trkpt>
      <trkpt lat="45.684051" lon="10.187683">
        <ele>312.070249</ele>
        <time>2021-03-10T15:07:11.748Z</time>
      </trkpt>
      <trkpt lat="45.684052" lon="10.187631">
        <ele>312.111723</ele>
        <time>2021-03-10T15:07:12.302Z</time>
      </trkpt>
      <trkpt lat="45.684128" lon="10.187628">
        <ele>312.198489</ele>
        <time>2021-03-10T15:07:13.589Z</time>
      </trkpt>
      <trkpt lat="45.684263" lon="10.187562">
        <ele>312.375839</ele>
        <time>2021-03-10T15:07:16.310Z</time>
      </trkpt>
      <trkpt lat="45.685327" lon="10.186829">
        <ele>313.903574</ele>
        <time>2021-03-10T15:07:41.010Z</time>
      </trkpt>
      <trkpt lat="45.685433" lon="10.186781">
        <ele>314.047415</ele>
        <time>2021-03-10T15:07:43.440Z</time>
      </trkpt>
      <trkpt lat="45.685542" lon="10.186797">
        <ele>314.189179</ele>
        <time>2021-03-10T15:07:45.755Z</time>
      </trkpt>
      <trkpt lat="45.685651" lon="10.186839">
        <ele>314.335223</ele>
        <time>2021-03-10T15:07:48.078Z</time>
      </trkpt>
      <trkpt lat="45.685760" lon="10.186804">
        <ele>314.479751</ele>
        <time>2021-03-10T15:07:50.338Z</time>
      </trkpt>
      <trkpt lat="45.685823" lon="10.186803">
        <ele>314.561266</ele>
        <time>2021-03-10T15:07:51.592Z</time>
      </trkpt>
      <trkpt lat="45.685883" lon="10.186756">
        <ele>314.631236</ele>
        <time>2021-03-10T15:07:52.906Z</time>
      </trkpt>
      <trkpt lat="45.686104" lon="10.186694">
        <ele>314.845723</ele>
        <time>2021-03-10T15:07:58.046Z</time>
      </trkpt>
      <trkpt lat="45.686140" lon="10.186685">
        <ele>314.880529</ele>
        <time>2021-03-10T15:07:58.867Z</time>
      </trkpt>
      <trkpt lat="45.686333" lon="10.186636">
        <ele>315.067213</ele>
        <time>2021-03-10T15:08:03.269Z</time>
      </trkpt>
      <trkpt lat="45.686373" lon="10.186634">
        <ele>315.105333</ele>
        <time>2021-03-10T15:08:03.891Z</time>
      </trkpt>
      <trkpt lat="45.686528" lon="10.186632">
        <ele>315.252962</ele>
        <time>2021-03-10T15:08:06.457Z</time>
      </trkpt>
      <trkpt lat="45.686589" lon="10.186646">
        <ele>315.311801</ele>
        <time>2021-03-10T15:08:07.685Z</time>
      </trkpt>
      <trkpt lat="45.686846" lon="10.186711">
        <ele>315.560362</ele>
        <time>2021-03-10T15:08:12.404Z</time>
      </trkpt>
      <trkpt lat="45.687280" lon="10.186951">
        <ele>316.003479</ele>
        <time>2021-03-10T15:08:21.780Z</time>
      </trkpt>
      <trkpt lat="45.687548" lon="10.187100">
        <ele>316.277301</ele>
        <time>2021-03-10T15:08:27.013Z</time>
      </trkpt>
      <trkpt lat="45.687855" lon="10.187298">
        <ele>316.675857</ele>
        <time>2021-03-10T15:08:33.076Z</time>
      </trkpt>
      <trkpt lat="45.688390" lon="10.187643">
        <ele>317.377196</ele>
        <time>2021-03-10T15:08:44.337Z</time>
      </trkpt>
      <trkpt lat="45.688619" lon="10.187727">
        <ele>317.659748</ele>
        <time>2021-03-10T15:08:48.876Z</time>
      </trkpt>
      <trkpt lat="45.689140" lon="10.187757">
        <ele>318.282970</ele>
        <time>2021-03-10T15:08:58.973Z</time>
      </trkpt>
      <trkpt lat="45.689419" lon="10.187722">
        <ele>318.655942</ele>
        <time>2021-03-10T15:09:05.112Z</time>
      </trkpt>
      <trkpt lat="45.689826" lon="10.187551">
        <ele>319.273464</ele>
        <time>2021-03-10T15:09:14.635Z</time>
      </trkpt>
      <trkpt lat="45.690202" lon="10.187302">
        <ele>319.876595</ele>
        <time>2021-03-10T15:09:23.346Z</time>
      </trkpt>
      <trkpt lat="45.690299" lon="10.187173">
        <ele>320.069345</ele>
        <time>2021-03-10T15:09:25.954Z</time>
      </trkpt>
      <trkpt lat="45.690419" lon="10.186898">
        <ele>320.399092</ele>
        <time>2021-03-10T15:09:30.634Z</time>
      </trkpt>
      <trkpt lat="45.690513" lon="10.186640">
        <ele>320.695012</ele>
        <time>2021-03-10T15:09:34.662Z</time>
      </trkpt>
      <trkpt lat="45.690591" lon="10.186440">
        <ele>320.927956</ele>
        <time>2021-03-10T15:09:37.826Z</time>
      </trkpt>
      <trkpt lat="45.690627" lon="10.186343">
        <ele>321.039660</ele>
        <time>2021-03-10T15:09:39.280Z</time>
      </trkpt>
      <trkpt lat="45.690762" lon="10.186150">
        <ele>321.363633</ele>
        <time>2021-03-10T15:09:43.103Z</time>
      </trkpt>
      <trkpt lat="45.690953" lon="10.186071">
        <ele>321.705230</ele>
        <time>2021-03-10T15:09:46.920Z</time>
      </trkpt>
      <trkpt lat="45.691476" lon="10.186079">
        <ele>322.603897</ele>
        <time>2021-03-10T15:09:57.643Z</time>
      </trkpt>
      <trkpt lat="45.691656" lon="10.186087">
        <ele>322.913321</ele>
        <time>2021-03-10T15:10:01.888Z</time>
      </trkpt>
      <trkpt lat="45.691911" lon="10.186103">
        <ele>323.351881</ele>
        <time>2021-03-10T15:10:08.141Z</time>
      </trkpt>
      <trkpt lat="45.691958" lon="10.186107">
        <ele>323.432779</ele>
        <time>2021-03-10T15:10:09.283Z</time>
      </trkpt>
      <trkpt lat="45.692115" lon="10.186117">
        <ele>323.702802</ele>
        <time>2021-03-10T15:10:13.098Z</time>
      </trkpt>
      <trkpt lat="45.692892" lon="10.186222">
        <ele>325.060847</ele>
        <time>2021-03-10T15:10:30.553Z</time>
      </trkpt>
      <trkpt lat="45.693125" lon="10.186303">
        <ele>325.480703</ele>
        <time>2021-03-10T15:10:35.701Z</time>
      </trkpt>
      <trkpt lat="45.693525" lon="10.186505">
        <ele>326.223429</ele>
        <time>2021-03-10T15:10:44.710Z</time>
      </trkpt>
      <trkpt lat="45.693823" lon="10.186677">
        <ele>326.786058</ele>
        <time>2021-03-10T15:10:51.532Z</time>
      </trkpt>
      <trkpt lat="45.694378" lon="10.187001">
        <ele>327.992667</ele>
        <time>2021-03-10T15:11:04.469Z</time>
      </trkpt>
      <trkpt lat="45.695474" lon="10.187669">
        <ele>330.691303</ele>
        <time>2021-03-10T15:11:30.054Z</time>
      </trkpt>
      <trkpt lat="45.695704" lon="10.187766">
        <ele>331.234507</ele>
        <time>2021-03-10T15:11:35.587Z</time>
      </trkpt>
      <trkpt lat="45.696568" lon="10.187980">
        <ele>337.443554</ele>
        <time>2021-03-10T15:12:08.129Z</time>
      </trkpt>
      <trkpt lat="45.696686" lon="10.188037">
        <ele>338.371329</ele>
        <time>2021-03-10T15:12:13.966Z</time>
      </trkpt>
      <trkpt lat="45.696815" lon="10.188189">
        <ele>339.615978</ele>
        <time>2021-03-10T15:12:22.095Z</time>
      </trkpt>
      <trkpt lat="45.696939" lon="10.188623">
        <ele>342.055903</ele>
        <time>2021-03-10T15:12:40.347Z</time>
      </trkpt>
      <trkpt lat="45.697010" lon="10.188806">
        <ele>343.145174</ele>
        <time>2021-03-10T15:12:48.770Z</time>
      </trkpt>
      <trkpt lat="45.697123" lon="10.188956">
        <ele>344.293168</ele>
        <time>2021-03-10T15:12:58.344Z</time>
      </trkpt>
      <trkpt lat="45.697284" lon="10.189095">
        <ele>345.317273</ele>
        <time>2021-03-10T15:13:09.340Z</time>
      </trkpt>
      <trkpt lat="45.697552" lon="10.189240">
        <ele>346.576503</ele>
        <time>2021-03-10T15:13:25.268Z</time>
      </trkpt>
      <trkpt lat="45.697579" lon="10.189252">
        <ele>346.700761</ele>
        <time>2021-03-10T15:13:26.662Z</time>
      </trkpt>
      <trkpt lat="45.697781" lon="10.189401">
        <ele>347.699503</ele>
        <time>2021-03-10T15:13:38.450Z</time>
      </trkpt>
      <trkpt lat="45.698085" lon="10.189866">
        <ele>349.654751</ele>
        <time>2021-03-10T15:13:51.751Z</time>
      </trkpt>
      <trkpt lat="45.698245" lon="10.190173">
        <ele>350.830646</ele>
        <time>2021-03-10T15:13:58.090Z</time>
      </trkpt>
      <trkpt lat="45.698321" lon="10.190424">
        <ele>351.670460</ele>
        <time>2021-03-10T15:14:01.806Z</time>
      </trkpt>
      <trkpt lat="45.698430" lon="10.191210">
        <ele>351.048321</ele>
        <time>2021-03-10T15:14:07.504Z</time>
      </trkpt>
      <trkpt lat="45.698515" lon="10.191421">
        <ele>350.206031</ele>
        <time>2021-03-10T15:14:09.304Z</time>
      </trkpt>
      <trkpt lat="45.698609" lon="10.191510">
        <ele>349.648086</ele>
        <time>2021-03-10T15:14:10.355Z</time>
      </trkpt>
      <trkpt lat="45.698622" lon="10.191517">
        <ele>349.579322</ele>
        <time>2021-03-10T15:14:10.484Z</time>
      </trkpt>
      <trkpt lat="45.698716" lon="10.191565">
        <ele>349.085218</ele>
        <time>2021-03-10T15:14:11.380Z</time>
      </trkpt>
      <trkpt lat="45.698992" lon="10.191705">
        <ele>347.635528</ele>
        <time>2021-03-10T15:14:14.071Z</time>
      </trkpt>
      <trkpt lat="45.699050" lon="10.191735">
        <ele>347.330208</ele>
        <time>2021-03-10T15:14:14.603Z</time>
      </trkpt>
      <trkpt lat="45.699073" lon="10.191777">
        <ele>347.145657</ele>
        <time>2021-03-10T15:14:14.954Z</time>
      </trkpt>
      <trkpt lat="45.699099" lon="10.191824">
        <ele>346.938332</ele>
        <time>2021-03-10T15:14:15.349Z</time>
      </trkpt>
      <trkpt lat="45.699124" lon="10.191939">
        <ele>346.521857</ele>
        <time>2021-03-10T15:14:16.114Z</time>
      </trkpt>
      <trkpt lat="45.699189" lon="10.192016">
        <ele>346.104176</ele>
        <time>2021-03-10T15:14:16.847Z</time>
      </trkpt>
      <trkpt lat="45.699261" lon="10.192033">
        <ele>345.742891</ele>
        <time>2021-03-10T15:14:17.486Z</time>
      </trkpt>
      <trkpt lat="45.699323" lon="10.192003">
        <ele>345.418876</ele>
        <time>2021-03-10T15:14:18.053Z</time>
      </trkpt>
      <trkpt lat="45.699370" lon="10.191939">
        <ele>345.097748</ele>
        <time>2021-03-10T15:14:18.658Z</time>
      </trkpt>
      <trkpt lat="45.699449" lon="10.191950">
        <ele>344.704776</ele>
        <time>2021-03-10T15:14:19.378Z</time>
      </trkpt>
      <trkpt lat="45.699514" lon="10.192049">
        <ele>344.234932</ele>
        <time>2021-03-10T15:14:20.218Z</time>
      </trkpt>
      <trkpt lat="45.699683" lon="10.192725">
        <ele>343.542770</ele>
        <time>2021-03-10T15:14:24.839Z</time>
      </trkpt>
      <trkpt lat="45.699676" lon="10.193214">
        <ele>343.347895</ele>
        <time>2021-03-10T15:14:30.058Z</time>
      </trkpt>
      <trkpt lat="45.699700" lon="10.193457">
        <ele>343.250112</ele>
        <time>2021-03-10T15:14:33.351Z</time>
      </trkpt>
      <trkpt lat="45.699894" lon="10.193988">
        <ele>343.011345</ele>
        <time>2021-03-10T15:14:42.203Z</time>
      </trkpt>
      <trkpt lat="45.700055" lon="10.194387">
        <ele>342.827746</ele>
        <time>2021-03-10T15:14:50.364Z</time>
      </trkpt>
      <trkpt lat="45.700239" lon="10.195054">
        <ele>343.706112</ele>
        <time>2021-03-10T15:15:02.423Z</time>
      </trkpt>
      <trkpt lat="45.700395" lon="10.196586">
        <ele>346.543869</ele>
        <time>2021-03-10T15:15:28.769Z</time>
      </trkpt>
      <trkpt lat="45.700510" lon="10.197906">
        <ele>349.520741</ele>
        <time>2021-03-10T15:15:55.581Z</time>
      </trkpt>
      <trkpt lat="45.700556" lon="10.197977">
        <ele>349.761499</ele>
        <time>2021-03-10T15:15:57.874Z</time>
      </trkpt>
      <trkpt lat="45.700558" lon="10.198242">
        <ele>350.420328</ele>
        <time>2021-03-10T15:16:03.377Z</time>
      </trkpt>
      <trkpt lat="45.700561" lon="10.198361">
        <ele>350.716355</ele>
        <time>2021-03-10T15:16:05.619Z</time>
      </trkpt>
      <trkpt lat="45.700610" lon="10.198400">
        <ele>350.915907</ele>
        <time>2021-03-10T15:16:07.428Z</time>
      </trkpt>
      <trkpt lat="45.700659" lon="10.198383">
        <ele>351.095371</ele>
        <time>2021-03-10T15:16:09.043Z</time>
      </trkpt>
      <trkpt lat="45.700812" lon="10.198399">
        <ele>351.641429</ele>
        <time>2021-03-10T15:16:13.553Z</time>
      </trkpt>
      <trkpt lat="45.701023" lon="10.198690">
        <ele>352.684228</ele>
        <time>2021-03-10T15:16:22.051Z</time>
      </trkpt>
      <trkpt lat="45.701400" lon="10.199865">
        <ele>355.602825</ele>
        <time>2021-03-10T15:16:48.335Z</time>
      </trkpt>
      <trkpt lat="45.701439" lon="10.201274">
        <ele>358.596308</ele>
        <time>2021-03-10T15:17:15.223Z</time>
      </trkpt>
      <trkpt lat="45.701673" lon="10.202531">
        <ele>360.549994</ele>
        <time>2021-03-10T15:17:36.044Z</time>
      </trkpt>
      <trkpt lat="45.702036" lon="10.205154">
        <ele>363.475265</ele>
        <time>2021-03-10T15:18:15.412Z</time>
      </trkpt>
      <trkpt lat="45.702134" lon="10.206132">
        <ele>364.282242</ele>
        <time>2021-03-10T15:18:28.626Z</time>
      </trkpt>
      <trkpt lat="45.702208" lon="10.206632">
        <ele>364.699694</ele>
        <time>2021-03-10T15:18:35.061Z</time>
      </trkpt>
      <trkpt lat="45.702448" lon="10.207166">
        <ele>364.656680</ele>
        <time>2021-03-10T15:18:42.701Z</time>
      </trkpt>
      <trkpt lat="45.702479" lon="10.207513">
        <ele>364.619212</ele>
        <time>2021-03-10T15:18:46.511Z</time>
      </trkpt>
      <trkpt lat="45.702515" lon="10.207654">
        <ele>364.603132</ele>
        <time>2021-03-10T15:18:48.165Z</time>
      </trkpt>
      <trkpt lat="45.702586" lon="10.207787">
        <ele>364.585202</ele>
        <time>2021-03-10T15:18:49.852Z</time>
      </trkpt>
      <trkpt lat="45.703384" lon="10.208535">
        <ele>364.402950</ele>
        <time>2021-03-10T15:19:02.302Z</time>
      </trkpt>
      <trkpt lat="45.703737" lon="10.208956">
        <ele>363.971581</ele>
        <time>2021-03-10T15:19:07.680Z</time>
      </trkpt>
      <trkpt lat="45.703911" lon="10.209165">
        <ele>363.758329</ele>
        <time>2021-03-10T15:19:10.391Z</time>
      </trkpt>
      <trkpt lat="45.703570" lon="10.209746">
        <ele>363.260660</ele>
        <time>2021-03-10T15:19:16.664Z</time>
      </trkpt>
      <trkpt lat="45.703830" lon="10.210062">
        <ele>362.940443</ele>
        <time>2021-03-10T15:19:20.963Z</time>
      </trkpt>
      <trkpt lat="45.703428" lon="10.210769">
        <ele>362.851845</ele>
        <time>2021-03-10T15:19:29.501Z</time>
      </trkpt>
      <trkpt lat="45.704207" lon="10.211589">
        <ele>363.059410</ele>
        <time>2021-03-10T15:19:44.553Z</time>
      </trkpt>
      <trkpt lat="45.704801" lon="10.212254">
        <ele>363.752421</ele>
        <time>2021-03-10T15:19:58.826Z</time>
      </trkpt>
      <trkpt lat="45.705556" lon="10.213176">
        <ele>365.414873</ele>
        <time>2021-03-10T15:20:20.518Z</time>
      </trkpt>
      <trkpt lat="45.706354" lon="10.214129">
        <ele>367.348333</ele>
        <time>2021-03-10T15:20:44.749Z</time>
      </trkpt>
      <trkpt lat="45.706843" lon="10.214723">
        <ele>368.629723</ele>
        <time>2021-03-10T15:20:59.922Z</time>
      </trkpt>
      <trkpt lat="45.706960" lon="10.214882">
        <ele>368.952048</ele>
        <time>2021-03-10T15:21:03.639Z</time>
      </trkpt>
      <trkpt lat="45.707239" lon="10.215276">
        <ele>369.735075</ele>
        <time>2021-03-10T15:21:12.546Z</time>
      </trkpt>
      <trkpt lat="45.707963" lon="10.216403">
        <ele>371.312763</ele>
        <time>2021-03-10T15:21:34.240Z</time>
      </trkpt>
      <trkpt lat="45.708242" lon="10.216662">
        <ele>371.802009</ele>
        <time>2021-03-10T15:21:40.840Z</time>
      </trkpt>
      <trkpt lat="45.708280" lon="10.216693">
        <ele>371.866360</ele>
        <time>2021-03-10T15:21:41.949Z</time>
      </trkpt>
      <trkpt lat="45.708436" lon="10.216785">
        <ele>372.114608</ele>
        <time>2021-03-10T15:21:46.264Z</time>
      </trkpt>
      <trkpt lat="45.708537" lon="10.216843">
        <ele>372.274727</ele>
        <time>2021-03-10T15:21:49.125Z</time>
      </trkpt>
      <trkpt lat="45.708611" lon="10.216885">
        <ele>372.391854</ele>
        <time>2021-03-10T15:21:51.189Z</time>
      </trkpt>
      <trkpt lat="45.708781" lon="10.216983">
        <ele>372.769274</ele>
        <time>2021-03-10T15:21:55.066Z</time>
      </trkpt>
      <trkpt lat="45.709081" lon="10.217374">
        <ele>373.609799</ele>
        <time>2021-03-10T15:22:03.940Z</time>
      </trkpt>
      <trkpt lat="45.710135" lon="10.219026">
        <ele>376.846086</ele>
        <time>2021-03-10T15:22:41.372Z</time>
      </trkpt>
      <trkpt lat="45.710214" lon="10.219117">
        <ele>377.055730</ele>
        <time>2021-03-10T15:22:43.993Z</time>
      </trkpt>
      <trkpt lat="45.710278" lon="10.219191">
        <ele>377.225820</ele>
        <time>2021-03-10T15:22:46.083Z</time>
      </trkpt>
      <trkpt lat="45.710492" lon="10.219439">
        <ele>377.795069</ele>
        <time>2021-03-10T15:22:53.003Z</time>
      </trkpt>
      <trkpt lat="45.711525" lon="10.219735">
        <ele>379.904152</ele>
        <time>2021-03-10T15:23:16.939Z</time>
      </trkpt>
      <trkpt lat="45.712743" lon="10.220623">
        <ele>381.221713</ele>
        <time>2021-03-10T15:23:41.632Z</time>
      </trkpt>
      <trkpt lat="45.713009" lon="10.220855">
        <ele>381.521951</ele>
        <time>2021-03-10T15:23:46.856Z</time>
      </trkpt>
      <trkpt lat="45.713270" lon="10.221082">
        <ele>382.040790</ele>
        <time>2021-03-10T15:23:52.310Z</time>
      </trkpt>
      <trkpt lat="45.713825" lon="10.221313">
        <ele>383.121737</ele>
        <time>2021-03-10T15:24:03.804Z</time>
      </trkpt>
      <trkpt lat="45.714781" lon="10.221481">
        <ele>384.923124</ele>
        <time>2021-03-10T15:24:26.653Z</time>
      </trkpt>
      <trkpt lat="45.715889" lon="10.222640">
        <ele>389.712171</ele>
        <time>2021-03-10T15:25:08.934Z</time>
      </trkpt>
      <trkpt lat="45.716407" lon="10.224062">
        <ele>392.479204</ele>
        <time>2021-03-10T15:25:39.233Z</time>
      </trkpt>
      <trkpt lat="45.717633" lon="10.226181">
        <ele>394.985867</ele>
        <time>2021-03-10T15:26:15.309Z</time>
      </trkpt>
      <trkpt lat="45.717779" lon="10.226405">
        <ele>395.114703</ele>
        <time>2021-03-10T15:26:18.478Z</time>
      </trkpt>
      <trkpt lat="45.718657" lon="10.227730">
        <ele>396.091816</ele>
        <time>2021-03-10T15:26:38.887Z</time>
      </trkpt>
      <trkpt lat="45.719251" lon="10.228626">
        <ele>396.974211</ele>
        <time>2021-03-10T15:26:55.593Z</time>
      </trkpt>
      <trkpt lat="45.720177" lon="10.230099">
        <ele>399.878220</ele>
        <time>2021-03-10T15:27:25.029Z</time>
      </trkpt>
      <trkpt lat="45.720362" lon="10.230299">
        <ele>400.480435</ele>
        <time>2021-03-10T15:27:30.908Z</time>
      </trkpt>
      <trkpt lat="45.720660" lon="10.230451">
        <ele>401.302331</ele>
        <time>2021-03-10T15:27:39.464Z</time>
      </trkpt>
      <trkpt lat="45.720954" lon="10.230525">
        <ele>402.077910</ele>
        <time>2021-03-10T15:27:48.809Z</time>
      </trkpt>
      <trkpt lat="45.721307" lon="10.230463">
        <ele>403.671553</ele>
        <time>2021-03-10T15:28:01.059Z</time>
      </trkpt>
      <trkpt lat="45.721674" lon="10.230303">
        <ele>405.405415</ele>
        <time>2021-03-10T15:28:15.120Z</time>
      </trkpt>
      <trkpt lat="45.721863" lon="10.230171">
        <ele>406.355773</ele>
        <time>2021-03-10T15:28:22.845Z</time>
      </trkpt>
      <trkpt lat="45.722033" lon="10.229949">
        <ele>407.395511</ele>
        <time>2021-03-10T15:28:30.643Z</time>
      </trkpt>
      <trkpt lat="45.722260" lon="10.229459">
        <ele>409.251084</ele>
        <time>2021-03-10T15:28:43.910Z</time>
      </trkpt>
      <trkpt lat="45.722548" lon="10.229026">
        <ele>410.861290</ele>
        <time>2021-03-10T15:28:56.186Z</time>
      </trkpt>
      <trkpt lat="45.722668" lon="10.228935">
        <ele>411.288732</ele>
        <time>2021-03-10T15:28:59.842Z</time>
      </trkpt>
      <trkpt lat="45.722796" lon="10.228884">
        <ele>411.706982</ele>
        <time>2021-03-10T15:29:03.614Z</time>
      </trkpt>
      <trkpt lat="45.722962" lon="10.228886">
        <ele>412.229578</ele>
        <time>2021-03-10T15:29:08.377Z</time>
      </trkpt>
      <trkpt lat="45.723103" lon="10.228932">
        <ele>412.684822</ele>
        <time>2021-03-10T15:29:12.391Z</time>
      </trkpt>
      <trkpt lat="45.723226" lon="10.229060">
        <ele>413.163433</ele>
        <time>2021-03-10T15:29:16.735Z</time>
      </trkpt>
      <trkpt lat="45.723645" lon="10.230145">
        <ele>415.888561</ele>
        <time>2021-03-10T15:29:38.828Z</time>
      </trkpt>
      <trkpt lat="45.723718" lon="10.230331">
        <ele>416.454467</ele>
        <time>2021-03-10T15:29:42.533Z</time>
      </trkpt>
      <trkpt lat="45.723949" lon="10.230708">
        <ele>417.784811</ele>
        <time>2021-03-10T15:29:51.470Z</time>
      </trkpt>
      <trkpt lat="45.724057" lon="10.230843">
        <ele>418.329352</ele>
        <time>2021-03-10T15:29:55.436Z</time>
      </trkpt>
      <trkpt lat="45.725480" lon="10.232624">
        <ele>425.046692</ele>
        <time>2021-03-10T15:30:57.021Z</time>
      </trkpt>
      <trkpt lat="45.725803" lon="10.232727">
        <ele>426.095684</ele>
        <time>2021-03-10T15:31:04.697Z</time>
      </trkpt>
      <trkpt lat="45.726753" lon="10.232625">
        <ele>429.629853</ele>
        <time>2021-03-10T15:31:27.163Z</time>
      </trkpt>
      <trkpt lat="45.726938" lon="10.232651">
        <ele>430.656451</ele>
        <time>2021-03-10T15:31:32.042Z</time>
      </trkpt>
      <trkpt lat="45.727177" lon="10.232780">
        <ele>432.066951</ele>
        <time>2021-03-10T15:31:39.078Z</time>
      </trkpt>
      <trkpt lat="45.727360" lon="10.232927">
        <ele>433.225648</ele>
        <time>2021-03-10T15:31:45.322Z</time>
      </trkpt>
      <trkpt lat="45.727440" lon="10.233030">
        <ele>433.819682</ele>
        <time>2021-03-10T15:31:49.284Z</time>
      </trkpt>
      <trkpt lat="45.727967" lon="10.233846">
        <ele>438.105356</ele>
        <time>2021-03-10T15:32:25.979Z</time>
      </trkpt>
      <trkpt lat="45.728346" lon="10.234818">
        <ele>441.705899</ele>
        <time>2021-03-10T15:33:05.354Z</time>
      </trkpt>
      <trkpt lat="45.728357" lon="10.234847">
        <ele>441.811362</ele>
        <time>2021-03-10T15:33:06.318Z</time>
      </trkpt>
      <trkpt lat="45.728557" lon="10.235351">
        <ele>443.663871</ele>
        <time>2021-03-10T15:33:19.104Z</time>
      </trkpt>
      <trkpt lat="45.728664" lon="10.235544">
        <ele>444.451418</ele>
        <time>2021-03-10T15:33:22.764Z</time>
      </trkpt>
      <trkpt lat="45.728831" lon="10.235727">
        <ele>445.413872</ele>
        <time>2021-03-10T15:33:26.124Z</time>
      </trkpt>
      <trkpt lat="45.729037" lon="10.235850">
        <ele>446.435472</ele>
        <time>2021-03-10T15:33:29.828Z</time>
      </trkpt>
      <trkpt lat="45.729329" lon="10.235843">
        <ele>445.969362</ele>
        <time>2021-03-10T15:33:34.287Z</time>
      </trkpt>
      <trkpt lat="45.729473" lon="10.235769">
        <ele>445.602199</ele>
        <time>2021-03-10T15:33:35.983Z</time>
      </trkpt>
      <trkpt lat="45.730048" lon="10.235214">
        <ele>443.938191</ele>
        <time>2021-03-10T15:33:43.182Z</time>
      </trkpt>
      <trkpt lat="45.730091" lon="10.235174">
        <ele>443.815143</ele>
        <time>2021-03-10T15:33:43.683Z</time>
      </trkpt>
      <trkpt lat="45.730245" lon="10.235020">
        <ele>443.364404</ele>
        <time>2021-03-10T15:33:45.465Z</time>
      </trkpt>
      <trkpt lat="45.730706" lon="10.234807">
        <ele>442.301328</ele>
        <time>2021-03-10T15:33:50.042Z</time>
      </trkpt>
      <trkpt lat="45.731113" lon="10.234686">
        <ele>442.703525</ele>
        <time>2021-03-10T15:33:54.581Z</time>
      </trkpt>
      <trkpt lat="45.731231" lon="10.234697">
        <ele>442.817942</ele>
        <time>2021-03-10T15:33:56.524Z</time>
      </trkpt>
      <trkpt lat="45.731339" lon="10.234728">
        <ele>442.924518</ele>
        <time>2021-03-10T15:33:58.322Z</time>
      </trkpt>
      <trkpt lat="45.731485" lon="10.234874">
        <ele>443.096796</ele>
        <time>2021-03-10T15:34:02.535Z</time>
      </trkpt>
      <trkpt lat="45.731757" lon="10.235317">
        <ele>443.495275</ele>
        <time>2021-03-10T15:34:14.101Z</time>
      </trkpt>
      <trkpt lat="45.731880" lon="10.235460">
        <ele>443.648546</ele>
        <time>2021-03-10T15:34:18.448Z</time>
      </trkpt>
      <trkpt lat="45.732104" lon="10.235597">
        <ele>443.884209</ele>
        <time>2021-03-10T15:34:25.018Z</time>
      </trkpt>
      <trkpt lat="45.732220" lon="10.235632">
        <ele>443.998911</ele>
        <time>2021-03-10T15:34:28.153Z</time>
      </trkpt>
      <trkpt lat="45.732361" lon="10.235655">
        <ele>444.346819</ele>
        <time>2021-03-10T15:34:31.940Z</time>
      </trkpt>
      <trkpt lat="45.732526" lon="10.235611">
        <ele>444.786969</ele>
        <time>2021-03-10T15:34:36.414Z</time>
      </trkpt>
      <trkpt lat="45.732730" lon="10.235495">
        <ele>445.362565</ele>
        <time>2021-03-10T15:34:42.445Z</time>
      </trkpt>
      <trkpt lat="45.732940" lon="10.235313">
        <ele>446.006226</ele>
        <time>2021-03-10T15:34:49.287Z</time>
      </trkpt>
      <trkpt lat="45.733643" lon="10.234413">
        <ele>448.478709</ele>
        <time>2021-03-10T15:35:14.080Z</time>
      </trkpt>
      <trkpt lat="45.733864" lon="10.233973">
        <ele>448.685449</ele>
        <time>2021-03-10T15:35:21.280Z</time>
      </trkpt>
      <trkpt lat="45.734041" lon="10.233431">
        <ele>448.619450</ele>
        <time>2021-03-10T15:35:27.125Z</time>
      </trkpt>
      <trkpt lat="45.734170" lon="10.233261">
        <ele>448.591753</ele>
        <time>2021-03-10T15:35:29.362Z</time>
      </trkpt>
      <trkpt lat="45.734488" lon="10.233004">
        <ele>448.534060</ele>
        <time>2021-03-10T15:35:33.943Z</time>
      </trkpt>
      <trkpt lat="45.734854" lon="10.232922">
        <ele>448.475523</ele>
        <time>2021-03-10T15:35:38.424Z</time>
      </trkpt>
      <trkpt lat="45.735234" lon="10.232932">
        <ele>448.680010</ele>
        <time>2021-03-10T15:35:43.067Z</time>
      </trkpt>
      <trkpt lat="45.735607" lon="10.233054">
        <ele>449.145528</ele>
        <time>2021-03-10T15:35:48.236Z</time>
      </trkpt>
      <trkpt lat="45.736197" lon="10.233523">
        <ele>449.966491</ele>
        <time>2021-03-10T15:36:01.205Z</time>
      </trkpt>
      <trkpt lat="45.736323" lon="10.233667">
        <ele>450.162599</ele>
        <time>2021-03-10T15:36:05.497Z</time>
      </trkpt>
      <trkpt lat="45.736432" lon="10.233838">
        <ele>450.359265</ele>
        <time>2021-03-10T15:36:09.647Z</time>
      </trkpt>
      <trkpt lat="45.736517" lon="10.234036">
        <ele>450.556673</ele>
        <time>2021-03-10T15:36:14.477Z</time>
      </trkpt>
      <trkpt lat="45.736848" lon="10.235007">
        <ele>452.265960</ele>
        <time>2021-03-10T15:36:36.560Z</time>
      </trkpt>
      <trkpt lat="45.736894" lon="10.235144">
        <ele>452.516730</ele>
        <time>2021-03-10T15:36:39.181Z</time>
      </trkpt>
      <trkpt lat="45.737088" lon="10.235530">
        <ele>453.301328</ele>
        <time>2021-03-10T15:36:47.841Z</time>
      </trkpt>
      <trkpt lat="45.737270" lon="10.235777">
        <ele>453.893779</ele>
        <time>2021-03-10T15:36:53.966Z</time>
      </trkpt>
      <trkpt lat="45.737527" lon="10.236035">
        <ele>454.635403</ele>
        <time>2021-03-10T15:37:00.644Z</time>
      </trkpt>
      <trkpt lat="45.737749" lon="10.236187">
        <ele>454.901819</ele>
        <time>2021-03-10T15:37:04.511Z</time>
      </trkpt>
      <trkpt lat="45.739155" lon="10.236857">
        <ele>455.078203</ele>
        <time>2021-03-10T15:37:24.143Z</time>
      </trkpt>
      <trkpt lat="45.740645" lon="10.237852">
        <ele>457.223063</ele>
        <time>2021-03-10T15:37:57.421Z</time>
      </trkpt>
      <trkpt lat="45.740863" lon="10.237999">
        <ele>457.571793</ele>
        <time>2021-03-10T15:38:03.212Z</time>
      </trkpt>
      <trkpt lat="45.741258" lon="10.238264">
        <ele>458.535948</ele>
        <time>2021-03-10T15:38:13.814Z</time>
      </trkpt>
      <trkpt lat="45.741446" lon="10.238359">
        <ele>459.016385</ele>
        <time>2021-03-10T15:38:18.817Z</time>
      </trkpt>
      <trkpt lat="45.741766" lon="10.238424">
        <ele>459.795308</ele>
        <time>2021-03-10T15:38:27.278Z</time>
      </trkpt>
      <trkpt lat="45.742077" lon="10.238370">
        <ele>460.550312</ele>
        <time>2021-03-10T15:38:35.301Z</time>
      </trkpt>
      <trkpt lat="45.742560" lon="10.238141">
        <ele>461.776428</ele>
        <time>2021-03-10T15:38:47.128Z</time>
      </trkpt>
      <trkpt lat="45.742748" lon="10.238048">
        <ele>462.382464</ele>
        <time>2021-03-10T15:38:51.565Z</time>
      </trkpt>
      <trkpt lat="45.743018" lon="10.237912">
        <ele>463.472438</ele>
        <time>2021-03-10T15:38:58.263Z</time>
      </trkpt>
      <trkpt lat="45.743275" lon="10.237779">
        <ele>464.513096</ele>
        <time>2021-03-10T15:39:05.668Z</time>
      </trkpt>
      <trkpt lat="45.743522" lon="10.237744">
        <ele>465.458380</ele>
        <time>2021-03-10T15:39:12.976Z</time>
      </trkpt>
      <trkpt lat="45.743648" lon="10.237797">
        <ele>465.958497</ele>
        <time>2021-03-10T15:39:17.317Z</time>
      </trkpt>
      <trkpt lat="45.743968" lon="10.238014">
        <ele>467.306794</ele>
        <time>2021-03-10T15:39:29.717Z</time>
      </trkpt>
      <trkpt lat="45.744065" lon="10.238131">
        <ele>467.789672</ele>
        <time>2021-03-10T15:39:34.485Z</time>
      </trkpt>
      <trkpt lat="45.744198" lon="10.238293">
        <ele>468.454470</ele>
        <time>2021-03-10T15:39:41.355Z</time>
      </trkpt>
      <trkpt lat="45.744322" lon="10.238542">
        <ele>469.209681</ele>
        <time>2021-03-10T15:39:49.081Z</time>
      </trkpt>
      <trkpt lat="45.744932" lon="10.240087">
        <ele>473.209921</ele>
        <time>2021-03-10T15:40:24.356Z</time>
      </trkpt>
      <trkpt lat="45.744997" lon="10.240232">
        <ele>473.598283</ele>
        <time>2021-03-10T15:40:27.125Z</time>
      </trkpt>
      <trkpt lat="45.745113" lon="10.240374">
        <ele>474.090937</ele>
        <time>2021-03-10T15:40:30.759Z</time>
      </trkpt>
      <trkpt lat="45.745219" lon="10.240466">
        <ele>474.491117</ele>
        <time>2021-03-10T15:40:33.948Z</time>
      </trkpt>
      <trkpt lat="45.745335" lon="10.240523">
        <ele>474.761112</ele>
        <time>2021-03-10T15:40:36.472Z</time>
      </trkpt>
      <trkpt lat="45.745461" lon="10.240528">
        <ele>474.900353</ele>
        <time>2021-03-10T15:40:39.247Z</time>
      </trkpt>
      <trkpt lat="45.745588" lon="10.240494">
        <ele>475.043073</ele>
        <time>2021-03-10T15:40:41.981Z</time>
      </trkpt>
      <trkpt lat="45.745742" lon="10.240407">
        <ele>475.225934</ele>
        <time>2021-03-10T15:40:44.589Z</time>
      </trkpt>
      <trkpt lat="45.746072" lon="10.240165">
        <ele>475.635435</ele>
        <time>2021-03-10T15:40:49.896Z</time>
      </trkpt>
      <trkpt lat="45.746281" lon="10.240094">
        <ele>475.872709</ele>
        <time>2021-03-10T15:40:54.000Z</time>
      </trkpt>
      <trkpt lat="45.746315" lon="10.240085">
        <ele>475.910903</ele>
        <time>2021-03-10T15:40:54.464Z</time>
      </trkpt>
      <trkpt lat="45.746680" lon="10.240031">
        <ele>476.316249</ele>
        <time>2021-03-10T15:40:59.691Z</time>
      </trkpt>
      <trkpt lat="45.747057" lon="10.240017">
        <ele>476.786207</ele>
        <time>2021-03-10T15:41:08.985Z</time>
      </trkpt>
      <trkpt lat="45.747187" lon="10.240054">
        <ele>477.087772</ele>
        <time>2021-03-10T15:41:13.973Z</time>
      </trkpt>
      <trkpt lat="45.747248" lon="10.240084">
        <ele>477.234511</ele>
        <time>2021-03-10T15:41:16.733Z</time>
      </trkpt>
      <trkpt lat="45.747577" lon="10.240299">
        <ele>478.057243</ele>
        <time>2021-03-10T15:41:26.245Z</time>
      </trkpt>
      <trkpt lat="45.747950" lon="10.240542">
        <ele>478.989509</ele>
        <time>2021-03-10T15:41:36.111Z</time>
      </trkpt>
      <trkpt lat="45.748012" lon="10.240581">
        <ele>479.143569</ele>
        <time>2021-03-10T15:41:37.833Z</time>
      </trkpt>
      <trkpt lat="45.748149" lon="10.240668">
        <ele>479.484519</ele>
        <time>2021-03-10T15:41:42.058Z</time>
      </trkpt>
      <trkpt lat="45.748316" lon="10.240786">
        <ele>479.908170</ele>
        <time>2021-03-10T15:41:46.680Z</time>
      </trkpt>
      <trkpt lat="45.748587" lon="10.240944">
        <ele>480.573850</ele>
        <time>2021-03-10T15:41:53.714Z</time>
      </trkpt>
      <trkpt lat="45.748674" lon="10.240406">
        <ele>481.063660</ele>
        <time>2021-03-10T15:42:01.940Z</time>
      </trkpt>
      <trkpt lat="45.748699" lon="10.240356">
        <ele>481.105388</ele>
        <time>2021-03-10T15:42:02.870Z</time>
      </trkpt>
      <trkpt lat="45.748757" lon="10.240344">
        <ele>481.162358</ele>
        <time>2021-03-10T15:42:03.869Z</time>
      </trkpt>
      <trkpt lat="45.749171" lon="10.240426">
        <ele>481.568664</ele>
        <time>2021-03-10T15:42:12.320Z</time>
      </trkpt>
      <trkpt lat="45.749519" lon="10.240509">
        <ele>481.911634</ele>
        <time>2021-03-10T15:42:17.383Z</time>
      </trkpt>
      <trkpt lat="45.749734" lon="10.240537">
        <ele>482.121513</ele>
        <time>2021-03-10T15:42:20.023Z</time>
      </trkpt>
      <trkpt lat="45.749903" lon="10.240506">
        <ele>482.287151</ele>
        <time>2021-03-10T15:42:21.762Z</time>
      </trkpt>
      <trkpt lat="45.750763" lon="10.240654">
        <ele>485.314739</ele>
        <time>2021-03-10T15:42:43.744Z</time>
      </trkpt>
      <trkpt lat="45.751037" lon="10.240788">
        <ele>486.611762</ele>
        <time>2021-03-10T15:42:54.225Z</time>
      </trkpt>
      <trkpt lat="45.751647" lon="10.241331">
        <ele>489.828816</ele>
        <time>2021-03-10T15:43:23.152Z</time>
      </trkpt>
      <trkpt lat="45.751795" lon="10.241740">
        <ele>491.024287</ele>
        <time>2021-03-10T15:43:36.474Z</time>
      </trkpt>
      <trkpt lat="45.751841" lon="10.241788">
        <ele>491.188466</ele>
        <time>2021-03-10T15:43:38.488Z</time>
      </trkpt>
      <trkpt lat="45.751812" lon="10.241921">
        <ele>491.469001</ele>
        <time>2021-03-10T15:43:43.481Z</time>
      </trkpt>
      <trkpt lat="45.751984" lon="10.242014">
        <ele>491.999420</ele>
        <time>2021-03-10T15:43:48.995Z</time>
      </trkpt>
      <trkpt lat="45.752750" lon="10.242439">
        <ele>494.369413</ele>
        <time>2021-03-10T15:44:11.021Z</time>
      </trkpt>
      <trkpt lat="45.753180" lon="10.242642">
        <ele>495.675676</ele>
        <time>2021-03-10T15:44:20.038Z</time>
      </trkpt>
      <trkpt lat="45.753385" lon="10.242693">
        <ele>495.338737</ele>
        <time>2021-03-10T15:44:22.183Z</time>
      </trkpt>
      <trkpt lat="45.753749" lon="10.242645">
        <ele>494.435669</ele>
        <time>2021-03-10T15:44:26.085Z</time>
      </trkpt>
      <trkpt lat="45.753900" lon="10.242619">
        <ele>494.059937</ele>
        <time>2021-03-10T15:44:27.687Z</time>
      </trkpt>
      <trkpt lat="45.755009" lon="10.242424">
        <ele>491.319911</ele>
        <time>2021-03-10T15:44:38.727Z</time>
      </trkpt>
      <trkpt lat="45.755402" lon="10.242511">
        <ele>491.052953</ele>
        <time>2021-03-10T15:44:43.321Z</time>
      </trkpt>
      <trkpt lat="45.755615" lon="10.242642">
        <ele>490.897353</ele>
        <time>2021-03-10T15:44:46.453Z</time>
      </trkpt>
      <trkpt lat="45.755984" lon="10.242893">
        <ele>490.623153</ele>
        <time>2021-03-10T15:44:52.080Z</time>
      </trkpt>
      <trkpt lat="45.756208" lon="10.242956">
        <ele>490.469909</ele>
        <time>2021-03-10T15:44:55.320Z</time>
      </trkpt>
      <trkpt lat="45.756656" lon="10.243025">
        <ele>490.167426</ele>
        <time>2021-03-10T15:45:02.473Z</time>
      </trkpt>
      <trkpt lat="45.756761" lon="10.243065">
        <ele>490.178554</ele>
        <time>2021-03-10T15:45:04.195Z</time>
      </trkpt>
      <trkpt lat="45.756920" lon="10.243126">
        <ele>490.431786</ele>
        <time>2021-03-10T15:45:06.749Z</time>
      </trkpt>
      <trkpt lat="45.757182" lon="10.243349">
        <ele>490.900588</ele>
        <time>2021-03-10T15:45:11.994Z</time>
      </trkpt>
      <trkpt lat="45.757777" lon="10.243934">
        <ele>492.010663</ele>
        <time>2021-03-10T15:45:27.900Z</time>
      </trkpt>
      <trkpt lat="45.758232" lon="10.244374">
        <ele>492.855102</ele>
        <time>2021-03-10T15:45:41.100Z</time>
      </trkpt>
      <trkpt lat="45.758389" lon="10.244489">
        <ele>493.355606</ele>
        <time>2021-03-10T15:45:45.406Z</time>
      </trkpt>
      <trkpt lat="45.758543" lon="10.244553">
        <ele>493.838775</ele>
        <time>2021-03-10T15:45:49.365Z</time>
      </trkpt>
      <trkpt lat="45.758962" lon="10.244526">
        <ele>495.102646</ele>
        <time>2021-03-10T15:45:59.862Z</time>
      </trkpt>
      <trkpt lat="45.759055" lon="10.244550">
        <ele>495.387394</ele>
        <time>2021-03-10T15:46:02.252Z</time>
      </trkpt>
      <trkpt lat="45.759247" lon="10.244658">
        <ele>496.008915</ele>
        <time>2021-03-10T15:46:07.701Z</time>
      </trkpt>
      <trkpt lat="45.759425" lon="10.244841">
        <ele>496.669003</ele>
        <time>2021-03-10T15:46:13.825Z</time>
      </trkpt>
      <trkpt lat="45.759563" lon="10.245071">
        <ele>497.306759</ele>
        <time>2021-03-10T15:46:20.216Z</time>
      </trkpt>
      <trkpt lat="45.759719" lon="10.245422">
        <ele>498.181687</ele>
        <time>2021-03-10T15:46:29.255Z</time>
      </trkpt>
      <trkpt lat="45.759785" lon="10.245724">
        <ele>498.804102</ele>
        <time>2021-03-10T15:46:36.057Z</time>
      </trkpt>
      <trkpt lat="45.759852" lon="10.246357">
        <ele>500.043116</ele>
        <time>2021-03-10T15:46:48.168Z</time>
      </trkpt>
      <trkpt lat="45.759962" lon="10.247190">
        <ele>501.683776</ele>
        <time>2021-03-10T15:47:03.089Z</time>
      </trkpt>
      <trkpt lat="45.760031" lon="10.247434">
        <ele>502.193284</ele>
        <time>2021-03-10T15:47:07.753Z</time>
      </trkpt>
      <trkpt lat="45.760123" lon="10.247599">
        <ele>502.602042</ele>
        <time>2021-03-10T15:47:10.917Z</time>
      </trkpt>
      <trkpt lat="45.760235" lon="10.247731">
        <ele>503.004248</ele>
        <time>2021-03-10T15:47:14.637Z</time>
      </trkpt>
      <trkpt lat="45.760401" lon="10.247863">
        <ele>503.465479</ele>
        <time>2021-03-10T15:47:18.839Z</time>
      </trkpt>
      <trkpt lat="45.760660" lon="10.248059">
        <ele>504.051511</ele>
        <time>2021-03-10T15:47:25.935Z</time>
      </trkpt>
      <trkpt lat="45.761353" lon="10.248542">
        <ele>505.593387</ele>
        <time>2021-03-10T15:47:41.587Z</time>
      </trkpt>
      <trkpt lat="45.761494" lon="10.248712">
        <ele>505.962051</ele>
        <time>2021-03-10T15:47:46.383Z</time>
      </trkpt>
      <trkpt lat="45.761693" lon="10.248981">
        <ele>506.509368</ele>
        <time>2021-03-10T15:47:52.407Z</time>
      </trkpt>
      <trkpt lat="45.761799" lon="10.249105">
        <ele>506.783134</ele>
        <time>2021-03-10T15:47:56.173Z</time>
      </trkpt>
      <trkpt lat="45.761851" lon="10.249198">
        <ele>506.996281</ele>
        <time>2021-03-10T15:47:58.191Z</time>
      </trkpt>
      <trkpt lat="45.762064" lon="10.249610">
        <ele>508.329589</ele>
        <time>2021-03-10T15:48:06.888Z</time>
      </trkpt>
      <trkpt lat="45.762226" lon="10.249929">
        <ele>509.355488</ele>
        <time>2021-03-10T15:48:14.332Z</time>
      </trkpt>
      <trkpt lat="45.762498" lon="10.250430">
        <ele>511.006087</ele>
        <time>2021-03-10T15:48:26.118Z</time>
      </trkpt>
      <trkpt lat="45.762635" lon="10.250590">
        <ele>511.664696</ele>
        <time>2021-03-10T15:48:31.658Z</time>
      </trkpt>
      <trkpt lat="45.762979" lon="10.250902">
        <ele>513.181851</ele>
        <time>2021-03-10T15:48:45.298Z</time>
      </trkpt>
      <trkpt lat="45.763461" lon="10.251402">
        <ele>516.620866</ele>
        <time>2021-03-10T15:49:09.932Z</time>
      </trkpt>
      <trkpt lat="45.763671" lon="10.251770">
        <ele>518.695639</ele>
        <time>2021-03-10T15:49:22.738Z</time>
      </trkpt>
      <trkpt lat="45.763814" lon="10.252021">
        <ele>520.109842</ele>
        <time>2021-03-10T15:49:31.026Z</time>
      </trkpt>
      <trkpt lat="45.764023" lon="10.252535">
        <ele>522.706101</ele>
        <time>2021-03-10T15:49:48.056Z</time>
      </trkpt>
      <trkpt lat="45.764266" lon="10.253063">
        <ele>525.367923</ele>
        <time>2021-03-10T15:50:07.275Z</time>
      </trkpt>
      <trkpt lat="45.764533" lon="10.253740">
        <ele>528.219079</ele>
        <time>2021-03-10T15:50:30.490Z</time>
      </trkpt>
      <trkpt lat="45.764833" lon="10.254746">
        <ele>532.230049</ele>
        <time>2021-03-10T15:50:58.033Z</time>
      </trkpt>
      <trkpt lat="45.765000" lon="10.255563">
        <ele>534.750197</ele>
        <time>2021-03-10T15:51:13.475Z</time>
      </trkpt>
      <trkpt lat="45.765112" lon="10.255970">
        <ele>535.434988</ele>
        <time>2021-03-10T15:51:21.334Z</time>
      </trkpt>
      <trkpt lat="45.765583" lon="10.256890">
        <ele>537.221083</ele>
        <time>2021-03-10T15:51:40.288Z</time>
      </trkpt>
      <trkpt lat="45.765749" lon="10.257123">
        <ele>537.742335</ele>
        <time>2021-03-10T15:51:45.107Z</time>
      </trkpt>
      <trkpt lat="45.766459" lon="10.257923">
        <ele>540.079096</ele>
        <time>2021-03-10T15:52:03.163Z</time>
      </trkpt>
      <trkpt lat="45.766617" lon="10.258161">
        <ele>540.704961</ele>
        <time>2021-03-10T15:52:09.027Z</time>
      </trkpt>
      <trkpt lat="45.766700" lon="10.258182">
        <ele>540.935117</ele>
        <time>2021-03-10T15:52:10.871Z</time>
      </trkpt>
      <trkpt lat="45.766876" lon="10.258455">
        <ele>541.643239</ele>
        <time>2021-03-10T15:52:18.097Z</time>
      </trkpt>
      <trkpt lat="45.767017" lon="10.259014">
        <ele>542.775565</ele>
        <time>2021-03-10T15:52:31.862Z</time>
      </trkpt>
      <trkpt lat="45.767122" lon="10.259202">
        <ele>543.234332</ele>
        <time>2021-03-10T15:52:37.671Z</time>
      </trkpt>
      <trkpt lat="45.767215" lon="10.259628">
        <ele>543.886454</ele>
        <time>2021-03-10T15:52:47.938Z</time>
      </trkpt>
      <trkpt lat="45.767092" lon="10.260413">
        <ele>545.055321</ele>
        <time>2021-03-10T15:52:59.779Z</time>
      </trkpt>
      <trkpt lat="45.766977" lon="10.260882">
        <ele>545.777556</ele>
        <time>2021-03-10T15:53:05.236Z</time>
      </trkpt>
      <trkpt lat="45.766890" lon="10.260890">
        <ele>545.959119</ele>
        <time>2021-03-10T15:53:07.718Z</time>
      </trkpt>
      <trkpt lat="45.766872" lon="10.260990">
        <ele>546.109159</ele>
        <time>2021-03-10T15:53:08.674Z</time>
      </trkpt>
      <trkpt lat="45.766867" lon="10.261448">
        <ele>546.774628</ele>
        <time>2021-03-10T15:53:14.361Z</time>
      </trkpt>
      <trkpt lat="45.766953" lon="10.261722">
        <ele>547.488934</ele>
        <time>2021-03-10T15:53:17.353Z</time>
      </trkpt>
      <trkpt lat="45.767112" lon="10.261894">
        <ele>548.438348</ele>
        <time>2021-03-10T15:53:24.003Z</time>
      </trkpt>
      <trkpt lat="45.767324" lon="10.262020">
        <ele>549.532217</ele>
        <time>2021-03-10T15:53:30.508Z</time>
      </trkpt>
      <trkpt lat="45.767557" lon="10.262068">
        <ele>550.654186</ele>
        <time>2021-03-10T15:53:38.207Z</time>
      </trkpt>
      <trkpt lat="45.767811" lon="10.262069">
        <ele>551.864844</ele>
        <time>2021-03-10T15:53:48.789Z</time>
      </trkpt>
      <trkpt lat="45.767888" lon="10.262205">
        <ele>552.447220</ele>
        <time>2021-03-10T15:53:51.999Z</time>
      </trkpt>
      <trkpt lat="45.768012" lon="10.262478">
        <ele>553.530364</ele>
        <time>2021-03-10T15:54:00.557Z</time>
      </trkpt>
      <trkpt lat="45.768023" lon="10.262545">
        <ele>553.759215</ele>
        <time>2021-03-10T15:54:02.194Z</time>
      </trkpt>
      <trkpt lat="45.767977" lon="10.262647">
        <ele>554.163051</ele>
        <time>2021-03-10T15:54:04.724Z</time>
      </trkpt>
      <trkpt lat="45.767692" lon="10.262899">
        <ele>555.928908</ele>
        <time>2021-03-10T15:54:18.659Z</time>
      </trkpt>
      <trkpt lat="45.767599" lon="10.263112">
        <ele>557.509021</ele>
        <time>2021-03-10T15:54:27.169Z</time>
      </trkpt>
      <trkpt lat="45.767569" lon="10.263374">
        <ele>559.178574</ele>
        <time>2021-03-10T15:54:35.542Z</time>
      </trkpt>
      <trkpt lat="45.767573" lon="10.263682">
        <ele>561.115672</ele>
        <time>2021-03-10T15:54:47.165Z</time>
      </trkpt>
      <trkpt lat="45.767623" lon="10.264006">
        <ele>563.202305</ele>
        <time>2021-03-10T15:54:59.077Z</time>
      </trkpt>
      <trkpt lat="45.767509" lon="10.264680">
        <ele>567.563351</ele>
        <time>2021-03-10T15:55:26.914Z</time>
      </trkpt>
      <trkpt lat="45.767701" lon="10.265600">
        <ele>573.151674</ele>
        <time>2021-03-10T15:56:03.409Z</time>
      </trkpt>
      <trkpt lat="45.767870" lon="10.266051">
        <ele>575.574495</ele>
        <time>2021-03-10T15:56:19.965Z</time>
      </trkpt>
      <trkpt lat="45.767921" lon="10.266362">
        <ele>577.086424</ele>
        <time>2021-03-10T15:56:28.844Z</time>
      </trkpt>
      <trkpt lat="45.768021" lon="10.266620">
        <ele>578.483229</ele>
        <time>2021-03-10T15:56:37.192Z</time>
      </trkpt>
      <trkpt lat="45.768184" lon="10.267320">
        <ele>581.975663</ele>
        <time>2021-03-10T15:56:55.944Z</time>
      </trkpt>
      <trkpt lat="45.768396" lon="10.267738">
        <ele>584.215151</ele>
        <time>2021-03-10T15:57:08.989Z</time>
      </trkpt>
      <trkpt lat="45.768614" lon="10.268108">
        <ele>585.424465</ele>
        <time>2021-03-10T15:57:21.273Z</time>
      </trkpt>
      <trkpt lat="45.768644" lon="10.268239">
        <ele>585.768737</ele>
        <time>2021-03-10T15:57:24.774Z</time>
      </trkpt>
      <trkpt lat="45.768496" lon="10.269102">
        <ele>587.987745</ele>
        <time>2021-03-10T15:57:43.640Z</time>
      </trkpt>
      <trkpt lat="45.768637" lon="10.269962">
        <ele>590.193612</ele>
        <time>2021-03-10T15:57:57.221Z</time>
      </trkpt>
      <trkpt lat="45.768711" lon="10.270010">
        <ele>590.503264</ele>
        <time>2021-03-10T15:57:58.936Z</time>
      </trkpt>
      <trkpt lat="45.768761" lon="10.269920">
        <ele>590.879154</ele>
        <time>2021-03-10T15:58:00.659Z</time>
      </trkpt>
      <trkpt lat="45.768644" lon="10.269221">
        <ele>593.227626</ele>
        <time>2021-03-10T15:58:12.993Z</time>
      </trkpt>
      <trkpt lat="45.768661" lon="10.269131">
        <ele>593.532248</ele>
        <time>2021-03-10T15:58:14.744Z</time>
      </trkpt>
      <trkpt lat="45.768752" lon="10.269089">
        <ele>593.979992</ele>
        <time>2021-03-10T15:58:17.295Z</time>
      </trkpt>
      <trkpt lat="45.768790" lon="10.269116">
        <ele>594.178626</ele>
        <time>2021-03-10T15:58:18.415Z</time>
      </trkpt>
      <trkpt lat="45.768806" lon="10.269168">
        <ele>594.364304</ele>
        <time>2021-03-10T15:58:19.500Z</time>
      </trkpt>
      <trkpt lat="45.768791" lon="10.269319">
        <ele>594.862600</ele>
        <time>2021-03-10T15:58:22.888Z</time>
      </trkpt>
      <trkpt lat="45.768806" lon="10.269715">
        <ele>596.158245</ele>
        <time>2021-03-10T15:58:32.136Z</time>
      </trkpt>
      <trkpt lat="45.768977" lon="10.270204">
        <ele>597.945319</ele>
        <time>2021-03-10T15:58:47.662Z</time>
      </trkpt>
      <trkpt lat="45.768879" lon="10.270586">
        <ele>599.634422</ele>
        <time>2021-03-10T15:59:01.217Z</time>
      </trkpt>
      <trkpt lat="45.768897" lon="10.270822">
        <ele>601.061229</ele>
        <time>2021-03-10T15:59:09.960Z</time>
      </trkpt>
      <trkpt lat="45.768936" lon="10.270971">
        <ele>602.017680</ele>
        <time>2021-03-10T15:59:16.333Z</time>
      </trkpt>
      <trkpt lat="45.769038" lon="10.271092">
        <ele>603.158353</ele>
        <time>2021-03-10T15:59:24.098Z</time>
      </trkpt>
      <trkpt lat="45.770077" lon="10.271977">
        <ele>613.571027</ele>
        <time>2021-03-10T16:00:25.436Z</time>
      </trkpt>
      <trkpt lat="45.770288" lon="10.271966">
        <ele>614.993532</ele>
        <time>2021-03-10T16:00:35.061Z</time>
      </trkpt>
      <trkpt lat="45.770429" lon="10.272008">
        <ele>615.764023</ele>
        <time>2021-03-10T16:00:41.746Z</time>
      </trkpt>
      <trkpt lat="45.770470" lon="10.272073">
        <ele>616.091074</ele>
        <time>2021-03-10T16:00:44.738Z</time>
      </trkpt>
      <trkpt lat="45.770476" lon="10.272145">
        <ele>616.361685</ele>
        <time>2021-03-10T16:00:47.240Z</time>
      </trkpt>
      <trkpt lat="45.770445" lon="10.272218">
        <ele>616.680634</ele>
        <time>2021-03-10T16:00:49.636Z</time>
      </trkpt>
      <trkpt lat="45.770070" lon="10.272624">
        <ele>619.194820</ele>
        <time>2021-03-10T16:01:06.421Z</time>
      </trkpt>
      <trkpt lat="45.770015" lon="10.272775">
        <ele>619.830552</ele>
        <time>2021-03-10T16:01:10.459Z</time>
      </trkpt>
      <trkpt lat="45.769979" lon="10.273710">
        <ele>623.325274</ele>
        <time>2021-03-10T16:01:27.347Z</time>
      </trkpt>
      <trkpt lat="45.769978" lon="10.273734">
        <ele>623.415001</ele>
        <time>2021-03-10T16:01:27.921Z</time>
      </trkpt>
      <trkpt lat="45.769927" lon="10.274261">
        <ele>626.345993</ele>
        <time>2021-03-10T16:01:38.276Z</time>
      </trkpt>
      <trkpt lat="45.769866" lon="10.274434">
        <ele>627.546446</ele>
        <time>2021-03-10T16:01:43.404Z</time>
      </trkpt>
      <trkpt lat="45.769778" lon="10.274557">
        <ele>628.637586</ele>
        <time>2021-03-10T16:01:49.228Z</time>
      </trkpt>
      <trkpt lat="45.769573" lon="10.274733">
        <ele>630.758988</ele>
        <time>2021-03-10T16:02:03.577Z</time>
      </trkpt>
      <trkpt lat="45.769499" lon="10.274864">
        <ele>631.802903</ele>
        <time>2021-03-10T16:02:11.258Z</time>
      </trkpt>
      <trkpt lat="45.769462" lon="10.275025">
        <ele>632.852669</ele>
        <time>2021-03-10T16:02:20.204Z</time>
      </trkpt>
      <trkpt lat="45.769518" lon="10.275238">
        <ele>634.262327</ele>
        <time>2021-03-10T16:02:29.483Z</time>
      </trkpt>
      <trkpt lat="45.769665" lon="10.275469">
        <ele>636.198732</ele>
        <time>2021-03-10T16:02:43.207Z</time>
      </trkpt>
      <trkpt lat="45.769840" lon="10.275636">
        <ele>638.065122</ele>
        <time>2021-03-10T16:02:53.338Z</time>
      </trkpt>
      <trkpt lat="45.770193" lon="10.275807">
        <ele>641.255986</ele>
        <time>2021-03-10T16:03:11.732Z</time>
      </trkpt>
      <trkpt lat="45.770316" lon="10.275895">
        <ele>642.376974</ele>
        <time>2021-03-10T16:03:19.673Z</time>
      </trkpt>
      <trkpt lat="45.770631" lon="10.276283">
        <ele>645.763591</ele>
        <time>2021-03-10T16:03:42.190Z</time>
      </trkpt>
      <trkpt lat="45.770690" lon="10.276271">
        <ele>646.249534</ele>
        <time>2021-03-10T16:03:44.902Z</time>
      </trkpt>
      <trkpt lat="45.770715" lon="10.276210">
        <ele>646.651969</ele>
        <time>2021-03-10T16:03:47.341Z</time>
      </trkpt>
      <trkpt lat="45.770701" lon="10.276142">
        <ele>647.055258</ele>
        <time>2021-03-10T16:03:49.859Z</time>
      </trkpt>
      <trkpt lat="45.770398" lon="10.275791">
        <ele>650.231943</ele>
        <time>2021-03-10T16:04:11.698Z</time>
      </trkpt>
      <trkpt lat="45.770255" lon="10.275563">
        <ele>651.976014</ele>
        <time>2021-03-10T16:04:22.829Z</time>
      </trkpt>
      <trkpt lat="45.770234" lon="10.275273">
        <ele>653.634450</ele>
        <time>2021-03-10T16:04:30.822Z</time>
      </trkpt>
      <trkpt lat="45.770335" lon="10.275082">
        <ele>654.781862</ele>
        <time>2021-03-10T16:04:36.087Z</time>
      </trkpt>
      <trkpt lat="45.770736" lon="10.274762">
        <ele>656.479680</ele>
        <time>2021-03-10T16:04:44.725Z</time>
      </trkpt>
      <trkpt lat="45.770827" lon="10.274577">
        <ele>657.063832</ele>
        <time>2021-03-10T16:04:47.332Z</time>
      </trkpt>
      <trkpt lat="45.770975" lon="10.274167">
        <ele>658.255105</ele>
        <time>2021-03-10T16:04:53.459Z</time>
      </trkpt>
      <trkpt lat="45.771297" lon="10.273498">
        <ele>660.352539</ele>
        <time>2021-03-10T16:05:10.906Z</time>
      </trkpt>
      <trkpt lat="45.771256" lon="10.272902">
        <ele>662.565297</ele>
        <time>2021-03-10T16:05:28.204Z</time>
      </trkpt>
      <trkpt lat="45.771284" lon="10.272659">
        <ele>663.862102</ele>
        <time>2021-03-10T16:05:35.881Z</time>
      </trkpt>
      <trkpt lat="45.771337" lon="10.272518">
        <ele>664.705443</ele>
        <time>2021-03-10T16:05:40.564Z</time>
      </trkpt>
      <trkpt lat="45.771413" lon="10.272457">
        <ele>665.362920</ele>
        <time>2021-03-10T16:05:44.453Z</time>
      </trkpt>
      <trkpt lat="45.771593" lon="10.272384">
        <ele>666.774976</ele>
        <time>2021-03-10T16:05:52.517Z</time>
      </trkpt>
      <trkpt lat="45.771659" lon="10.272444">
        <ele>667.364899</ele>
        <time>2021-03-10T16:05:55.698Z</time>
      </trkpt>
      <trkpt lat="45.771635" lon="10.272561">
        <ele>668.007020</ele>
        <time>2021-03-10T16:05:59.283Z</time>
      </trkpt>
      <trkpt lat="45.771527" lon="10.272625">
        <ele>668.889161</ele>
        <time>2021-03-10T16:06:04.541Z</time>
      </trkpt>
      <trkpt lat="45.771461" lon="10.272854">
        <ele>670.193780</ele>
        <time>2021-03-10T16:06:12.466Z</time>
      </trkpt>
      <trkpt lat="45.771510" lon="10.272956">
        <ele>670.845885</ele>
        <time>2021-03-10T16:06:17.023Z</time>
      </trkpt>
      <trkpt lat="45.771619" lon="10.272996">
        <ele>671.695203</ele>
        <time>2021-03-10T16:06:22.274Z</time>
      </trkpt>
      <trkpt lat="45.771703" lon="10.273103">
        <ele>672.543408</ele>
        <time>2021-03-10T16:06:27.645Z</time>
      </trkpt>
      <trkpt lat="45.771781" lon="10.273463">
        <ele>674.528237</ele>
        <time>2021-03-10T16:06:41.377Z</time>
      </trkpt>
      <trkpt lat="45.771799" lon="10.273706">
        <ele>676.004502</ele>
        <time>2021-03-10T16:06:50.345Z</time>
      </trkpt>
      <trkpt lat="45.771768" lon="10.273896">
        <ele>677.230445</ele>
        <time>2021-03-10T16:06:57.323Z</time>
      </trkpt>
      <trkpt lat="45.771514" lon="10.274457">
        <ele>681.432498</ele>
        <time>2021-03-10T16:07:20.424Z</time>
      </trkpt>
      <trkpt lat="45.771541" lon="10.274555">
        <ele>682.094499</ele>
        <time>2021-03-10T16:07:24.329Z</time>
      </trkpt>
      <trkpt lat="45.771600" lon="10.274571">
        <ele>682.635352</ele>
        <time>2021-03-10T16:07:27.817Z</time>
      </trkpt>
      <trkpt lat="45.771664" lon="10.274502">
        <ele>683.356632</ele>
        <time>2021-03-10T16:07:31.520Z</time>
      </trkpt>
      <trkpt lat="45.771709" lon="10.274338">
        <ele>684.463860</ele>
        <time>2021-03-10T16:07:36.859Z</time>
      </trkpt>
      <trkpt lat="45.771783" lon="10.274200">
        <ele>685.557476</ele>
        <time>2021-03-10T16:07:43.535Z</time>
      </trkpt>
      <trkpt lat="45.771861" lon="10.274118">
        <ele>686.428692</ele>
        <time>2021-03-10T16:07:48.573Z</time>
      </trkpt>
      <trkpt lat="45.771932" lon="10.274145">
        <ele>687.090324</ele>
        <time>2021-03-10T16:07:51.953Z</time>
      </trkpt>
      <trkpt lat="45.771939" lon="10.274271">
        <ele>687.884454</ele>
        <time>2021-03-10T16:07:56.144Z</time>
      </trkpt>
      <trkpt lat="45.771802" lon="10.274640">
        <ele>690.510743</ele>
        <time>2021-03-10T16:08:11.759Z</time>
      </trkpt>
      <trkpt lat="45.771643" lon="10.275185">
        <ele>694.491880</ele>
        <time>2021-03-10T16:08:33.394Z</time>
      </trkpt>
      <trkpt lat="45.771682" lon="10.275290">
        <ele>695.302478</ele>
        <time>2021-03-10T16:08:38.396Z</time>
      </trkpt>
      <trkpt lat="45.771838" lon="10.275406">
        <ele>697.019244</ele>
        <time>2021-03-10T16:08:47.683Z</time>
      </trkpt>
      <trkpt lat="45.772265" lon="10.275327">
        <ele>701.225223</ele>
        <time>2021-03-10T16:09:09.979Z</time>
      </trkpt>
      <trkpt lat="45.772366" lon="10.275308">
        <ele>702.220356</ele>
        <time>2021-03-10T16:09:15.465Z</time>
      </trkpt>
      <trkpt lat="45.772565" lon="10.275467">
        <ele>704.445916</ele>
        <time>2021-03-10T16:09:26.463Z</time>
      </trkpt>
      <trkpt lat="45.772843" lon="10.275724">
        <ele>707.677362</ele>
        <time>2021-03-10T16:09:44.997Z</time>
      </trkpt>
      <trkpt lat="45.772960" lon="10.275976">
        <ele>709.841475</ele>
        <time>2021-03-10T16:09:58.553Z</time>
      </trkpt>
      <trkpt lat="45.773071" lon="10.276103">
        <ele>711.352783</ele>
        <time>2021-03-10T16:10:06.483Z</time>
      </trkpt>
      <trkpt lat="45.773131" lon="10.276074">
        <ele>712.026611</ele>
        <time>2021-03-10T16:10:10.627Z</time>
      </trkpt>
      <trkpt lat="45.773153" lon="10.275965">
        <ele>712.868889</ele>
        <time>2021-03-10T16:10:15.949Z</time>
      </trkpt>
      <trkpt lat="45.772939" lon="10.275524">
        <ele>716.856620</ele>
        <time>2021-03-10T16:10:38.926Z</time>
      </trkpt>
      <trkpt lat="45.772931" lon="10.275396">
        <ele>717.810548</ele>
        <time>2021-03-10T16:10:44.091Z</time>
      </trkpt>
      <trkpt lat="45.772973" lon="10.275235">
        <ele>719.086470</ele>
        <time>2021-03-10T16:10:50.522Z</time>
      </trkpt>
      <trkpt lat="45.773048" lon="10.275125">
        <ele>720.228279</ele>
        <time>2021-03-10T16:10:56.471Z</time>
      </trkpt>
      <trkpt lat="45.773191" lon="10.275052">
        <ele>721.843674</ele>
        <time>2021-03-10T16:11:04.557Z</time>
      </trkpt>
      <trkpt lat="45.773317" lon="10.275109">
        <ele>723.249732</ele>
        <time>2021-03-10T16:11:11.019Z</time>
      </trkpt>
      <trkpt lat="45.773415" lon="10.275230">
        <ele>724.626086</ele>
        <time>2021-03-10T16:11:17.890Z</time>
      </trkpt>
      <trkpt lat="45.773596" lon="10.276443">
        <ele>735.161098</ele>
        <time>2021-03-10T16:12:07.214Z</time>
      </trkpt>
      <trkpt lat="45.773590" lon="10.276794">
        <ele>738.335640</ele>
        <time>2021-03-10T16:12:25.737Z</time>
      </trkpt>
      <trkpt lat="45.773552" lon="10.277021">
        <ele>740.446360</ele>
        <time>2021-03-10T16:12:38.267Z</time>
      </trkpt>
      <trkpt lat="45.773526" lon="10.277166">
        <ele>741.800016</ele>
        <time>2021-03-10T16:12:47.072Z</time>
      </trkpt>
      <trkpt lat="45.773456" lon="10.277484">
        <ele>744.815026</ele>
        <time>2021-03-10T16:13:04.406Z</time>
      </trkpt>
      <trkpt lat="45.773435" lon="10.277597">
        <ele>745.872369</ele>
        <time>2021-03-10T16:13:10.833Z</time>
      </trkpt>
      <trkpt lat="45.773372" lon="10.277932">
        <ele>749.009466</ele>
        <time>2021-03-10T16:13:28.501Z</time>
      </trkpt>
      <trkpt lat="45.773498" lon="10.278442">
        <ele>752.300033</ele>
        <time>2021-03-10T16:13:52.846Z</time>
      </trkpt>
      <trkpt lat="45.773537" lon="10.278718">
        <ele>753.410024</ele>
        <time>2021-03-10T16:14:04.472Z</time>
      </trkpt>
      <trkpt lat="45.773527" lon="10.278996">
        <ele>754.507254</ele>
        <time>2021-03-10T16:14:14.046Z</time>
      </trkpt>
      <trkpt lat="45.773471" lon="10.279169">
        <ele>755.259012</ele>
        <time>2021-03-10T16:14:20.800Z</time>
      </trkpt>
      <trkpt lat="45.773018" lon="10.279454">
        <ele>758.054605</ele>
        <time>2021-03-10T16:14:38.105Z</time>
      </trkpt>
      <trkpt lat="45.772827" lon="10.279466">
        <ele>759.135004</ele>
        <time>2021-03-10T16:14:41.434Z</time>
      </trkpt>
      <trkpt lat="45.772499" lon="10.279375">
        <ele>761.022958</ele>
        <time>2021-03-10T16:14:45.431Z</time>
      </trkpt>
      <trkpt lat="45.772308" lon="10.279433">
        <ele>761.292544</ele>
        <time>2021-03-10T16:14:47.561Z</time>
      </trkpt>
      <trkpt lat="45.771944" lon="10.279630">
        <ele>761.453441</ele>
        <time>2021-03-10T16:14:51.638Z</time>
      </trkpt>
      <trkpt lat="45.771498" lon="10.279858">
        <ele>761.649254</ele>
        <time>2021-03-10T16:14:57.425Z</time>
      </trkpt>
      <trkpt lat="45.771405" lon="10.279943">
        <ele>761.694864</ele>
        <time>2021-03-10T16:14:59.551Z</time>
      </trkpt>
      <trkpt lat="45.771329" lon="10.280072">
        <ele>761.743572</ele>
        <time>2021-03-10T16:15:02.528Z</time>
      </trkpt>
      <trkpt lat="45.771282" lon="10.280353">
        <ele>761.826925</ele>
        <time>2021-03-10T16:15:07.190Z</time>
      </trkpt>
      <trkpt lat="45.771347" lon="10.280586">
        <ele>761.899311</ele>
        <time>2021-03-10T16:15:13.205Z</time>
      </trkpt>
      <trkpt lat="45.771767" lon="10.281453">
        <ele>763.840802</ele>
        <time>2021-03-10T16:15:31.729Z</time>
      </trkpt>
      <trkpt lat="45.771928" lon="10.281975">
        <ele>765.160789</ele>
        <time>2021-03-10T16:15:42.999Z</time>
      </trkpt>
      <trkpt lat="45.771932" lon="10.282094">
        <ele>765.436319</ele>
        <time>2021-03-10T16:15:45.913Z</time>
      </trkpt>
      <trkpt lat="45.771906" lon="10.282238">
        <ele>765.780324</ele>
        <time>2021-03-10T16:15:50.089Z</time>
      </trkpt>
      <trkpt lat="45.771802" lon="10.282338">
        <ele>766.195523</ele>
        <time>2021-03-10T16:15:55.261Z</time>
      </trkpt>
      <trkpt lat="45.771229" lon="10.282549">
        <ele>768.073839</ele>
        <time>2021-03-10T16:16:15.107Z</time>
      </trkpt>
      <trkpt lat="45.771045" lon="10.282664">
        <ele>768.490936</ele>
        <time>2021-03-10T16:16:18.054Z</time>
      </trkpt>
      <trkpt lat="45.770965" lon="10.282755">
        <ele>768.703143</ele>
        <time>2021-03-10T16:16:19.153Z</time>
      </trkpt>
      <trkpt lat="45.770911" lon="10.282909">
        <ele>768.952973</ele>
        <time>2021-03-10T16:16:20.273Z</time>
      </trkpt>
      <trkpt lat="45.770902" lon="10.283113">
        <ele>769.249248</ele>
        <time>2021-03-10T16:16:22.080Z</time>
      </trkpt>
      <trkpt lat="45.770953" lon="10.283572">
        <ele>769.922925</ele>
        <time>2021-03-10T16:16:26.013Z</time>
      </trkpt>
      <trkpt lat="45.771012" lon="10.284296">
        <ele>770.979451</ele>
        <time>2021-03-10T16:16:40.935Z</time>
      </trkpt>
      <trkpt lat="45.770863" lon="10.284735">
        <ele>771.681330</ele>
        <time>2021-03-10T16:16:53.200Z</time>
      </trkpt>
      <trkpt lat="45.770816" lon="10.284973">
        <ele>771.906291</ele>
        <time>2021-03-10T16:16:58.804Z</time>
      </trkpt>
      <trkpt lat="45.771104" lon="10.285027">
        <ele>772.284995</ele>
        <time>2021-03-10T16:17:10.834Z</time>
      </trkpt>
      <trkpt lat="45.771119" lon="10.284894">
        <ele>772.407524</ele>
        <time>2021-03-10T16:17:13.032Z</time>
      </trkpt>
      <trkpt lat="45.771241" lon="10.284829">
        <ele>772.577222</ele>
        <time>2021-03-10T16:17:18.058Z</time>
      </trkpt>
      <trkpt lat="45.771400" lon="10.284864">
        <ele>772.786962</ele>
        <time>2021-03-10T16:17:20.520Z</time>
      </trkpt>
      <trkpt lat="45.771529" lon="10.284330">
        <ele>773.300913</ele>
        <time>2021-03-10T16:17:27.221Z</time>
      </trkpt>
      <trkpt lat="45.771400" lon="10.284864">
        <ele>773.814864</ele>
        <time>2021-03-10T16:17:35.497Z</time>
      </trkpt>
      <trkpt lat="45.771241" lon="10.284829">
        <ele>773.974789</ele>
        <time>2021-03-10T16:17:42.131Z</time>
      </trkpt>
      <trkpt lat="45.771119" lon="10.284894">
        <ele>773.063146</ele>
        <time>2021-03-10T16:17:45.817Z</time>
      </trkpt>
      <trkpt lat="45.771104" lon="10.285027">
        <ele>772.404899</ele>
        <time>2021-03-10T16:17:47.193Z</time>
      </trkpt>
      <trkpt lat="45.771138" lon="10.285128">
        <ele>771.856974</ele>
        <time>2021-03-10T16:17:48.623Z</time>
      </trkpt>
      <trkpt lat="45.771130" lon="10.285196">
        <ele>771.520049</ele>
        <time>2021-03-10T16:17:49.311Z</time>
      </trkpt>
      <trkpt lat="45.771034" lon="10.285429">
        <ele>770.197900</ele>
        <time>2021-03-10T16:17:51.200Z</time>
      </trkpt>
      <trkpt lat="45.771031" lon="10.285530">
        <ele>769.703988</ele>
        <time>2021-03-10T16:17:51.819Z</time>
      </trkpt>
      <trkpt lat="45.771282" lon="10.286053">
        <ele>766.602327</ele>
        <time>2021-03-10T16:17:55.672Z</time>
      </trkpt>
      <trkpt lat="45.771322" lon="10.286249">
        <ele>765.604573</ele>
        <time>2021-03-10T16:17:56.853Z</time>
      </trkpt>
      <trkpt lat="45.771568" lon="10.286791">
        <ele>762.445248</ele>
        <time>2021-03-10T16:18:00.656Z</time>
      </trkpt>
      <trkpt lat="45.771627" lon="10.287061">
        <ele>761.053571</ele>
        <time>2021-03-10T16:18:02.404Z</time>
      </trkpt>
      <trkpt lat="45.771641" lon="10.287263">
        <ele>760.035816</ele>
        <time>2021-03-10T16:18:03.621Z</time>
      </trkpt>
      <trkpt lat="45.771585" lon="10.287445">
        <ele>759.038484</ele>
        <time>2021-03-10T16:18:04.877Z</time>
      </trkpt>
      <trkpt lat="45.771301" lon="10.287825">
        <ele>756.246172</ele>
        <time>2021-03-10T16:18:08.389Z</time>
      </trkpt>
      <trkpt lat="45.771188" lon="10.288047">
        <ele>754.868273</ele>
        <time>2021-03-10T16:18:10.083Z</time>
      </trkpt>
      <trkpt lat="45.771140" lon="10.288768">
        <ele>751.236934</ele>
        <time>2021-03-10T16:18:14.586Z</time>
      </trkpt>
      <trkpt lat="45.771273" lon="10.290212">
        <ele>747.193193</ele>
        <time>2021-03-10T16:18:24.243Z</time>
      </trkpt>
      <trkpt lat="45.771492" lon="10.291273">
        <ele>745.614193</ele>
        <time>2021-03-10T16:18:35.134Z</time>
      </trkpt>
      <trkpt lat="45.771616" lon="10.291650">
        <ele>745.019384</ele>
        <time>2021-03-10T16:18:38.584Z</time>
      </trkpt>
      <trkpt lat="45.771898" lon="10.291880">
        <ele>745.556889</ele>
        <time>2021-03-10T16:18:42.711Z</time>
      </trkpt>
      <trkpt lat="45.771938" lon="10.291974">
        <ele>745.815142</ele>
        <time>2021-03-10T16:18:43.557Z</time>
      </trkpt>
      <trkpt lat="45.771917" lon="10.292079">
        <ele>746.071329</ele>
        <time>2021-03-10T16:18:44.875Z</time>
      </trkpt>
      <trkpt lat="45.771868" lon="10.292138">
        <ele>746.286490</ele>
        <time>2021-03-10T16:18:45.998Z</time>
      </trkpt>
      <trkpt lat="45.771804" lon="10.292160">
        <ele>746.507786</ele>
        <time>2021-03-10T16:18:47.293Z</time>
      </trkpt>
      <trkpt lat="45.771175" lon="10.292203">
        <ele>748.625176</ele>
        <time>2021-03-10T16:19:02.257Z</time>
      </trkpt>
      <trkpt lat="45.770933" lon="10.292295">
        <ele>749.467014</ele>
        <time>2021-03-10T16:19:10.744Z</time>
      </trkpt>
      <trkpt lat="45.770494" lon="10.292693">
        <ele>751.728172</ele>
        <time>2021-03-10T16:19:35.234Z</time>
      </trkpt>
      <trkpt lat="45.770362" lon="10.292906">
        <ele>753.363512</ele>
        <time>2021-03-10T16:19:44.533Z</time>
      </trkpt>
      <trkpt lat="45.770304" lon="10.293151">
        <ele>754.848502</ele>
        <time>2021-03-10T16:19:54.593Z</time>
      </trkpt>
      <trkpt lat="45.770280" lon="10.293479">
        <ele>756.741433</ele>
        <time>2021-03-10T16:20:06.521Z</time>
      </trkpt>
      <trkpt lat="45.770288" lon="10.293650">
        <ele>757.725116</ele>
        <time>2021-03-10T16:20:13.592Z</time>
      </trkpt>
      <trkpt lat="45.770427" lon="10.293872">
        <ele>759.437352</ele>
        <time>2021-03-10T16:20:24.524Z</time>
      </trkpt>
      <trkpt lat="45.770465" lon="10.294045">
        <ele>760.478375</ele>
        <time>2021-03-10T16:20:32.083Z</time>
      </trkpt>
      <trkpt lat="45.770344" lon="10.294216">
        <ele>761.876444</ele>
        <time>2021-03-10T16:20:41.056Z</time>
      </trkpt>
      <trkpt lat="45.770266" lon="10.294214">
        <ele>762.518365</ele>
        <time>2021-03-10T16:20:44.903Z</time>
      </trkpt>
      <trkpt lat="45.770182" lon="10.294212">
        <ele>763.209649</ele>
        <time>2021-03-10T16:20:49.476Z</time>
      </trkpt>
      <trkpt lat="45.769757" lon="10.294023">
        <ele>765.510722</ele>
        <time>2021-03-10T16:21:08.459Z</time>
      </trkpt>
      <trkpt lat="45.769565" lon="10.293724">
        <ele>765.227684</ele>
        <time>2021-03-10T16:21:16.809Z</time>
      </trkpt>
      <trkpt lat="45.769382" lon="10.293378">
        <ele>764.925276</ele>
        <time>2021-03-10T16:21:21.413Z</time>
      </trkpt>
      <trkpt lat="45.769095" lon="10.292668">
        <ele>764.353770</ele>
        <time>2021-03-10T16:21:27.096Z</time>
      </trkpt>
      <trkpt lat="45.769045" lon="10.292432">
        <ele>764.181994</ele>
        <time>2021-03-10T16:21:28.654Z</time>
      </trkpt>
      <trkpt lat="45.769024" lon="10.291478">
        <ele>763.562790</ele>
        <time>2021-03-10T16:21:34.792Z</time>
      </trkpt>
      <trkpt lat="45.768806" lon="10.291131">
        <ele>763.280503</ele>
        <time>2021-03-10T16:21:38.024Z</time>
      </trkpt>
      <trkpt lat="45.768665" lon="10.290994">
        <ele>763.132895</ele>
        <time>2021-03-10T16:21:39.958Z</time>
      </trkpt>
      <trkpt lat="45.768520" lon="10.290919">
        <ele>762.999313</ele>
        <time>2021-03-10T16:21:41.870Z</time>
      </trkpt>
      <trkpt lat="45.768423" lon="10.290675">
        <ele>762.829546</ele>
        <time>2021-03-10T16:21:45.220Z</time>
      </trkpt>
      <trkpt lat="45.768364" lon="10.290403">
        <ele>762.657359</ele>
        <time>2021-03-10T16:21:49.549Z</time>
      </trkpt>
      <trkpt lat="45.768260" lon="10.290225">
        <ele>762.517003</ele>
        <time>2021-03-10T16:21:53.897Z</time>
      </trkpt>
      <trkpt lat="45.767764" lon="10.289630">
        <ele>763.694158</ele>
        <time>2021-03-10T16:22:13.937Z</time>
      </trkpt>
      <trkpt lat="45.767447" lon="10.289173">
        <ele>765.255933</ele>
        <time>2021-03-10T16:22:28.458Z</time>
      </trkpt>
      <trkpt lat="45.767366" lon="10.288951">
        <ele>765.863052</ele>
        <time>2021-03-10T16:22:33.845Z</time>
      </trkpt>
      <trkpt lat="45.767305" lon="10.288526">
        <ele>766.914532</ele>
        <time>2021-03-10T16:22:42.469Z</time>
      </trkpt>
      <trkpt lat="45.767041" lon="10.288176">
        <ele>768.163720</ele>
        <time>2021-03-10T16:22:51.941Z</time>
      </trkpt>
      <trkpt lat="45.767101" lon="10.287549">
        <ele>770.520441</ele>
        <time>2021-03-10T16:23:02.316Z</time>
      </trkpt>
      <trkpt lat="45.767052" lon="10.287424">
        <ele>771.117551</ele>
        <time>2021-03-10T16:23:04.617Z</time>
      </trkpt>
      <trkpt lat="45.766937" lon="10.287337">
        <ele>771.893813</ele>
        <time>2021-03-10T16:23:07.547Z</time>
      </trkpt>
      <trkpt lat="45.766230" lon="10.287283">
        <ele>776.120450</ele>
        <time>2021-03-10T16:23:31.157Z</time>
      </trkpt>
      <trkpt lat="45.765867" lon="10.287506">
        <ele>778.478096</ele>
        <time>2021-03-10T16:23:50.869Z</time>
      </trkpt>
      <trkpt lat="45.765527" lon="10.287379">
        <ele>782.930958</ele>
        <time>2021-03-10T16:24:12.454Z</time>
      </trkpt>
      <trkpt lat="45.765402" lon="10.287439">
        <ele>785.158916</ele>
        <time>2021-03-10T16:24:21.408Z</time>
      </trkpt>
      <trkpt lat="45.764997" lon="10.289072">
        <ele>805.593158</ele>
        <time>2021-03-10T16:26:02.989Z</time>
      </trkpt>
      <trkpt lat="45.764723" lon="10.289463">
        <ele>812.648090</ele>
        <time>2021-03-10T16:26:43.910Z</time>
      </trkpt>
      <trkpt lat="45.764102" lon="10.289873">
        <ele>826.669897</ele>
        <time>2021-03-10T16:27:56.604Z</time>
      </trkpt>
      <trkpt lat="45.763709" lon="10.290488">
        <ele>838.602326</ele>
        <time>2021-03-10T16:28:56.254Z</time>
      </trkpt>
      <trkpt lat="45.763256" lon="10.291599">
        <ele>853.617049</ele>
        <time>2021-03-10T16:30:00.903Z</time>
      </trkpt>
      <trkpt lat="45.763230" lon="10.291708">
        <ele>854.728834</ele>
        <time>2021-03-10T16:30:05.816Z</time>
      </trkpt>
      <trkpt lat="45.763245" lon="10.291784">
        <ele>855.491121</ele>
        <time>2021-03-10T16:30:09.099Z</time>
      </trkpt>
      <trkpt lat="45.763319" lon="10.291771">
        <ele>856.522533</ele>
        <time>2021-03-10T16:30:13.689Z</time>
      </trkpt>
      <trkpt lat="45.763493" lon="10.291578">
        <ele>859.566255</ele>
        <time>2021-03-10T16:30:28.798Z</time>
      </trkpt>
      <trkpt lat="45.763987" lon="10.290875">
        <ele>869.196428</ele>
        <time>2021-03-10T16:31:16.835Z</time>
      </trkpt>
      <trkpt lat="45.764082" lon="10.290804">
        <ele>870.678610</ele>
        <time>2021-03-10T16:31:24.054Z</time>
      </trkpt>
      <trkpt lat="45.764128" lon="10.290883">
        <ele>871.692890</ele>
        <time>2021-03-10T16:31:28.932Z</time>
      </trkpt>
      <trkpt lat="45.763895" lon="10.291227">
        <ele>876.782188</ele>
        <time>2021-03-10T16:31:51.961Z</time>
      </trkpt>
      <trkpt lat="45.763511" lon="10.292135">
        <ele>888.052880</ele>
        <time>2021-03-10T16:32:45.556Z</time>
      </trkpt>
      <trkpt lat="45.763145" lon="10.292625">
        <ele>895.672854</ele>
        <time>2021-03-10T16:33:28.695Z</time>
      </trkpt>
      <trkpt lat="45.762991" lon="10.292738">
        <ele>898.305181</ele>
        <time>2021-03-10T16:33:43.458Z</time>
      </trkpt>
      <trkpt lat="45.762859" lon="10.292709">
        <ele>899.773962</ele>
        <time>2021-03-10T16:33:55.095Z</time>
      </trkpt>
      <trkpt lat="45.762740" lon="10.292597">
        <ele>901.132351</ele>
        <time>2021-03-10T16:34:07.125Z</time>
      </trkpt>
      <trkpt lat="45.762517" lon="10.292208">
        <ele>904.483970</ele>
        <time>2021-03-10T16:34:32.860Z</time>
      </trkpt>
      <trkpt lat="45.762305" lon="10.291455">
        <ele>909.889370</ele>
        <time>2021-03-10T16:35:04.005Z</time>
      </trkpt>
      <trkpt lat="45.762181" lon="10.290815">
        <ele>914.311014</ele>
        <time>2021-03-10T16:35:20.049Z</time>
      </trkpt>
      <trkpt lat="45.761875" lon="10.290326">
        <ele>915.756258</ele>
        <time>2021-03-10T16:35:29.007Z</time>
      </trkpt>
      <trkpt lat="45.761764" lon="10.289972">
        <ele>915.532542</ele>
        <time>2021-03-10T16:35:32.473Z</time>
      </trkpt>
      <trkpt lat="45.761608" lon="10.289747">
        <ele>915.349691</ele>
        <time>2021-03-10T16:35:35.054Z</time>
      </trkpt>
      <trkpt lat="45.761271" lon="10.289516">
        <ele>915.041047</ele>
        <time>2021-03-10T16:35:39.114Z</time>
      </trkpt>
      <trkpt lat="45.761016" lon="10.289455">
        <ele>914.827441</ele>
        <time>2021-03-10T16:35:41.810Z</time>
      </trkpt>
      <trkpt lat="45.760732" lon="10.289387">
        <ele>914.589537</ele>
        <time>2021-03-10T16:35:44.843Z</time>
      </trkpt>
      <trkpt lat="45.760262" lon="10.289359">
        <ele>913.117140</ele>
        <time>2021-03-10T16:35:50.254Z</time>
      </trkpt>
      <trkpt lat="45.759931" lon="10.289451">
        <ele>911.840777</ele>
        <time>2021-03-10T16:35:54.229Z</time>
      </trkpt>
      <trkpt lat="45.759393" lon="10.289538">
        <ele>909.791222</ele>
        <time>2021-03-10T16:35:59.726Z</time>
      </trkpt>
      <trkpt lat="45.759113" lon="10.289656">
        <ele>908.686398</ele>
        <time>2021-03-10T16:36:02.451Z</time>
      </trkpt>
      <trkpt lat="45.758627" lon="10.290111">
        <ele>904.484755</ele>
        <time>2021-03-10T16:36:07.653Z</time>
      </trkpt>
      <trkpt lat="45.758547" lon="10.290142">
        <ele>903.649538</ele>
        <time>2021-03-10T16:36:08.380Z</time>
      </trkpt>
      <trkpt lat="45.758488" lon="10.290074">
        <ele>902.886517</ele>
        <time>2021-03-10T16:36:09.038Z</time>
      </trkpt>
      <trkpt lat="45.758448" lon="10.289535">
        <ele>899.075136</ele>
        <time>2021-03-10T16:36:12.310Z</time>
      </trkpt>
      <trkpt lat="45.758417" lon="10.289479">
        <ele>898.572478</ele>
        <time>2021-03-10T16:36:12.741Z</time>
      </trkpt>
      <trkpt lat="45.758154" lon="10.289306">
        <ele>895.656050</ele>
        <time>2021-03-10T16:36:15.200Z</time>
      </trkpt>
      <trkpt lat="45.757380" lon="10.289064">
        <ele>888.085162</ele>
        <time>2021-03-10T16:36:21.878Z</time>
      </trkpt>
      <trkpt lat="45.756776" lon="10.288834">
        <ele>883.159980</ele>
        <time>2021-03-10T16:36:27.148Z</time>
      </trkpt>
      <trkpt lat="45.756603" lon="10.288751">
        <ele>881.722233</ele>
        <time>2021-03-10T16:36:28.693Z</time>
      </trkpt>
      <trkpt lat="45.756594" lon="10.288829">
        <ele>881.287520</ele>
        <time>2021-03-10T16:36:29.184Z</time>
      </trkpt>
      <trkpt lat="45.756576" lon="10.288992">
        <ele>880.380100</ele>
        <time>2021-03-10T16:36:30.219Z</time>
      </trkpt>
      <trkpt lat="45.756508" lon="10.289244">
        <ele>878.894444</ele>
        <time>2021-03-10T16:36:31.874Z</time>
      </trkpt>
      <trkpt lat="45.756338" lon="10.289523">
        <ele>876.857684</ele>
        <time>2021-03-10T16:36:34.383Z</time>
      </trkpt>
      <trkpt lat="45.756136" lon="10.289724">
        <ele>875.784294</ele>
        <time>2021-03-10T16:36:37.635Z</time>
      </trkpt>
      <trkpt lat="45.755759" lon="10.290029">
        <ele>878.614919</ele>
        <time>2021-03-10T16:36:52.713Z</time>
      </trkpt>
      <trkpt lat="45.755644" lon="10.290207">
        <ele>879.721637</ele>
        <time>2021-03-10T16:37:02.051Z</time>
      </trkpt>
      <trkpt lat="45.755406" lon="10.290945">
        <ele>883.430697</ele>
        <time>2021-03-10T16:37:32.396Z</time>
      </trkpt>
      <trkpt lat="45.755290" lon="10.291535">
        <ele>886.227157</ele>
        <time>2021-03-10T16:37:52.185Z</time>
      </trkpt>
      <trkpt lat="45.755172" lon="10.291995">
        <ele>887.961879</ele>
        <time>2021-03-10T16:38:08.374Z</time>
      </trkpt>
      <trkpt lat="45.755106" lon="10.292212">
        <ele>888.628755</ele>
        <time>2021-03-10T16:38:16.928Z</time>
      </trkpt>
      <trkpt lat="45.755034" lon="10.292270">
        <ele>888.962234</ele>
        <time>2021-03-10T16:38:20.755Z</time>
      </trkpt>
      <trkpt lat="45.754687" lon="10.292259">
        <ele>890.363625</ele>
        <time>2021-03-10T16:38:35.456Z</time>
      </trkpt>
      <trkpt lat="45.754520" lon="10.292316">
        <ele>891.056761</ele>
        <time>2021-03-10T16:38:41.273Z</time>
      </trkpt>
      <trkpt lat="45.754199" lon="10.292489">
        <ele>892.441438</ele>
        <time>2021-03-10T16:38:51.434Z</time>
      </trkpt>
      <trkpt lat="45.753944" lon="10.292698">
        <ele>893.627494</ele>
        <time>2021-03-10T16:38:56.805Z</time>
      </trkpt>
      <trkpt lat="45.753777" lon="10.292754">
        <ele>894.319984</ele>
        <time>2021-03-10T16:38:58.733Z</time>
      </trkpt>
      <trkpt lat="45.753181" lon="10.292668">
        <ele>893.223382</ele>
        <time>2021-03-10T16:39:04.601Z</time>
      </trkpt>
      <trkpt lat="45.753098" lon="10.292713">
        <ele>893.039642</ele>
        <time>2021-03-10T16:39:05.609Z</time>
      </trkpt>
      <trkpt lat="45.752758" lon="10.293050">
        <ele>892.183703</ele>
        <time>2021-03-10T16:39:10.995Z</time>
      </trkpt>
      <trkpt lat="45.752523" lon="10.293153">
        <ele>891.674883</ele>
        <time>2021-03-10T16:39:13.970Z</time>
      </trkpt>
      <trkpt lat="45.752214" lon="10.293343">
        <ele>890.978689</ele>
        <time>2021-03-10T16:39:17.529Z</time>
      </trkpt>
      <trkpt lat="45.751995" lon="10.293569">
        <ele>889.790621</ele>
        <time>2021-03-10T16:39:20.226Z</time>
      </trkpt>
      <trkpt lat="45.751843" lon="10.293850">
        <ele>888.083637</ele>
        <time>2021-03-10T16:39:22.639Z</time>
      </trkpt>
      <trkpt lat="45.751760" lon="10.294068">
        <ele>886.891351</ele>
        <time>2021-03-10T16:39:24.337Z</time>
      </trkpt>
      <trkpt lat="45.751683" lon="10.294089">
        <ele>886.352043</ele>
        <time>2021-03-10T16:39:25.093Z</time>
      </trkpt>
      <trkpt lat="45.751482" lon="10.293890">
        <ele>884.671138</ele>
        <time>2021-03-10T16:39:27.358Z</time>
      </trkpt>
      <trkpt lat="45.751363" lon="10.293824">
        <ele>883.793181</ele>
        <time>2021-03-10T16:39:28.571Z</time>
      </trkpt>
      <trkpt lat="45.750872" lon="10.293789">
        <ele>880.410671</ele>
        <time>2021-03-10T16:39:32.905Z</time>
      </trkpt>
      <trkpt lat="45.750330" lon="10.293558">
        <ele>875.790216</ele>
        <time>2021-03-10T16:39:37.699Z</time>
      </trkpt>
      <trkpt lat="45.750163" lon="10.293565">
        <ele>874.173363</ele>
        <time>2021-03-10T16:39:39.082Z</time>
      </trkpt>
      <trkpt lat="45.750082" lon="10.293604">
        <ele>873.346417</ele>
        <time>2021-03-10T16:39:39.794Z</time>
      </trkpt>
      <trkpt lat="45.750005" lon="10.293657">
        <ele>872.519746</ele>
        <time>2021-03-10T16:39:40.505Z</time>
      </trkpt>
      <trkpt lat="45.749923" lon="10.293807">
        <ele>871.232968</ele>
        <time>2021-03-10T16:39:41.615Z</time>
      </trkpt>
      <trkpt lat="45.749870" lon="10.293990">
        <ele>869.894961</ele>
        <time>2021-03-10T16:39:42.774Z</time>
      </trkpt>
      <trkpt lat="45.749850" lon="10.294172">
        <ele>868.650774</ele>
        <time>2021-03-10T16:39:43.859Z</time>
      </trkpt>
      <trkpt lat="45.749850" lon="10.294620">
        <ele>865.625445</ele>
        <time>2021-03-10T16:39:46.539Z</time>
      </trkpt>
      <trkpt lat="45.749891" lon="10.295348">
        <ele>861.074037</ele>
        <time>2021-03-10T16:39:51.202Z</time>
      </trkpt>
      <trkpt lat="45.749942" lon="10.295602">
        <ele>862.445012</ele>
        <time>2021-03-10T16:39:53.147Z</time>
      </trkpt>
      <trkpt lat="45.750149" lon="10.295990">
        <ele>864.978429</ele>
        <time>2021-03-10T16:39:59.569Z</time>
      </trkpt>
      <trkpt lat="45.750298" lon="10.296408">
        <ele>867.413134</ele>
        <time>2021-03-10T16:40:11.338Z</time>
      </trkpt>
      <trkpt lat="45.750380" lon="10.296535">
        <ele>868.310635</ele>
        <time>2021-03-10T16:40:17.190Z</time>
      </trkpt>
      <trkpt lat="45.750639" lon="10.296839">
        <ele>870.799249</ele>
        <time>2021-03-10T16:40:38.258Z</time>
      </trkpt>
      <trkpt lat="45.750791" lon="10.296958">
        <ele>872.086756</ele>
        <time>2021-03-10T16:40:51.494Z</time>
      </trkpt>
      <trkpt lat="45.751117" lon="10.297131">
        <ele>875.125713</ele>
        <time>2021-03-10T16:41:21.065Z</time>
      </trkpt>
      <trkpt lat="45.751695" lon="10.297379">
        <ele>884.814978</ele>
        <time>2021-03-10T16:42:15.463Z</time>
      </trkpt>
      <trkpt lat="45.751932" lon="10.297523">
        <ele>888.948921</ele>
        <time>2021-03-10T16:42:38.655Z</time>
      </trkpt>
      <trkpt lat="45.752141" lon="10.297740">
        <ele>893.093535</ele>
        <time>2021-03-10T16:43:00.750Z</time>
      </trkpt>
      <trkpt lat="45.752256" lon="10.297921">
        <ele>895.836570</ele>
        <time>2021-03-10T16:43:14.509Z</time>
      </trkpt>
      <trkpt lat="45.752285" lon="10.298145">
        <ele>898.389434</ele>
        <time>2021-03-10T16:43:26.927Z</time>
      </trkpt>
      <trkpt lat="45.752217" lon="10.298217">
        <ele>899.747163</ele>
        <time>2021-03-10T16:43:33.418Z</time>
      </trkpt>
      <trkpt lat="45.751875" lon="10.298197">
        <ele>903.756998</ele>
        <time>2021-03-10T16:43:56.333Z</time>
      </trkpt>
      <trkpt lat="45.751789" lon="10.298217">
        <ele>904.156080</ele>
        <time>2021-03-10T16:44:01.367Z</time>
      </trkpt>
      <trkpt lat="45.751044" lon="10.298846">
        <ele>908.116774</ele>
        <time>2021-03-10T16:44:32.258Z</time>
      </trkpt>
      <trkpt lat="45.750813" lon="10.299011">
        <ele>909.299030</ele>
        <time>2021-03-10T16:44:36.365Z</time>
      </trkpt>
      <trkpt lat="45.750397" lon="10.299173">
        <ele>911.273647</ele>
        <time>2021-03-10T16:44:42.138Z</time>
      </trkpt>
      <trkpt lat="45.749715" lon="10.299326">
        <ele>911.084895</ele>
        <time>2021-03-10T16:44:50.617Z</time>
      </trkpt>
      <trkpt lat="45.749561" lon="10.299430">
        <ele>911.003258</ele>
        <time>2021-03-10T16:44:52.513Z</time>
      </trkpt>
      <trkpt lat="45.749502" lon="10.299517">
        <ele>910.962663</ele>
        <time>2021-03-10T16:44:53.411Z</time>
      </trkpt>
      <trkpt lat="45.749423" lon="10.299737">
        <ele>910.879871</ele>
        <time>2021-03-10T16:44:55.241Z</time>
      </trkpt>
      <trkpt lat="45.749321" lon="10.300333">
        <ele>910.674528</ele>
        <time>2021-03-10T16:44:59.894Z</time>
      </trkpt>
      <trkpt lat="45.749101" lon="10.300713">
        <ele>911.223813</ele>
        <time>2021-03-10T16:45:05.116Z</time>
      </trkpt>
      <trkpt lat="45.748879" lon="10.301238">
        <ele>915.811729</ele>
        <time>2021-03-10T16:45:19.832Z</time>
      </trkpt>
      <trkpt lat="45.748831" lon="10.301477">
        <ele>917.670466</ele>
        <time>2021-03-10T16:45:28.476Z</time>
      </trkpt>
      <trkpt lat="45.748841" lon="10.301846">
        <ele>920.430360</ele>
        <time>2021-03-10T16:45:44.598Z</time>
      </trkpt>
      <trkpt lat="45.748897" lon="10.302457">
        <ele>925.036042</ele>
        <time>2021-03-10T16:46:17.026Z</time>
      </trkpt>
      <trkpt lat="45.748960" lon="10.302815">
        <ele>927.795413</ele>
        <time>2021-03-10T16:46:38.216Z</time>
      </trkpt>
      <trkpt lat="45.749232" lon="10.303442">
        <ele>933.187814</ele>
        <time>2021-03-10T16:47:20.973Z</time>
      </trkpt>
      <trkpt lat="45.749524" lon="10.303892">
        <ele>937.616315</ele>
        <time>2021-03-10T16:47:53.822Z</time>
      </trkpt>
      <trkpt lat="45.749666" lon="10.304042">
        <ele>939.438211</ele>
        <time>2021-03-10T16:48:05.729Z</time>
      </trkpt>
      <trkpt lat="45.749701" lon="10.304177">
        <ele>940.476091</ele>
        <time>2021-03-10T16:48:12.592Z</time>
      </trkpt>
      <trkpt lat="45.749697" lon="10.304260">
        <ele>941.075668</ele>
        <time>2021-03-10T16:48:15.973Z</time>
      </trkpt>
      <trkpt lat="45.749624" lon="10.304352">
        <ele>942.079655</ele>
        <time>2021-03-10T16:48:21.262Z</time>
      </trkpt>
      <trkpt lat="45.749447" lon="10.304452">
        <ele>944.044597</ele>
        <time>2021-03-10T16:48:31.403Z</time>
      </trkpt>
      <trkpt lat="45.749082" lon="10.304472">
        <ele>947.816985</ele>
        <time>2021-03-10T16:48:43.428Z</time>
      </trkpt>
      <trkpt lat="45.748405" lon="10.304745">
        <ele>944.213181</ele>
        <time>2021-03-10T16:48:50.286Z</time>
      </trkpt>
      <trkpt lat="45.748140" lon="10.304911">
        <ele>942.355678</ele>
        <time>2021-03-10T16:48:52.764Z</time>
      </trkpt>
      <trkpt lat="45.747828" lon="10.305010">
        <ele>940.303275</ele>
        <time>2021-03-10T16:48:55.470Z</time>
      </trkpt>
      <trkpt lat="45.747679" lon="10.305091">
        <ele>939.279756</ele>
        <time>2021-03-10T16:48:56.828Z</time>
      </trkpt>
      <trkpt lat="45.747584" lon="10.305344">
        <ele>937.992108</ele>
        <time>2021-03-10T16:48:58.542Z</time>
      </trkpt>
      <trkpt lat="45.747548" lon="10.305554">
        <ele>937.022933</ele>
        <time>2021-03-10T16:48:59.848Z</time>
      </trkpt>
      <trkpt lat="45.747396" lon="10.305974">
        <ele>937.076559</ele>
        <time>2021-03-10T16:49:02.840Z</time>
      </trkpt>
      <trkpt lat="45.747264" lon="10.306532">
        <ele>937.417475</ele>
        <time>2021-03-10T16:49:07.151Z</time>
      </trkpt>
      <trkpt lat="45.747189" lon="10.306941">
        <ele>937.662164</ele>
        <time>2021-03-10T16:49:13.763Z</time>
      </trkpt>
      <trkpt lat="45.747192" lon="10.307602">
        <ele>938.044639</ele>
        <time>2021-03-10T16:49:30.268Z</time>
      </trkpt>
      <trkpt lat="45.747064" lon="10.307992">
        <ele>938.294013</ele>
        <time>2021-03-10T16:49:44.246Z</time>
      </trkpt>
      <trkpt lat="45.746836" lon="10.308549">
        <ele>939.889330</ele>
        <time>2021-03-10T16:50:05.663Z</time>
      </trkpt>
      <trkpt lat="45.746755" lon="10.308870">
        <ele>940.779598</ele>
        <time>2021-03-10T16:50:16.147Z</time>
      </trkpt>
      <trkpt lat="45.746723" lon="10.309135">
        <ele>941.481029</ele>
        <time>2021-03-10T16:50:24.116Z</time>
      </trkpt>
      <trkpt lat="45.746673" lon="10.309249">
        <ele>941.832208</ele>
        <time>2021-03-10T16:50:27.486Z</time>
      </trkpt>
      <trkpt lat="45.746594" lon="10.309369">
        <ele>942.262482</ele>
        <time>2021-03-10T16:50:31.666Z</time>
      </trkpt>
      <trkpt lat="45.746178" lon="10.309717">
        <ele>944.062821</ele>
        <time>2021-03-10T16:50:44.834Z</time>
      </trkpt>
      <trkpt lat="45.745845" lon="10.310338">
        <ele>942.778203</ele>
        <time>2021-03-10T16:50:50.320Z</time>
      </trkpt>
      <trkpt lat="45.745813" lon="10.310439">
        <ele>942.162527</ele>
        <time>2021-03-10T16:50:51.023Z</time>
      </trkpt>
      <trkpt lat="45.745836" lon="10.310515">
        <ele>941.702728</ele>
        <time>2021-03-10T16:50:51.539Z</time>
      </trkpt>
      <trkpt lat="45.745883" lon="10.310517">
        <ele>941.328733</ele>
        <time>2021-03-10T16:50:51.965Z</time>
      </trkpt>
      <trkpt lat="45.745922" lon="10.310475">
        <ele>940.940700</ele>
        <time>2021-03-10T16:50:52.386Z</time>
      </trkpt>
      <trkpt lat="45.746095" lon="10.310126">
        <ele>938.564597</ele>
        <time>2021-03-10T16:50:54.969Z</time>
      </trkpt>
      <trkpt lat="45.746188" lon="10.310061">
        <ele>937.741597</ele>
        <time>2021-03-10T16:50:55.859Z</time>
      </trkpt>
      <trkpt lat="45.746287" lon="10.310058">
        <ele>936.953992</ele>
        <time>2021-03-10T16:50:56.700Z</time>
      </trkpt>
      <trkpt lat="45.746479" lon="10.310134">
        <ele>935.369666</ele>
        <time>2021-03-10T16:50:58.460Z</time>
      </trkpt>
      <trkpt lat="45.746733" lon="10.310478">
        <ele>932.589895</ele>
        <time>2021-03-10T16:51:01.471Z</time>
      </trkpt>
      <trkpt lat="45.746858" lon="10.310703">
        <ele>930.993616</ele>
        <time>2021-03-10T16:51:03.177Z</time>
      </trkpt>
      <trkpt lat="45.747070" lon="10.311135">
        <ele>927.004015</ele>
        <time>2021-03-10T16:51:06.332Z</time>
      </trkpt>
      <trkpt lat="45.747193" lon="10.311292">
        <ele>925.175247</ele>
        <time>2021-03-10T16:51:07.752Z</time>
      </trkpt>
      <trkpt lat="45.747397" lon="10.311332">
        <ele>922.889254</ele>
        <time>2021-03-10T16:51:09.484Z</time>
      </trkpt>
      <trkpt lat="45.747655" lon="10.311313">
        <ele>920.021056</ele>
        <time>2021-03-10T16:51:11.672Z</time>
      </trkpt>
      <trkpt lat="45.747680" lon="10.311311">
        <ele>919.743064</ele>
        <time>2021-03-10T16:51:11.878Z</time>
      </trkpt>
      <trkpt lat="45.747741" lon="10.311348">
        <ele>919.007649</ele>
        <time>2021-03-10T16:51:12.428Z</time>
      </trkpt>
      <trkpt lat="45.747781" lon="10.311425">
        <ele>918.263943</ele>
        <time>2021-03-10T16:51:13.003Z</time>
      </trkpt>
      <trkpt lat="45.747787" lon="10.311534">
        <ele>917.416847</ele>
        <time>2021-03-10T16:51:13.655Z</time>
      </trkpt>
      <trkpt lat="45.747723" lon="10.311673">
        <ele>916.126656</ele>
        <time>2021-03-10T16:51:14.639Z</time>
      </trkpt>
      <trkpt lat="45.747439" lon="10.312075">
        <ele>911.694732</ele>
        <time>2021-03-10T16:51:18.052Z</time>
      </trkpt>
      <trkpt lat="45.747144" lon="10.312621">
        <ele>906.260991</ele>
        <time>2021-03-10T16:51:22.237Z</time>
      </trkpt>
      <trkpt lat="45.747022" lon="10.313131">
        <ele>902.004797</ele>
        <time>2021-03-10T16:51:25.443Z</time>
      </trkpt>
      <trkpt lat="45.746706" lon="10.313832">
        <ele>895.416482</ele>
        <time>2021-03-10T16:51:30.340Z</time>
      </trkpt>
      <trkpt lat="45.746492" lon="10.314981">
        <ele>887.303553</ele>
        <time>2021-03-10T16:51:37.380Z</time>
      </trkpt>
      <trkpt lat="45.746215" lon="10.315860">
        <ele>881.901459</ele>
        <time>2021-03-10T16:51:43.274Z</time>
      </trkpt>
      <trkpt lat="45.745895" lon="10.317111">
        <ele>875.109017</ele>
        <time>2021-03-10T16:51:51.890Z</time>
      </trkpt>
      <trkpt lat="45.745806" lon="10.318073">
        <ele>872.034996</ele>
        <time>2021-03-10T16:51:58.624Z</time>
      </trkpt>
      <trkpt lat="45.745769" lon="10.319019">
        <ele>869.033615</ele>
        <time>2021-03-10T16:52:04.988Z</time>
      </trkpt>
      <trkpt lat="45.745563" lon="10.320167">
        <ele>863.849420</ele>
        <time>2021-03-10T16:52:12.813Z</time>
      </trkpt>
      <trkpt lat="45.745595" lon="10.321471">
        <ele>857.388783</ele>
        <time>2021-03-10T16:52:20.880Z</time>
      </trkpt>
      <trkpt lat="45.745921" lon="10.322340">
        <ele>853.290310</ele>
        <time>2021-03-10T16:52:26.828Z</time>
      </trkpt>
      <trkpt lat="45.745957" lon="10.322563">
        <ele>852.506373</ele>
        <time>2021-03-10T16:52:28.273Z</time>
      </trkpt>
      <trkpt lat="45.745768" lon="10.323361">
        <ele>849.620128</ele>
        <time>2021-03-10T16:52:33.730Z</time>
      </trkpt>
      <trkpt lat="45.745768" lon="10.323434">
        <ele>849.370105</ele>
        <time>2021-03-10T16:52:34.318Z</time>
      </trkpt>
      <trkpt lat="45.745770" lon="10.323453">
        <ele>849.304295</ele>
        <time>2021-03-10T16:52:34.491Z</time>
      </trkpt>
      <trkpt lat="45.745822" lon="10.323629">
        <ele>848.649699</ele>
        <time>2021-03-10T16:52:36.150Z</time>
      </trkpt>
      <trkpt lat="45.745872" lon="10.323683">
        <ele>848.342412</ele>
        <time>2021-03-10T16:52:36.908Z</time>
      </trkpt>
      <trkpt lat="45.746126" lon="10.324185">
        <ele>846.228175</ele>
        <time>2021-03-10T16:52:41.736Z</time>
      </trkpt>
      <trkpt lat="45.746382" lon="10.324340">
        <ele>846.305118</ele>
        <time>2021-03-10T16:52:44.787Z</time>
      </trkpt>
      <trkpt lat="45.746691" lon="10.324363">
        <ele>846.390783</ele>
        <time>2021-03-10T16:52:48.362Z</time>
      </trkpt>
      <trkpt lat="45.747290" lon="10.324295">
        <ele>846.557143</ele>
        <time>2021-03-10T16:53:04.500Z</time>
      </trkpt>
      <trkpt lat="45.749024" lon="10.325105">
        <ele>847.428974</ele>
        <time>2021-03-10T16:53:30.389Z</time>
      </trkpt>
      <trkpt lat="45.749319" lon="10.325604">
        <ele>847.693111</ele>
        <time>2021-03-10T16:53:36.799Z</time>
      </trkpt>
      <trkpt lat="45.749523" lon="10.326043">
        <ele>849.818443</ele>
        <time>2021-03-10T16:53:46.638Z</time>
      </trkpt>
      <trkpt lat="45.749750" lon="10.326270">
        <ele>852.175464</ele>
        <time>2021-03-10T16:53:56.805Z</time>
      </trkpt>
      <trkpt lat="45.750015" lon="10.326376">
        <ele>854.518239</ele>
        <time>2021-03-10T16:54:09.086Z</time>
      </trkpt>
      <trkpt lat="45.750364" lon="10.326331">
        <ele>857.502043</ele>
        <time>2021-03-10T16:54:27.617Z</time>
      </trkpt>
      <trkpt lat="45.751453" lon="10.325256">
        <ele>867.999381</ele>
        <time>2021-03-10T16:55:57.037Z</time>
      </trkpt>
      <trkpt lat="45.751832" lon="10.325105">
        <ele>870.899236</ele>
        <time>2021-03-10T16:56:18.118Z</time>
      </trkpt>
      <trkpt lat="45.752066" lon="10.324855">
        <ele>873.050806</ele>
        <time>2021-03-10T16:56:29.018Z</time>
      </trkpt>
      <trkpt lat="45.752181" lon="10.324694">
        <ele>874.235925</ele>
        <time>2021-03-10T16:56:33.168Z</time>
      </trkpt>
      <trkpt lat="45.752237" lon="10.324678">
        <ele>874.656868</ele>
        <time>2021-03-10T16:56:34.383Z</time>
      </trkpt>
      <trkpt lat="45.752314" lon="10.324717">
        <ele>875.258900</ele>
        <time>2021-03-10T16:56:36.036Z</time>
      </trkpt>
      <trkpt lat="45.752384" lon="10.324946">
        <ele>876.155798</ele>
        <time>2021-03-10T16:56:38.549Z</time>
      </trkpt>
      <trkpt lat="45.752437" lon="10.325582">
        <ele>873.143632</ele>
        <time>2021-03-10T16:56:42.950Z</time>
      </trkpt>
      <trkpt lat="45.752188" lon="10.326444">
        <ele>868.756264</ele>
        <time>2021-03-10T16:56:48.682Z</time>
      </trkpt>
      <trkpt lat="45.752063" lon="10.326817">
        <ele>866.810331</ele>
        <time>2021-03-10T16:56:51.156Z</time>
      </trkpt>
      <trkpt lat="45.751847" lon="10.327466">
        <ele>863.657753</ele>
        <time>2021-03-10T16:56:55.454Z</time>
      </trkpt>
      <trkpt lat="45.751544" lon="10.328594">
        <ele>859.619559</ele>
        <time>2021-03-10T16:57:02.921Z</time>
      </trkpt>
      <trkpt lat="45.751484" lon="10.329260">
        <ele>857.376012</ele>
        <time>2021-03-10T16:57:07.581Z</time>
      </trkpt>
      <trkpt lat="45.751575" lon="10.329767">
        <ele>855.627006</ele>
        <time>2021-03-10T16:57:13.093Z</time>
      </trkpt>
      <trkpt lat="45.751696" lon="10.329994">
        <ele>857.018590</ele>
        <time>2021-03-10T16:57:18.127Z</time>
      </trkpt>
      <trkpt lat="45.752082" lon="10.330357">
        <ele>860.356130</ele>
        <time>2021-03-10T16:57:34.754Z</time>
      </trkpt>
      <trkpt lat="45.752331" lon="10.330668">
        <ele>862.743823</ele>
        <time>2021-03-10T16:57:50.900Z</time>
      </trkpt>
      <trkpt lat="45.752778" lon="10.332469">
        <ele>874.547244</ele>
        <time>2021-03-10T16:59:06.438Z</time>
      </trkpt>
      <trkpt lat="45.752751" lon="10.332761">
        <ele>876.883417</ele>
        <time>2021-03-10T16:59:19.096Z</time>
      </trkpt>
      <trkpt lat="45.752664" lon="10.332883">
        <ele>878.266972</ele>
        <time>2021-03-10T16:59:26.613Z</time>
      </trkpt>
      <trkpt lat="45.752596" lon="10.332900">
        <ele>879.051586</ele>
        <time>2021-03-10T16:59:31.171Z</time>
      </trkpt>
      <trkpt lat="45.752248" lon="10.332674">
        <ele>883.394409</ele>
        <time>2021-03-10T16:59:56.282Z</time>
      </trkpt>
      <trkpt lat="45.751953" lon="10.332651">
        <ele>886.752575</ele>
        <time>2021-03-10T17:00:15.310Z</time>
      </trkpt>
      <trkpt lat="45.751673" lon="10.332825">
        <ele>889.699449</ele>
        <time>2021-03-10T17:00:34.101Z</time>
      </trkpt>
      <trkpt lat="45.751257" lon="10.333150">
        <ele>892.675147</ele>
        <time>2021-03-10T17:00:59.794Z</time>
      </trkpt>
      <trkpt lat="45.750727" lon="10.333196">
        <ele>896.009931</ele>
        <time>2021-03-10T17:01:21.947Z</time>
      </trkpt>
      <trkpt lat="45.750106" lon="10.333423">
        <ele>900.035019</ele>
        <time>2021-03-10T17:01:39.986Z</time>
      </trkpt>
      <trkpt lat="45.749667" lon="10.333271">
        <ele>899.245641</ele>
        <time>2021-03-10T17:01:47.755Z</time>
      </trkpt>
      <trkpt lat="45.749311" lon="10.333226">
        <ele>898.261131</ele>
        <time>2021-03-10T17:01:51.581Z</time>
      </trkpt>
      <trkpt lat="45.749001" lon="10.333090">
        <ele>897.368028</ele>
        <time>2021-03-10T17:01:54.637Z</time>
      </trkpt>
      <trkpt lat="45.748789" lon="10.332954">
        <ele>896.728168</ele>
        <time>2021-03-10T17:01:56.835Z</time>
      </trkpt>
      <trkpt lat="45.748676" lon="10.332961">
        <ele>896.416587</ele>
        <time>2021-03-10T17:01:57.890Z</time>
      </trkpt>
      <trkpt lat="45.747666" lon="10.333571">
        <ele>893.186441</ele>
        <time>2021-03-10T17:02:08.255Z</time>
      </trkpt>
      <trkpt lat="45.747442" lon="10.333810">
        <ele>892.335984</ele>
        <time>2021-03-10T17:02:11.067Z</time>
      </trkpt>
      <trkpt lat="45.747396" lon="10.333899">
        <ele>892.100625</ele>
        <time>2021-03-10T17:02:11.823Z</time>
      </trkpt>
      <trkpt lat="45.747379" lon="10.334183">
        <ele>891.494887</ele>
        <time>2021-03-10T17:02:13.897Z</time>
      </trkpt>
      <trkpt lat="45.747286" lon="10.334274">
        <ele>891.151950</ele>
        <time>2021-03-10T17:02:15.036Z</time>
      </trkpt>
      <trkpt lat="45.747170" lon="10.334267">
        <ele>890.798383</ele>
        <time>2021-03-10T17:02:16.270Z</time>
      </trkpt>
      <trkpt lat="45.747083" lon="10.334323">
        <ele>890.507942</ele>
        <time>2021-03-10T17:02:17.277Z</time>
      </trkpt>
      <trkpt lat="45.746653" lon="10.335015">
        <ele>890.529376</ele>
        <time>2021-03-10T17:02:28.041Z</time>
      </trkpt>
      <trkpt lat="45.746449" lon="10.335451">
        <ele>891.022889</ele>
        <time>2021-03-10T17:02:40.542Z</time>
      </trkpt>
      <trkpt lat="45.746384" lon="10.335650">
        <ele>891.229458</ele>
        <time>2021-03-10T17:02:44.068Z</time>
      </trkpt>
      <trkpt lat="45.746240" lon="10.336150">
        <ele>891.737991</ele>
        <time>2021-03-10T17:02:52.949Z</time>
      </trkpt>
      <trkpt lat="45.746242" lon="10.336286">
        <ele>891.865879</ele>
        <time>2021-03-10T17:02:55.289Z</time>
      </trkpt>
      <trkpt lat="45.746322" lon="10.336405">
        <ele>892.021227</ele>
        <time>2021-03-10T17:02:57.750Z</time>
      </trkpt>
      <trkpt lat="45.746640" lon="10.336542">
        <ele>892.116302</ele>
        <time>2021-03-10T17:03:02.771Z</time>
      </trkpt>
      <trkpt lat="45.746782" lon="10.336645">
        <ele>891.733761</ele>
        <time>2021-03-10T17:03:04.477Z</time>
      </trkpt>
      <trkpt lat="45.746907" lon="10.336844">
        <ele>891.284674</ele>
        <time>2021-03-10T17:03:07.665Z</time>
      </trkpt>
      <trkpt lat="45.746770" lon="10.337402">
        <ele>890.292507</ele>
        <time>2021-03-10T17:03:12.704Z</time>
      </trkpt>
      <trkpt lat="45.746553" lon="10.338059">
        <ele>889.073321</ele>
        <time>2021-03-10T17:03:18.293Z</time>
      </trkpt>
      <trkpt lat="45.746474" lon="10.338376">
        <ele>888.508728</ele>
        <time>2021-03-10T17:03:20.614Z</time>
      </trkpt>
      <trkpt lat="45.746355" lon="10.339057">
        <ele>887.008540</ele>
        <time>2021-03-10T17:03:24.983Z</time>
      </trkpt>
      <trkpt lat="45.746303" lon="10.339493">
        <ele>885.918493</ele>
        <time>2021-03-10T17:03:27.673Z</time>
      </trkpt>
      <trkpt lat="45.746456" lon="10.340155">
        <ele>884.199931</ele>
        <time>2021-03-10T17:03:32.057Z</time>
      </trkpt>
      <trkpt lat="45.746563" lon="10.341605">
        <ele>883.726671</ele>
        <time>2021-03-10T17:03:49.018Z</time>
      </trkpt>
      <trkpt lat="45.746493" lon="10.342064">
        <ele>885.975633</ele>
        <time>2021-03-10T17:04:03.789Z</time>
      </trkpt>
      <trkpt lat="45.746486" lon="10.342465">
        <ele>887.895712</ele>
        <time>2021-03-10T17:04:18.673Z</time>
      </trkpt>
      <trkpt lat="45.746569" lon="10.342861">
        <ele>889.874909</ele>
        <time>2021-03-10T17:04:34.981Z</time>
      </trkpt>
      <trkpt lat="45.746648" lon="10.343399">
        <ele>892.506559</ele>
        <time>2021-03-10T17:04:55.327Z</time>
      </trkpt>
      <trkpt lat="45.746656" lon="10.343621">
        <ele>893.570625</ele>
        <time>2021-03-10T17:05:02.663Z</time>
      </trkpt>
      <trkpt lat="45.746635" lon="10.343848">
        <ele>894.400938</ele>
        <time>2021-03-10T17:05:10.427Z</time>
      </trkpt>
      <trkpt lat="45.746497" lon="10.344315">
        <ele>895.853965</ele>
        <time>2021-03-10T17:05:24.885Z</time>
      </trkpt>
      <trkpt lat="45.746404" lon="10.344465">
        <ele>896.428854</ele>
        <time>2021-03-10T17:05:29.637Z</time>
      </trkpt>
      <trkpt lat="45.746330" lon="10.344474">
        <ele>896.733770</ele>
        <time>2021-03-10T17:05:32.280Z</time>
      </trkpt>
      <trkpt lat="45.746171" lon="10.344356">
        <ele>897.468932</ele>
        <time>2021-03-10T17:05:38.328Z</time>
      </trkpt>
      <trkpt lat="45.745866" lon="10.344341">
        <ele>898.721916</ele>
        <time>2021-03-10T17:05:47.990Z</time>
      </trkpt>
      <trkpt lat="45.745622" lon="10.344170">
        <ele>899.837102</ele>
        <time>2021-03-10T17:05:54.921Z</time>
      </trkpt>
      <trkpt lat="45.745275" lon="10.344064">
        <ele>901.293801</ele>
        <time>2021-03-10T17:06:02.144Z</time>
      </trkpt>
      <trkpt lat="45.745146" lon="10.343982">
        <ele>901.135988</ele>
        <time>2021-03-10T17:06:04.375Z</time>
      </trkpt>
      <trkpt lat="45.744987" lon="10.343963">
        <ele>900.792871</ele>
        <time>2021-03-10T17:06:06.384Z</time>
      </trkpt>
      <trkpt lat="45.744778" lon="10.344025">
        <ele>900.333885</ele>
        <time>2021-03-10T17:06:08.779Z</time>
      </trkpt>
      <trkpt lat="45.744475" lon="10.344323">
        <ele>899.543571</ele>
        <time>2021-03-10T17:06:12.525Z</time>
      </trkpt>
      <trkpt lat="45.744242" lon="10.344719">
        <ele>898.766229</ele>
        <time>2021-03-10T17:06:16.171Z</time>
      </trkpt>
      <trkpt lat="45.744151" lon="10.344803">
        <ele>898.533444</ele>
        <time>2021-03-10T17:06:17.311Z</time>
      </trkpt>
      <trkpt lat="45.744070" lon="10.344802">
        <ele>898.359246</ele>
        <time>2021-03-10T17:06:18.181Z</time>
      </trkpt>
      <trkpt lat="45.744004" lon="10.344705">
        <ele>898.155931</ele>
        <time>2021-03-10T17:06:19.163Z</time>
      </trkpt>
      <trkpt lat="45.743912" lon="10.344384">
        <ele>897.635141</ele>
        <time>2021-03-10T17:06:21.717Z</time>
      </trkpt>
      <trkpt lat="45.743832" lon="10.344215">
        <ele>896.943016</ele>
        <time>2021-03-10T17:06:23.177Z</time>
      </trkpt>
      <trkpt lat="45.743406" lon="10.343800">
        <ele>893.618663</ele>
        <time>2021-03-10T17:06:28.220Z</time>
      </trkpt>
      <trkpt lat="45.743239" lon="10.343712">
        <ele>892.470367</ele>
        <time>2021-03-10T17:06:29.887Z</time>
      </trkpt>
      <trkpt lat="45.743004" lon="10.343588">
        <ele>890.854239</ele>
        <time>2021-03-10T17:06:32.106Z</time>
      </trkpt>
      <trkpt lat="45.742765" lon="10.343563">
        <ele>889.307750</ele>
        <time>2021-03-10T17:06:34.163Z</time>
      </trkpt>
      <trkpt lat="45.742674" lon="10.343616">
        <ele>888.673825</ele>
        <time>2021-03-10T17:06:35.003Z</time>
      </trkpt>
      <trkpt lat="45.742201" lon="10.344095">
        <ele>885.685758</ele>
        <time>2021-03-10T17:06:40.030Z</time>
      </trkpt>
      <trkpt lat="45.742219" lon="10.344417">
        <ele>885.346388</ele>
        <time>2021-03-10T17:06:42.095Z</time>
      </trkpt>
      <trkpt lat="45.742225" lon="10.344531">
        <ele>885.226282</ele>
        <time>2021-03-10T17:06:42.852Z</time>
      </trkpt>
      <trkpt lat="45.742174" lon="10.344914">
        <ele>884.816651</ele>
        <time>2021-03-10T17:06:45.645Z</time>
      </trkpt>
      <trkpt lat="45.742155" lon="10.344983">
        <ele>884.738723</ele>
        <time>2021-03-10T17:06:46.209Z</time>
      </trkpt>
      <trkpt lat="45.742143" lon="10.345225">
        <ele>884.483841</ele>
        <time>2021-03-10T17:06:48.193Z</time>
      </trkpt>
      <trkpt lat="45.742172" lon="10.345481">
        <ele>884.211373</ele>
        <time>2021-03-10T17:06:52.687Z</time>
      </trkpt>
      <trkpt lat="45.742244" lon="10.345750">
        <ele>883.908696</ele>
        <time>2021-03-10T17:06:56.598Z</time>
      </trkpt>
      <trkpt lat="45.742583" lon="10.346658">
        <ele>884.705788</ele>
        <time>2021-03-10T17:07:15.611Z</time>
      </trkpt>
      <trkpt lat="45.742578" lon="10.346796">
        <ele>885.279564</ele>
        <time>2021-03-10T17:07:19.021Z</time>
      </trkpt>
      <trkpt lat="45.742453" lon="10.347240">
        <ele>887.267502</ele>
        <time>2021-03-10T17:07:30.502Z</time>
      </trkpt>
      <trkpt lat="45.742434" lon="10.347424">
        <ele>888.039827</ele>
        <time>2021-03-10T17:07:36.321Z</time>
      </trkpt>
      <trkpt lat="45.742314" lon="10.347656">
        <ele>889.238877</ele>
        <time>2021-03-10T17:07:44.477Z</time>
      </trkpt>
      <trkpt lat="45.742012" lon="10.348050">
        <ele>891.668891</ele>
        <time>2021-03-10T17:08:02.817Z</time>
      </trkpt>
      <trkpt lat="45.741703" lon="10.348379">
        <ele>893.992447</ele>
        <time>2021-03-10T17:08:20.147Z</time>
      </trkpt>
      <trkpt lat="45.741618" lon="10.348605">
        <ele>895.741448</ele>
        <time>2021-03-10T17:08:28.341Z</time>
      </trkpt>
      <trkpt lat="45.741602" lon="10.349252">
        <ele>900.151985</ele>
        <time>2021-03-10T17:08:48.206Z</time>
      </trkpt>
      <trkpt lat="45.741393" lon="10.349832">
        <ele>904.598941</ele>
        <time>2021-03-10T17:09:10.958Z</time>
      </trkpt>
      <trkpt lat="45.741251" lon="10.351038">
        <ele>913.210764</ele>
        <time>2021-03-10T17:10:05.697Z</time>
      </trkpt>
      <trkpt lat="45.741279" lon="10.351523">
        <ele>917.158745</ele>
        <time>2021-03-10T17:10:28.709Z</time>
      </trkpt>
      <trkpt lat="45.741178" lon="10.352031">
        <ele>921.443846</ele>
        <time>2021-03-10T17:10:54.574Z</time>
      </trkpt>
      <trkpt lat="45.741143" lon="10.352102">
        <ele>922.149027</ele>
        <time>2021-03-10T17:10:58.867Z</time>
      </trkpt>
      <trkpt lat="45.741093" lon="10.352134">
        <ele>922.785574</ele>
        <time>2021-03-10T17:11:02.836Z</time>
      </trkpt>
      <trkpt lat="45.740751" lon="10.352161">
        <ele>926.767047</ele>
        <time>2021-03-10T17:11:26.415Z</time>
      </trkpt>
      <trkpt lat="45.740660" lon="10.352201">
        <ele>927.873496</ele>
        <time>2021-03-10T17:11:32.687Z</time>
      </trkpt>
      <trkpt lat="45.740581" lon="10.352303">
        <ele>929.109621</ele>
        <time>2021-03-10T17:11:38.830Z</time>
      </trkpt>
      <trkpt lat="45.740291" lon="10.352824">
        <ele>932.532453</ele>
        <time>2021-03-10T17:12:01.069Z</time>
      </trkpt>
      <trkpt lat="45.739925" lon="10.353359">
        <ele>932.984549</ele>
        <time>2021-03-10T17:12:15.081Z</time>
      </trkpt>
      <trkpt lat="45.739822" lon="10.353541">
        <ele>933.125953</ele>
        <time>2021-03-10T17:12:17.634Z</time>
      </trkpt>
      <trkpt lat="45.739741" lon="10.353771">
        <ele>933.281421</ele>
        <time>2021-03-10T17:12:21.391Z</time>
      </trkpt>
      <trkpt lat="45.739702" lon="10.353950">
        <ele>933.394585</ele>
        <time>2021-03-10T17:12:22.879Z</time>
      </trkpt>
      <trkpt lat="45.739646" lon="10.354479">
        <ele>933.717474</ele>
        <time>2021-03-10T17:12:27.064Z</time>
      </trkpt>
      <trkpt lat="45.739657" lon="10.354886">
        <ele>933.401224</ele>
        <time>2021-03-10T17:12:29.923Z</time>
      </trkpt>
      <trkpt lat="45.739684" lon="10.354942">
        <ele>932.782253</ele>
        <time>2021-03-10T17:12:30.346Z</time>
      </trkpt>
      <trkpt lat="45.739725" lon="10.354924">
        <ele>932.223500</ele>
        <time>2021-03-10T17:12:30.731Z</time>
      </trkpt>
      <trkpt lat="45.739748" lon="10.354869">
        <ele>931.640416</ele>
        <time>2021-03-10T17:12:31.139Z</time>
      </trkpt>
      <trkpt lat="45.739732" lon="10.354443">
        <ele>927.760763</ele>
        <time>2021-03-10T17:12:33.751Z</time>
      </trkpt>
      <trkpt lat="45.739782" lon="10.354298">
        <ele>926.289964</ele>
        <time>2021-03-10T17:12:34.712Z</time>
      </trkpt>
      <trkpt lat="45.739897" lon="10.354152">
        <ele>924.287900</ele>
        <time>2021-03-10T17:12:36.009Z</time>
      </trkpt>
      <trkpt lat="45.740504" lon="10.353847">
        <ele>915.906344</ele>
        <time>2021-03-10T17:12:41.320Z</time>
      </trkpt>
      <trkpt lat="45.740709" lon="10.353959">
        <ele>913.047567</ele>
        <time>2021-03-10T17:12:43.121Z</time>
      </trkpt>
      <trkpt lat="45.740753" lon="10.354024">
        <ele>912.224096</ele>
        <time>2021-03-10T17:12:43.642Z</time>
      </trkpt>
      <trkpt lat="45.740794" lon="10.354316">
        <ele>909.299022</ele>
        <time>2021-03-10T17:12:45.358Z</time>
      </trkpt>
      <trkpt lat="45.740877" lon="10.354631">
        <ele>905.558125</ele>
        <time>2021-03-10T17:12:47.290Z</time>
      </trkpt>
      <trkpt lat="45.741018" lon="10.354856">
        <ele>902.198408</ele>
        <time>2021-03-10T17:12:49.022Z</time>
      </trkpt>
      <trkpt lat="45.741233" lon="10.355104">
        <ele>897.804432</ele>
        <time>2021-03-10T17:12:51.286Z</time>
      </trkpt>
      <trkpt lat="45.741342" lon="10.355620">
        <ele>891.814661</ele>
        <time>2021-03-10T17:12:54.394Z</time>
      </trkpt>
      <trkpt lat="45.741512" lon="10.355946">
        <ele>887.293294</ele>
        <time>2021-03-10T17:12:56.749Z</time>
      </trkpt>
      <trkpt lat="45.741693" lon="10.356211">
        <ele>883.173688</ele>
        <time>2021-03-10T17:12:58.910Z</time>
      </trkpt>
      <trkpt lat="45.742024" lon="10.356573">
        <ele>878.609071</ele>
        <time>2021-03-10T17:13:02.447Z</time>
      </trkpt>
      <trkpt lat="45.742697" lon="10.357159">
        <ele>870.943025</ele>
        <time>2021-03-10T17:13:09.300Z</time>
      </trkpt>
      <trkpt lat="45.743228" lon="10.357387">
        <ele>865.546931</ele>
        <time>2021-03-10T17:13:14.211Z</time>
      </trkpt>
      <trkpt lat="45.743339" lon="10.357468">
        <ele>864.331716</ele>
        <time>2021-03-10T17:13:15.306Z</time>
      </trkpt>
      <trkpt lat="45.743392" lon="10.357622">
        <ele>862.955670</ele>
        <time>2021-03-10T17:13:16.353Z</time>
      </trkpt>
      <trkpt lat="45.743442" lon="10.358205">
        <ele>858.248438</ele>
        <time>2021-03-10T17:13:19.900Z</time>
      </trkpt>
      <trkpt lat="45.743472" lon="10.358334">
        <ele>857.158760</ele>
        <time>2021-03-10T17:13:20.713Z</time>
      </trkpt>
      <trkpt lat="45.743539" lon="10.358420">
        <ele>856.125837</ele>
        <time>2021-03-10T17:13:21.482Z</time>
      </trkpt>
      <trkpt lat="45.743828" lon="10.358420">
        <ele>852.807170</ele>
        <time>2021-03-10T17:13:23.916Z</time>
      </trkpt>
      <trkpt lat="45.744031" lon="10.358595">
        <ele>850.086726</ele>
        <time>2021-03-10T17:13:25.903Z</time>
      </trkpt>
      <trkpt lat="45.744202" lon="10.358809">
        <ele>847.479635</ele>
        <time>2021-03-10T17:13:27.804Z</time>
      </trkpt>
      <trkpt lat="45.744355" lon="10.359217">
        <ele>843.767874</ele>
        <time>2021-03-10T17:13:30.508Z</time>
      </trkpt>
      <trkpt lat="45.744505" lon="10.359910">
        <ele>837.973389</ele>
        <time>2021-03-10T17:13:34.769Z</time>
      </trkpt>
      <trkpt lat="45.744623" lon="10.360178">
        <ele>835.442835</ele>
        <time>2021-03-10T17:13:36.657Z</time>
      </trkpt>
      <trkpt lat="45.745161" lon="10.360786">
        <ele>827.602165</ele>
        <time>2021-03-10T17:13:42.495Z</time>
      </trkpt>
      <trkpt lat="45.745578" lon="10.361131">
        <ele>822.503530</ele>
        <time>2021-03-10T17:13:46.587Z</time>
      </trkpt>
      <trkpt lat="45.746053" lon="10.361273">
        <ele>819.189905</ele>
        <time>2021-03-10T17:13:50.839Z</time>
      </trkpt>
      <trkpt lat="45.746079" lon="10.361316">
        <ele>818.918764</ele>
        <time>2021-03-10T17:13:51.197Z</time>
      </trkpt>
      <trkpt lat="45.746075" lon="10.361379">
        <ele>818.617293</ele>
        <time>2021-03-10T17:13:51.573Z</time>
      </trkpt>
      <trkpt lat="45.746037" lon="10.361433">
        <ele>818.251826</ele>
        <time>2021-03-10T17:13:52.053Z</time>
      </trkpt>
      <trkpt lat="45.745385" lon="10.361387">
        <ele>813.793904</ele>
        <time>2021-03-10T17:13:58.280Z</time>
      </trkpt>
      <trkpt lat="45.745329" lon="10.361441">
        <ele>813.332954</ele>
        <time>2021-03-10T17:13:58.903Z</time>
      </trkpt>
      <trkpt lat="45.745346" lon="10.361579">
        <ele>812.665129</ele>
        <time>2021-03-10T17:13:59.868Z</time>
      </trkpt>
      <trkpt lat="45.745595" lon="10.361726">
        <ele>810.826069</ele>
        <time>2021-03-10T17:14:02.443Z</time>
      </trkpt>
      <trkpt lat="45.745874" lon="10.361942">
        <ele>808.674600</ele>
        <time>2021-03-10T17:14:05.347Z</time>
      </trkpt>
      <trkpt lat="45.746028" lon="10.361991">
        <ele>807.604339</ele>
        <time>2021-03-10T17:14:06.760Z</time>
      </trkpt>
      <trkpt lat="45.746480" lon="10.361792">
        <ele>804.396271</ele>
        <time>2021-03-10T17:14:10.966Z</time>
      </trkpt>
      <trkpt lat="45.746591" lon="10.361866">
        <ele>803.565683</ele>
        <time>2021-03-10T17:14:12.064Z</time>
      </trkpt>
      <trkpt lat="45.746616" lon="10.361920">
        <ele>803.258876</ele>
        <time>2021-03-10T17:14:12.496Z</time>
      </trkpt>
      <trkpt lat="45.746670" lon="10.362460">
        <ele>800.676155</ele>
        <time>2021-03-10T17:14:16.010Z</time>
      </trkpt>
      <trkpt lat="45.746855" lon="10.363088">
        <ele>796.795272</ele>
        <time>2021-03-10T17:14:20.276Z</time>
      </trkpt>
      <trkpt lat="45.747056" lon="10.363601">
        <ele>792.464005</ele>
        <time>2021-03-10T17:14:23.807Z</time>
      </trkpt>
      <trkpt lat="45.747050" lon="10.363678">
        <ele>791.893612</ele>
        <time>2021-03-10T17:14:24.264Z</time>
      </trkpt>
      <trkpt lat="45.747014" lon="10.363707">
        <ele>791.457925</ele>
        <time>2021-03-10T17:14:24.617Z</time>
      </trkpt>
      <trkpt lat="45.746967" lon="10.363691">
        <ele>790.948285</ele>
        <time>2021-03-10T17:14:25.021Z</time>
      </trkpt>
      <trkpt lat="45.746825" lon="10.363502">
        <ele>788.903721</ele>
        <time>2021-03-10T17:14:26.659Z</time>
      </trkpt>
      <trkpt lat="45.746677" lon="10.363469">
        <ele>787.323563</ele>
        <time>2021-03-10T17:14:27.913Z</time>
      </trkpt>
      <trkpt lat="45.746528" lon="10.363551">
        <ele>785.639708</ele>
        <time>2021-03-10T17:14:29.250Z</time>
      </trkpt>
      <trkpt lat="45.746408" lon="10.363692">
        <ele>784.002567</ele>
        <time>2021-03-10T17:14:30.554Z</time>
      </trkpt>
      <trkpt lat="45.746308" lon="10.363924">
        <ele>781.995027</ele>
        <time>2021-03-10T17:14:32.171Z</time>
      </trkpt>
      <trkpt lat="45.746219" lon="10.364252">
        <ele>779.493078</ele>
        <time>2021-03-10T17:14:34.267Z</time>
      </trkpt>
      <trkpt lat="45.746193" lon="10.364464">
        <ele>778.478805</ele>
        <time>2021-03-10T17:14:35.569Z</time>
      </trkpt>
      <trkpt lat="45.746244" lon="10.364641">
        <ele>777.576466</ele>
        <time>2021-03-10T17:14:36.736Z</time>
      </trkpt>
      <trkpt lat="45.746286" lon="10.364697">
        <ele>777.189089</ele>
        <time>2021-03-10T17:14:37.245Z</time>
      </trkpt>
      <trkpt lat="45.746535" lon="10.364839">
        <ele>775.379489</ele>
        <time>2021-03-10T17:14:39.623Z</time>
      </trkpt>
      <trkpt lat="45.746704" lon="10.364922">
        <ele>774.173171</ele>
        <time>2021-03-10T17:14:41.211Z</time>
      </trkpt>
      <trkpt lat="45.746888" lon="10.365002">
        <ele>772.874800</ele>
        <time>2021-03-10T17:14:42.902Z</time>
      </trkpt>
      <trkpt lat="45.747499" lon="10.365070">
        <ele>768.736652</ele>
        <time>2021-03-10T17:14:48.586Z</time>
      </trkpt>
      <trkpt lat="45.747760" lon="10.365046">
        <ele>767.318637</ele>
        <time>2021-03-10T17:14:51.452Z</time>
      </trkpt>
      <trkpt lat="45.747851" lon="10.365084">
        <ele>767.094631</ele>
        <time>2021-03-10T17:14:52.433Z</time>
      </trkpt>
      <trkpt lat="45.747948" lon="10.365115">
        <ele>766.859758</ele>
        <time>2021-03-10T17:14:53.598Z</time>
      </trkpt>
      <trkpt lat="45.748244" lon="10.365208">
        <ele>766.143602</ele>
        <time>2021-03-10T17:14:57.167Z</time>
      </trkpt>
      <trkpt lat="45.748391" lon="10.365250">
        <ele>765.789358</ele>
        <time>2021-03-10T17:14:59.203Z</time>
      </trkpt>
      <trkpt lat="45.748551" lon="10.365306">
        <ele>765.400113</ele>
        <time>2021-03-10T17:15:01.149Z</time>
      </trkpt>
      <trkpt lat="45.748871" lon="10.365250">
        <ele>764.638236</ele>
        <time>2021-03-10T17:15:04.913Z</time>
      </trkpt>
      <trkpt lat="45.749109" lon="10.365166">
        <ele>764.058960</ele>
        <time>2021-03-10T17:15:07.510Z</time>
      </trkpt>
      <trkpt lat="45.749353" lon="10.365154">
        <ele>763.481973</ele>
        <time>2021-03-10T17:15:09.938Z</time>
      </trkpt>
      <trkpt lat="45.749836" lon="10.365349">
        <ele>762.163619</ele>
        <time>2021-03-10T17:15:14.908Z</time>
      </trkpt>
      <trkpt lat="45.750222" lon="10.365396">
        <ele>761.121682</ele>
        <time>2021-03-10T17:15:18.776Z</time>
      </trkpt>
      <trkpt lat="45.750593" lon="10.365271">
        <ele>760.096624</ele>
        <time>2021-03-10T17:15:22.532Z</time>
      </trkpt>
      <trkpt lat="45.750693" lon="10.365353">
        <ele>759.786745</ele>
        <time>2021-03-10T17:15:23.672Z</time>
      </trkpt>
      <trkpt lat="45.750871" lon="10.365624">
        <ele>759.088259</ele>
        <time>2021-03-10T17:15:26.263Z</time>
      </trkpt>
      <trkpt lat="45.750970" lon="10.365638">
        <ele>758.820692</ele>
        <time>2021-03-10T17:15:27.341Z</time>
      </trkpt>
      <trkpt lat="45.751202" lon="10.365385">
        <ele>759.255499</ele>
        <time>2021-03-10T17:15:30.856Z</time>
      </trkpt>
      <trkpt lat="45.751750" lon="10.365416">
        <ele>762.499648</ele>
        <time>2021-03-10T17:15:45.496Z</time>
      </trkpt>
      <trkpt lat="45.752011" lon="10.365622">
        <ele>764.262213</ele>
        <time>2021-03-10T17:15:57.760Z</time>
      </trkpt>
      <trkpt lat="45.752161" lon="10.365593">
        <ele>765.157556</ele>
        <time>2021-03-10T17:16:05.156Z</time>
      </trkpt>
      <trkpt lat="45.752600" lon="10.365251">
        <ele>768.113274</ele>
        <time>2021-03-10T17:16:32.348Z</time>
      </trkpt>
      <trkpt lat="45.752978" lon="10.365227">
        <ele>771.180015</ele>
        <time>2021-03-10T17:16:54.885Z</time>
      </trkpt>
      <trkpt lat="45.753174" lon="10.365082">
        <ele>773.320049</ele>
        <time>2021-03-10T17:17:08.195Z</time>
      </trkpt>
      <trkpt lat="45.753741" lon="10.364288">
        <ele>781.011243</ele>
        <time>2021-03-10T17:17:55.440Z</time>
      </trkpt>
      <trkpt lat="45.753909" lon="10.363818">
        <ele>784.586180</ele>
        <time>2021-03-10T17:18:15.905Z</time>
      </trkpt>
      <trkpt lat="45.754173" lon="10.363618">
        <ele>786.645555</ele>
        <time>2021-03-10T17:18:29.576Z</time>
      </trkpt>
      <trkpt lat="45.754245" lon="10.363510">
        <ele>786.788166</ele>
        <time>2021-03-10T17:18:33.524Z</time>
      </trkpt>
      <trkpt lat="45.754396" lon="10.361854">
        <ele>788.382643</ele>
        <time>2021-03-10T17:18:53.596Z</time>
      </trkpt>
      <trkpt lat="45.754498" lon="10.361572">
        <ele>788.685902</ele>
        <time>2021-03-10T17:18:55.982Z</time>
      </trkpt>
      <trkpt lat="45.754915" lon="10.360962">
        <ele>787.501259</ele>
        <time>2021-03-10T17:19:02.614Z</time>
      </trkpt>
      <trkpt lat="45.755185" lon="10.360368">
        <ele>785.634136</ele>
        <time>2021-03-10T17:19:07.995Z</time>
      </trkpt>
      <trkpt lat="45.755261" lon="10.360029">
        <ele>784.696351</ele>
        <time>2021-03-10T17:19:10.498Z</time>
      </trkpt>
      <trkpt lat="45.755263" lon="10.359502">
        <ele>783.308366</ele>
        <time>2021-03-10T17:19:14.033Z</time>
      </trkpt>
      <trkpt lat="45.755511" lon="10.358886">
        <ele>779.063108</ele>
        <time>2021-03-10T17:19:18.571Z</time>
      </trkpt>
      <trkpt lat="45.755575" lon="10.358046">
        <ele>769.746419</ele>
        <time>2021-03-10T17:19:23.596Z</time>
      </trkpt>
      <trkpt lat="45.755829" lon="10.357527">
        <ele>762.756698</ele>
        <time>2021-03-10T17:19:27.241Z</time>
      </trkpt>
      <trkpt lat="45.756018" lon="10.357074">
        <ele>756.937198</ele>
        <time>2021-03-10T17:19:30.246Z</time>
      </trkpt>
      <trkpt lat="45.756092" lon="10.357025">
        <ele>755.649043</ele>
        <time>2021-03-10T17:19:30.918Z</time>
      </trkpt>
      <trkpt lat="45.756186" lon="10.357045">
        <ele>754.147328</ele>
        <time>2021-03-10T17:19:31.692Z</time>
      </trkpt>
      <trkpt lat="45.756297" lon="10.357239">
        <ele>749.995257</ele>
        <time>2021-03-10T17:19:33.127Z</time>
      </trkpt>
      <trkpt lat="45.756531" lon="10.357888">
        <ele>737.241815</ele>
        <time>2021-03-10T17:19:37.316Z</time>
      </trkpt>
      <trkpt lat="45.756725" lon="10.358246">
        <ele>729.328352</ele>
        <time>2021-03-10T17:19:39.919Z</time>
      </trkpt>
      <trkpt lat="45.756850" lon="10.358355">
        <ele>725.667309</ele>
        <time>2021-03-10T17:19:41.121Z</time>
      </trkpt>
      <trkpt lat="45.757388" lon="10.358523">
        <ele>711.890037</ele>
        <time>2021-03-10T17:19:45.634Z</time>
      </trkpt>
      <trkpt lat="45.757973" lon="10.359236">
        <ele>701.663728</ele>
        <time>2021-03-10T17:19:51.931Z</time>
      </trkpt>
      <trkpt lat="45.758418" lon="10.359655">
        <ele>695.789661</ele>
        <time>2021-03-10T17:19:56.473Z</time>
      </trkpt>
      <trkpt lat="45.758601" lon="10.359893">
        <ele>693.063457</ele>
        <time>2021-03-10T17:19:58.715Z</time>
      </trkpt>
      <trkpt lat="45.758623" lon="10.359962">
        <ele>692.479516</ele>
        <time>2021-03-10T17:19:59.248Z</time>
      </trkpt>
      <trkpt lat="45.758607" lon="10.360052">
        <ele>691.764631</ele>
        <time>2021-03-10T17:19:59.892Z</time>
      </trkpt>
      <trkpt lat="45.758564" lon="10.360086">
        <ele>691.222833</ele>
        <time>2021-03-10T17:20:00.390Z</time>
      </trkpt>
      <trkpt lat="45.758508" lon="10.360079">
        <ele>690.602666</ele>
        <time>2021-03-10T17:20:00.980Z</time>
      </trkpt>
      <trkpt lat="45.758405" lon="10.359991">
        <ele>689.279749</ele>
        <time>2021-03-10T17:20:02.542Z</time>
      </trkpt>
      <trkpt lat="45.758304" lon="10.359816">
        <ele>689.748298</ele>
        <time>2021-03-10T17:20:05.795Z</time>
      </trkpt>
      <trkpt lat="45.758167" lon="10.359703">
        <ele>690.811748</ele>
        <time>2021-03-10T17:20:10.169Z</time>
      </trkpt>
      <trkpt lat="45.757790" lon="10.359540">
        <ele>693.461066</ele>
        <time>2021-03-10T17:20:27.774Z</time>
      </trkpt>
      <trkpt lat="45.757249" lon="10.359152">
        <ele>697.531118</ele>
        <time>2021-03-10T17:21:02.840Z</time>
      </trkpt>
      <trkpt lat="45.756841" lon="10.359272">
        <ele>700.333312</ele>
        <time>2021-03-10T17:21:24.886Z</time>
      </trkpt>
      <trkpt lat="45.756769" lon="10.359245">
        <ele>700.834029</ele>
        <time>2021-03-10T17:21:28.959Z</time>
      </trkpt>
      <trkpt lat="45.756526" lon="10.358862">
        <ele>700.242170</ele>
        <time>2021-03-10T17:21:44.337Z</time>
      </trkpt>
      <trkpt lat="45.756420" lon="10.358747">
        <ele>699.937641</ele>
        <time>2021-03-10T17:21:48.767Z</time>
      </trkpt>
      <trkpt lat="45.756356" lon="10.358725">
        <ele>699.786881</ele>
        <time>2021-03-10T17:21:50.299Z</time>
      </trkpt>
      <trkpt lat="45.756295" lon="10.358757">
        <ele>699.638084</ele>
        <time>2021-03-10T17:21:51.926Z</time>
      </trkpt>
      <trkpt lat="45.756263" lon="10.358849">
        <ele>699.473789</ele>
        <time>2021-03-10T17:21:53.814Z</time>
      </trkpt>
      <trkpt lat="45.756283" lon="10.359019">
        <ele>699.198255</ele>
        <time>2021-03-10T17:21:56.080Z</time>
      </trkpt>
      <trkpt lat="45.756562" lon="10.360171">
        <ele>697.249333</ele>
        <time>2021-03-10T17:22:03.970Z</time>
      </trkpt>
      <trkpt lat="45.756610" lon="10.361103">
        <ele>690.231256</ele>
        <time>2021-03-10T17:22:09.388Z</time>
      </trkpt>
      <trkpt lat="45.756595" lon="10.361630">
        <ele>685.281207</ele>
        <time>2021-03-10T17:22:12.420Z</time>
      </trkpt>
      <trkpt lat="45.756503" lon="10.362160">
        <ele>680.155480</ele>
        <time>2021-03-10T17:22:15.584Z</time>
      </trkpt>
      <trkpt lat="45.756298" lon="10.362723">
        <ele>674.195395</ele>
        <time>2021-03-10T17:22:19.309Z</time>
      </trkpt>
      <trkpt lat="45.755644" lon="10.364142">
        <ele>660.249050</ele>
        <time>2021-03-10T17:22:29.528Z</time>
      </trkpt>
      <trkpt lat="45.755203" lon="10.365182">
        <ele>649.981612</ele>
        <time>2021-03-10T17:22:36.731Z</time>
      </trkpt>
      <trkpt lat="45.754856" lon="10.366144">
        <ele>638.605636</ele>
        <time>2021-03-10T17:22:42.936Z</time>
      </trkpt>
      <trkpt lat="45.754652" lon="10.366468">
        <ele>634.021217</ele>
        <time>2021-03-10T17:22:45.438Z</time>
      </trkpt>
      <trkpt lat="45.754481" lon="10.367116">
        <ele>626.743585</ele>
        <time>2021-03-10T17:22:49.453Z</time>
      </trkpt>
      <trkpt lat="45.754296" lon="10.367431">
        <ele>623.581836</ele>
        <time>2021-03-10T17:22:51.919Z</time>
      </trkpt>
      <trkpt lat="45.754106" lon="10.367934">
        <ele>620.517982</ele>
        <time>2021-03-10T17:22:55.451Z</time>
      </trkpt>
      <trkpt lat="45.753997" lon="10.367982">
        <ele>619.642572</ele>
        <time>2021-03-10T17:22:56.493Z</time>
      </trkpt>
      <trkpt lat="45.753766" lon="10.367925">
        <ele>617.843079</ele>
        <time>2021-03-10T17:22:58.542Z</time>
      </trkpt>
      <trkpt lat="45.753274" lon="10.367544">
        <ele>613.549854</ele>
        <time>2021-03-10T17:23:03.634Z</time>
      </trkpt>
      <trkpt lat="45.753119" lon="10.367490">
        <ele>612.325256</ele>
        <time>2021-03-10T17:23:05.054Z</time>
      </trkpt>
      <trkpt lat="45.753036" lon="10.367505">
        <ele>611.683014</ele>
        <time>2021-03-10T17:23:05.913Z</time>
      </trkpt>
      <trkpt lat="45.752942" lon="10.367619">
        <ele>610.719405</ele>
        <time>2021-03-10T17:23:07.149Z</time>
      </trkpt>
      <trkpt lat="45.752775" lon="10.368022">
        <ele>608.022539</ele>
        <time>2021-03-10T17:23:10.320Z</time>
      </trkpt>
      <trkpt lat="45.752683" lon="10.368447">
        <ele>605.462206</ele>
        <time>2021-03-10T17:23:13.281Z</time>
      </trkpt>
      <trkpt lat="45.752621" lon="10.368944">
        <ele>602.557232</ele>
        <time>2021-03-10T17:23:16.488Z</time>
      </trkpt>
      <trkpt lat="45.752544" lon="10.369167">
        <ele>601.125626</ele>
        <time>2021-03-10T17:23:18.041Z</time>
      </trkpt>
      <trkpt lat="45.752233" lon="10.369580">
        <ele>597.629372</ele>
        <time>2021-03-10T17:23:21.644Z</time>
      </trkpt>
      <trkpt lat="45.752050" lon="10.369877">
        <ele>594.971363</ele>
        <time>2021-03-10T17:23:23.935Z</time>
      </trkpt>
      <trkpt lat="45.751934" lon="10.370170">
        <ele>592.119705</ele>
        <time>2021-03-10T17:23:25.890Z</time>
      </trkpt>
      <trkpt lat="45.751883" lon="10.370245">
        <ele>591.233215</ele>
        <time>2021-03-10T17:23:26.494Z</time>
      </trkpt>
      <trkpt lat="45.751795" lon="10.370271">
        <ele>590.143188</ele>
        <time>2021-03-10T17:23:27.242Z</time>
      </trkpt>
      <trkpt lat="45.751629" lon="10.370243">
        <ele>588.115452</ele>
        <time>2021-03-10T17:23:28.640Z</time>
      </trkpt>
      <trkpt lat="45.751479" lon="10.370172">
        <ele>586.199038</ele>
        <time>2021-03-10T17:23:29.965Z</time>
      </trkpt>
      <trkpt lat="45.751396" lon="10.370178">
        <ele>585.190840</ele>
        <time>2021-03-10T17:23:30.674Z</time>
      </trkpt>
      <trkpt lat="45.751330" lon="10.370200">
        <ele>584.368786</ele>
        <time>2021-03-10T17:23:31.241Z</time>
      </trkpt>
      <trkpt lat="45.750970" lon="10.370823">
        <ele>577.521429</ele>
        <time>2021-03-10T17:23:36.051Z</time>
      </trkpt>
      <trkpt lat="45.750788" lon="10.370931">
        <ele>575.131695</ele>
        <time>2021-03-10T17:23:37.747Z</time>
      </trkpt>
      <trkpt lat="45.750407" lon="10.370985">
        <ele>571.186947</ele>
        <time>2021-03-10T17:23:41.072Z</time>
      </trkpt>
      <trkpt lat="45.749831" lon="10.371244">
        <ele>565.196475</ele>
        <time>2021-03-10T17:23:46.272Z</time>
      </trkpt>
      <trkpt lat="45.749642" lon="10.371370">
        <ele>563.127999</ele>
        <time>2021-03-10T17:23:48.062Z</time>
      </trkpt>
      <trkpt lat="45.749513" lon="10.371791">
        <ele>559.944187</ele>
        <time>2021-03-10T17:23:50.834Z</time>
      </trkpt>
      <trkpt lat="45.749457" lon="10.371870">
        <ele>559.164423</ele>
        <time>2021-03-10T17:23:51.516Z</time>
      </trkpt>
      <trkpt lat="45.749380" lon="10.371886">
        <ele>558.392352</ele>
        <time>2021-03-10T17:23:52.180Z</time>
      </trkpt>
      <trkpt lat="45.749110" lon="10.371774">
        <ele>555.622236</ele>
        <time>2021-03-10T17:23:54.607Z</time>
      </trkpt>
      <trkpt lat="45.748949" lon="10.371772">
        <ele>554.059231</ele>
        <time>2021-03-10T17:23:55.997Z</time>
      </trkpt>
      <trkpt lat="45.748782" lon="10.371813">
        <ele>552.414421</ele>
        <time>2021-03-10T17:23:57.455Z</time>
      </trkpt>
      <trkpt lat="45.748663" lon="10.371915">
        <ele>551.068329</ele>
        <time>2021-03-10T17:23:58.642Z</time>
      </trkpt>
      <trkpt lat="45.748642" lon="10.371994">
        <ele>550.495658</ele>
        <time>2021-03-10T17:23:59.148Z</time>
      </trkpt>
      <trkpt lat="45.748645" lon="10.372078">
        <ele>549.925887</ele>
        <time>2021-03-10T17:23:59.654Z</time>
      </trkpt>
      <trkpt lat="45.748713" lon="10.372198">
        <ele>548.878716</ele>
        <time>2021-03-10T17:24:00.581Z</time>
      </trkpt>
      <trkpt lat="45.749347" lon="10.372446">
        <ele>542.498849</ele>
        <time>2021-03-10T17:24:06.262Z</time>
      </trkpt>
      <trkpt lat="45.749432" lon="10.372510">
        <ele>541.566732</ele>
        <time>2021-03-10T17:24:07.099Z</time>
      </trkpt>
      <trkpt lat="45.749449" lon="10.372619">
        <ele>540.810145</ele>
        <time>2021-03-10T17:24:07.777Z</time>
      </trkpt>
      <trkpt lat="45.749402" lon="10.372712">
        <ele>540.032290</ele>
        <time>2021-03-10T17:24:08.474Z</time>
      </trkpt>
      <trkpt lat="45.749330" lon="10.372730">
        <ele>539.322777</ele>
        <time>2021-03-10T17:24:09.101Z</time>
      </trkpt>
      <trkpt lat="45.749041" lon="10.372629">
        <ele>536.675949</ele>
        <time>2021-03-10T17:24:11.691Z</time>
      </trkpt>
      <trkpt lat="45.748964" lon="10.372687">
        <ele>535.910102</ele>
        <time>2021-03-10T17:24:12.442Z</time>
      </trkpt>
      <trkpt lat="45.748947" lon="10.372727">
        <ele>535.622373</ele>
        <time>2021-03-10T17:24:12.726Z</time>
      </trkpt>
      <trkpt lat="45.748958" lon="10.372814">
        <ele>535.079190</ele>
        <time>2021-03-10T17:24:13.264Z</time>
      </trkpt>
      <trkpt lat="45.749057" lon="10.372882">
        <ele>534.112651</ele>
        <time>2021-03-10T17:24:14.213Z</time>
      </trkpt>
      <trkpt lat="45.749491" lon="10.372928">
        <ele>530.281283</ele>
        <time>2021-03-10T17:24:17.986Z</time>
      </trkpt>
      <trkpt lat="45.749528" lon="10.372910">
        <ele>529.937278</ele>
        <time>2021-03-10T17:24:18.323Z</time>
      </trkpt>
      <trkpt lat="45.749727" lon="10.372607">
        <ele>527.381019</ele>
        <time>2021-03-10T17:24:20.867Z</time>
      </trkpt>
      <trkpt lat="45.749885" lon="10.372496">
        <ele>525.831835</ele>
        <time>2021-03-10T17:24:22.406Z</time>
      </trkpt>
      <trkpt lat="45.750056" lon="10.372448">
        <ele>524.297745</ele>
        <time>2021-03-10T17:24:23.945Z</time>
      </trkpt>
      <trkpt lat="45.750280" lon="10.372528">
        <ele>522.785592</ele>
        <time>2021-03-10T17:24:25.967Z</time>
      </trkpt>
      <trkpt lat="45.750502" lon="10.372461">
        <ele>521.914775</ele>
        <time>2021-03-10T17:24:28.023Z</time>
      </trkpt>
      <trkpt lat="45.750976" lon="10.372540">
        <ele>520.083107</ele>
        <time>2021-03-10T17:24:32.391Z</time>
      </trkpt>
      <trkpt lat="45.751095" lon="10.372497">
        <ele>519.612041</ele>
        <time>2021-03-10T17:24:33.579Z</time>
      </trkpt>
      <trkpt lat="45.751165" lon="10.372463">
        <ele>519.328340</ele>
        <time>2021-03-10T17:24:34.377Z</time>
      </trkpt>
      <trkpt lat="45.751241" lon="10.372471">
        <ele>519.035835</ele>
        <time>2021-03-10T17:24:35.166Z</time>
      </trkpt>
      <trkpt lat="45.751367" lon="10.372575">
        <ele>518.477717</ele>
        <time>2021-03-10T17:24:36.545Z</time>
      </trkpt>
      <trkpt lat="45.751682" lon="10.372958">
        <ele>516.892098</ele>
        <time>2021-03-10T17:24:41.529Z</time>
      </trkpt>
      <trkpt lat="45.751793" lon="10.373031">
        <ele>516.423316</ele>
        <time>2021-03-10T17:24:44.612Z</time>
      </trkpt>
      <trkpt lat="45.751917" lon="10.373014">
        <ele>516.616322</ele>
        <time>2021-03-10T17:24:46.180Z</time>
      </trkpt>
      <trkpt lat="45.752320" lon="10.372851">
        <ele>518.194441</ele>
        <time>2021-03-10T17:24:55.325Z</time>
      </trkpt>
      <trkpt lat="45.752492" lon="10.372846">
        <ele>518.842794</ele>
        <time>2021-03-10T17:25:01.365Z</time>
      </trkpt>
      <trkpt lat="45.752542" lon="10.372897">
        <ele>519.074082</ele>
        <time>2021-03-10T17:25:03.165Z</time>
      </trkpt>
      <trkpt lat="45.752556" lon="10.372958">
        <ele>519.242945</ele>
        <time>2021-03-10T17:25:04.184Z</time>
      </trkpt>
      <trkpt lat="45.752555" lon="10.373042">
        <ele>519.463868</ele>
        <time>2021-03-10T17:25:05.464Z</time>
      </trkpt>
      <trkpt lat="45.752516" lon="10.373134">
        <ele>519.746945</ele>
        <time>2021-03-10T17:25:07.382Z</time>
      </trkpt>
      <trkpt lat="45.752560" lon="10.373143">
        <ele>519.914448</ele>
        <time>2021-03-10T17:25:09.325Z</time>
      </trkpt>
      <trkpt lat="45.752628" lon="10.373143">
        <ele>520.170721</ele>
        <time>2021-03-10T17:25:12.233Z</time>
      </trkpt>
      <trkpt lat="45.752655" lon="10.373143">
        <ele>520.272476</ele>
        <time>2021-03-10T17:25:13.186Z</time>
      </trkpt>
      <trkpt lat="45.752858" lon="10.373110">
        <ele>521.042432</ele>
        <time>2021-03-10T17:25:19.681Z</time>
      </trkpt>
      <trkpt lat="45.752973" lon="10.373033">
        <ele>521.520800</ele>
        <time>2021-03-10T17:25:25.521Z</time>
      </trkpt>
      <trkpt lat="45.753147" lon="10.372915">
        <ele>522.246266</ele>
        <time>2021-03-10T17:25:32.680Z</time>
      </trkpt>
      <trkpt lat="45.753867" lon="10.373062">
        <ele>525.686471</ele>
        <time>2021-03-10T17:26:00.971Z</time>
      </trkpt>
      <trkpt lat="45.755172" lon="10.373488">
        <ele>532.667508</ele>
        <time>2021-03-10T17:26:44.526Z</time>
      </trkpt>
      <trkpt lat="45.755983" lon="10.373490">
        <ele>538.507591</ele>
        <time>2021-03-10T17:27:17.768Z</time>
      </trkpt>
      <trkpt lat="45.756027" lon="10.373529">
        <ele>538.880134</ele>
        <time>2021-03-10T17:27:20.272Z</time>
      </trkpt>
      <trkpt lat="45.756119" lon="10.373609">
        <ele>539.655030</ele>
        <time>2021-03-10T17:27:25.614Z</time>
      </trkpt>
      <trkpt lat="45.756175" lon="10.373658">
        <ele>540.127500</ele>
        <time>2021-03-10T17:27:28.845Z</time>
      </trkpt>
      <trkpt lat="45.756656" lon="10.373719">
        <ele>543.604752</ele>
        <time>2021-03-10T17:27:51.518Z</time>
      </trkpt>
      <trkpt lat="45.756976" lon="10.373760">
        <ele>546.099056</ele>
        <time>2021-03-10T17:28:07.273Z</time>
      </trkpt>
      <trkpt lat="45.757201" lon="10.374106">
        <ele>549.124130</ele>
        <time>2021-03-10T17:28:23.691Z</time>
      </trkpt>
      <trkpt lat="45.757499" lon="10.374367">
        <ele>552.325498</ele>
        <time>2021-03-10T17:28:41.502Z</time>
      </trkpt>
      <trkpt lat="45.758827" lon="10.374582">
        <ele>563.996249</ele>
        <time>2021-03-10T17:29:52.768Z</time>
      </trkpt>
      <trkpt lat="45.759234" lon="10.374695">
        <ele>567.018048</ele>
        <time>2021-03-10T17:30:13.373Z</time>
      </trkpt>
      <trkpt lat="45.759570" lon="10.374925">
        <ele>569.732140</ele>
        <time>2021-03-10T17:30:29.959Z</time>
      </trkpt>
      <trkpt lat="45.760149" lon="10.375006">
        <ele>573.972571</ele>
        <time>2021-03-10T17:30:52.859Z</time>
      </trkpt>
      <trkpt lat="45.760205" lon="10.375021">
        <ele>574.387826</ele>
        <time>2021-03-10T17:30:54.648Z</time>
      </trkpt>
      <trkpt lat="45.760254" lon="10.375096">
        <ele>574.872343</ele>
        <time>2021-03-10T17:30:57.357Z</time>
      </trkpt>
      <trkpt lat="45.760239" lon="10.375219">
        <ele>575.075997</ele>
        <time>2021-03-10T17:31:00.693Z</time>
      </trkpt>
      <trkpt lat="45.760158" lon="10.375264">
        <ele>575.279085</ele>
        <time>2021-03-10T17:31:03.481Z</time>
      </trkpt>
      <trkpt lat="45.759860" lon="10.375223">
        <ele>575.978951</ele>
        <time>2021-03-10T17:31:12.376Z</time>
      </trkpt>
      <trkpt lat="45.758231" lon="10.375291">
        <ele>579.984664</ele>
        <time>2021-03-10T17:31:44.747Z</time>
      </trkpt>
      <trkpt lat="45.757884" lon="10.375479">
        <ele>581.084672</ele>
        <time>2021-03-10T17:31:52.443Z</time>
      </trkpt>
      <trkpt lat="45.757597" lon="10.375347">
        <ele>581.978449</ele>
        <time>2021-03-10T17:31:59.364Z</time>
      </trkpt>
      <trkpt lat="45.757337" lon="10.375306">
        <ele>582.754074</ele>
        <time>2021-03-10T17:32:06.284Z</time>
      </trkpt>
      <trkpt lat="45.757073" lon="10.375464">
        <ele>583.602413</ele>
        <time>2021-03-10T17:32:15.198Z</time>
      </trkpt>
      <trkpt lat="45.756945" lon="10.375490">
        <ele>583.985762</ele>
        <time>2021-03-10T17:32:19.571Z</time>
      </trkpt>
      <trkpt lat="45.756824" lon="10.375423">
        <ele>584.370405</ele>
        <time>2021-03-10T17:32:24.301Z</time>
      </trkpt>
      <trkpt lat="45.756681" lon="10.375170">
        <ele>586.113508</ele>
        <time>2021-03-10T17:32:33.375Z</time>
      </trkpt>
      <trkpt lat="45.756447" lon="10.374898">
        <ele>588.473883</ele>
        <time>2021-03-10T17:32:46.168Z</time>
      </trkpt>
      <trkpt lat="45.756375" lon="10.374849">
        <ele>589.098322</ele>
        <time>2021-03-10T17:32:49.618Z</time>
      </trkpt>
      <trkpt lat="45.756096" lon="10.374917">
        <ele>591.315505</ele>
        <time>2021-03-10T17:33:02.090Z</time>
      </trkpt>
      <trkpt lat="45.755670" lon="10.375321">
        <ele>595.317439</ele>
        <time>2021-03-10T17:33:25.158Z</time>
      </trkpt>
      <trkpt lat="45.754535" lon="10.375853">
        <ele>607.326825</ele>
        <time>2021-03-10T17:34:35.237Z</time>
      </trkpt>
      <trkpt lat="45.754199" lon="10.376098">
        <ele>611.546772</ele>
        <time>2021-03-10T17:35:01.602Z</time>
      </trkpt>
      <trkpt lat="45.753694" lon="10.376565">
        <ele>618.274306</ele>
        <time>2021-03-10T17:35:38.014Z</time>
      </trkpt>
      <trkpt lat="45.753430" lon="10.376682">
        <ele>620.136396</ele>
        <time>2021-03-10T17:35:52.587Z</time>
      </trkpt>
      <trkpt lat="45.753166" lon="10.376663">
        <ele>621.770433</ele>
        <time>2021-03-10T17:36:05.344Z</time>
      </trkpt>
      <trkpt lat="45.753041" lon="10.376750">
        <ele>622.629451</ele>
        <time>2021-03-10T17:36:11.195Z</time>
      </trkpt>
      <trkpt lat="45.753041" lon="10.376878">
        <ele>623.181557</ele>
        <time>2021-03-10T17:36:15.373Z</time>
      </trkpt>
      <trkpt lat="45.753098" lon="10.376950">
        <ele>623.651242</ele>
        <time>2021-03-10T17:36:18.492Z</time>
      </trkpt>
      <trkpt lat="45.753230" lon="10.376980">
        <ele>624.477429</ele>
        <time>2021-03-10T17:36:23.252Z</time>
      </trkpt>
      <trkpt lat="45.753731" lon="10.376871">
        <ele>627.609965</ele>
        <time>2021-03-10T17:36:39.589Z</time>
      </trkpt>
      <trkpt lat="45.754780" lon="10.376301">
        <ele>633.512369</ele>
        <time>2021-03-10T17:37:09.799Z</time>
      </trkpt>
      <trkpt lat="45.754885" lon="10.376290">
        <ele>634.023412</ele>
        <time>2021-03-10T17:37:13.045Z</time>
      </trkpt>
      <trkpt lat="45.754938" lon="10.376373">
        <ele>634.404477</ele>
        <time>2021-03-10T17:37:15.548Z</time>
      </trkpt>
      <trkpt lat="45.754953" lon="10.376452">
        <ele>634.681769</ele>
        <time>2021-03-10T17:37:17.410Z</time>
      </trkpt>
      <trkpt lat="45.754448" lon="10.376697">
        <ele>637.269737</ele>
        <time>2021-03-10T17:37:37.786Z</time>
      </trkpt>
      <trkpt lat="45.754169" lon="10.376920">
        <ele>639.039109</ele>
        <time>2021-03-10T17:37:51.646Z</time>
      </trkpt>
      <trkpt lat="45.753931" lon="10.377157">
        <ele>641.317749</ele>
        <time>2021-03-10T17:38:05.015Z</time>
      </trkpt>
      <trkpt lat="45.753535" lon="10.377433">
        <ele>644.779970</ele>
        <time>2021-03-10T17:38:26.870Z</time>
      </trkpt>
      <trkpt lat="45.752752" lon="10.377575">
        <ele>650.985442</ele>
        <time>2021-03-10T17:39:04.488Z</time>
      </trkpt>
      <trkpt lat="45.752358" lon="10.377633">
        <ele>654.062149</ele>
        <time>2021-03-10T17:39:22.281Z</time>
      </trkpt>
      <trkpt lat="45.751853" lon="10.377576">
        <ele>657.944967</ele>
        <time>2021-03-10T17:39:44.256Z</time>
      </trkpt>
      <trkpt lat="45.751770" lon="10.377614">
        <ele>658.612838</ele>
        <time>2021-03-10T17:39:48.019Z</time>
      </trkpt>
      <trkpt lat="45.751763" lon="10.377753">
        <ele>659.358200</ele>
        <time>2021-03-10T17:39:52.369Z</time>
      </trkpt>
      <trkpt lat="45.751876" lon="10.377836">
        <ele>660.331479</ele>
        <time>2021-03-10T17:39:57.927Z</time>
      </trkpt>
      <trkpt lat="45.752174" lon="10.377874">
        <ele>662.624677</ele>
        <time>2021-03-10T17:40:11.560Z</time>
      </trkpt>
      <trkpt lat="45.752711" lon="10.378122">
        <ele>666.961491</ele>
        <time>2021-03-10T17:40:37.415Z</time>
      </trkpt>
      <trkpt lat="45.752845" lon="10.378183">
        <ele>668.063076</ele>
        <time>2021-03-10T17:40:44.359Z</time>
      </trkpt>
      <trkpt lat="45.753580" lon="10.378195">
        <ele>673.822203</ele>
        <time>2021-03-10T17:41:21.826Z</time>
      </trkpt>
      <trkpt lat="45.754237" lon="10.378059">
        <ele>679.023238</ele>
        <time>2021-03-10T17:41:51.365Z</time>
      </trkpt>
      <trkpt lat="45.754331" lon="10.378112">
        <ele>679.814674</ele>
        <time>2021-03-10T17:41:55.229Z</time>
      </trkpt>
      <trkpt lat="45.754347" lon="10.378213">
        <ele>680.380872</ele>
        <time>2021-03-10T17:41:58.554Z</time>
      </trkpt>
      <trkpt lat="45.754354" lon="10.378251">
        <ele>680.584982</ele>
        <time>2021-03-10T17:41:59.789Z</time>
      </trkpt>
      <trkpt lat="45.754278" lon="10.378327">
        <ele>681.238285</ele>
        <time>2021-03-10T17:42:03.140Z</time>
      </trkpt>
      <trkpt lat="45.753486" lon="10.378519">
        <ele>686.900943</ele>
        <time>2021-03-10T17:42:34.794Z</time>
      </trkpt>
      <trkpt lat="45.752672" lon="10.378926">
        <ele>692.978585</ele>
        <time>2021-03-10T17:43:15.301Z</time>
      </trkpt>
      <trkpt lat="45.751925" lon="10.379534">
        <ele>697.022845</ele>
        <time>2021-03-10T17:43:52.212Z</time>
      </trkpt>
      <trkpt lat="45.751525" lon="10.379752">
        <ele>699.005092</ele>
        <time>2021-03-10T17:44:04.868Z</time>
      </trkpt>
      <trkpt lat="45.750990" lon="10.379869">
        <ele>701.507899</ele>
        <time>2021-03-10T17:44:17.304Z</time>
      </trkpt>
      <trkpt lat="45.750486" lon="10.379922">
        <ele>703.082744</ele>
        <time>2021-03-10T17:44:25.199Z</time>
      </trkpt>
      <trkpt lat="45.750155" lon="10.380097">
        <ele>704.182200</ele>
        <time>2021-03-10T17:44:33.238Z</time>
      </trkpt>
      <trkpt lat="45.749581" lon="10.380560">
        <ele>706.234844</ele>
        <time>2021-03-10T17:44:53.211Z</time>
      </trkpt>
      <trkpt lat="45.749535" lon="10.380693">
        <ele>706.557636</ele>
        <time>2021-03-10T17:44:56.665Z</time>
      </trkpt>
      <trkpt lat="45.749607" lon="10.380852">
        <ele>706.969812</ele>
        <time>2021-03-10T17:45:00.934Z</time>
      </trkpt>
      <trkpt lat="45.750028" lon="10.380717">
        <ele>709.543181</ele>
        <time>2021-03-10T17:45:18.019Z</time>
      </trkpt>
      <trkpt lat="45.750257" lon="10.380667">
        <ele>710.998595</ele>
        <time>2021-03-10T17:45:28.492Z</time>
      </trkpt>
      <trkpt lat="45.750518" lon="10.380671">
        <ele>712.638556</ele>
        <time>2021-03-10T17:45:40.634Z</time>
      </trkpt>
      <trkpt lat="45.750734" lon="10.380598">
        <ele>714.032914</ele>
        <time>2021-03-10T17:45:50.712Z</time>
      </trkpt>
      <trkpt lat="45.750887" lon="10.380589">
        <ele>714.995025</ele>
        <time>2021-03-10T17:45:57.970Z</time>
      </trkpt>
      <trkpt lat="45.750960" lon="10.380621">
        <ele>715.474661</ele>
        <time>2021-03-10T17:46:01.552Z</time>
      </trkpt>
      <trkpt lat="45.750970" lon="10.380744">
        <ele>716.017560</ele>
        <time>2021-03-10T17:46:05.210Z</time>
      </trkpt>
      <trkpt lat="45.750890" lon="10.380817">
        <ele>716.613442</ele>
        <time>2021-03-10T17:46:09.704Z</time>
      </trkpt>
      <trkpt lat="45.750651" lon="10.380904">
        <ele>718.162767</ele>
        <time>2021-03-10T17:46:18.930Z</time>
      </trkpt>
      <trkpt lat="45.750381" lon="10.381072">
        <ele>719.394929</ele>
        <time>2021-03-10T17:46:26.376Z</time>
      </trkpt>
      <trkpt lat="45.750197" lon="10.381346">
        <ele>720.421542</ele>
        <time>2021-03-10T17:46:33.742Z</time>
      </trkpt>
      <trkpt lat="45.750060" lon="10.381629">
        <ele>721.351406</ele>
        <time>2021-03-10T17:46:39.263Z</time>
      </trkpt>
      <trkpt lat="45.749866" lon="10.382171">
        <ele>722.995904</ele>
        <time>2021-03-10T17:46:50.470Z</time>
      </trkpt>
      <trkpt lat="45.749652" lon="10.382618">
        <ele>724.459379</ele>
        <time>2021-03-10T17:47:01.713Z</time>
      </trkpt>
      <trkpt lat="45.749624" lon="10.382773">
        <ele>724.891627</ele>
        <time>2021-03-10T17:47:05.071Z</time>
      </trkpt>
      <trkpt lat="45.749665" lon="10.382901">
        <ele>725.271855</ele>
        <time>2021-03-10T17:47:08.247Z</time>
      </trkpt>
      <trkpt lat="45.749757" lon="10.382946">
        <ele>725.877260</ele>
        <time>2021-03-10T17:47:12.067Z</time>
      </trkpt>
      <trkpt lat="45.749846" lon="10.382910">
        <ele>726.524457</ele>
        <time>2021-03-10T17:47:15.618Z</time>
      </trkpt>
      <trkpt lat="45.750165" lon="10.382071">
        <ele>731.190426</ele>
        <time>2021-03-10T17:47:41.587Z</time>
      </trkpt>
      <trkpt lat="45.750247" lon="10.381989">
        <ele>731.890200</ele>
        <time>2021-03-10T17:47:45.463Z</time>
      </trkpt>
      <trkpt lat="45.750343" lon="10.382030">
        <ele>732.591251</ele>
        <time>2021-03-10T17:47:49.218Z</time>
      </trkpt>
      <trkpt lat="45.750495" lon="10.382231">
        <ele>734.038686</ele>
        <time>2021-03-10T17:47:58.507Z</time>
      </trkpt>
      <trkpt lat="45.750508" lon="10.382431">
        <ele>735.019596</ele>
        <time>2021-03-10T17:48:04.889Z</time>
      </trkpt>
      <trkpt lat="45.750251" lon="10.383278">
        <ele>740.302261</ele>
        <time>2021-03-10T17:48:39.352Z</time>
      </trkpt>
      <trkpt lat="45.750109" lon="10.383721">
        <ele>743.848243</ele>
        <time>2021-03-10T17:48:58.099Z</time>
      </trkpt>
      <trkpt lat="45.749964" lon="10.384221">
        <ele>747.786698</ele>
        <time>2021-03-10T17:49:20.541Z</time>
      </trkpt>
      <trkpt lat="45.749904" lon="10.384598">
        <ele>750.599327</ele>
        <time>2021-03-10T17:49:36.550Z</time>
      </trkpt>
      <trkpt lat="45.749797" lon="10.385453">
        <ele>756.982957</ele>
        <time>2021-03-10T17:50:09.262Z</time>
      </trkpt>
      <trkpt lat="45.749639" lon="10.386145">
        <ele>763.877691</ele>
        <time>2021-03-10T17:50:40.165Z</time>
      </trkpt>
      <trkpt lat="45.749543" lon="10.386400">
        <ele>766.621424</ele>
        <time>2021-03-10T17:50:55.562Z</time>
      </trkpt>
      <trkpt lat="45.749497" lon="10.386512">
        <ele>767.852081</ele>
        <time>2021-03-10T17:51:02.537Z</time>
      </trkpt>
      <trkpt lat="45.749450" lon="10.386557">
        <ele>768.619149</ele>
        <time>2021-03-10T17:51:06.342Z</time>
      </trkpt>
      <trkpt lat="45.749071" lon="10.386490">
        <ele>773.801374</ele>
        <time>2021-03-10T17:51:36.546Z</time>
      </trkpt>
      <trkpt lat="45.748884" lon="10.386705">
        <ele>777.054837</ele>
        <time>2021-03-10T17:51:55.272Z</time>
      </trkpt>
      <trkpt lat="45.748914" lon="10.386962">
        <ele>779.522339</ele>
        <time>2021-03-10T17:52:07.957Z</time>
      </trkpt>
      <trkpt lat="45.748665" lon="10.387807">
        <ele>787.254991</ele>
        <time>2021-03-10T17:52:51.344Z</time>
      </trkpt>
      <trkpt lat="45.748178" lon="10.388419">
        <ele>794.864439</ele>
        <time>2021-03-10T17:53:32.442Z</time>
      </trkpt>
      <trkpt lat="45.747776" lon="10.388861">
        <ele>800.817016</ele>
        <time>2021-03-10T17:54:03.070Z</time>
      </trkpt>
      <trkpt lat="45.747467" lon="10.389481">
        <ele>804.877503</ele>
        <time>2021-03-10T17:54:28.753Z</time>
      </trkpt>
      <trkpt lat="45.746758" lon="10.390063">
        <ele>810.126735</ele>
        <time>2021-03-10T17:54:57.197Z</time>
      </trkpt>
      <trkpt lat="45.746404" lon="10.390414">
        <ele>812.892275</ele>
        <time>2021-03-10T17:55:11.004Z</time>
      </trkpt>
      <trkpt lat="45.746299" lon="10.391294">
        <ele>819.903447</ele>
        <time>2021-03-10T17:55:36.220Z</time>
      </trkpt>
      <trkpt lat="45.746119" lon="10.391755">
        <ele>824.570664</ele>
        <time>2021-03-10T17:55:56.982Z</time>
      </trkpt>
      <trkpt lat="45.746090" lon="10.392292">
        <ele>829.329334</ele>
        <time>2021-03-10T17:56:22.507Z</time>
      </trkpt>
      <trkpt lat="45.746369" lon="10.393303">
        <ele>841.084043</ele>
        <time>2021-03-10T17:57:29.180Z</time>
      </trkpt>
      <trkpt lat="45.746406" lon="10.393893">
        <ele>851.069482</ele>
        <time>2021-03-10T17:58:13.039Z</time>
      </trkpt>
      <trkpt lat="45.746294" lon="10.395180">
        <ele>872.931907</ele>
        <time>2021-03-10T17:59:49.649Z</time>
      </trkpt>
      <trkpt lat="45.745972" lon="10.396242">
        <ele>889.560024</ele>
        <time>2021-03-10T18:01:15.698Z</time>
      </trkpt>
      <trkpt lat="45.745979" lon="10.396532">
        <ele>893.314533</ele>
        <time>2021-03-10T18:01:36.778Z</time>
      </trkpt>
      <trkpt lat="45.745867" lon="10.396800">
        <ele>897.356401</ele>
        <time>2021-03-10T18:01:58.371Z</time>
      </trkpt>
      <trkpt lat="45.745485" lon="10.396961">
        <ele>904.739156</ele>
        <time>2021-03-10T18:02:32.780Z</time>
      </trkpt>
      <trkpt lat="45.745216" lon="10.397165">
        <ele>910.382150</ele>
        <time>2021-03-10T18:02:54.232Z</time>
      </trkpt>
      <trkpt lat="45.744937" lon="10.397324">
        <ele>912.910781</ele>
        <time>2021-03-10T18:03:09.895Z</time>
      </trkpt>
      <trkpt lat="45.744699" lon="10.397262">
        <ele>912.125292</ele>
        <time>2021-03-10T18:03:18.862Z</time>
      </trkpt>
      <trkpt lat="45.744360" lon="10.397087">
        <ele>910.955255</ele>
        <time>2021-03-10T18:03:24.796Z</time>
      </trkpt>
      <trkpt lat="45.744070" lon="10.397101">
        <ele>910.013047</ele>
        <time>2021-03-10T18:03:27.401Z</time>
      </trkpt>
      <trkpt lat="45.743786" lon="10.396961">
        <ele>909.037811</ele>
        <time>2021-03-10T18:03:29.957Z</time>
      </trkpt>
      <trkpt lat="45.743202" lon="10.397090">
        <ele>907.019608</ele>
        <time>2021-03-10T18:03:34.956Z</time>
      </trkpt>
      <trkpt lat="45.743007" lon="10.397251">
        <ele>906.108928</ele>
        <time>2021-03-10T18:03:36.883Z</time>
      </trkpt>
      <trkpt lat="45.742880" lon="10.397423">
        <ele>905.401806</ele>
        <time>2021-03-10T18:03:38.406Z</time>
      </trkpt>
      <trkpt lat="45.742703" lon="10.397517">
        <ele>904.637967</ele>
        <time>2021-03-10T18:03:40.116Z</time>
      </trkpt>
      <trkpt lat="45.742697" lon="10.397779">
        <ele>903.897688</ele>
        <time>2021-03-10T18:03:41.837Z</time>
      </trkpt>
      <trkpt lat="45.742803" lon="10.398053">
        <ele>903.012988</ele>
        <time>2021-03-10T18:03:44.147Z</time>
      </trkpt>
      <trkpt lat="45.743186" lon="10.398583">
        <ele>900.858457</ele>
        <time>2021-03-10T18:03:52.215Z</time>
      </trkpt>
      <trkpt lat="45.743276" lon="10.399007">
        <ele>900.989283</ele>
        <time>2021-03-10T18:03:59.665Z</time>
      </trkpt>
      <trkpt lat="45.743290" lon="10.399235">
        <ele>901.743358</ele>
        <time>2021-03-10T18:04:04.845Z</time>
      </trkpt>
      <trkpt lat="45.743474" lon="10.399716">
        <ele>903.550525</ele>
        <time>2021-03-10T18:04:20.494Z</time>
      </trkpt>
      <trkpt lat="45.743454" lon="10.400295">
        <ele>905.460437</ele>
        <time>2021-03-10T18:04:39.327Z</time>
      </trkpt>
      <trkpt lat="45.743307" lon="10.400620">
        <ele>906.736409</ele>
        <time>2021-03-10T18:04:50.294Z</time>
      </trkpt>
      <trkpt lat="45.743080" lon="10.401010">
        <ele>908.409553</ele>
        <time>2021-03-10T18:05:02.358Z</time>
      </trkpt>
      <trkpt lat="45.743070" lon="10.401235">
        <ele>908.890426</ele>
        <time>2021-03-10T18:05:06.227Z</time>
      </trkpt>
      <trkpt lat="45.743209" lon="10.401575">
        <ele>909.371528</ele>
        <time>2021-03-10T18:05:11.892Z</time>
      </trkpt>
      <trkpt lat="45.743359" lon="10.401832">
        <ele>909.780581</ele>
        <time>2021-03-10T18:05:14.835Z</time>
      </trkpt>
      <trkpt lat="45.743554" lon="10.402431">
        <ele>910.587573</ele>
        <time>2021-03-10T18:05:20.303Z</time>
      </trkpt>
      <trkpt lat="45.743703" lon="10.403034">
        <ele>911.368576</ele>
        <time>2021-03-10T18:05:28.589Z</time>
      </trkpt>
      <trkpt lat="45.744003" lon="10.403452">
        <ele>912.966003</ele>
        <time>2021-03-10T18:05:41.470Z</time>
      </trkpt>
      <trkpt lat="45.744145" lon="10.403721">
        <ele>915.014708</ele>
        <time>2021-03-10T18:05:50.574Z</time>
      </trkpt>
      <trkpt lat="45.744188" lon="10.404050">
        <ele>917.047805</ele>
        <time>2021-03-10T18:06:00.548Z</time>
      </trkpt>
      <trkpt lat="45.744517" lon="10.404426">
        <ele>920.710541</ele>
        <time>2021-03-10T18:06:22.265Z</time>
      </trkpt>
      <trkpt lat="45.744512" lon="10.404826">
        <ele>923.140522</ele>
        <time>2021-03-10T18:06:38.509Z</time>
      </trkpt>
      <trkpt lat="45.744579" lon="10.405212">
        <ele>925.556511</ele>
        <time>2021-03-10T18:06:55.518Z</time>
      </trkpt>
      <trkpt lat="45.744609" lon="10.405630">
        <ele>928.298027</ele>
        <time>2021-03-10T18:07:13.858Z</time>
      </trkpt>
      <trkpt lat="45.744649" lon="10.405830">
        <ele>929.980480</ele>
        <time>2021-03-10T18:07:22.919Z</time>
      </trkpt>
      <trkpt lat="45.744677" lon="10.405866">
        <ele>930.416401</ele>
        <time>2021-03-10T18:07:25.385Z</time>
      </trkpt>
      <trkpt lat="45.744719" lon="10.405820">
        <ele>931.028974</ele>
        <time>2021-03-10T18:07:28.898Z</time>
      </trkpt>
      <trkpt lat="45.744767" lon="10.404847">
        <ele>938.916971</ele>
        <time>2021-03-10T18:08:11.447Z</time>
      </trkpt>
      <trkpt lat="45.744856" lon="10.404675">
        <ele>940.648520</ele>
        <time>2021-03-10T18:08:20.435Z</time>
      </trkpt>
      <trkpt lat="45.744944" lon="10.404394">
        <ele>943.139197</ele>
        <time>2021-03-10T18:08:33.597Z</time>
      </trkpt>
      <trkpt lat="45.744871" lon="10.404128">
        <ele>945.450608</ele>
        <time>2021-03-10T18:08:45.280Z</time>
      </trkpt>
      <trkpt lat="45.744644" lon="10.403847">
        <ele>948.936864</ele>
        <time>2021-03-10T18:09:03.285Z</time>
      </trkpt>
      <trkpt lat="45.744624" lon="10.403624">
        <ele>950.788992</ele>
        <time>2021-03-10T18:09:12.572Z</time>
      </trkpt>
      <trkpt lat="45.745059" lon="10.404042">
        <ele>956.971544</ele>
        <time>2021-03-10T18:09:42.996Z</time>
      </trkpt>
      <trkpt lat="45.745178" lon="10.404364">
        <ele>959.973073</ele>
        <time>2021-03-10T18:09:58.425Z</time>
      </trkpt>
      <trkpt lat="45.745126" lon="10.404933">
        <ele>964.700336</ele>
        <time>2021-03-10T18:10:23.880Z</time>
      </trkpt>
      <trkpt lat="45.745178" lon="10.405544">
        <ele>969.836991</ele>
        <time>2021-03-10T18:10:52.022Z</time>
      </trkpt>
      <trkpt lat="45.745283" lon="10.405952">
        <ele>974.912696</ele>
        <time>2021-03-10T18:11:12.480Z</time>
      </trkpt>
      <trkpt lat="45.745328" lon="10.406682">
        <ele>983.466465</ele>
        <time>2021-03-10T18:11:48.768Z</time>
      </trkpt>
      <trkpt lat="45.745216" lon="10.407347">
        <ele>991.451229</ele>
        <time>2021-03-10T18:12:28.106Z</time>
      </trkpt>
      <trkpt lat="45.744976" lon="10.408205">
        <ele>1003.120114</ele>
        <time>2021-03-10T18:13:31.845Z</time>
      </trkpt>
      <trkpt lat="45.744982" lon="10.408760">
        <ele>1011.838690</ele>
        <time>2021-03-10T18:14:12.936Z</time>
      </trkpt>
      <trkpt lat="45.744879" lon="10.409922">
        <ele>1030.237190</ele>
        <time>2021-03-10T18:15:39.729Z</time>
      </trkpt>
      <trkpt lat="45.744654" lon="10.410651">
        <ele>1041.651740</ele>
        <time>2021-03-10T18:16:38.154Z</time>
      </trkpt>
      <trkpt lat="45.744460" lon="10.411188">
        <ele>1047.075141</ele>
        <time>2021-03-10T18:17:15.590Z</time>
      </trkpt>
      <trkpt lat="45.744374" lon="10.411272">
        <ele>1048.412762</ele>
        <time>2021-03-10T18:17:23.270Z</time>
      </trkpt>
      <trkpt lat="45.744351" lon="10.411371">
        <ele>1049.348597</ele>
        <time>2021-03-10T18:17:28.645Z</time>
      </trkpt>
      <trkpt lat="45.744417" lon="10.411406">
        <ele>1050.253055</ele>
        <time>2021-03-10T18:17:33.479Z</time>
      </trkpt>
      <trkpt lat="45.744495" lon="10.411390">
        <ele>1051.265733</ele>
        <time>2021-03-10T18:17:38.801Z</time>
      </trkpt>
      <trkpt lat="45.744704" lon="10.411227">
        <ele>1054.323877</ele>
        <time>2021-03-10T18:17:53.665Z</time>
      </trkpt>
      <trkpt lat="45.744733" lon="10.411288">
        <ele>1054.985868</ele>
        <time>2021-03-10T18:17:56.561Z</time>
      </trkpt>
      <trkpt lat="45.744516" lon="10.411543">
        <ele>1058.592611</ele>
        <time>2021-03-10T18:18:11.205Z</time>
      </trkpt>
      <trkpt lat="45.744405" lon="10.411946">
        <ele>1062.478425</ele>
        <time>2021-03-10T18:18:23.708Z</time>
      </trkpt>
      <trkpt lat="45.744457" lon="10.412075">
        <ele>1063.324629</ele>
        <time>2021-03-10T18:18:27.586Z</time>
      </trkpt>
      <trkpt lat="45.744568" lon="10.412042">
        <ele>1063.405369</ele>
        <time>2021-03-10T18:18:31.275Z</time>
      </trkpt>
      <trkpt lat="45.744691" lon="10.411770">
        <ele>1063.566461</ele>
        <time>2021-03-10T18:18:37.770Z</time>
      </trkpt>
      <trkpt lat="45.744782" lon="10.411693">
        <ele>1063.641729</ele>
        <time>2021-03-10T18:18:39.702Z</time>
      </trkpt>
      <trkpt lat="45.744827" lon="10.411744">
        <ele>1063.682591</ele>
        <time>2021-03-10T18:18:40.639Z</time>
      </trkpt>
      <trkpt lat="45.744807" lon="10.411886">
        <ele>1063.754592</ele>
        <time>2021-03-10T18:18:42.147Z</time>
      </trkpt>
      <trkpt lat="45.744853" lon="10.411919">
        <ele>1063.791230</ele>
        <time>2021-03-10T18:18:43.118Z</time>
      </trkpt>
      <trkpt lat="45.744923" lon="10.411619">
        <ele>1063.948451</ele>
        <time>2021-03-10T18:18:45.551Z</time>
      </trkpt>
      <trkpt lat="45.745060" lon="10.411480">
        <ele>1064.068007</ele>
        <time>2021-03-10T18:18:47.397Z</time>
      </trkpt>
      <trkpt lat="45.745348" lon="10.411040">
        <ele>1064.367838</ele>
        <time>2021-03-10T18:18:51.473Z</time>
      </trkpt>
      <trkpt lat="45.745376" lon="10.411068">
        <ele>1064.392156</ele>
        <time>2021-03-10T18:18:51.795Z</time>
      </trkpt>
      <trkpt lat="45.745357" lon="10.411141">
        <ele>1064.430880</ele>
        <time>2021-03-10T18:18:52.310Z</time>
      </trkpt>
      <trkpt lat="45.745225" lon="10.411398">
        <ele>1064.694501</ele>
        <time>2021-03-10T18:18:54.592Z</time>
      </trkpt>
      <trkpt lat="45.745215" lon="10.411504">
        <ele>1065.191812</ele>
        <time>2021-03-10T18:18:56.296Z</time>
      </trkpt>
      <trkpt lat="45.745301" lon="10.411524">
        <ele>1065.772270</ele>
        <time>2021-03-10T18:18:59.224Z</time>
      </trkpt>
      <trkpt lat="45.745467" lon="10.411446">
        <ele>1066.936158</ele>
        <time>2021-03-10T18:19:06.934Z</time>
      </trkpt>
      <trkpt lat="45.745669" lon="10.411481">
        <ele>1068.291754</ele>
        <time>2021-03-10T18:19:16.133Z</time>
      </trkpt>
      <trkpt lat="45.745882" lon="10.411724">
        <ele>1070.105638</ele>
        <time>2021-03-10T18:19:27.521Z</time>
      </trkpt>
      <trkpt lat="45.746133" lon="10.411782">
        <ele>1071.799488</ele>
        <time>2021-03-10T18:19:37.701Z</time>
      </trkpt>
      <trkpt lat="45.746350" lon="10.411922">
        <ele>1073.384983</ele>
        <time>2021-03-10T18:19:48.097Z</time>
      </trkpt>
      <trkpt lat="45.746447" lon="10.411887">
        <ele>1074.051402</ele>
        <time>2021-03-10T18:19:52.694Z</time>
      </trkpt>
      <trkpt lat="45.746537" lon="10.411795">
        <ele>1074.787937</ele>
        <time>2021-03-10T18:19:58.981Z</time>
      </trkpt>
      <trkpt lat="45.746597" lon="10.411340">
        <ele>1077.610768</ele>
        <time>2021-03-10T18:20:16.761Z</time>
      </trkpt>
      <trkpt lat="45.746749" lon="10.411272">
        <ele>1080.538847</ele>
        <time>2021-03-10T18:20:25.767Z</time>
      </trkpt>
      <trkpt lat="45.747040" lon="10.411341">
        <ele>1085.962637</ele>
        <time>2021-03-10T18:20:47.565Z</time>
      </trkpt>
      <trkpt lat="45.747309" lon="10.411233">
        <ele>1091.099591</ele>
        <time>2021-03-10T18:21:12.714Z</time>
      </trkpt>
      <trkpt lat="45.747944" lon="10.410506">
        <ele>1106.045138</ele>
        <time>2021-03-10T18:22:38.827Z</time>
      </trkpt>
      <trkpt lat="45.748153" lon="10.410341">
        <ele>1110.466254</ele>
        <time>2021-03-10T18:23:00.461Z</time>
      </trkpt>
      <trkpt lat="45.748313" lon="10.410096">
        <ele>1114.951663</ele>
        <time>2021-03-10T18:23:23.335Z</time>
      </trkpt>
      <trkpt lat="45.748425" lon="10.409643">
        <ele>1121.375780</ele>
        <time>2021-03-10T18:23:57.774Z</time>
      </trkpt>
      <trkpt lat="45.748652" lon="10.408916">
        <ele>1132.022101</ele>
        <time>2021-03-10T18:24:52.844Z</time>
      </trkpt>
      <trkpt lat="45.748751" lon="10.408228">
        <ele>1141.412076</ele>
        <time>2021-03-10T18:25:34.829Z</time>
      </trkpt>
      <trkpt lat="45.748823" lon="10.407960">
        <ele>1144.666099</ele>
        <time>2021-03-10T18:25:50.328Z</time>
      </trkpt>
      <trkpt lat="45.748911" lon="10.407666">
        <ele>1146.791050</ele>
        <time>2021-03-10T18:26:05.231Z</time>
      </trkpt>
      <trkpt lat="45.748918" lon="10.406982">
        <ele>1151.334955</ele>
        <time>2021-03-10T18:26:32.804Z</time>
      </trkpt>
      <trkpt lat="45.749105" lon="10.406392">
        <ele>1155.639296</ele>
        <time>2021-03-10T18:26:54.173Z</time>
      </trkpt>
      <trkpt lat="45.749907" lon="10.406208">
        <ele>1162.078937</ele>
        <time>2021-03-10T18:27:25.969Z</time>
      </trkpt>
      <trkpt lat="45.750011" lon="10.406247">
        <ele>1162.490471</ele>
        <time>2021-03-10T18:27:30.120Z</time>
      </trkpt>
      <trkpt lat="45.750110" lon="10.406389">
        <ele>1163.026674</ele>
        <time>2021-03-10T18:27:34.687Z</time>
      </trkpt>
      <trkpt lat="45.750249" lon="10.406314">
        <ele>1163.595255</ele>
        <time>2021-03-10T18:27:39.260Z</time>
      </trkpt>
      <trkpt lat="45.750409" lon="10.406118">
        <ele>1164.401035</ele>
        <time>2021-03-10T18:27:46.116Z</time>
      </trkpt>
      <trkpt lat="45.750738" lon="10.406039">
        <ele>1165.678057</ele>
        <time>2021-03-10T18:27:56.745Z</time>
      </trkpt>
      <trkpt lat="45.751047" lon="10.405884">
        <ele>1166.931327</ele>
        <time>2021-03-10T18:28:06.357Z</time>
      </trkpt>
      <trkpt lat="45.751132" lon="10.405516">
        <ele>1167.966787</ele>
        <time>2021-03-10T18:28:13.462Z</time>
      </trkpt>
      <trkpt lat="45.751578" lon="10.404774">
        <ele>1165.216418</ele>
        <time>2021-03-10T18:28:22.436Z</time>
      </trkpt>
      <trkpt lat="45.751782" lon="10.404307">
        <ele>1163.512953</ele>
        <time>2021-03-10T18:28:26.138Z</time>
      </trkpt>
      <trkpt lat="45.751980" lon="10.403928">
        <ele>1162.049133</ele>
        <time>2021-03-10T18:28:29.113Z</time>
      </trkpt>
      <trkpt lat="45.752235" lon="10.403648">
        <ele>1160.625730</ele>
        <time>2021-03-10T18:28:31.891Z</time>
      </trkpt>
      <trkpt lat="45.752388" lon="10.403480">
        <ele>1159.376484</ele>
        <time>2021-03-10T18:28:33.541Z</time>
      </trkpt>
      <trkpt lat="45.752718" lon="10.402509">
        <ele>1152.309927</ele>
        <time>2021-03-10T18:28:40.033Z</time>
      </trkpt>
      <trkpt lat="45.752761" lon="10.402184">
        <ele>1150.145640</ele>
        <time>2021-03-10T18:28:42.084Z</time>
      </trkpt>
      <trkpt lat="45.752886" lon="10.401941">
        <ele>1148.170398</ele>
        <time>2021-03-10T18:28:43.959Z</time>
      </trkpt>
      <trkpt lat="45.753256" lon="10.401641">
        <ele>1144.184216</ele>
        <time>2021-03-10T18:28:47.710Z</time>
      </trkpt>
      <trkpt lat="45.753406" lon="10.401397">
        <ele>1141.703775</ele>
        <time>2021-03-10T18:28:49.660Z</time>
      </trkpt>
      <trkpt lat="45.753522" lon="10.400793">
        <ele>1136.403575</ele>
        <time>2021-03-10T18:28:53.334Z</time>
      </trkpt>
      <trkpt lat="45.753701" lon="10.400266">
        <ele>1131.444664</ele>
        <time>2021-03-10T18:28:56.728Z</time>
      </trkpt>
      <trkpt lat="45.753820" lon="10.400111">
        <ele>1129.494854</ele>
        <time>2021-03-10T18:28:58.075Z</time>
      </trkpt>
      <trkpt lat="45.754415" lon="10.400370">
        <ele>1121.954760</ele>
        <time>2021-03-10T18:29:03.341Z</time>
      </trkpt>
      <trkpt lat="45.754719" lon="10.400361">
        <ele>1119.273707</ele>
        <time>2021-03-10T18:29:05.970Z</time>
      </trkpt>
      <trkpt lat="45.754984" lon="10.400405">
        <ele>1117.061240</ele>
        <time>2021-03-10T18:29:08.266Z</time>
      </trkpt>
      <trkpt lat="45.755156" lon="10.400545">
        <ele>1115.420774</ele>
        <time>2021-03-10T18:29:09.981Z</time>
      </trkpt>
      <trkpt lat="45.755401" lon="10.400521">
        <ele>1113.384135</ele>
        <time>2021-03-10T18:29:12.111Z</time>
      </trkpt>
      <trkpt lat="45.755502" lon="10.400510">
        <ele>1112.544080</ele>
        <time>2021-03-10T18:29:12.983Z</time>
      </trkpt>
      <trkpt lat="45.755736" lon="10.400384">
        <ele>1110.470969</ele>
        <time>2021-03-10T18:29:15.234Z</time>
      </trkpt>
      <trkpt lat="45.756107" lon="10.400312">
        <ele>1107.366015</ele>
        <time>2021-03-10T18:29:18.739Z</time>
      </trkpt>
      <trkpt lat="45.756396" lon="10.399981">
        <ele>1103.871976</ele>
        <time>2021-03-10T18:29:22.303Z</time>
      </trkpt>
      <trkpt lat="45.756484" lon="10.400025">
        <ele>1102.951753</ele>
        <time>2021-03-10T18:29:23.144Z</time>
      </trkpt>
      <trkpt lat="45.756730" lon="10.399958">
        <ele>1100.479404</ele>
        <time>2021-03-10T18:29:25.498Z</time>
      </trkpt>
      <trkpt lat="45.757366" lon="10.399496">
        <ele>1093.439385</ele>
        <time>2021-03-10T18:29:31.595Z</time>
      </trkpt>
      <trkpt lat="45.757691" lon="10.399471">
        <ele>1090.225874</ele>
        <time>2021-03-10T18:29:34.307Z</time>
      </trkpt>
      <trkpt lat="45.757729" lon="10.399866">
        <ele>1086.961339</ele>
        <time>2021-03-10T18:29:36.631Z</time>
      </trkpt>
      <trkpt lat="45.758106" lon="10.400482">
        <ele>1079.061055</ele>
        <time>2021-03-10T18:29:41.366Z</time>
      </trkpt>
      <trkpt lat="45.758205" lon="10.400831">
        <ele>1075.428736</ele>
        <time>2021-03-10T18:29:43.548Z</time>
      </trkpt>
      <trkpt lat="45.758427" lon="10.401030">
        <ele>1071.810364</ele>
        <time>2021-03-10T18:29:45.728Z</time>
      </trkpt>
      <trkpt lat="45.758526" lon="10.400991">
        <ele>1070.391552</ele>
        <time>2021-03-10T18:29:46.584Z</time>
      </trkpt>
      <trkpt lat="45.758717" lon="10.401059">
        <ele>1067.671920</ele>
        <time>2021-03-10T18:29:48.237Z</time>
      </trkpt>
      <trkpt lat="45.758791" lon="10.401169">
        <ele>1066.198671</ele>
        <time>2021-03-10T18:29:49.140Z</time>
      </trkpt>
      <trkpt lat="45.758771" lon="10.401390">
        <ele>1064.050106</ele>
        <time>2021-03-10T18:29:50.449Z</time>
      </trkpt>
      <trkpt lat="45.758828" lon="10.401610">
        <ele>1062.440250</ele>
        <time>2021-03-10T18:29:51.849Z</time>
      </trkpt>
      <trkpt lat="45.758891" lon="10.401855">
        <ele>1060.693638</ele>
        <time>2021-03-10T18:29:53.404Z</time>
      </trkpt>
      <trkpt lat="45.759253" lon="10.402297">
        <ele>1056.134296</ele>
        <time>2021-03-10T18:29:57.633Z</time>
      </trkpt>
      <trkpt lat="45.759319" lon="10.402511">
        <ele>1054.569200</ele>
        <time>2021-03-10T18:29:59.033Z</time>
      </trkpt>
      <trkpt lat="45.759314" lon="10.402708">
        <ele>1053.250575</ele>
        <time>2021-03-10T18:30:00.236Z</time>
      </trkpt>
      <trkpt lat="45.759210" lon="10.403085">
        <ele>1050.538804</ele>
        <time>2021-03-10T18:30:02.652Z</time>
      </trkpt>
      <trkpt lat="45.759212" lon="10.403272">
        <ele>1049.287793</ele>
        <time>2021-03-10T18:30:03.811Z</time>
      </trkpt>
      <trkpt lat="45.759041" lon="10.403651">
        <ele>1046.343915</ele>
        <time>2021-03-10T18:30:06.565Z</time>
      </trkpt>
      <trkpt lat="45.759016" lon="10.403990">
        <ele>1044.486490</ele>
        <time>2021-03-10T18:30:08.645Z</time>
      </trkpt>
      <trkpt lat="45.759113" lon="10.404078">
        <ele>1043.589938</ele>
        <time>2021-03-10T18:30:09.807Z</time>
      </trkpt>
      <trkpt lat="45.759161" lon="10.404121">
        <ele>1043.147869</ele>
        <time>2021-03-10T18:30:10.319Z</time>
      </trkpt>
      <trkpt lat="45.759140" lon="10.404230">
        <ele>1042.531725</ele>
        <time>2021-03-10T18:30:10.983Z</time>
      </trkpt>
      <trkpt lat="45.758814" lon="10.404355">
        <ele>1039.896179</ele>
        <time>2021-03-10T18:30:13.899Z</time>
      </trkpt>
      <trkpt lat="45.758773" lon="10.404495">
        <ele>1039.068868</ele>
        <time>2021-03-10T18:30:14.784Z</time>
      </trkpt>
      <trkpt lat="45.758912" lon="10.404561">
        <ele>1037.925280</ele>
        <time>2021-03-10T18:30:16.119Z</time>
      </trkpt>
      <trkpt lat="45.759418" lon="10.404636">
        <ele>1033.952411</ele>
        <time>2021-03-10T18:30:20.690Z</time>
      </trkpt>
      <trkpt lat="45.759608" lon="10.404835">
        <ele>1032.309631</ele>
        <time>2021-03-10T18:30:23.232Z</time>
      </trkpt>
      <trkpt lat="45.759787" lon="10.405197">
        <ele>1030.811759</ele>
        <time>2021-03-10T18:30:26.091Z</time>
      </trkpt>
      <trkpt lat="45.759969" lon="10.405420">
        <ele>1029.653193</ele>
        <time>2021-03-10T18:30:28.200Z</time>
      </trkpt>
      <trkpt lat="45.760047" lon="10.405503">
        <ele>1029.183132</ele>
        <time>2021-03-10T18:30:29.119Z</time>
      </trkpt>
      <trkpt lat="45.760246" lon="10.405531">
        <ele>1028.215592</ele>
        <time>2021-03-10T18:30:30.877Z</time>
      </trkpt>
      <trkpt lat="45.760402" lon="10.405494">
        <ele>1027.450482</ele>
        <time>2021-03-10T18:30:32.343Z</time>
      </trkpt>
      <trkpt lat="45.760560" lon="10.405347">
        <ele>1026.539025</ele>
        <time>2021-03-10T18:30:34.052Z</time>
      </trkpt>
      <trkpt lat="45.760709" lon="10.405286">
        <ele>1025.789219</ele>
        <time>2021-03-10T18:30:35.512Z</time>
      </trkpt>
      <trkpt lat="45.760856" lon="10.405303">
        <ele>1025.075611</ele>
        <time>2021-03-10T18:30:36.984Z</time>
      </trkpt>
      <trkpt lat="45.761038" lon="10.405411">
        <ele>1024.122473</ele>
        <time>2021-03-10T18:30:38.971Z</time>
      </trkpt>
      <trkpt lat="45.761263" lon="10.405623">
        <ele>1023.666940</ele>
        <time>2021-03-10T18:30:42.390Z</time>
      </trkpt>
      <trkpt lat="45.761415" lon="10.406081">
        <ele>1023.268334</ele>
        <time>2021-03-10T18:30:52.927Z</time>
      </trkpt>
      <trkpt lat="45.761538" lon="10.406163">
        <ele>1023.115517</ele>
        <time>2021-03-10T18:30:58.527Z</time>
      </trkpt>
      <trkpt lat="45.761690" lon="10.406095">
        <ele>1022.936139</ele>
        <time>2021-03-10T18:31:03.003Z</time>
      </trkpt>
      <trkpt lat="45.761869" lon="10.405888">
        <ele>1022.677046</ele>
        <time>2021-03-10T18:31:06.667Z</time>
      </trkpt>
      <trkpt lat="45.762314" lon="10.405562">
        <ele>1022.114063</ele>
        <time>2021-03-10T18:31:11.529Z</time>
      </trkpt>
      <trkpt lat="45.762560" lon="10.405287">
        <ele>1020.460785</ele>
        <time>2021-03-10T18:31:14.429Z</time>
      </trkpt>
      <trkpt lat="45.762757" lon="10.404589">
        <ele>1014.172187</ele>
        <time>2021-03-10T18:31:19.503Z</time>
      </trkpt>
      <trkpt lat="45.763609" lon="10.404400">
        <ele>1003.850852</ele>
        <time>2021-03-10T18:31:26.674Z</time>
      </trkpt>
      <trkpt lat="45.763936" lon="10.404228">
        <ele>999.539702</ele>
        <time>2021-03-10T18:31:29.521Z</time>
      </trkpt>
      <trkpt lat="45.764041" lon="10.404172">
        <ele>997.921738</ele>
        <time>2021-03-10T18:31:30.449Z</time>
      </trkpt>
      <trkpt lat="45.764224" lon="10.404183">
        <ele>995.276535</ele>
        <time>2021-03-10T18:31:31.950Z</time>
      </trkpt>
      <trkpt lat="45.764774" lon="10.405003">
        <ele>983.816043</ele>
        <time>2021-03-10T18:31:38.448Z</time>
      </trkpt>
      <trkpt lat="45.765030" lon="10.405031">
        <ele>980.108153</ele>
        <time>2021-03-10T18:31:40.646Z</time>
      </trkpt>
      <trkpt lat="45.765244" lon="10.404914">
        <ele>976.800416</ele>
        <time>2021-03-10T18:31:42.685Z</time>
      </trkpt>
      <trkpt lat="45.765264" lon="10.404900">
        <ele>976.478978</ele>
        <time>2021-03-10T18:31:42.902Z</time>
      </trkpt>
      <trkpt lat="45.765318" lon="10.404874">
        <ele>975.656296</ele>
        <time>2021-03-10T18:31:43.446Z</time>
      </trkpt>
      <trkpt lat="45.765342" lon="10.404863">
        <ele>975.292403</ele>
        <time>2021-03-10T18:31:43.674Z</time>
      </trkpt>
      <trkpt lat="45.765359" lon="10.404922">
        <ele>974.649289</ele>
        <time>2021-03-10T18:31:44.048Z</time>
      </trkpt>
      <trkpt lat="45.765667" lon="10.405814">
        <ele>971.904734</ele>
        <time>2021-03-10T18:31:50.872Z</time>
      </trkpt>
      <trkpt lat="45.765692" lon="10.406048">
        <ele>971.298104</ele>
        <time>2021-03-10T18:31:52.454Z</time>
      </trkpt>
      <trkpt lat="45.765790" lon="10.406128">
        <ele>970.883830</ele>
        <time>2021-03-10T18:31:55.125Z</time>
      </trkpt>
      <trkpt lat="45.766067" lon="10.406164">
        <ele>969.862119</ele>
        <time>2021-03-10T18:31:58.328Z</time>
      </trkpt>
      <trkpt lat="45.766163" lon="10.406235">
        <ele>969.465303</ele>
        <time>2021-03-10T18:32:00.647Z</time>
      </trkpt>
      <trkpt lat="45.766293" lon="10.406367">
        <ele>968.880098</ele>
        <time>2021-03-10T18:32:02.772Z</time>
      </trkpt>
      <trkpt lat="45.766979" lon="10.406842">
        <ele>965.073095</ele>
        <time>2021-03-10T18:32:13.457Z</time>
      </trkpt>
      <trkpt lat="45.767128" lon="10.406963">
        <ele>964.070927</ele>
        <time>2021-03-10T18:32:19.231Z</time>
      </trkpt>
      <trkpt lat="45.767555" lon="10.407447">
        <ele>960.885274</ele>
        <time>2021-03-10T18:32:34.064Z</time>
      </trkpt>
      <trkpt lat="45.767959" lon="10.407518">
        <ele>958.503292</ele>
        <time>2021-03-10T18:32:44.055Z</time>
      </trkpt>
      <trkpt lat="45.768083" lon="10.407676">
        <ele>957.532404</ele>
        <time>2021-03-10T18:32:48.097Z</time>
      </trkpt>
      <trkpt lat="45.768136" lon="10.408029">
        <ele>956.159760</ele>
        <time>2021-03-10T18:32:54.353Z</time>
      </trkpt>
      <trkpt lat="45.768510" lon="10.409063">
        <ele>951.807611</ele>
        <time>2021-03-10T18:33:16.094Z</time>
      </trkpt>
      <trkpt lat="45.768571" lon="10.409238">
        <ele>951.076616</ele>
        <time>2021-03-10T18:33:20.089Z</time>
      </trkpt>
      <trkpt lat="45.768613" lon="10.409850">
        <ele>948.778795</ele>
        <time>2021-03-10T18:33:32.788Z</time>
      </trkpt>
      <trkpt lat="45.768761" lon="10.410169">
        <ele>947.451860</ele>
        <time>2021-03-10T18:33:40.724Z</time>
      </trkpt>
      <trkpt lat="45.768970" lon="10.410390">
        <ele>946.591940</ele>
        <time>2021-03-10T18:33:48.287Z</time>
      </trkpt>
      <trkpt lat="45.769303" lon="10.410322">
        <ele>945.478195</ele>
        <time>2021-03-10T18:33:58.238Z</time>
      </trkpt>
      <trkpt lat="45.769548" lon="10.410324">
        <ele>944.666949</ele>
        <time>2021-03-10T18:34:07.124Z</time>
      </trkpt>
      <trkpt lat="45.769877" lon="10.410501">
        <ele>943.503396</ele>
        <time>2021-03-10T18:34:18.387Z</time>
      </trkpt>
      <trkpt lat="45.770098" lon="10.410505">
        <ele>942.771573</ele>
        <time>2021-03-10T18:34:24.770Z</time>
      </trkpt>
      <trkpt lat="45.770455" lon="10.410769">
        <ele>941.142358</ele>
        <time>2021-03-10T18:34:35.881Z</time>
      </trkpt>
      <trkpt lat="45.770736" lon="10.410807">
        <ele>938.960288</ele>
        <time>2021-03-10T18:34:43.203Z</time>
      </trkpt>
      <trkpt lat="45.770908" lon="10.410703">
        <ele>937.517115</ele>
        <time>2021-03-10T18:34:47.958Z</time>
      </trkpt>
      <trkpt lat="45.770990" lon="10.410699">
        <ele>936.882802</ele>
        <time>2021-03-10T18:34:49.974Z</time>
      </trkpt>
      <trkpt lat="45.771084" lon="10.410694">
        <ele>936.155583</ele>
        <time>2021-03-10T18:34:52.250Z</time>
      </trkpt>
      <trkpt lat="45.771334" lon="10.411152">
        <ele>933.019414</ele>
        <time>2021-03-10T18:35:02.485Z</time>
      </trkpt>
      <trkpt lat="45.771775" lon="10.411474">
        <ele>929.193308</ele>
        <time>2021-03-10T18:35:15.129Z</time>
      </trkpt>
      <trkpt lat="45.771950" lon="10.411734">
        <ele>927.458675</ele>
        <time>2021-03-10T18:35:21.423Z</time>
      </trkpt>
      <trkpt lat="45.772267" lon="10.412005">
        <ele>925.789015</ele>
        <time>2021-03-10T18:35:30.605Z</time>
      </trkpt>
      <trkpt lat="45.772569" lon="10.411940">
        <ele>924.407503</ele>
        <time>2021-03-10T18:35:38.260Z</time>
      </trkpt>
      <trkpt lat="45.772698" lon="10.412054">
        <ele>923.721969</ele>
        <time>2021-03-10T18:35:42.373Z</time>
      </trkpt>
      <trkpt lat="45.773461" lon="10.412883">
        <ele>919.355046</ele>
        <time>2021-03-10T18:35:54.200Z</time>
      </trkpt>
      <trkpt lat="45.773713" lon="10.412957">
        <ele>918.010947</ele>
        <time>2021-03-10T18:35:58.927Z</time>
      </trkpt>
      <trkpt lat="45.774102" lon="10.412617">
        <ele>915.630390</ele>
        <time>2021-03-10T18:36:03.657Z</time>
      </trkpt>
      <trkpt lat="45.774599" lon="10.412054">
        <ele>912.320656</ele>
        <time>2021-03-10T18:36:09.469Z</time>
      </trkpt>
      <trkpt lat="45.775118" lon="10.411720">
        <ele>907.813871</ele>
        <time>2021-03-10T18:36:14.433Z</time>
      </trkpt>
      <trkpt lat="45.775607" lon="10.411784">
        <ele>900.759286</ele>
        <time>2021-03-10T18:36:18.546Z</time>
      </trkpt>
      <trkpt lat="45.775940" lon="10.412070">
        <ele>895.182449</ele>
        <time>2021-03-10T18:36:21.748Z</time>
      </trkpt>
      <trkpt lat="45.776322" lon="10.412681">
        <ele>886.960309</ele>
        <time>2021-03-10T18:36:26.444Z</time>
      </trkpt>
      <trkpt lat="45.776555" lon="10.413196">
        <ele>883.107491</ele>
        <time>2021-03-10T18:36:30.016Z</time>
      </trkpt>
      <trkpt lat="45.776711" lon="10.413388">
        <ele>882.052619</ele>
        <time>2021-03-10T18:36:31.752Z</time>
      </trkpt>
      <trkpt lat="45.776859" lon="10.413515">
        <ele>881.167637</ele>
        <time>2021-03-10T18:36:33.318Z</time>
      </trkpt>
      <trkpt lat="45.776848" lon="10.413648">
        <ele>880.688354</ele>
        <time>2021-03-10T18:36:34.145Z</time>
      </trkpt>
      <trkpt lat="45.776744" lon="10.413712">
        <ele>880.107669</ele>
        <time>2021-03-10T18:36:35.160Z</time>
      </trkpt>
      <trkpt lat="45.776259" lon="10.413016">
        <ele>876.586864</ele>
        <time>2021-03-10T18:36:45.625Z</time>
      </trkpt>
      <trkpt lat="45.776014" lon="10.412708">
        <ele>874.939822</ele>
        <time>2021-03-10T18:36:53.439Z</time>
      </trkpt>
      <trkpt lat="45.775677" lon="10.412633">
        <ele>873.370421</ele>
        <time>2021-03-10T18:37:00.052Z</time>
      </trkpt>
      <trkpt lat="45.775401" lon="10.412629">
        <ele>872.100240</ele>
        <time>2021-03-10T18:37:03.887Z</time>
      </trkpt>
      <trkpt lat="45.775036" lon="10.412612">
        <ele>870.419672</ele>
        <time>2021-03-10T18:37:07.499Z</time>
      </trkpt>
      <trkpt lat="45.774854" lon="10.412798">
        <ele>869.391135</ele>
        <time>2021-03-10T18:37:09.505Z</time>
      </trkpt>
      <trkpt lat="45.774769" lon="10.413080">
        <ele>868.405092</ele>
        <time>2021-03-10T18:37:11.383Z</time>
      </trkpt>
      <trkpt lat="45.774699" lon="10.413834">
        <ele>863.998206</ele>
        <time>2021-03-10T18:37:15.939Z</time>
      </trkpt>
      <trkpt lat="45.774625" lon="10.413967">
        <ele>862.279001</ele>
        <time>2021-03-10T18:37:16.950Z</time>
      </trkpt>
      <trkpt lat="45.774284" lon="10.414073">
        <ele>857.223846</ele>
        <time>2021-03-10T18:37:19.866Z</time>
      </trkpt>
      <trkpt lat="45.774039" lon="10.414402">
        <ele>852.360506</ele>
        <time>2021-03-10T18:37:22.608Z</time>
      </trkpt>
      <trkpt lat="45.773854" lon="10.414599">
        <ele>849.021830</ele>
        <time>2021-03-10T18:37:24.493Z</time>
      </trkpt>
      <trkpt lat="45.773287" lon="10.414296">
        <ele>840.423703</ele>
        <time>2021-03-10T18:37:29.575Z</time>
      </trkpt>
      <trkpt lat="45.773193" lon="10.414325">
        <ele>839.446448</ele>
        <time>2021-03-10T18:37:30.379Z</time>
      </trkpt>
      <trkpt lat="45.773113" lon="10.414349">
        <ele>838.615743</ele>
        <time>2021-03-10T18:37:31.063Z</time>
      </trkpt>
      <trkpt lat="45.772850" lon="10.414562">
        <ele>835.545680</ele>
        <time>2021-03-10T18:37:33.606Z</time>
      </trkpt>
      <trkpt lat="45.772680" lon="10.414647">
        <ele>833.715793</ele>
        <time>2021-03-10T18:37:35.162Z</time>
      </trkpt>
      <trkpt lat="45.772687" lon="10.414785">
        <ele>832.734894</ele>
        <time>2021-03-10T18:37:36.028Z</time>
      </trkpt>
      <trkpt lat="45.772798" lon="10.414795">
        <ele>831.604501</ele>
        <time>2021-03-10T18:37:36.954Z</time>
      </trkpt>
      <trkpt lat="45.773017" lon="10.414509">
        <ele>828.593653</ele>
        <time>2021-03-10T18:37:39.591Z</time>
      </trkpt>
      <trkpt lat="45.773146" lon="10.414504">
        <ele>827.282060</ele>
        <time>2021-03-10T18:37:40.717Z</time>
      </trkpt>
      <trkpt lat="45.773228" lon="10.414501">
        <ele>826.448366</ele>
        <time>2021-03-10T18:37:41.442Z</time>
      </trkpt>
      <trkpt lat="45.773324" lon="10.414498">
        <ele>825.472421</ele>
        <time>2021-03-10T18:37:42.355Z</time>
      </trkpt>
      <trkpt lat="45.773535" lon="10.414689">
        <ele>822.936199</ele>
        <time>2021-03-10T18:37:44.511Z</time>
      </trkpt>
      <trkpt lat="45.773684" lon="10.414981">
        <ele>820.356656</ele>
        <time>2021-03-10T18:37:46.717Z</time>
      </trkpt>
      <trkpt lat="45.774002" lon="10.415083">
        <ele>817.022233</ele>
        <time>2021-03-10T18:37:49.686Z</time>
      </trkpt>
      <trkpt lat="45.774292" lon="10.415058">
        <ele>814.049405</ele>
        <time>2021-03-10T18:37:52.290Z</time>
      </trkpt>
      <trkpt lat="45.774749" lon="10.414867">
        <ele>809.178445</ele>
        <time>2021-03-10T18:37:56.268Z</time>
      </trkpt>
      <trkpt lat="45.775067" lon="10.415017">
        <ele>805.752879</ele>
        <time>2021-03-10T18:37:59.061Z</time>
      </trkpt>
      <trkpt lat="45.775450" lon="10.415556">
        <ele>801.800832</ele>
        <time>2021-03-10T18:38:03.673Z</time>
      </trkpt>
      <trkpt lat="45.775693" lon="10.416170">
        <ele>798.765249</ele>
        <time>2021-03-10T18:38:08.102Z</time>
      </trkpt>
      <trkpt lat="45.775751" lon="10.416760">
        <ele>796.203218</ele>
        <time>2021-03-10T18:38:12.038Z</time>
      </trkpt>
      <trkpt lat="45.775866" lon="10.416951">
        <ele>795.118247</ele>
        <time>2021-03-10T18:38:13.871Z</time>
      </trkpt>
      <trkpt lat="45.776098" lon="10.417075">
        <ele>793.591808</ele>
        <time>2021-03-10T18:38:16.579Z</time>
      </trkpt>
      <trkpt lat="45.776457" lon="10.416834">
        <ele>792.377914</ele>
        <time>2021-03-10T18:38:20.869Z</time>
      </trkpt>
      <trkpt lat="45.776839" lon="10.416511">
        <ele>791.415987</ele>
        <time>2021-03-10T18:38:26.131Z</time>
      </trkpt>
      <trkpt lat="45.776932" lon="10.416013">
        <ele>790.636070</ele>
        <time>2021-03-10T18:38:30.909Z</time>
      </trkpt>
      <trkpt lat="45.777145" lon="10.415793">
        <ele>790.066670</ele>
        <time>2021-03-10T18:38:34.294Z</time>
      </trkpt>
      <trkpt lat="45.777284" lon="10.415894">
        <ele>789.728667</ele>
        <time>2021-03-10T18:38:36.126Z</time>
      </trkpt>
      <trkpt lat="45.777467" lon="10.415978">
        <ele>789.311887</ele>
        <time>2021-03-10T18:38:38.240Z</time>
      </trkpt>
      <trkpt lat="45.778020" lon="10.415855">
        <ele>785.821046</ele>
        <time>2021-03-10T18:38:43.347Z</time>
      </trkpt>
      <trkpt lat="45.778546" lon="10.415921">
        <ele>782.182969</ele>
        <time>2021-03-10T18:38:47.936Z</time>
      </trkpt>
      <trkpt lat="45.779154" lon="10.415764">
        <ele>777.926356</ele>
        <time>2021-03-10T18:38:53.369Z</time>
      </trkpt>
      <trkpt lat="45.779206" lon="10.415938">
        <ele>777.016690</ele>
        <time>2021-03-10T18:38:54.563Z</time>
      </trkpt>
      <trkpt lat="45.779096" lon="10.416037">
        <ele>776.149381</ele>
        <time>2021-03-10T18:38:55.792Z</time>
      </trkpt>
      <trkpt lat="45.778373" lon="10.416146">
        <ele>771.359533</ele>
        <time>2021-03-10T18:39:02.732Z</time>
      </trkpt>
      <trkpt lat="45.777829" lon="10.416361">
        <ele>767.641641</ele>
        <time>2021-03-10T18:39:07.766Z</time>
      </trkpt>
      <trkpt lat="45.777516" lon="10.416428">
        <ele>765.556540</ele>
        <time>2021-03-10T18:39:10.605Z</time>
      </trkpt>
      <trkpt lat="45.777464" lon="10.416760">
        <ele>763.294463</ele>
        <time>2021-03-10T18:39:12.738Z</time>
      </trkpt>
      <trkpt lat="45.777470" lon="10.417341">
        <ele>758.569727</ele>
        <time>2021-03-10T18:39:16.311Z</time>
      </trkpt>
      <trkpt lat="45.777345" lon="10.417697">
        <ele>755.328882</ele>
        <time>2021-03-10T18:39:18.678Z</time>
      </trkpt>
      <trkpt lat="45.777105" lon="10.417897">
        <ele>752.092573</ele>
        <time>2021-03-10T18:39:20.995Z</time>
      </trkpt>
      <trkpt lat="45.776794" lon="10.417829">
        <ele>748.424862</ele>
        <time>2021-03-10T18:39:23.598Z</time>
      </trkpt>
      <trkpt lat="45.776457" lon="10.417681">
        <ele>744.315773</ele>
        <time>2021-03-10T18:39:26.516Z</time>
      </trkpt>
      <trkpt lat="45.776225" lon="10.417872">
        <ele>742.168905</ele>
        <time>2021-03-10T18:39:28.755Z</time>
      </trkpt>
      <trkpt lat="45.775467" lon="10.418005">
        <ele>736.430974</ele>
        <time>2021-03-10T18:39:35.500Z</time>
      </trkpt>
      <trkpt lat="45.775296" lon="10.417882">
        <ele>734.993489</ele>
        <time>2021-03-10T18:39:37.271Z</time>
      </trkpt>
      <trkpt lat="45.775096" lon="10.417419">
        <ele>732.139397</ele>
        <time>2021-03-10T18:39:40.877Z</time>
      </trkpt>
      <trkpt lat="45.774714" lon="10.416911">
        <ele>729.413006</ele>
        <time>2021-03-10T18:39:46.425Z</time>
      </trkpt>
      <trkpt lat="45.774531" lon="10.416761">
        <ele>728.687877</ele>
        <time>2021-03-10T18:39:48.765Z</time>
      </trkpt>
      <trkpt lat="45.774261" lon="10.416784">
        <ele>727.757451</ele>
        <time>2021-03-10T18:39:51.718Z</time>
      </trkpt>
      <trkpt lat="45.773983" lon="10.416670">
        <ele>726.762794</ele>
        <time>2021-03-10T18:39:55.071Z</time>
      </trkpt>
      <trkpt lat="45.773646" lon="10.416743">
        <ele>725.590371</ele>
        <time>2021-03-10T18:39:58.506Z</time>
      </trkpt>
      <trkpt lat="45.773569" lon="10.416685">
        <ele>725.291162</ele>
        <time>2021-03-10T18:39:59.290Z</time>
      </trkpt>
      <trkpt lat="45.773372" lon="10.416435">
        <ele>724.386150</ele>
        <time>2021-03-10T18:40:01.743Z</time>
      </trkpt>
      <trkpt lat="45.773291" lon="10.416455">
        <ele>724.109868</ele>
        <time>2021-03-10T18:40:02.462Z</time>
      </trkpt>
      <trkpt lat="45.773213" lon="10.416474">
        <ele>723.851666</ele>
        <time>2021-03-10T18:40:03.151Z</time>
      </trkpt>
      <trkpt lat="45.773116" lon="10.416533">
        <ele>723.507794</ele>
        <time>2021-03-10T18:40:04.083Z</time>
      </trkpt>
      <trkpt lat="45.772904" lon="10.416663">
        <ele>722.755300</ele>
        <time>2021-03-10T18:40:06.255Z</time>
      </trkpt>
      <trkpt lat="45.772502" lon="10.416635">
        <ele>721.441819</ele>
        <time>2021-03-10T18:40:10.203Z</time>
      </trkpt>
      <trkpt lat="45.771701" lon="10.416639">
        <ele>718.827726</ele>
        <time>2021-03-10T18:40:19.669Z</time>
      </trkpt>
      <trkpt lat="45.771601" lon="10.416386">
        <ele>718.422703</ele>
        <time>2021-03-10T18:40:22.022Z</time>
      </trkpt>
      <trkpt lat="45.771188" lon="10.415851">
        <ele>719.016633</ele>
        <time>2021-03-10T18:40:27.694Z</time>
      </trkpt>
      <trkpt lat="45.770964" lon="10.415618">
        <ele>719.311931</ele>
        <time>2021-03-10T18:40:31.958Z</time>
      </trkpt>
      <trkpt lat="45.770750" lon="10.415300">
        <ele>719.640806</ele>
        <time>2021-03-10T18:40:40.647Z</time>
      </trkpt>
      <trkpt lat="45.770656" lon="10.415321">
        <ele>719.742317</ele>
        <time>2021-03-10T18:40:44.285Z</time>
      </trkpt>
      <trkpt lat="45.770573" lon="10.415465">
        <ele>719.881351</ele>
        <time>2021-03-10T18:40:51.268Z</time>
      </trkpt>
      <trkpt lat="45.770545" lon="10.415657">
        <ele>720.027344</ele>
        <time>2021-03-10T18:40:58.943Z</time>
      </trkpt>
      <trkpt lat="45.770505" lon="10.415919">
        <ele>720.226963</ele>
        <time>2021-03-10T18:41:05.563Z</time>
      </trkpt>
      <trkpt lat="45.770510" lon="10.416224">
        <ele>718.912872</ele>
        <time>2021-03-10T18:41:10.873Z</time>
      </trkpt>
      <trkpt lat="45.770487" lon="10.416357">
        <ele>718.118949</ele>
        <time>2021-03-10T18:41:12.015Z</time>
      </trkpt>
      <trkpt lat="45.770404" lon="10.416537">
        <ele>716.868762</ele>
        <time>2021-03-10T18:41:13.453Z</time>
      </trkpt>
      <trkpt lat="45.770313" lon="10.416565">
        <ele>716.095674</ele>
        <time>2021-03-10T18:41:14.433Z</time>
      </trkpt>
      <trkpt lat="45.770241" lon="10.416549">
        <ele>715.490477</ele>
        <time>2021-03-10T18:41:15.173Z</time>
      </trkpt>
      <trkpt lat="45.770083" lon="10.416445">
        <ele>714.046357</ele>
        <time>2021-03-10T18:41:16.651Z</time>
      </trkpt>
      <trkpt lat="45.769904" lon="10.416299">
        <ele>712.335728</ele>
        <time>2021-03-10T18:41:18.474Z</time>
      </trkpt>
      <trkpt lat="45.769824" lon="10.416193">
        <ele>711.430871</ele>
        <time>2021-03-10T18:41:19.382Z</time>
      </trkpt>
      <trkpt lat="45.769710" lon="10.416116">
        <ele>710.384115</ele>
        <time>2021-03-10T18:41:20.445Z</time>
      </trkpt>
      <trkpt lat="45.769611" lon="10.416149">
        <ele>709.539854</ele>
        <time>2021-03-10T18:41:21.324Z</time>
      </trkpt>
      <trkpt lat="45.769505" lon="10.416602">
        <ele>706.771412</ele>
        <time>2021-03-10T18:41:24.090Z</time>
      </trkpt>
      <trkpt lat="45.769429" lon="10.417098">
        <ele>701.863884</ele>
        <time>2021-03-10T18:41:27.031Z</time>
      </trkpt>
      <trkpt lat="45.769387" lon="10.417244">
        <ele>699.757533</ele>
        <time>2021-03-10T18:41:27.936Z</time>
      </trkpt>
      <trkpt lat="45.769310" lon="10.417378">
        <ele>697.441997</ele>
        <time>2021-03-10T18:41:28.925Z</time>
      </trkpt>
      <trkpt lat="45.769268" lon="10.417424">
        <ele>696.431400</ele>
        <time>2021-03-10T18:41:29.365Z</time>
      </trkpt>
      <trkpt lat="45.768806" lon="10.417521">
        <ele>687.503544</ele>
        <time>2021-03-10T18:41:33.185Z</time>
      </trkpt>
      <trkpt lat="45.768446" lon="10.417943">
        <ele>678.611980</ele>
        <time>2021-03-10T18:41:36.984Z</time>
      </trkpt>
      <trkpt lat="45.768316" lon="10.417971">
        <ele>676.098431</ele>
        <time>2021-03-10T18:41:38.055Z</time>
      </trkpt>
      <trkpt lat="45.768159" lon="10.417945">
        <ele>673.076566</ele>
        <time>2021-03-10T18:41:39.358Z</time>
      </trkpt>
      <trkpt lat="45.767930" lon="10.417821">
        <ele>669.312579</ele>
        <time>2021-03-10T18:41:41.367Z</time>
      </trkpt>
      <trkpt lat="45.767705" lon="10.417587">
        <ele>665.906671</ele>
        <time>2021-03-10T18:41:43.684Z</time>
      </trkpt>
      <trkpt lat="45.767456" lon="10.416968">
        <ele>659.799387</ele>
        <time>2021-03-10T18:41:47.894Z</time>
      </trkpt>
      <trkpt lat="45.767369" lon="10.416835">
        <ele>658.241008</ele>
        <time>2021-03-10T18:41:48.983Z</time>
      </trkpt>
      <trkpt lat="45.767282" lon="10.416797">
        <ele>657.126647</ele>
        <time>2021-03-10T18:41:49.754Z</time>
      </trkpt>
      <trkpt lat="45.767011" lon="10.416833">
        <ele>653.791957</ele>
        <time>2021-03-10T18:41:52.097Z</time>
      </trkpt>
      <trkpt lat="45.766909" lon="10.416818">
        <ele>652.535629</ele>
        <time>2021-03-10T18:41:52.961Z</time>
      </trkpt>
      <trkpt lat="45.766773" lon="10.416773">
        <ele>650.825458</ele>
        <time>2021-03-10T18:41:54.154Z</time>
      </trkpt>
      <trkpt lat="45.766571" lon="10.416637">
        <ele>648.806441</ele>
        <time>2021-03-10T18:41:56.118Z</time>
      </trkpt>
      <trkpt lat="45.766318" lon="10.416390">
        <ele>648.333726</ele>
        <time>2021-03-10T18:41:58.900Z</time>
      </trkpt>
      <trkpt lat="45.766204" lon="10.416329">
        <ele>648.145810</ele>
        <time>2021-03-10T18:42:00.029Z</time>
      </trkpt>
      <trkpt lat="45.765938" lon="10.416345">
        <ele>647.734661</ele>
        <time>2021-03-10T18:42:03.128Z</time>
      </trkpt>
      <trkpt lat="45.765646" lon="10.416502">
        <ele>647.253045</ele>
        <time>2021-03-10T18:42:11.985Z</time>
      </trkpt>
      <trkpt lat="45.765515" lon="10.416486">
        <ele>647.050007</ele>
        <time>2021-03-10T18:42:15.661Z</time>
      </trkpt>
      <trkpt lat="45.765424" lon="10.416381">
        <ele>646.869605</ele>
        <time>2021-03-10T18:42:18.745Z</time>
      </trkpt>
      <trkpt lat="45.765299" lon="10.416148">
        <ele>646.552947</ele>
        <time>2021-03-10T18:42:25.278Z</time>
      </trkpt>
      <trkpt lat="45.765171" lon="10.415759">
        <ele>645.992561</ele>
        <time>2021-03-10T18:42:31.491Z</time>
      </trkpt>
      <trkpt lat="45.765220" lon="10.415257">
        <ele>644.195356</ele>
        <time>2021-03-10T18:42:35.017Z</time>
      </trkpt>
      <trkpt lat="45.765242" lon="10.414639">
        <ele>642.001356</ele>
        <time>2021-03-10T18:42:39.454Z</time>
      </trkpt>
      <trkpt lat="45.765197" lon="10.414407">
        <ele>641.147584</ele>
        <time>2021-03-10T18:42:41.110Z</time>
      </trkpt>
      <trkpt lat="45.765139" lon="10.414379">
        <ele>640.836532</ele>
        <time>2021-03-10T18:42:41.672Z</time>
      </trkpt>
      <trkpt lat="45.764764" lon="10.415046">
        <ele>637.799213</ele>
        <time>2021-03-10T18:42:47.307Z</time>
      </trkpt>
      <trkpt lat="45.764643" lon="10.415151">
        <ele>637.080325</ele>
        <time>2021-03-10T18:42:48.519Z</time>
      </trkpt>
      <trkpt lat="45.764369" lon="10.415290">
        <ele>632.193884</ele>
        <time>2021-03-10T18:42:50.956Z</time>
      </trkpt>
      <trkpt lat="45.764248" lon="10.415546">
        <ele>628.403102</ele>
        <time>2021-03-10T18:42:52.729Z</time>
      </trkpt>
      <trkpt lat="45.764116" lon="10.415671">
        <ele>625.623046</ele>
        <time>2021-03-10T18:42:54.017Z</time>
      </trkpt>
      <trkpt lat="45.763725" lon="10.415671">
        <ele>618.752104</ele>
        <time>2021-03-10T18:42:57.211Z</time>
      </trkpt>
      <trkpt lat="45.763468" lon="10.415479">
        <ele>613.659351</ele>
        <time>2021-03-10T18:42:59.574Z</time>
      </trkpt>
      <trkpt lat="45.762703" lon="10.415408">
        <ele>602.981692</ele>
        <time>2021-03-10T18:43:05.893Z</time>
      </trkpt>
      <trkpt lat="45.762630" lon="10.415408">
        <ele>602.388692</ele>
        <time>2021-03-10T18:43:06.505Z</time>
      </trkpt>
      <trkpt lat="45.762566" lon="10.415461">
        <ele>601.788277</ele>
        <time>2021-03-10T18:43:07.135Z</time>
      </trkpt>
      <trkpt lat="45.762603" lon="10.415562">
        <ele>601.141786</ele>
        <time>2021-03-10T18:43:07.813Z</time>
      </trkpt>
      <trkpt lat="45.762922" lon="10.415558">
        <ele>598.550358</ele>
        <time>2021-03-10T18:43:10.575Z</time>
      </trkpt>
      <trkpt lat="45.763287" lon="10.415685">
        <ele>595.499258</ele>
        <time>2021-03-10T18:43:14.095Z</time>
      </trkpt>
      <trkpt lat="45.763474" lon="10.415785">
        <ele>593.877939</ele>
        <time>2021-03-10T18:43:16.174Z</time>
      </trkpt>
      <trkpt lat="45.763604" lon="10.415890">
        <ele>592.665810</ele>
        <time>2021-03-10T18:43:17.743Z</time>
      </trkpt>
      <trkpt lat="45.764118" lon="10.416500">
        <ele>588.899013</ele>
        <time>2021-03-10T18:43:25.703Z</time>
      </trkpt>
      <trkpt lat="45.764172" lon="10.416532">
        <ele>588.646912</ele>
        <time>2021-03-10T18:43:26.376Z</time>
      </trkpt>
      <trkpt lat="45.764294" lon="10.416523">
        <ele>588.119859</ele>
        <time>2021-03-10T18:43:27.637Z</time>
      </trkpt>
      <trkpt lat="45.764396" lon="10.416415">
        <ele>587.572756</ele>
        <time>2021-03-10T18:43:28.887Z</time>
      </trkpt>
      <trkpt lat="45.764465" lon="10.416164">
        <ele>586.760764</ele>
        <time>2021-03-10T18:43:30.740Z</time>
      </trkpt>
      <trkpt lat="45.764513" lon="10.415826">
        <ele>585.722598</ele>
        <time>2021-03-10T18:43:32.971Z</time>
      </trkpt>
      <trkpt lat="45.764583" lon="10.415782">
        <ele>585.392831</ele>
        <time>2021-03-10T18:43:33.712Z</time>
      </trkpt>
      <trkpt lat="45.764625" lon="10.415807">
        <ele>585.196625</ele>
        <time>2021-03-10T18:43:34.132Z</time>
      </trkpt>
      <trkpt lat="45.764652" lon="10.415862">
        <ele>584.994209</ele>
        <time>2021-03-10T18:43:34.558Z</time>
      </trkpt>
      <trkpt lat="45.764660" lon="10.415987">
        <ele>584.616410</ele>
        <time>2021-03-10T18:43:35.354Z</time>
      </trkpt>
      <trkpt lat="45.764573" lon="10.416217">
        <ele>583.828950</ele>
        <time>2021-03-10T18:43:37.037Z</time>
      </trkpt>
      <trkpt lat="45.764363" lon="10.416635">
        <ele>581.518586</ele>
        <time>2021-03-10T18:43:40.274Z</time>
      </trkpt>
      <trkpt lat="45.764249" lon="10.416743">
        <ele>580.318372</ele>
        <time>2021-03-10T18:43:41.498Z</time>
      </trkpt>
      <trkpt lat="45.764086" lon="10.416771">
        <ele>578.876450</ele>
        <time>2021-03-10T18:43:42.957Z</time>
      </trkpt>
      <trkpt lat="45.764029" lon="10.416751">
        <ele>578.361021</ele>
        <time>2021-03-10T18:43:43.489Z</time>
      </trkpt>
      <trkpt lat="45.763733" lon="10.416492">
        <ele>575.315071</ele>
        <time>2021-03-10T18:43:46.466Z</time>
      </trkpt>
      <trkpt lat="45.763117" lon="10.416198">
        <ele>569.612529</ele>
        <time>2021-03-10T18:43:51.994Z</time>
      </trkpt>
      <trkpt lat="45.762659" lon="10.416053">
        <ele>566.639122</ele>
        <time>2021-03-10T18:43:56.099Z</time>
      </trkpt>
      <trkpt lat="45.762309" lon="10.416130">
        <ele>565.600011</ele>
        <time>2021-03-10T18:43:59.438Z</time>
      </trkpt>
      <trkpt lat="45.762161" lon="10.416224">
        <ele>565.124976</ele>
        <time>2021-03-10T18:44:01.083Z</time>
      </trkpt>
      <trkpt lat="45.762091" lon="10.416199">
        <ele>564.913279</ele>
        <time>2021-03-10T18:44:01.843Z</time>
      </trkpt>
      <trkpt lat="45.762008" lon="10.416037">
        <ele>564.501796</ele>
        <time>2021-03-10T18:44:03.397Z</time>
      </trkpt>
      <trkpt lat="45.761955" lon="10.416021">
        <ele>564.342855</ele>
        <time>2021-03-10T18:44:04.031Z</time>
      </trkpt>
      <trkpt lat="45.761918" lon="10.416075">
        <ele>564.187901</ele>
        <time>2021-03-10T18:44:04.703Z</time>
      </trkpt>
      <trkpt lat="45.761924" lon="10.416140">
        <ele>564.053670</ele>
        <time>2021-03-10T18:44:05.327Z</time>
      </trkpt>
      <trkpt lat="45.762015" lon="10.416401">
        <ele>563.456325</ele>
        <time>2021-03-10T18:44:08.023Z</time>
      </trkpt>
      <trkpt lat="45.762072" lon="10.416415">
        <ele>563.286619</ele>
        <time>2021-03-10T18:44:08.849Z</time>
      </trkpt>
      <trkpt lat="45.762176" lon="10.416370">
        <ele>562.967827</ele>
        <time>2021-03-10T18:44:10.769Z</time>
      </trkpt>
      <trkpt lat="45.762453" lon="10.416323">
        <ele>562.149288</ele>
        <time>2021-03-10T18:44:14.674Z</time>
      </trkpt>
      <trkpt lat="45.762582" lon="10.416366">
        <ele>561.982585</ele>
        <time>2021-03-10T18:44:16.841Z</time>
      </trkpt>
      <trkpt lat="45.762944" lon="10.416634">
        <ele>562.299401</ele>
        <time>2021-03-10T18:44:23.865Z</time>
      </trkpt>
      <trkpt lat="45.763166" lon="10.416762">
        <ele>562.485469</ele>
        <time>2021-03-10T18:44:28.612Z</time>
      </trkpt>
      <trkpt lat="45.763180" lon="10.416848">
        <ele>562.533374</ele>
        <time>2021-03-10T18:44:30.303Z</time>
      </trkpt>
      <trkpt lat="45.763104" lon="10.416868">
        <ele>562.593459</ele>
        <time>2021-03-10T18:44:32.215Z</time>
      </trkpt>
      <trkpt lat="45.762838" lon="10.416769">
        <ele>562.807158</ele>
        <time>2021-03-10T18:44:39.267Z</time>
      </trkpt>
      <trkpt lat="45.762605" lon="10.416749">
        <ele>562.988662</ele>
        <time>2021-03-10T18:44:44.543Z</time>
      </trkpt>
      <trkpt lat="45.762370" lon="10.416606">
        <ele>563.187181</ele>
        <time>2021-03-10T18:44:49.654Z</time>
      </trkpt>
      <trkpt lat="45.762233" lon="10.416563">
        <ele>563.296236</ele>
        <time>2021-03-10T18:44:51.379Z</time>
      </trkpt>
      <trkpt lat="45.761712" lon="10.416792">
        <ele>562.367326</ele>
        <time>2021-03-10T18:44:57.235Z</time>
      </trkpt>
      <trkpt lat="45.761631" lon="10.416828">
        <ele>562.201750</ele>
        <time>2021-03-10T18:44:58.093Z</time>
      </trkpt>
      <trkpt lat="45.761316" lon="10.416861">
        <ele>561.585085</ele>
        <time>2021-03-10T18:45:01.465Z</time>
      </trkpt>
      <trkpt lat="45.760133" lon="10.416245">
        <ele>558.106762</ele>
        <time>2021-03-10T18:45:15.866Z</time>
      </trkpt>
      <trkpt lat="45.759990" lon="10.416235">
        <ele>557.416798</ele>
        <time>2021-03-10T18:45:17.099Z</time>
      </trkpt>
      <trkpt lat="45.759916" lon="10.416226">
        <ele>557.058896</ele>
        <time>2021-03-10T18:45:17.758Z</time>
      </trkpt>
      <trkpt lat="45.759823" lon="10.416214">
        <ele>556.608899</ele>
        <time>2021-03-10T18:45:18.590Z</time>
      </trkpt>
      <trkpt lat="45.759677" lon="10.416316">
        <ele>555.826169</ele>
        <time>2021-03-10T18:45:20.004Z</time>
      </trkpt>
      <trkpt lat="45.759610" lon="10.416448">
        <ele>555.277330</ele>
        <time>2021-03-10T18:45:21.033Z</time>
      </trkpt>
      <trkpt lat="45.759583" lon="10.416604">
        <ele>554.736927</ele>
        <time>2021-03-10T18:45:22.075Z</time>
      </trkpt>
      <trkpt lat="45.759628" lon="10.417192">
        <ele>552.748090</ele>
        <time>2021-03-10T18:45:25.972Z</time>
      </trkpt>
      <trkpt lat="45.759573" lon="10.417333">
        <ele>552.204953</ele>
        <time>2021-03-10T18:45:27.044Z</time>
      </trkpt>
      <trkpt lat="45.759529" lon="10.417461">
        <ele>551.725187</ele>
        <time>2021-03-10T18:45:28.084Z</time>
      </trkpt>
      <trkpt lat="45.759515" lon="10.417586">
        <ele>551.299530</ele>
        <time>2021-03-10T18:45:29.182Z</time>
      </trkpt>
      <trkpt lat="45.759567" lon="10.417781">
        <ele>550.635483</ele>
        <time>2021-03-10T18:45:30.648Z</time>
      </trkpt>
      <trkpt lat="45.759588" lon="10.417964">
        <ele>550.054276</ele>
        <time>2021-03-10T18:45:32.060Z</time>
      </trkpt>
      <trkpt lat="45.759562" lon="10.418127">
        <ele>549.530272</ele>
        <time>2021-03-10T18:45:33.326Z</time>
      </trkpt>
      <trkpt lat="45.759502" lon="10.418237">
        <ele>549.092693</ele>
        <time>2021-03-10T18:45:34.207Z</time>
      </trkpt>
      <trkpt lat="45.759047" lon="10.418436">
        <ele>546.955835</ele>
        <time>2021-03-10T18:45:38.404Z</time>
      </trkpt>
      <trkpt lat="45.758816" lon="10.418609">
        <ele>545.785095</ele>
        <time>2021-03-10T18:45:40.703Z</time>
      </trkpt>
      <trkpt lat="45.758598" lon="10.419116">
        <ele>543.918674</ele>
        <time>2021-03-10T18:45:44.547Z</time>
      </trkpt>
      <trkpt lat="45.758558" lon="10.419410">
        <ele>543.070768</ele>
        <time>2021-03-10T18:45:47.570Z</time>
      </trkpt>
      <trkpt lat="45.758498" lon="10.419685">
        <ele>543.025562</ele>
        <time>2021-03-10T18:45:53.212Z</time>
      </trkpt>
      <trkpt lat="45.758340" lon="10.420094">
        <ele>542.952212</ele>
        <time>2021-03-10T18:46:03.137Z</time>
      </trkpt>
      <trkpt lat="45.758202" lon="10.420289">
        <ele>542.908634</ele>
        <time>2021-03-10T18:46:08.420Z</time>
      </trkpt>
      <trkpt lat="45.758060" lon="10.420391">
        <ele>542.872916</ele>
        <time>2021-03-10T18:46:13.041Z</time>
      </trkpt>
      <trkpt lat="45.757862" lon="10.420636">
        <ele>542.814093</ele>
        <time>2021-03-10T18:46:17.923Z</time>
      </trkpt>
      <trkpt lat="45.757779" lon="10.420886">
        <ele>542.770655</ele>
        <time>2021-03-10T18:46:20.952Z</time>
      </trkpt>
      <trkpt lat="45.757737" lon="10.421054">
        <ele>542.742655</ele>
        <time>2021-03-10T18:46:22.219Z</time>
      </trkpt>
      <trkpt lat="45.757469" lon="10.421702">
        <ele>540.719766</ele>
        <time>2021-03-10T18:46:27.441Z</time>
      </trkpt>
      <trkpt lat="45.757395" lon="10.422039">
        <ele>538.399375</ele>
        <time>2021-03-10T18:46:29.723Z</time>
      </trkpt>
      <trkpt lat="45.757336" lon="10.422781">
        <ele>533.494494</ele>
        <time>2021-03-10T18:46:34.393Z</time>
      </trkpt>
      <trkpt lat="45.757232" lon="10.423511">
        <ele>528.601033</ele>
        <time>2021-03-10T18:46:38.813Z</time>
      </trkpt>
      <trkpt lat="45.757330" lon="10.423809">
        <ele>526.437294</ele>
        <time>2021-03-10T18:46:40.722Z</time>
      </trkpt>
      <trkpt lat="45.757401" lon="10.424335">
        <ele>521.129906</ele>
        <time>2021-03-10T18:46:43.796Z</time>
      </trkpt>
      <trkpt lat="45.757258" lon="10.424430">
        <ele>518.705403</ele>
        <time>2021-03-10T18:46:45.093Z</time>
      </trkpt>
      <trkpt lat="45.757183" lon="10.424479">
        <ele>517.437509</ele>
        <time>2021-03-10T18:46:45.765Z</time>
      </trkpt>
      <trkpt lat="45.756985" lon="10.424610">
        <ele>514.082929</ele>
        <time>2021-03-10T18:46:47.562Z</time>
      </trkpt>
      <trkpt lat="45.756350" lon="10.424610">
        <ele>504.315031</ele>
        <time>2021-03-10T18:46:52.816Z</time>
      </trkpt>
      <trkpt lat="45.756246" lon="10.424838">
        <ele>501.391466</ele>
        <time>2021-03-10T18:46:54.402Z</time>
      </trkpt>
      <trkpt lat="45.756180" lon="10.425332">
        <ele>497.128344</ele>
        <time>2021-03-10T18:46:57.348Z</time>
      </trkpt>
      <trkpt lat="45.755840" lon="10.425764">
        <ele>493.955979</ele>
        <time>2021-03-10T18:47:01.259Z</time>
      </trkpt>
      <trkpt lat="45.755495" lon="10.425772">
        <ele>491.546896</ele>
        <time>2021-03-10T18:47:04.382Z</time>
      </trkpt>
      <trkpt lat="45.755161" lon="10.425544">
        <ele>488.963930</ele>
        <time>2021-03-10T18:47:07.956Z</time>
      </trkpt>
      <trkpt lat="45.754682" lon="10.425434">
        <ele>485.576924</ele>
        <time>2021-03-10T18:47:12.880Z</time>
      </trkpt>
      <trkpt lat="45.754592" lon="10.425489">
        <ele>485.185967</ele>
        <time>2021-03-10T18:47:13.840Z</time>
      </trkpt>
      <trkpt lat="45.754511" lon="10.425538">
        <ele>484.861408</ele>
        <time>2021-03-10T18:47:14.858Z</time>
      </trkpt>
      <trkpt lat="45.754379" lon="10.425619">
        <ele>484.331339</ele>
        <time>2021-03-10T18:47:16.311Z</time>
      </trkpt>
      <trkpt lat="45.754159" lon="10.425958">
        <ele>483.138862</ele>
        <time>2021-03-10T18:47:19.561Z</time>
      </trkpt>
      <trkpt lat="45.754054" lon="10.426412">
        <ele>481.906912</ele>
        <time>2021-03-10T18:47:22.985Z</time>
      </trkpt>
      <trkpt lat="45.753993" lon="10.426826">
        <ele>480.817040</ele>
        <time>2021-03-10T18:47:26.363Z</time>
      </trkpt>
      <trkpt lat="45.753754" lon="10.426949">
        <ele>479.879602</ele>
        <time>2021-03-10T18:47:28.912Z</time>
      </trkpt>
      <trkpt lat="45.753052" lon="10.426965">
        <ele>475.420928</ele>
        <time>2021-03-10T18:47:35.336Z</time>
      </trkpt>
      <trkpt lat="45.752730" lon="10.427095">
        <ele>472.732484</ele>
        <time>2021-03-10T18:47:38.226Z</time>
      </trkpt>
      <trkpt lat="45.752674" lon="10.427170">
        <ele>472.116524</ele>
        <time>2021-03-10T18:47:38.937Z</time>
      </trkpt>
      <trkpt lat="45.752612" lon="10.427255">
        <ele>471.427001</ele>
        <time>2021-03-10T18:47:39.746Z</time>
      </trkpt>
      <trkpt lat="45.752452" lon="10.427473">
        <ele>469.652827</ele>
        <time>2021-03-10T18:47:41.646Z</time>
      </trkpt>
      <trkpt lat="45.752085" lon="10.427718">
        <ele>466.399182</ele>
        <time>2021-03-10T18:47:45.191Z</time>
      </trkpt>
      <trkpt lat="45.751857" lon="10.427963">
        <ele>464.017242</ele>
        <time>2021-03-10T18:47:47.657Z</time>
      </trkpt>
      <trkpt lat="45.751678" lon="10.428398">
        <ele>460.347656</ele>
        <time>2021-03-10T18:47:50.683Z</time>
      </trkpt>
      <trkpt lat="45.751596" lon="10.428402">
        <ele>459.493235</ele>
        <time>2021-03-10T18:47:51.386Z</time>
      </trkpt>
      <trkpt lat="45.751501" lon="10.428408">
        <ele>458.502969</ele>
        <time>2021-03-10T18:47:52.221Z</time>
      </trkpt>
      <trkpt lat="45.751471" lon="10.428410">
        <ele>458.190218</ele>
        <time>2021-03-10T18:47:52.483Z</time>
      </trkpt>
      <trkpt lat="45.751340" lon="10.428561">
        <ele>456.439516</ele>
        <time>2021-03-10T18:47:53.893Z</time>
      </trkpt>
      <trkpt lat="45.751292" lon="10.428701">
        <ele>455.306042</ele>
        <time>2021-03-10T18:47:54.813Z</time>
      </trkpt>
      <trkpt lat="45.751255" lon="10.428810">
        <ele>454.425250</ele>
        <time>2021-03-10T18:47:55.546Z</time>
      </trkpt>
      <trkpt lat="45.751251" lon="10.429009">
        <ele>452.978627</ele>
        <time>2021-03-10T18:47:56.710Z</time>
      </trkpt>
      <trkpt lat="45.751479" lon="10.429535">
        <ele>448.479044</ele>
        <time>2021-03-10T18:48:00.409Z</time>
      </trkpt>
      <trkpt lat="45.751572" lon="10.430044">
        <ele>444.752742</ele>
        <time>2021-03-10T18:48:03.605Z</time>
      </trkpt>
      <trkpt lat="45.751572" lon="10.430734">
        <ele>440.209740</ele>
        <time>2021-03-10T18:48:07.778Z</time>
      </trkpt>
      <trkpt lat="45.751424" lon="10.431242">
        <ele>436.585199</ele>
        <time>2021-03-10T18:48:11.062Z</time>
      </trkpt>
      <trkpt lat="45.751378" lon="10.431690">
        <ele>433.603766</ele>
        <time>2021-03-10T18:48:13.771Z</time>
      </trkpt>
      <trkpt lat="45.751099" lon="10.432095">
        <ele>429.856615</ele>
        <time>2021-03-10T18:48:17.232Z</time>
      </trkpt>
      <trkpt lat="45.750918" lon="10.432458">
        <ele>427.557567</ele>
        <time>2021-03-10T18:48:20.000Z</time>
      </trkpt>
      <trkpt lat="45.750453" lon="10.432882">
        <ele>424.203946</ele>
        <time>2021-03-10T18:48:25.013Z</time>
      </trkpt>
      <trkpt lat="45.750166" lon="10.433481">
        <ele>421.118791</ele>
        <time>2021-03-10T18:48:29.721Z</time>
      </trkpt>
      <trkpt lat="45.749896" lon="10.433923">
        <ele>418.624558</ele>
        <time>2021-03-10T18:48:33.559Z</time>
      </trkpt>
      <trkpt lat="45.749427" lon="10.434401">
        <ele>415.731085</ele>
        <time>2021-03-10T18:48:39.009Z</time>
      </trkpt>
      <trkpt lat="45.748654" lon="10.434764">
        <ele>411.917902</ele>
        <time>2021-03-10T18:48:46.855Z</time>
      </trkpt>
      <trkpt lat="45.748181" lon="10.435097">
        <ele>409.447500</ele>
        <time>2021-03-10T18:48:51.896Z</time>
      </trkpt>
      <trkpt lat="45.747937" lon="10.435326">
        <ele>407.887788</ele>
        <time>2021-03-10T18:48:54.641Z</time>
      </trkpt>
      <trkpt lat="45.747600" lon="10.435847">
        <ele>405.209239</ele>
        <time>2021-03-10T18:48:59.240Z</time>
      </trkpt>
      <trkpt lat="45.747364" lon="10.436307">
        <ele>403.056494</ele>
        <time>2021-03-10T18:49:02.932Z</time>
      </trkpt>
      <trkpt lat="45.747247" lon="10.436798">
        <ele>401.100207</ele>
        <time>2021-03-10T18:49:06.316Z</time>
      </trkpt>
      <trkpt lat="45.746855" lon="10.437634">
        <ele>397.535092</ele>
        <time>2021-03-10T18:49:12.812Z</time>
      </trkpt>
      <trkpt lat="45.746595" lon="10.438102">
        <ele>395.505662</ele>
        <time>2021-03-10T18:49:16.609Z</time>
      </trkpt>
      <trkpt lat="45.746170" lon="10.438398">
        <ele>393.208381</ele>
        <time>2021-03-10T18:49:20.995Z</time>
      </trkpt>
      <trkpt lat="45.745706" lon="10.438600">
        <ele>390.876189</ele>
        <time>2021-03-10T18:49:25.809Z</time>
      </trkpt>
      <trkpt lat="45.745126" lon="10.438996">
        <ele>390.646335</ele>
        <time>2021-03-10T18:49:33.406Z</time>
      </trkpt>
      <trkpt lat="45.744370" lon="10.438891">
        <ele>390.374598</ele>
        <time>2021-03-10T18:49:44.794Z</time>
      </trkpt>
      <trkpt lat="45.744148" lon="10.438906">
        <ele>390.295085</ele>
        <time>2021-03-10T18:49:49.407Z</time>
      </trkpt>
      <trkpt lat="45.743017" lon="10.439941">
        <ele>390.551898</ele>
        <time>2021-03-10T18:50:19.992Z</time>
      </trkpt>
      <trkpt lat="45.742825" lon="10.440336">
        <ele>390.642720</ele>
        <time>2021-03-10T18:50:24.297Z</time>
      </trkpt>
      <trkpt lat="45.742656" lon="10.440545">
        <ele>390.703073</ele>
        <time>2021-03-10T18:50:26.729Z</time>
      </trkpt>
      <trkpt lat="45.742486" lon="10.440593">
        <ele>389.987955</ele>
        <time>2021-03-10T18:50:28.545Z</time>
      </trkpt>
      <trkpt lat="45.742340" lon="10.440735">
        <ele>388.779327</ele>
        <time>2021-03-10T18:50:30.222Z</time>
      </trkpt>
      <trkpt lat="45.742195" lon="10.441001">
        <ele>387.165900</ele>
        <time>2021-03-10T18:50:32.438Z</time>
      </trkpt>
      <trkpt lat="45.741901" lon="10.441403">
        <ele>384.382414</ele>
        <time>2021-03-10T18:50:36.048Z</time>
      </trkpt>
      <trkpt lat="45.741429" lon="10.442003">
        <ele>380.060606</ele>
        <time>2021-03-10T18:50:41.550Z</time>
      </trkpt>
      <trkpt lat="45.741176" lon="10.442303">
        <ele>377.934982</ele>
        <time>2021-03-10T18:50:44.402Z</time>
      </trkpt>
      <trkpt lat="45.740722" lon="10.442531">
        <ele>375.330820</ele>
        <time>2021-03-10T18:50:48.618Z</time>
      </trkpt>
      <trkpt lat="45.740488" lon="10.442553">
        <ele>374.061411</ele>
        <time>2021-03-10T18:50:50.740Z</time>
      </trkpt>
      <trkpt lat="45.740356" lon="10.442489">
        <ele>373.307072</ele>
        <time>2021-03-10T18:50:52.012Z</time>
      </trkpt>
      <trkpt lat="45.740207" lon="10.442120">
        <ele>371.696502</ele>
        <time>2021-03-10T18:50:54.843Z</time>
      </trkpt>
      <trkpt lat="45.740041" lon="10.441514">
        <ele>369.237042</ele>
        <time>2021-03-10T18:50:59.598Z</time>
      </trkpt>
      <trkpt lat="45.739734" lon="10.439607">
        <ele>366.098317</ele>
        <time>2021-03-10T18:51:17.321Z</time>
      </trkpt>
      <trkpt lat="45.739612" lon="10.439400">
        <ele>365.713202</ele>
        <time>2021-03-10T18:51:19.219Z</time>
      </trkpt>
      <trkpt lat="45.739539" lon="10.439320">
        <ele>365.526023</ele>
        <time>2021-03-10T18:51:20.177Z</time>
      </trkpt>
      <trkpt lat="45.739477" lon="10.439293">
        <ele>365.394047</ele>
        <time>2021-03-10T18:51:20.875Z</time>
      </trkpt>
      <trkpt lat="45.739298" lon="10.439346">
        <ele>365.021781</ele>
        <time>2021-03-10T18:51:22.599Z</time>
      </trkpt>
      <trkpt lat="45.739252" lon="10.439236">
        <ele>364.522741</ele>
        <time>2021-03-10T18:51:23.459Z</time>
      </trkpt>
      <trkpt lat="45.739093" lon="10.439054">
        <ele>363.298511</ele>
        <time>2021-03-10T18:51:25.383Z</time>
      </trkpt>
      <trkpt lat="45.738961" lon="10.438817">
        <ele>362.025471</ele>
        <time>2021-03-10T18:51:27.325Z</time>
      </trkpt>
      <trkpt lat="45.738876" lon="10.438615">
        <ele>361.035160</ele>
        <time>2021-03-10T18:51:28.827Z</time>
      </trkpt>
      <trkpt lat="45.738713" lon="10.438637">
        <ele>360.050273</ele>
        <time>2021-03-10T18:51:30.918Z</time>
      </trkpt>
      <trkpt lat="45.738565" lon="10.438691">
        <ele>359.131548</ele>
        <time>2021-03-10T18:51:32.879Z</time>
      </trkpt>
      <trkpt lat="45.738445" lon="10.438774">
        <ele>358.329963</ele>
        <time>2021-03-10T18:51:34.540Z</time>
      </trkpt>
      <trkpt lat="45.738033" lon="10.438304">
        <ele>355.161907</ele>
        <time>2021-03-10T18:51:41.321Z</time>
      </trkpt>
      <trkpt lat="45.737679" lon="10.437638">
        <ele>352.543130</ele>
        <time>2021-03-10T18:51:49.026Z</time>
      </trkpt>
      <trkpt lat="45.737451" lon="10.437152">
        <ele>350.953675</ele>
        <time>2021-03-10T18:51:54.559Z</time>
      </trkpt>
      <trkpt lat="45.737270" lon="10.436983">
        <ele>350.113494</ele>
        <time>2021-03-10T18:51:57.721Z</time>
      </trkpt>
      <trkpt lat="45.736973" lon="10.436804">
        <ele>348.860438</ele>
        <time>2021-03-10T18:52:02.561Z</time>
      </trkpt>
      <trkpt lat="45.736402" lon="10.435985">
        <ele>346.568615</ele>
        <time>2021-03-10T18:52:15.454Z</time>
      </trkpt>
      <trkpt lat="45.735403" lon="10.435064">
        <ele>344.623791</ele>
        <time>2021-03-10T18:52:34.916Z</time>
      </trkpt>
      <trkpt lat="45.735105" lon="10.434910">
        <ele>344.144828</ele>
        <time>2021-03-10T18:52:40.059Z</time>
      </trkpt>
      <trkpt lat="45.734796" lon="10.434825">
        <ele>343.778820</ele>
        <time>2021-03-10T18:52:45.177Z</time>
      </trkpt>
      <trkpt lat="45.733876" lon="10.434821">
        <ele>342.708628</ele>
        <time>2021-03-10T18:53:00.603Z</time>
      </trkpt>
      <trkpt lat="45.733624" lon="10.434866">
        <ele>342.413222</ele>
        <time>2021-03-10T18:53:05.114Z</time>
      </trkpt>
      <trkpt lat="45.733295" lon="10.434999">
        <ele>342.104700</ele>
        <time>2021-03-10T18:53:11.336Z</time>
      </trkpt>
      <trkpt lat="45.732958" lon="10.435058">
        <ele>341.971742</ele>
        <time>2021-03-10T18:53:17.681Z</time>
      </trkpt>
      <trkpt lat="45.732479" lon="10.435037">
        <ele>341.784068</ele>
        <time>2021-03-10T18:53:27.529Z</time>
      </trkpt>
      <trkpt lat="45.731936" lon="10.434891">
        <ele>341.567706</ele>
        <time>2021-03-10T18:53:38.022Z</time>
      </trkpt>
      <trkpt lat="45.731650" lon="10.434854">
        <ele>341.455247</ele>
        <time>2021-03-10T18:53:43.363Z</time>
      </trkpt>
      <trkpt lat="45.731388" lon="10.434621">
        <ele>341.177151</ele>
        <time>2021-03-10T18:53:47.443Z</time>
      </trkpt>
      <trkpt lat="45.731233" lon="10.434410">
        <ele>340.974807</ele>
        <time>2021-03-10T18:53:50.179Z</time>
      </trkpt>
      <trkpt lat="45.731183" lon="10.434298">
        <ele>340.886986</ele>
        <time>2021-03-10T18:53:51.438Z</time>
      </trkpt>
      <trkpt lat="45.730681" lon="10.434522">
        <ele>340.389408</ele>
        <time>2021-03-10T18:53:57.881Z</time>
      </trkpt>
      <trkpt lat="45.730448" lon="10.434556">
        <ele>340.167769</ele>
        <time>2021-03-10T18:54:00.741Z</time>
      </trkpt>
      <trkpt lat="45.729717" lon="10.434222">
        <ele>339.403413</ele>
        <time>2021-03-10T18:54:09.671Z</time>
      </trkpt>
      <trkpt lat="45.729519" lon="10.434057">
        <ele>339.159167</ele>
        <time>2021-03-10T18:54:12.305Z</time>
      </trkpt>
      <trkpt lat="45.729407" lon="10.433908">
        <ele>338.996191</ele>
        <time>2021-03-10T18:54:14.051Z</time>
      </trkpt>
      <trkpt lat="45.728956" lon="10.433109">
        <ele>338.231378</ele>
        <time>2021-03-10T18:54:22.982Z</time>
      </trkpt>
      <trkpt lat="45.728710" lon="10.432751">
        <ele>337.857467</ele>
        <time>2021-03-10T18:54:27.441Z</time>
      </trkpt>
      <trkpt lat="45.728585" lon="10.432628">
        <ele>337.731712</ele>
        <time>2021-03-10T18:54:29.442Z</time>
      </trkpt>
      <trkpt lat="45.728383" lon="10.432498">
        <ele>337.560983</ele>
        <time>2021-03-10T18:54:32.143Z</time>
      </trkpt>
      <trkpt lat="45.728063" lon="10.432507">
        <ele>337.314228</ele>
        <time>2021-03-10T18:54:36.050Z</time>
      </trkpt>
      <trkpt lat="45.727860" lon="10.432571">
        <ele>337.153977</ele>
        <time>2021-03-10T18:54:38.621Z</time>
      </trkpt>
      <trkpt lat="45.727762" lon="10.432571">
        <ele>337.078422</ele>
        <time>2021-03-10T18:54:39.817Z</time>
      </trkpt>
      <trkpt lat="45.727594" lon="10.432479">
        <ele>336.939759</ele>
        <time>2021-03-10T18:54:42.135Z</time>
      </trkpt>
      <trkpt lat="45.726880" lon="10.431735">
        <ele>336.372401</ele>
        <time>2021-03-10T18:54:53.553Z</time>
      </trkpt>
      <trkpt lat="45.726660" lon="10.431470">
        <ele>336.290489</ele>
        <time>2021-03-10T18:54:57.379Z</time>
      </trkpt>
      <trkpt lat="45.725062" lon="10.429289">
        <ele>335.561899</ele>
        <time>2021-03-10T18:55:28.713Z</time>
      </trkpt>
      <trkpt lat="45.724895" lon="10.428946">
        <ele>335.447415</ele>
        <time>2021-03-10T18:55:32.527Z</time>
      </trkpt>
      <trkpt lat="45.724647" lon="10.428433">
        <ele>335.276585</ele>
        <time>2021-03-10T18:55:38.074Z</time>
      </trkpt>
      <trkpt lat="45.723853" lon="10.427305">
        <ele>334.884333</ele>
        <time>2021-03-10T18:55:52.616Z</time>
      </trkpt>
      <trkpt lat="45.723478" lon="10.426857">
        <ele>334.715989</ele>
        <time>2021-03-10T18:55:59.339Z</time>
      </trkpt>
      <trkpt lat="45.723225" lon="10.426481">
        <ele>334.596203</ele>
        <time>2021-03-10T18:56:05.100Z</time>
      </trkpt>
      <trkpt lat="45.722992" lon="10.426098">
        <ele>334.542256</ele>
        <time>2021-03-10T18:56:11.178Z</time>
      </trkpt>
      <trkpt lat="45.722380" lon="10.424929">
        <ele>334.387091</ele>
        <time>2021-03-10T18:56:27.565Z</time>
      </trkpt>
      <trkpt lat="45.721863" lon="10.424313">
        <ele>333.776891</ele>
        <time>2021-03-10T18:56:35.427Z</time>
      </trkpt>
      <trkpt lat="45.721705" lon="10.424080">
        <ele>333.329887</ele>
        <time>2021-03-10T18:56:37.918Z</time>
      </trkpt>
      <trkpt lat="45.721054" lon="10.422283">
        <ele>330.651474</ele>
        <time>2021-03-10T18:56:53.064Z</time>
      </trkpt>
      <trkpt lat="45.720900" lon="10.421961">
        <ele>330.357323</ele>
        <time>2021-03-10T18:56:55.931Z</time>
      </trkpt>
      <trkpt lat="45.718847" lon="10.418942">
        <ele>328.139945</ele>
        <time>2021-03-10T18:57:34.149Z</time>
      </trkpt>
      <trkpt lat="45.716845" lon="10.415925">
        <ele>327.646417</ele>
        <time>2021-03-10T18:58:18.793Z</time>
      </trkpt>
      <trkpt lat="45.716740" lon="10.415609">
        <ele>327.491632</ele>
        <time>2021-03-10T18:58:21.589Z</time>
      </trkpt>
      <trkpt lat="45.716748" lon="10.415448">
        <ele>327.420242</ele>
        <time>2021-03-10T18:58:23.352Z</time>
      </trkpt>
      <trkpt lat="45.716697" lon="10.415362">
        <ele>327.370336</ele>
        <time>2021-03-10T18:58:24.307Z</time>
      </trkpt>
      <trkpt lat="45.716620" lon="10.415337">
        <ele>327.320321</ele>
        <time>2021-03-10T18:58:25.175Z</time>
      </trkpt>
      <trkpt lat="45.716584" lon="10.415349">
        <ele>327.296906</ele>
        <time>2021-03-10T18:58:25.548Z</time>
      </trkpt>
      <trkpt lat="45.716435" lon="10.415223">
        <ele>327.187294</ele>
        <time>2021-03-10T18:58:27.903Z</time>
      </trkpt>
      <trkpt lat="45.716274" lon="10.415038">
        <ele>327.056537</ele>
        <time>2021-03-10T18:58:30.170Z</time>
      </trkpt>
      <trkpt lat="45.715215" lon="10.413481">
        <ele>325.118314</ele>
        <time>2021-03-10T18:58:47.622Z</time>
      </trkpt>
      <trkpt lat="45.714907" lon="10.413093">
        <ele>324.629458</ele>
        <time>2021-03-10T18:58:52.935Z</time>
      </trkpt>
      <trkpt lat="45.714673" lon="10.412896">
        <ele>324.378339</ele>
        <time>2021-03-10T18:58:56.522Z</time>
      </trkpt>
      <trkpt lat="45.714559" lon="10.412811">
        <ele>324.259435</ele>
        <time>2021-03-10T18:58:58.190Z</time>
      </trkpt>
      <trkpt lat="45.713829" lon="10.412334">
        <ele>323.517098</ele>
        <time>2021-03-10T18:59:08.301Z</time>
      </trkpt>
      <trkpt lat="45.713603" lon="10.412124">
        <ele>323.267861</ele>
        <time>2021-03-10T18:59:11.584Z</time>
      </trkpt>
      <trkpt lat="45.713384" lon="10.411868">
        <ele>322.951818</ele>
        <time>2021-03-10T18:59:14.920Z</time>
      </trkpt>
      <trkpt lat="45.713016" lon="10.410901">
        <ele>321.578034</ele>
        <time>2021-03-10T18:59:23.715Z</time>
      </trkpt>
      <trkpt lat="45.711856" lon="10.407577">
        <ele>316.414068</ele>
        <time>2021-03-10T18:59:51.925Z</time>
      </trkpt>
      <trkpt lat="45.711777" lon="10.407392">
        <ele>316.094414</ele>
        <time>2021-03-10T18:59:53.618Z</time>
      </trkpt>
      <trkpt lat="45.711516" lon="10.406942">
        <ele>315.395788</ele>
        <time>2021-03-10T18:59:58.009Z</time>
      </trkpt>
      <trkpt lat="45.710926" lon="10.406061">
        <ele>313.954488</ele>
        <time>2021-03-10T19:00:07.469Z</time>
      </trkpt>
      <trkpt lat="45.710680" lon="10.405758">
        <ele>313.405833</ele>
        <time>2021-03-10T19:00:11.345Z</time>
      </trkpt>
      <trkpt lat="45.710455" lon="10.405567">
        <ele>312.999398</ele>
        <time>2021-03-10T19:00:14.420Z</time>
      </trkpt>
      <trkpt lat="45.709992" lon="10.405376">
        <ele>312.772165</ele>
        <time>2021-03-10T19:00:20.440Z</time>
      </trkpt>
      <trkpt lat="45.709813" lon="10.405314">
        <ele>312.685313</ele>
        <time>2021-03-10T19:00:22.814Z</time>
      </trkpt>
      <trkpt lat="45.709787" lon="10.405305">
        <ele>312.672699</ele>
        <time>2021-03-10T19:00:23.161Z</time>
      </trkpt>
      <trkpt lat="45.709376" lon="10.405180">
        <ele>312.474546</ele>
        <time>2021-03-10T19:00:29.023Z</time>
      </trkpt>
      <trkpt lat="45.709169" lon="10.405041">
        <ele>312.366724</ele>
        <time>2021-03-10T19:00:32.283Z</time>
      </trkpt>
      <trkpt lat="45.709005" lon="10.404885">
        <ele>312.273873</ele>
        <time>2021-03-10T19:00:35.099Z</time>
      </trkpt>
      <trkpt lat="45.708863" lon="10.404689">
        <ele>312.180861</ele>
        <time>2021-03-10T19:00:38.082Z</time>
      </trkpt>
      <trkpt lat="45.708773" lon="10.404505">
        <ele>312.179466</ele>
        <time>2021-03-10T19:00:40.337Z</time>
      </trkpt>
      <trkpt lat="45.708323" lon="10.403463">
        <ele>312.279815</ele>
        <time>2021-03-10T19:00:53.302Z</time>
      </trkpt>
      <trkpt lat="45.708240" lon="10.403271">
        <ele>312.298311</ele>
        <time>2021-03-10T19:00:55.654Z</time>
      </trkpt>
      <trkpt lat="45.707879" lon="10.402432">
        <ele>312.390491</ele>
        <time>2021-03-10T19:01:06.123Z</time>
      </trkpt>
      <trkpt lat="45.707802" lon="10.402245">
        <ele>312.475049</ele>
        <time>2021-03-10T19:01:08.741Z</time>
      </trkpt>
      <trkpt lat="45.707632" lon="10.401859">
        <ele>312.652805</ele>
        <time>2021-03-10T19:01:14.129Z</time>
      </trkpt>
      <trkpt lat="45.707053" lon="10.400761">
        <ele>313.188731</ele>
        <time>2021-03-10T19:01:30.958Z</time>
      </trkpt>
      <trkpt lat="45.706616" lon="10.399807">
        <ele>313.329736</ele>
        <time>2021-03-10T19:01:44.955Z</time>
      </trkpt>
      <trkpt lat="45.706567" lon="10.399829">
        <ele>313.324153</ele>
        <time>2021-03-10T19:01:45.866Z</time>
      </trkpt>
      <trkpt lat="45.706430" lon="10.399550">
        <ele>313.298255</ele>
        <time>2021-03-10T19:01:49.300Z</time>
      </trkpt>
      <trkpt lat="45.706309" lon="10.399260">
        <ele>313.272604</ele>
        <time>2021-03-10T19:01:52.829Z</time>
      </trkpt>
      <trkpt lat="45.706141" lon="10.398707">
        <ele>313.226812</ele>
        <time>2021-03-10T19:01:58.741Z</time>
      </trkpt>
      <trkpt lat="45.705607" lon="10.395962">
        <ele>311.616232</ele>
        <time>2021-03-10T19:02:22.835Z</time>
      </trkpt>
      <trkpt lat="45.705455" lon="10.395411">
        <ele>311.278012</ele>
        <time>2021-03-10T19:02:28.048Z</time>
      </trkpt>
      <trkpt lat="45.705180" lon="10.394598">
        <ele>310.865936</ele>
        <time>2021-03-10T19:02:36.307Z</time>
      </trkpt>
      <trkpt lat="45.704282" lon="10.389870">
        <ele>308.479095</ele>
        <time>2021-03-10T19:03:20.977Z</time>
      </trkpt>
      <trkpt lat="45.704162" lon="10.389424">
        <ele>308.127337</ele>
        <time>2021-03-10T19:03:24.964Z</time>
      </trkpt>
      <trkpt lat="45.704001" lon="10.389031">
        <ele>307.792011</ele>
        <time>2021-03-10T19:03:28.659Z</time>
      </trkpt>
      <trkpt lat="45.703998" lon="10.388893">
        <ele>307.690399</ele>
        <time>2021-03-10T19:03:29.730Z</time>
      </trkpt>
      <trkpt lat="45.703522" lon="10.387848">
        <ele>307.993915</ele>
        <time>2021-03-10T19:03:39.619Z</time>
      </trkpt>
      <trkpt lat="45.703448" lon="10.387731">
        <ele>308.155685</ele>
        <time>2021-03-10T19:03:41.120Z</time>
      </trkpt>
      <trkpt lat="45.703068" lon="10.387330">
        <ele>308.848392</ele>
        <time>2021-03-10T19:03:50.618Z</time>
      </trkpt>
      <trkpt lat="45.702857" lon="10.387129">
        <ele>309.220288</ele>
        <time>2021-03-10T19:03:57.246Z</time>
      </trkpt>
      <trkpt lat="45.702714" lon="10.387011">
        <ele>309.462487</ele>
        <time>2021-03-10T19:04:02.222Z</time>
      </trkpt>
      <trkpt lat="45.702416" lon="10.386994">
        <ele>309.900137</ele>
        <time>2021-03-10T19:04:11.757Z</time>
      </trkpt>
      <trkpt lat="45.702342" lon="10.386985">
        <ele>310.148549</ele>
        <time>2021-03-10T19:04:14.198Z</time>
      </trkpt>
      <trkpt lat="45.702204" lon="10.386893">
        <ele>310.730558</ele>
        <time>2021-03-10T19:04:19.436Z</time>
      </trkpt>
      <trkpt lat="45.702188" lon="10.386856">
        <ele>310.846761</ele>
        <time>2021-03-10T19:04:20.500Z</time>
      </trkpt>
      <trkpt lat="45.702068" lon="10.386440">
        <ele>312.048584</ele>
        <time>2021-03-10T19:04:31.705Z</time>
      </trkpt>
      <trkpt lat="45.701900" lon="10.385727">
        <ele>314.057871</ele>
        <time>2021-03-10T19:04:49.074Z</time>
      </trkpt>
      <trkpt lat="45.701639" lon="10.384690">
        <ele>316.798124</ele>
        <time>2021-03-10T19:05:09.816Z</time>
      </trkpt>
      <trkpt lat="45.701599" lon="10.384464">
        <ele>316.795013</ele>
        <time>2021-03-10T19:05:13.477Z</time>
      </trkpt>
      <trkpt lat="45.701604" lon="10.384270">
        <ele>316.792422</ele>
        <time>2021-03-10T19:05:17.060Z</time>
      </trkpt>
      <trkpt lat="45.701696" lon="10.383962">
        <ele>316.787952</ele>
        <time>2021-03-10T19:05:22.037Z</time>
      </trkpt>
      <trkpt lat="45.701821" lon="10.383802">
        <ele>316.784748</ele>
        <time>2021-03-10T19:05:25.192Z</time>
      </trkpt>
      <trkpt lat="45.702269" lon="10.383347">
        <ele>316.774254</ele>
        <time>2021-03-10T19:05:31.765Z</time>
      </trkpt>
      <trkpt lat="45.702396" lon="10.383115">
        <ele>316.770320</ele>
        <time>2021-03-10T19:05:34.122Z</time>
      </trkpt>
      <trkpt lat="45.702669" lon="10.382456">
        <ele>316.554597</ele>
        <time>2021-03-10T19:05:39.827Z</time>
      </trkpt>
      <trkpt lat="45.702854" lon="10.381886">
        <ele>316.177217</ele>
        <time>2021-03-10T19:05:44.711Z</time>
      </trkpt>
      <trkpt lat="45.703042" lon="10.381544">
        <ele>315.915903</ele>
        <time>2021-03-10T19:05:48.733Z</time>
      </trkpt>
      <trkpt lat="45.703200" lon="10.381238">
        <ele>315.687421</ele>
        <time>2021-03-10T19:05:53.219Z</time>
      </trkpt>
      <trkpt lat="45.703272" lon="10.380903">
        <ele>315.476979</ele>
        <time>2021-03-10T19:05:56.589Z</time>
      </trkpt>
      <trkpt lat="45.703271" lon="10.380623">
        <ele>315.308866</ele>
        <time>2021-03-10T19:05:59.332Z</time>
      </trkpt>
      <trkpt lat="45.703180" lon="10.379994">
        <ele>315.764313</ele>
        <time>2021-03-10T19:06:04.874Z</time>
      </trkpt>
      <trkpt lat="45.702985" lon="10.379008">
        <ele>316.901729</ele>
        <time>2021-03-10T19:06:19.602Z</time>
      </trkpt>
      <trkpt lat="45.702891" lon="10.378732">
        <ele>317.242554</ele>
        <time>2021-03-10T19:06:24.847Z</time>
      </trkpt>
      <trkpt lat="45.702623" lon="10.378265">
        <ele>317.913439</ele>
        <time>2021-03-10T19:06:36.203Z</time>
      </trkpt>
      <trkpt lat="45.701165" lon="10.375951">
        <ele>323.061809</ele>
        <time>2021-03-10T19:07:36.426Z</time>
      </trkpt>
      <trkpt lat="45.701044" lon="10.375723">
        <ele>322.891700</ele>
        <time>2021-03-10T19:07:39.044Z</time>
      </trkpt>
      <trkpt lat="45.700894" lon="10.375164">
        <ele>322.535961</ele>
        <time>2021-03-10T19:07:44.031Z</time>
      </trkpt>
      <trkpt lat="45.700850" lon="10.374889">
        <ele>322.368366</ele>
        <time>2021-03-10T19:07:46.109Z</time>
      </trkpt>
      <trkpt lat="45.700866" lon="10.374383">
        <ele>322.067471</ele>
        <time>2021-03-10T19:07:49.921Z</time>
      </trkpt>
      <trkpt lat="45.701048" lon="10.373293">
        <ele>321.436674</ele>
        <time>2021-03-10T19:07:58.074Z</time>
      </trkpt>
      <trkpt lat="45.701075" lon="10.372780">
        <ele>321.160409</ele>
        <time>2021-03-10T19:08:01.982Z</time>
      </trkpt>
      <trkpt lat="45.700994" lon="10.372274">
        <ele>320.881638</ele>
        <time>2021-03-10T19:08:06.662Z</time>
      </trkpt>
      <trkpt lat="45.700781" lon="10.371341">
        <ele>320.431798</ele>
        <time>2021-03-10T19:08:19.531Z</time>
      </trkpt>
      <trkpt lat="45.700732" lon="10.370975">
        <ele>320.777701</ele>
        <time>2021-03-10T19:08:24.896Z</time>
      </trkpt>
      <trkpt lat="45.700743" lon="10.370875">
        <ele>320.871664</ele>
        <time>2021-03-10T19:08:26.350Z</time>
      </trkpt>
      <trkpt lat="45.700816" lon="10.370689">
        <ele>321.069699</ele>
        <time>2021-03-10T19:08:29.437Z</time>
      </trkpt>
      <trkpt lat="45.701060" lon="10.370280">
        <ele>321.568972</ele>
        <time>2021-03-10T19:08:37.179Z</time>
      </trkpt>
      <trkpt lat="45.701200" lon="10.369946">
        <ele>321.930534</ele>
        <time>2021-03-10T19:08:42.619Z</time>
      </trkpt>
      <trkpt lat="45.701319" lon="10.369448">
        <ele>322.419075</ele>
        <time>2021-03-10T19:08:49.806Z</time>
      </trkpt>
      <trkpt lat="45.701372" lon="10.369062">
        <ele>322.795142</ele>
        <time>2021-03-10T19:08:55.274Z</time>
      </trkpt>
      <trkpt lat="45.701384" lon="10.368877">
        <ele>323.139739</ele>
        <time>2021-03-10T19:08:57.845Z</time>
      </trkpt>
      <trkpt lat="45.701348" lon="10.368643">
        <ele>323.584146</ele>
        <time>2021-03-10T19:09:01.372Z</time>
      </trkpt>
      <trkpt lat="45.701040" lon="10.367838">
        <ele>325.286560</ele>
        <time>2021-03-10T19:09:16.399Z</time>
      </trkpt>
      <trkpt lat="45.700989" lon="10.367462">
        <ele>325.996965</ele>
        <time>2021-03-10T19:09:23.743Z</time>
      </trkpt>
      <trkpt lat="45.700995" lon="10.366995">
        <ele>326.863266</ele>
        <time>2021-03-10T19:09:33.286Z</time>
      </trkpt>
      <trkpt lat="45.701023" lon="10.366807">
        <ele>327.219793</ele>
        <time>2021-03-10T19:09:37.238Z</time>
      </trkpt>
      <trkpt lat="45.701226" lon="10.366110">
        <ele>328.764219</ele>
        <time>2021-03-10T19:09:53.402Z</time>
      </trkpt>
      <trkpt lat="45.701470" lon="10.365194">
        <ele>330.826713</ele>
        <time>2021-03-10T19:10:14.021Z</time>
      </trkpt>
      <trkpt lat="45.701456" lon="10.363738">
        <ele>333.256886</ele>
        <time>2021-03-10T19:10:37.235Z</time>
      </trkpt>
      <trkpt lat="45.701470" lon="10.363611">
        <ele>333.341638</ele>
        <time>2021-03-10T19:10:39.003Z</time>
      </trkpt>
      <trkpt lat="45.701527" lon="10.363445">
        <ele>333.463571</ele>
        <time>2021-03-10T19:10:41.222Z</time>
      </trkpt>
      <trkpt lat="45.701608" lon="10.363293">
        <ele>333.589601</ele>
        <time>2021-03-10T19:10:43.654Z</time>
      </trkpt>
      <trkpt lat="45.701742" lon="10.363099">
        <ele>333.769459</ele>
        <time>2021-03-10T19:10:46.856Z</time>
      </trkpt>
      <trkpt lat="45.701976" lon="10.362733">
        <ele>334.096542</ele>
        <time>2021-03-10T19:10:52.664Z</time>
      </trkpt>
      <trkpt lat="45.702057" lon="10.362562">
        <ele>334.232741</ele>
        <time>2021-03-10T19:10:55.080Z</time>
      </trkpt>
      <trkpt lat="45.702208" lon="10.362079">
        <ele>334.581562</ele>
        <time>2021-03-10T19:11:01.265Z</time>
      </trkpt>
      <trkpt lat="45.702338" lon="10.361511">
        <ele>335.436007</ele>
        <time>2021-03-10T19:11:08.278Z</time>
      </trkpt>
      <trkpt lat="45.702509" lon="10.360751">
        <ele>336.744101</ele>
        <time>2021-03-10T19:11:20.461Z</time>
      </trkpt>
      <trkpt lat="45.702785" lon="10.360049">
        <ele>338.063868</ele>
        <time>2021-03-10T19:11:35.850Z</time>
      </trkpt>
      <trkpt lat="45.702888" lon="10.359703">
        <ele>338.680047</ele>
        <time>2021-03-10T19:11:43.845Z</time>
      </trkpt>
      <trkpt lat="45.702893" lon="10.359602">
        <ele>338.845924</ele>
        <time>2021-03-10T19:11:46.008Z</time>
      </trkpt>
      <trkpt lat="45.702569" lon="10.357668">
        <ele>343.569728</ele>
        <time>2021-03-10T19:12:27.622Z</time>
      </trkpt>
      <trkpt lat="45.702556" lon="10.357436">
        <ele>344.124599</ele>
        <time>2021-03-10T19:12:31.955Z</time>
      </trkpt>
      <trkpt lat="45.702589" lon="10.357175">
        <ele>344.756944</ele>
        <time>2021-03-10T19:12:36.885Z</time>
      </trkpt>
      <trkpt lat="45.702832" lon="10.356230">
        <ele>346.411209</ele>
        <time>2021-03-10T19:12:53.325Z</time>
      </trkpt>
      <trkpt lat="45.702905" lon="10.355781">
        <ele>347.125619</ele>
        <time>2021-03-10T19:13:00.344Z</time>
      </trkpt>
      <trkpt lat="45.703028" lon="10.354340">
        <ele>349.716513</ele>
        <time>2021-03-10T19:13:23.508Z</time>
      </trkpt>
      <trkpt lat="45.703020" lon="10.353969">
        <ele>350.837623</ele>
        <time>2021-03-10T19:13:30.538Z</time>
      </trkpt>
      <trkpt lat="45.702990" lon="10.353815">
        <ele>351.320525</ele>
        <time>2021-03-10T19:13:33.759Z</time>
      </trkpt>
      <trkpt lat="45.702895" lon="10.353555">
        <ele>352.206823</ele>
        <time>2021-03-10T19:13:40.213Z</time>
      </trkpt>
      <trkpt lat="45.702334" lon="10.352692">
        <ele>355.767918</ele>
        <time>2021-03-10T19:14:09.445Z</time>
      </trkpt>
      <trkpt lat="45.701855" lon="10.351784">
        <ele>359.646741</ele>
        <time>2021-03-10T19:14:38.877Z</time>
      </trkpt>
      <trkpt lat="45.701782" lon="10.351522">
        <ele>360.654924</ele>
        <time>2021-03-10T19:14:46.141Z</time>
      </trkpt>
      <trkpt lat="45.701243" lon="10.350366">
        <ele>365.622763</ele>
        <time>2021-03-10T19:15:20.771Z</time>
      </trkpt>
      <trkpt lat="45.701036" lon="10.349828">
        <ele>367.295096</ele>
        <time>2021-03-10T19:15:34.113Z</time>
      </trkpt>
      <trkpt lat="45.700856" lon="10.349200">
        <ele>369.023535</ele>
        <time>2021-03-10T19:15:47.586Z</time>
      </trkpt>
      <trkpt lat="45.700648" lon="10.348623">
        <ele>370.676862</ele>
        <time>2021-03-10T19:16:01.133Z</time>
      </trkpt>
      <trkpt lat="45.700256" lon="10.347312">
        <ele>373.678097</ele>
        <time>2021-03-10T19:16:28.491Z</time>
      </trkpt>
      <trkpt lat="45.700033" lon="10.346865">
        <ele>374.573648</ele>
        <time>2021-03-10T19:16:35.382Z</time>
      </trkpt>
      <trkpt lat="45.699628" lon="10.346253">
        <ele>375.948130</ele>
        <time>2021-03-10T19:16:50.466Z</time>
      </trkpt>
      <trkpt lat="45.699503" lon="10.346018">
        <ele>376.429707</ele>
        <time>2021-03-10T19:16:55.735Z</time>
      </trkpt>
      <trkpt lat="45.699346" lon="10.345528">
        <ele>376.871755</ele>
        <time>2021-03-10T19:17:04.811Z</time>
      </trkpt>
      <trkpt lat="45.699338" lon="10.345301">
        <ele>376.949688</ele>
        <time>2021-03-10T19:17:08.431Z</time>
      </trkpt>
      <trkpt lat="45.699358" lon="10.345247">
        <ele>376.970646</ele>
        <time>2021-03-10T19:17:09.130Z</time>
      </trkpt>
      <trkpt lat="45.699357" lon="10.345127">
        <ele>377.011795</ele>
        <time>2021-03-10T19:17:10.859Z</time>
      </trkpt>
      <trkpt lat="45.699305" lon="10.345032">
        <ele>377.053181</ele>
        <time>2021-03-10T19:17:12.055Z</time>
      </trkpt>
      <trkpt lat="45.699224" lon="10.345003">
        <ele>377.094171</ele>
        <time>2021-03-10T19:17:13.614Z</time>
      </trkpt>
      <trkpt lat="45.699108" lon="10.344796">
        <ele>377.185170</ele>
        <time>2021-03-10T19:17:16.222Z</time>
      </trkpt>
      <trkpt lat="45.698946" lon="10.344368">
        <ele>377.352089</ele>
        <time>2021-03-10T19:17:20.638Z</time>
      </trkpt>
      <trkpt lat="45.698807" lon="10.344071">
        <ele>377.474675</ele>
        <time>2021-03-10T19:17:23.719Z</time>
      </trkpt>
      <trkpt lat="45.698748" lon="10.343748">
        <ele>377.589152</ele>
        <time>2021-03-10T19:17:26.865Z</time>
      </trkpt>
      <trkpt lat="45.698753" lon="10.343545">
        <ele>377.594449</ele>
        <time>2021-03-10T19:17:29.081Z</time>
      </trkpt>
      <trkpt lat="45.698879" lon="10.342851">
        <ele>377.063725</ele>
        <time>2021-03-10T19:17:37.695Z</time>
      </trkpt>
      <trkpt lat="45.698858" lon="10.342537">
        <ele>376.830259</ele>
        <time>2021-03-10T19:17:40.269Z</time>
      </trkpt>
      <trkpt lat="45.698696" lon="10.342008">
        <ele>376.402745</ele>
        <time>2021-03-10T19:17:44.625Z</time>
      </trkpt>
      <trkpt lat="45.698355" lon="10.341244">
        <ele>375.733074</ele>
        <time>2021-03-10T19:17:51.595Z</time>
      </trkpt>
      <trkpt lat="45.698300" lon="10.340947">
        <ele>375.955374</ele>
        <time>2021-03-10T19:17:54.218Z</time>
      </trkpt>
      <trkpt lat="45.698330" lon="10.340687">
        <ele>376.146029</ele>
        <time>2021-03-10T19:17:56.877Z</time>
      </trkpt>
      <trkpt lat="45.698538" lon="10.340022">
        <ele>376.673188</ele>
        <time>2021-03-10T19:18:06.033Z</time>
      </trkpt>
      <trkpt lat="45.698614" lon="10.339346">
        <ele>377.168557</ele>
        <time>2021-03-10T19:18:16.542Z</time>
      </trkpt>
      <trkpt lat="45.698594" lon="10.339092">
        <ele>377.353486</ele>
        <time>2021-03-10T19:18:20.888Z</time>
      </trkpt>
      <trkpt lat="45.698557" lon="10.338963">
        <ele>377.454378</ele>
        <time>2021-03-10T19:18:23.190Z</time>
      </trkpt>
      <trkpt lat="45.698408" lon="10.338654">
        <ele>378.053357</ele>
        <time>2021-03-10T19:18:30.035Z</time>
      </trkpt>
      <trkpt lat="45.698131" lon="10.338101">
        <ele>379.780531</ele>
        <time>2021-03-10T19:18:43.218Z</time>
      </trkpt>
      <trkpt lat="45.697581" lon="10.336064">
        <ele>385.563057</ele>
        <time>2021-03-10T19:19:30.294Z</time>
      </trkpt>
      <trkpt lat="45.696076" lon="10.331598">
        <ele>401.282608</ele>
        <time>2021-03-10T19:21:23.762Z</time>
      </trkpt>
      <trkpt lat="45.695752" lon="10.330618">
        <ele>405.231025</ele>
        <time>2021-03-10T19:21:53.793Z</time>
      </trkpt>
      <trkpt lat="45.695739" lon="10.330483">
        <ele>405.727298</ele>
        <time>2021-03-10T19:21:57.474Z</time>
      </trkpt>
      <trkpt lat="45.695656" lon="10.330167">
        <ele>406.956738</ele>
        <time>2021-03-10T19:22:05.558Z</time>
      </trkpt>
      <trkpt lat="45.695533" lon="10.329873">
        <ele>408.204755</ele>
        <time>2021-03-10T19:22:13.958Z</time>
      </trkpt>
      <trkpt lat="45.695500" lon="10.329691">
        <ele>408.889506</ele>
        <time>2021-03-10T19:22:18.517Z</time>
      </trkpt>
      <trkpt lat="45.695518" lon="10.329533">
        <ele>409.472493</ele>
        <time>2021-03-10T19:22:22.647Z</time>
      </trkpt>
      <trkpt lat="45.695694" lon="10.329027">
        <ele>410.791119</ele>
        <time>2021-03-10T19:22:35.152Z</time>
      </trkpt>
      <trkpt lat="45.695787" lon="10.328500">
        <ele>411.992607</ele>
        <time>2021-03-10T19:22:45.286Z</time>
      </trkpt>
      <trkpt lat="45.695779" lon="10.328202">
        <ele>412.651794</ele>
        <time>2021-03-10T19:22:50.126Z</time>
      </trkpt>
      <trkpt lat="45.695245" lon="10.325501">
        <ele>419.412376</ele>
        <time>2021-03-10T19:23:40.604Z</time>
      </trkpt>
      <trkpt lat="45.695069" lon="10.325558">
        <ele>420.073675</ele>
        <time>2021-03-10T19:23:47.431Z</time>
      </trkpt>
      <trkpt lat="45.694922" lon="10.325594">
        <ele>420.620222</ele>
        <time>2021-03-10T19:23:53.056Z</time>
      </trkpt>
      <trkpt lat="45.694872" lon="10.325728">
        <ele>421.009108</ele>
        <time>2021-03-10T19:23:56.362Z</time>
      </trkpt>
      <trkpt lat="45.694870" lon="10.325733">
        <ele>421.023857</ele>
        <time>2021-03-10T19:23:56.485Z</time>
      </trkpt>
      <trkpt lat="45.694850" lon="10.326020">
        <ele>421.762160</ele>
        <time>2021-03-10T19:24:03.575Z</time>
      </trkpt>
      <trkpt lat="45.694710" lon="10.326523">
        <ele>424.386844</ele>
        <time>2021-03-10T19:24:17.966Z</time>
      </trkpt>
      <trkpt lat="45.694707" lon="10.326637">
        <ele>424.976318</ele>
        <time>2021-03-10T19:24:21.041Z</time>
      </trkpt>
      <trkpt lat="45.694726" lon="10.326872">
        <ele>426.198706</ele>
        <time>2021-03-10T19:24:28.191Z</time>
      </trkpt>
      <trkpt lat="45.694814" lon="10.327208">
        <ele>428.052905</ele>
        <time>2021-03-10T19:24:39.503Z</time>
      </trkpt>
      <trkpt lat="45.694976" lon="10.327685">
        <ele>430.793541</ele>
        <time>2021-03-10T19:24:57.016Z</time>
      </trkpt>
      <trkpt lat="45.694999" lon="10.327823">
        <ele>431.526623</ele>
        <time>2021-03-10T19:25:01.349Z</time>
      </trkpt>
      <trkpt lat="45.694986" lon="10.327969">
        <ele>432.287129</ele>
        <time>2021-03-10T19:25:05.902Z</time>
      </trkpt>
      <trkpt lat="45.694938" lon="10.328128">
        <ele>433.182155</ele>
        <time>2021-03-10T19:25:11.428Z</time>
      </trkpt>
      <trkpt lat="45.694746" lon="10.328468">
        <ele>435.576432</ele>
        <time>2021-03-10T19:25:26.287Z</time>
      </trkpt>
      <trkpt lat="45.694601" lon="10.328781">
        <ele>438.806372</ele>
        <time>2021-03-10T19:25:40.235Z</time>
      </trkpt>
      <trkpt lat="45.694552" lon="10.328801">
        <ele>439.433703</ele>
        <time>2021-03-10T19:25:43.095Z</time>
      </trkpt>
      <trkpt lat="45.694514" lon="10.328766">
        <ele>439.990020</ele>
        <time>2021-03-10T19:25:45.585Z</time>
      </trkpt>
      <trkpt lat="45.694492" lon="10.328677">
        <ele>440.801917</ele>
        <time>2021-03-10T19:25:49.398Z</time>
      </trkpt>
      <trkpt lat="45.694502" lon="10.328304">
        <ele>444.012001</ele>
        <time>2021-03-10T19:26:05.170Z</time>
      </trkpt>
      <trkpt lat="45.694457" lon="10.328212">
        <ele>444.977885</ele>
        <time>2021-03-10T19:26:10.148Z</time>
      </trkpt>
      <trkpt lat="45.694399" lon="10.328193">
        <ele>445.710441</ele>
        <time>2021-03-10T19:26:13.912Z</time>
      </trkpt>
      <trkpt lat="45.694344" lon="10.328241">
        <ele>446.503503</ele>
        <time>2021-03-10T19:26:18.157Z</time>
      </trkpt>
      <trkpt lat="45.694314" lon="10.328503">
        <ele>448.786729</ele>
        <time>2021-03-10T19:26:30.551Z</time>
      </trkpt>
      <trkpt lat="45.694096" lon="10.329088">
        <ele>454.488837</ele>
        <time>2021-03-10T19:27:03.412Z</time>
      </trkpt>
      <trkpt lat="45.693988" lon="10.329616">
        <ele>459.575709</ele>
        <time>2021-03-10T19:27:32.314Z</time>
      </trkpt>
      <trkpt lat="45.693897" lon="10.329810">
        <ele>461.974187</ele>
        <time>2021-03-10T19:27:44.929Z</time>
      </trkpt>
      <trkpt lat="45.693752" lon="10.329956">
        <ele>464.579018</ele>
        <time>2021-03-10T19:27:58.917Z</time>
      </trkpt>
      <trkpt lat="45.693517" lon="10.330360">
        <ele>469.975116</ele>
        <time>2021-03-10T19:28:27.789Z</time>
      </trkpt>
      <trkpt lat="45.693290" lon="10.330607">
        <ele>474.164740</ele>
        <time>2021-03-10T19:28:49.654Z</time>
      </trkpt>
      <trkpt lat="45.693122" lon="10.330858">
        <ele>477.732783</ele>
        <time>2021-03-10T19:29:07.642Z</time>
      </trkpt>
      <trkpt lat="45.693052" lon="10.331040">
        <ele>479.865266</ele>
        <time>2021-03-10T19:29:18.119Z</time>
      </trkpt>
      <trkpt lat="45.692935" lon="10.331645">
        <ele>485.835718</ele>
        <time>2021-03-10T19:29:47.843Z</time>
      </trkpt>
      <trkpt lat="45.692923" lon="10.331919">
        <ele>488.119822</ele>
        <time>2021-03-10T19:30:00.207Z</time>
      </trkpt>
      <trkpt lat="45.693115" lon="10.333308">
        <ele>499.900121</ele>
        <time>2021-03-10T19:30:59.727Z</time>
      </trkpt>
      <trkpt lat="45.693114" lon="10.333781">
        <ele>503.835394</ele>
        <time>2021-03-10T19:31:19.126Z</time>
      </trkpt>
      <trkpt lat="45.693069" lon="10.334041">
        <ele>506.191240</ele>
        <time>2021-03-10T19:31:30.612Z</time>
      </trkpt>
      <trkpt lat="45.692966" lon="10.334187">
        <ele>508.183045</ele>
        <time>2021-03-10T19:31:39.245Z</time>
      </trkpt>
      <trkpt lat="45.692348" lon="10.334641">
        <ele>517.728275</ele>
        <time>2021-03-10T19:32:25.934Z</time>
      </trkpt>
      <trkpt lat="45.691995" lon="10.334939">
        <ele>523.359682</ele>
        <time>2021-03-10T19:32:55.795Z</time>
      </trkpt>
      <trkpt lat="45.691792" lon="10.335165">
        <ele>526.893483</ele>
        <time>2021-03-10T19:33:15.292Z</time>
      </trkpt>
      <trkpt lat="45.691675" lon="10.335371">
        <ele>529.442003</ele>
        <time>2021-03-10T19:33:29.938Z</time>
      </trkpt>
      <trkpt lat="45.691606" lon="10.335566">
        <ele>531.592914</ele>
        <time>2021-03-10T19:33:41.770Z</time>
      </trkpt>
      <trkpt lat="45.691487" lon="10.335604">
        <ele>533.323946</ele>
        <time>2021-03-10T19:33:51.427Z</time>
      </trkpt>
      <trkpt lat="45.691055" lon="10.335249">
        <ele>540.395936</ele>
        <time>2021-03-10T19:34:29.740Z</time>
      </trkpt>
      <trkpt lat="45.691017" lon="10.335168">
        <ele>541.363600</ele>
        <time>2021-03-10T19:34:34.773Z</time>
      </trkpt>
      <trkpt lat="45.690998" lon="10.334893">
        <ele>544.104192</ele>
        <time>2021-03-10T19:34:49.206Z</time>
      </trkpt>
      <trkpt lat="45.690964" lon="10.334756">
        <ele>545.546080</ele>
        <time>2021-03-10T19:34:56.474Z</time>
      </trkpt>
      <trkpt lat="45.690733" lon="10.334354">
        <ele>550.708506</ele>
        <time>2021-03-10T19:35:21.687Z</time>
      </trkpt>
      <trkpt lat="45.690522" lon="10.333170">
        <ele>561.397287</ele>
        <time>2021-03-10T19:36:15.604Z</time>
      </trkpt>
      <trkpt lat="45.690351" lon="10.332785">
        <ele>565.040508</ele>
        <time>2021-03-10T19:36:34.373Z</time>
      </trkpt>
      <trkpt lat="45.690328" lon="10.332626">
        <ele>566.337125</ele>
        <time>2021-03-10T19:36:41.041Z</time>
      </trkpt>
      <trkpt lat="45.690322" lon="10.332085">
        <ele>570.657775</ele>
        <time>2021-03-10T19:37:02.841Z</time>
      </trkpt>
      <trkpt lat="45.690299" lon="10.331981">
        <ele>571.528885</ele>
        <time>2021-03-10T19:37:07.467Z</time>
      </trkpt>
      <trkpt lat="45.690263" lon="10.331924">
        <ele>572.142515</ele>
        <time>2021-03-10T19:37:10.549Z</time>
      </trkpt>
      <trkpt lat="45.690137" lon="10.331817">
        <ele>573.817262</ele>
        <time>2021-03-10T19:37:19.379Z</time>
      </trkpt>
      <trkpt lat="45.689968" lon="10.331602">
        <ele>576.373514</ele>
        <time>2021-03-10T19:37:33.015Z</time>
      </trkpt>
      <trkpt lat="45.689888" lon="10.331455">
        <ele>577.741702</ele>
        <time>2021-03-10T19:37:40.827Z</time>
      </trkpt>
      <trkpt lat="45.689689" lon="10.330456">
        <ele>585.368970</ele>
        <time>2021-03-10T19:38:23.632Z</time>
      </trkpt>
      <trkpt lat="45.689638" lon="10.330371">
        <ele>586.191670</ele>
        <time>2021-03-10T19:38:27.969Z</time>
      </trkpt>
      <trkpt lat="45.689603" lon="10.330413">
        <ele>586.671698</ele>
        <time>2021-03-10T19:38:30.749Z</time>
      </trkpt>
      <trkpt lat="45.689568" lon="10.330554">
        <ele>587.770373</ele>
        <time>2021-03-10T19:38:36.431Z</time>
      </trkpt>
      <trkpt lat="45.689560" lon="10.330802">
        <ele>589.593189</ele>
        <time>2021-03-10T19:38:45.827Z</time>
      </trkpt>
      <trkpt lat="45.689347" lon="10.331614">
        <ele>595.807462</ele>
        <time>2021-03-10T19:39:18.614Z</time>
      </trkpt>
      <trkpt lat="45.689417" lon="10.332064">
        <ele>598.673979</ele>
        <time>2021-03-10T19:39:36.201Z</time>
      </trkpt>
      <trkpt lat="45.689405" lon="10.332225">
        <ele>599.680716</ele>
        <time>2021-03-10T19:39:42.212Z</time>
      </trkpt>
      <trkpt lat="45.689330" lon="10.332482">
        <ele>601.412514</ele>
        <time>2021-03-10T19:39:53.304Z</time>
      </trkpt>
      <trkpt lat="45.689149" lon="10.332894">
        <ele>604.438722</ele>
        <time>2021-03-10T19:40:11.433Z</time>
      </trkpt>
      <trkpt lat="45.688843" lon="10.333477">
        <ele>608.972911</ele>
        <time>2021-03-10T19:40:35.464Z</time>
      </trkpt>
      <trkpt lat="45.688409" lon="10.334620">
        <ele>616.058358</ele>
        <time>2021-03-10T19:41:13.718Z</time>
      </trkpt>
      <trkpt lat="45.688393" lon="10.334779">
        <ele>616.892795</ele>
        <time>2021-03-10T19:41:18.865Z</time>
      </trkpt>
      <trkpt lat="45.688450" lon="10.335202">
        <ele>619.130535</ele>
        <time>2021-03-10T19:41:32.800Z</time>
      </trkpt>
      <trkpt lat="45.688408" lon="10.335949">
        <ele>623.023306</ele>
        <time>2021-03-10T19:41:57.051Z</time>
      </trkpt>
      <trkpt lat="45.688363" lon="10.336069">
        <ele>623.730770</ele>
        <time>2021-03-10T19:42:01.551Z</time>
      </trkpt>
      <trkpt lat="45.687620" lon="10.336975">
        <ele>629.652137</ele>
        <time>2021-03-10T19:42:44.214Z</time>
      </trkpt>
      <trkpt lat="45.687540" lon="10.337281">
        <ele>631.008248</ele>
        <time>2021-03-10T19:42:53.048Z</time>
      </trkpt>
      <trkpt lat="45.687457" lon="10.337480">
        <ele>631.970236</ele>
        <time>2021-03-10T19:42:59.129Z</time>
      </trkpt>
      <trkpt lat="45.687106" lon="10.338004">
        <ele>634.983460</ele>
        <time>2021-03-10T19:43:16.785Z</time>
      </trkpt>
      <trkpt lat="45.687026" lon="10.338248">
        <ele>634.712520</ele>
        <time>2021-03-10T19:43:22.147Z</time>
      </trkpt>
      <trkpt lat="45.686980" lon="10.338697">
        <ele>634.163636</ele>
        <time>2021-03-10T19:43:29.072Z</time>
      </trkpt>
      <trkpt lat="45.686927" lon="10.338891">
        <ele>633.911683</ele>
        <time>2021-03-10T19:43:31.528Z</time>
      </trkpt>
      <trkpt lat="45.686488" lon="10.339659">
        <ele>632.711425</ele>
        <time>2021-03-10T19:43:38.999Z</time>
      </trkpt>
      <trkpt lat="45.686126" lon="10.340090">
        <ele>631.823654</ele>
        <time>2021-03-10T19:43:43.324Z</time>
      </trkpt>
      <trkpt lat="45.686083" lon="10.340183">
        <ele>631.066711</ele>
        <time>2021-03-10T19:43:44.018Z</time>
      </trkpt>
      <trkpt lat="45.685723" lon="10.341097">
        <ele>623.945085</ele>
        <time>2021-03-10T19:43:50.415Z</time>
      </trkpt>
      <trkpt lat="45.685516" lon="10.341552">
        <ele>620.259738</ele>
        <time>2021-03-10T19:43:53.681Z</time>
      </trkpt>
      <trkpt lat="45.685344" lon="10.342091">
        <ele>616.237776</ele>
        <time>2021-03-10T19:43:57.195Z</time>
      </trkpt>
      <trkpt lat="45.685291" lon="10.342209">
        <ele>615.285620</ele>
        <time>2021-03-10T19:43:58.016Z</time>
      </trkpt>
      <trkpt lat="45.685037" lon="10.342416">
        <ele>611.939770</ele>
        <time>2021-03-10T19:44:00.479Z</time>
      </trkpt>
      <trkpt lat="45.684949" lon="10.342545">
        <ele>610.404899</ele>
        <time>2021-03-10T19:44:01.545Z</time>
      </trkpt>
      <trkpt lat="45.684896" lon="10.342818">
        <ele>607.992822</ele>
        <time>2021-03-10T19:44:03.206Z</time>
      </trkpt>
      <trkpt lat="45.684768" lon="10.343038">
        <ele>605.555549</ele>
        <time>2021-03-10T19:44:04.885Z</time>
      </trkpt>
      <trkpt lat="45.684643" lon="10.343352">
        <ele>602.478979</ele>
        <time>2021-03-10T19:44:06.999Z</time>
      </trkpt>
      <trkpt lat="45.684375" lon="10.343370">
        <ele>599.209666</ele>
        <time>2021-03-10T19:44:09.261Z</time>
      </trkpt>
      <trkpt lat="45.684122" lon="10.343927">
        <ele>593.553841</ele>
        <time>2021-03-10T19:44:13.190Z</time>
      </trkpt>
      <trkpt lat="45.683998" lon="10.344064">
        <ele>591.900069</ele>
        <time>2021-03-10T19:44:14.526Z</time>
      </trkpt>
      <trkpt lat="45.683882" lon="10.344075">
        <ele>590.896521</ele>
        <time>2021-03-10T19:44:15.514Z</time>
      </trkpt>
      <trkpt lat="45.683479" lon="10.343886">
        <ele>587.235715</ele>
        <time>2021-03-10T19:44:19.166Z</time>
      </trkpt>
      <trkpt lat="45.682944" lon="10.343924">
        <ele>582.611721</ele>
        <time>2021-03-10T19:44:23.889Z</time>
      </trkpt>
      <trkpt lat="45.682770" lon="10.343831">
        <ele>581.008391</ele>
        <time>2021-03-10T19:44:25.550Z</time>
      </trkpt>
      <trkpt lat="45.682631" lon="10.343851">
        <ele>579.802446</ele>
        <time>2021-03-10T19:44:26.825Z</time>
      </trkpt>
      <trkpt lat="45.682402" lon="10.343990">
        <ele>577.655237</ele>
        <time>2021-03-10T19:44:29.075Z</time>
      </trkpt>
      <trkpt lat="45.682172" lon="10.344021">
        <ele>575.758995</ele>
        <time>2021-03-10T19:44:31.172Z</time>
      </trkpt>
      <trkpt lat="45.681578" lon="10.344356">
        <ele>570.653122</ele>
        <time>2021-03-10T19:44:36.872Z</time>
      </trkpt>
      <trkpt lat="45.681359" lon="10.344648">
        <ele>568.259537</ele>
        <time>2021-03-10T19:44:39.524Z</time>
      </trkpt>
      <trkpt lat="45.681237" lon="10.344832">
        <ele>566.842190</ele>
        <time>2021-03-10T19:44:41.088Z</time>
      </trkpt>
      <trkpt lat="45.680990" lon="10.345687">
        <ele>561.764635</ele>
        <time>2021-03-10T19:44:46.686Z</time>
      </trkpt>
      <trkpt lat="45.680847" lon="10.345859">
        <ele>560.417553</ele>
        <time>2021-03-10T19:44:48.307Z</time>
      </trkpt>
      <trkpt lat="45.680668" lon="10.345966">
        <ele>559.018575</ele>
        <time>2021-03-10T19:44:49.986Z</time>
      </trkpt>
      <trkpt lat="45.680484" lon="10.346033">
        <ele>557.649325</ele>
        <time>2021-03-10T19:44:51.651Z</time>
      </trkpt>
      <trkpt lat="45.680112" lon="10.346122">
        <ele>554.929294</ele>
        <time>2021-03-10T19:44:54.962Z</time>
      </trkpt>
      <trkpt lat="45.679857" lon="10.346262">
        <ele>552.959621</ele>
        <time>2021-03-10T19:44:57.379Z</time>
      </trkpt>
      <trkpt lat="45.679728" lon="10.346291">
        <ele>552.017886</ele>
        <time>2021-03-10T19:44:58.570Z</time>
      </trkpt>
      <trkpt lat="45.679577" lon="10.346222">
        <ele>550.874744</ele>
        <time>2021-03-10T19:45:00.038Z</time>
      </trkpt>
      <trkpt lat="45.679304" lon="10.346000">
        <ele>549.911173</ele>
        <time>2021-03-10T19:45:03.215Z</time>
      </trkpt>
      <trkpt lat="45.678738" lon="10.345727">
        <ele>551.061050</ele>
        <time>2021-03-10T19:45:11.292Z</time>
      </trkpt>
      <trkpt lat="45.678373" lon="10.345783">
        <ele>551.767775</ele>
        <time>2021-03-10T19:45:19.685Z</time>
      </trkpt>
      <trkpt lat="45.678259" lon="10.345736">
        <ele>551.996172</ele>
        <time>2021-03-10T19:45:23.334Z</time>
      </trkpt>
      <trkpt lat="45.678095" lon="10.345488">
        <ele>552.455486</ele>
        <time>2021-03-10T19:45:32.314Z</time>
      </trkpt>
      <trkpt lat="45.677939" lon="10.345177">
        <ele>552.970463</ele>
        <time>2021-03-10T19:45:43.028Z</time>
      </trkpt>
      <trkpt lat="45.677497" lon="10.344644">
        <ele>556.774395</ele>
        <time>2021-03-10T19:46:08.526Z</time>
      </trkpt>
      <trkpt lat="45.677272" lon="10.344434">
        <ele>558.706851</ele>
        <time>2021-03-10T19:46:21.387Z</time>
      </trkpt>
      <trkpt lat="45.676955" lon="10.344302">
        <ele>561.081963</ele>
        <time>2021-03-10T19:46:37.419Z</time>
      </trkpt>
      <trkpt lat="45.676616" lon="10.343859">
        <ele>564.384451</ele>
        <time>2021-03-10T19:46:56.952Z</time>
      </trkpt>
      <trkpt lat="45.676410" lon="10.343686">
        <ele>566.095600</ele>
        <time>2021-03-10T19:47:06.312Z</time>
      </trkpt>
      <trkpt lat="45.676190" lon="10.343428">
        <ele>567.910331</ele>
        <time>2021-03-10T19:47:17.885Z</time>
      </trkpt>
      <trkpt lat="45.675956" lon="10.343393">
        <ele>569.411475</ele>
        <time>2021-03-10T19:47:27.713Z</time>
      </trkpt>
      <trkpt lat="45.675278" lon="10.343442">
        <ele>573.742897</ele>
        <time>2021-03-10T19:47:57.224Z</time>
      </trkpt>
      <trkpt lat="45.675265" lon="10.343443">
        <ele>573.825962</ele>
        <time>2021-03-10T19:47:57.805Z</time>
      </trkpt>
      <trkpt lat="45.675123" lon="10.343294">
        <ele>574.949399</ele>
        <time>2021-03-10T19:48:05.440Z</time>
      </trkpt>
      <trkpt lat="45.674816" lon="10.342717">
        <ele>577.812551</ele>
        <time>2021-03-10T19:48:24.425Z</time>
      </trkpt>
      <trkpt lat="45.674732" lon="10.342583">
        <ele>578.169814</ele>
        <time>2021-03-10T19:48:28.087Z</time>
      </trkpt>
      <trkpt lat="45.674680" lon="10.342564">
        <ele>578.322242</ele>
        <time>2021-03-10T19:48:29.385Z</time>
      </trkpt>
      <trkpt lat="45.674672" lon="10.342506">
        <ele>578.439567</ele>
        <time>2021-03-10T19:48:30.759Z</time>
      </trkpt>
      <trkpt lat="45.674573" lon="10.342306">
        <ele>578.925981</ele>
        <time>2021-03-10T19:48:37.038Z</time>
      </trkpt>
      <trkpt lat="45.674393" lon="10.341617">
        <ele>580.385782</ele>
        <time>2021-03-10T19:48:54.053Z</time>
      </trkpt>
      <trkpt lat="45.674278" lon="10.341403">
        <ele>580.921551</ele>
        <time>2021-03-10T19:49:00.439Z</time>
      </trkpt>
      <trkpt lat="45.674129" lon="10.341259">
        <ele>581.432196</ele>
        <time>2021-03-10T19:49:06.095Z</time>
      </trkpt>
      <trkpt lat="45.673767" lon="10.341133">
        <ele>582.490321</ele>
        <time>2021-03-10T19:49:15.953Z</time>
      </trkpt>
      <trkpt lat="45.673684" lon="10.340954">
        <ele>582.314639</ele>
        <time>2021-03-10T19:49:19.017Z</time>
      </trkpt>
      <trkpt lat="45.673652" lon="10.340782">
        <ele>581.940864</ele>
        <time>2021-03-10T19:49:21.384Z</time>
      </trkpt>
      <trkpt lat="45.673383" lon="10.340274">
        <ele>580.602370</ele>
        <time>2021-03-10T19:49:28.107Z</time>
      </trkpt>
      <trkpt lat="45.673180" lon="10.339909">
        <ele>579.622729</ele>
        <time>2021-03-10T19:49:32.584Z</time>
      </trkpt>
      <trkpt lat="45.673114" lon="10.339835">
        <ele>579.370754</ele>
        <time>2021-03-10T19:49:33.684Z</time>
      </trkpt>
      <trkpt lat="45.672995" lon="10.339662">
        <ele>578.860965</ele>
        <time>2021-03-10T19:49:35.302Z</time>
      </trkpt>
      <trkpt lat="45.672829" lon="10.339609">
        <ele>578.349819</ele>
        <time>2021-03-10T19:49:36.891Z</time>
      </trkpt>
      <trkpt lat="45.672478" lon="10.339618">
        <ele>577.294784</ele>
        <time>2021-03-10T19:49:40.342Z</time>
      </trkpt>
      <trkpt lat="45.672361" lon="10.339585">
        <ele>576.980704</ele>
        <time>2021-03-10T19:49:41.506Z</time>
      </trkpt>
      <trkpt lat="45.671747" lon="10.339312">
        <ele>575.351734</ele>
        <time>2021-03-10T19:49:47.885Z</time>
      </trkpt>
      <trkpt lat="45.670920" lon="10.338993">
        <ele>573.181683</ele>
        <time>2021-03-10T19:49:57.037Z</time>
      </trkpt>
      <trkpt lat="45.670886" lon="10.338978">
        <ele>573.091541</ele>
        <time>2021-03-10T19:49:57.513Z</time>
      </trkpt>
      <trkpt lat="45.670510" lon="10.338809">
        <ele>572.266855</ele>
        <time>2021-03-10T19:50:03.154Z</time>
      </trkpt>
      <trkpt lat="45.670397" lon="10.338696">
        <ele>572.024356</ele>
        <time>2021-03-10T19:50:05.504Z</time>
      </trkpt>
      <trkpt lat="45.670267" lon="10.338443">
        <ele>571.638335</ele>
        <time>2021-03-10T19:50:09.290Z</time>
      </trkpt>
      <trkpt lat="45.669688" lon="10.336804">
        <ele>568.973737</ele>
        <time>2021-03-10T19:50:23.802Z</time>
      </trkpt>
      <trkpt lat="45.669598" lon="10.336597">
        <ele>567.630269</ele>
        <time>2021-03-10T19:50:25.371Z</time>
      </trkpt>
      <trkpt lat="45.669528" lon="10.336552">
        <ele>567.025115</ele>
        <time>2021-03-10T19:50:26.073Z</time>
      </trkpt>
      <trkpt lat="45.669453" lon="10.336549">
        <ele>566.433442</ele>
        <time>2021-03-10T19:50:26.761Z</time>
      </trkpt>
      <trkpt lat="45.669378" lon="10.336574">
        <ele>565.826167</ele>
        <time>2021-03-10T19:50:27.460Z</time>
      </trkpt>
      <trkpt lat="45.669034" lon="10.336859">
        <ele>562.691588</ele>
        <time>2021-03-10T19:50:30.976Z</time>
      </trkpt>
      <trkpt lat="45.668359" lon="10.337573">
        <ele>556.072257</ele>
        <time>2021-03-10T19:50:38.228Z</time>
      </trkpt>
      <trkpt lat="45.668159" lon="10.337703">
        <ele>553.992935</ele>
        <time>2021-03-10T19:50:40.112Z</time>
      </trkpt>
      <trkpt lat="45.667850" lon="10.337775">
        <ele>550.644187</ele>
        <time>2021-03-10T19:50:42.770Z</time>
      </trkpt>
      <trkpt lat="45.667667" lon="10.337672">
        <ele>548.540758</ele>
        <time>2021-03-10T19:50:44.440Z</time>
      </trkpt>
      <trkpt lat="45.667415" lon="10.337385">
        <ele>545.095740</ele>
        <time>2021-03-10T19:50:47.182Z</time>
      </trkpt>
      <trkpt lat="45.666915" lon="10.337268">
        <ele>539.676457</ele>
        <time>2021-03-10T19:50:51.496Z</time>
      </trkpt>
      <trkpt lat="45.666792" lon="10.337267">
        <ele>538.360766</ele>
        <time>2021-03-10T19:50:52.549Z</time>
      </trkpt>
      <trkpt lat="45.666448" lon="10.337365">
        <ele>535.048562</ele>
        <time>2021-03-10T19:50:55.570Z</time>
      </trkpt>
      <trkpt lat="45.666348" lon="10.337428">
        <ele>534.230382</ele>
        <time>2021-03-10T19:50:56.504Z</time>
      </trkpt>
      <trkpt lat="45.666268" lon="10.337523">
        <ele>533.451913</ele>
        <time>2021-03-10T19:50:57.418Z</time>
      </trkpt>
      <trkpt lat="45.666093" lon="10.337898">
        <ele>531.092208</ele>
        <time>2021-03-10T19:51:00.179Z</time>
      </trkpt>
      <trkpt lat="45.665938" lon="10.338107">
        <ele>529.497419</ele>
        <time>2021-03-10T19:51:02.078Z</time>
      </trkpt>
      <trkpt lat="45.665842" lon="10.338162">
        <ele>528.723074</ele>
        <time>2021-03-10T19:51:02.984Z</time>
      </trkpt>
      <trkpt lat="45.665507" lon="10.338217">
        <ele>526.198070</ele>
        <time>2021-03-10T19:51:06.002Z</time>
      </trkpt>
      <trkpt lat="45.665315" lon="10.338164">
        <ele>524.733828</ele>
        <time>2021-03-10T19:51:07.807Z</time>
      </trkpt>
      <trkpt lat="45.665020" lon="10.338007">
        <ele>522.613912</ele>
        <time>2021-03-10T19:51:10.758Z</time>
      </trkpt>
      <trkpt lat="45.664695" lon="10.337768">
        <ele>522.708415</ele>
        <time>2021-03-10T19:51:14.244Z</time>
      </trkpt>
      <trkpt lat="45.664218" lon="10.337610">
        <ele>522.835040</ele>
        <time>2021-03-10T19:51:19.542Z</time>
      </trkpt>
      <trkpt lat="45.663869" lon="10.337361">
        <ele>522.935897</ele>
        <time>2021-03-10T19:51:30.214Z</time>
      </trkpt>
      <trkpt lat="45.663653" lon="10.337242">
        <ele>522.995757</ele>
        <time>2021-03-10T19:51:39.181Z</time>
      </trkpt>
      <trkpt lat="45.663538" lon="10.337227">
        <ele>523.025621</ele>
        <time>2021-03-10T19:51:42.869Z</time>
      </trkpt>
      <trkpt lat="45.663425" lon="10.337255">
        <ele>523.055281</ele>
        <time>2021-03-10T19:51:46.789Z</time>
      </trkpt>
      <trkpt lat="45.663232" lon="10.337402">
        <ele>523.193943</ele>
        <time>2021-03-10T19:51:54.359Z</time>
      </trkpt>
      <trkpt lat="45.663129" lon="10.337435">
        <ele>523.276378</ele>
        <time>2021-03-10T19:51:57.558Z</time>
      </trkpt>
      <trkpt lat="45.663027" lon="10.337424">
        <ele>523.356266</ele>
        <time>2021-03-10T19:52:01.095Z</time>
      </trkpt>
      <trkpt lat="45.662832" lon="10.337262">
        <ele>523.532370</ele>
        <time>2021-03-10T19:52:07.059Z</time>
      </trkpt>
      <trkpt lat="45.662665" lon="10.337046">
        <ele>523.708187</ele>
        <time>2021-03-10T19:52:13.349Z</time>
      </trkpt>
      <trkpt lat="45.662552" lon="10.336992">
        <ele>523.801232</ele>
        <time>2021-03-10T19:52:15.155Z</time>
      </trkpt>
      <trkpt lat="45.662454" lon="10.336997">
        <ele>523.877819</ele>
        <time>2021-03-10T19:52:16.809Z</time>
      </trkpt>
      <trkpt lat="45.662359" lon="10.337021">
        <ele>523.953161</ele>
        <time>2021-03-10T19:52:18.726Z</time>
      </trkpt>
      <trkpt lat="45.662286" lon="10.337129">
        <ele>524.035171</ele>
        <time>2021-03-10T19:52:19.937Z</time>
      </trkpt>
      <trkpt lat="45.662158" lon="10.337437">
        <ele>524.230764</ele>
        <time>2021-03-10T19:52:22.707Z</time>
      </trkpt>
      <trkpt lat="45.662137" lon="10.337600">
        <ele>524.321234</ele>
        <time>2021-03-10T19:52:23.928Z</time>
      </trkpt>
      <trkpt lat="45.662147" lon="10.338058">
        <ele>523.599061</ele>
        <time>2021-03-10T19:52:27.210Z</time>
      </trkpt>
      <trkpt lat="45.661969" lon="10.338584">
        <ele>520.668073</ele>
        <time>2021-03-10T19:52:31.148Z</time>
      </trkpt>
      <trkpt lat="45.661934" lon="10.338910">
        <ele>519.013924</ele>
        <time>2021-03-10T19:52:33.233Z</time>
      </trkpt>
      <trkpt lat="45.661946" lon="10.339080">
        <ele>518.156995</ele>
        <time>2021-03-10T19:52:34.278Z</time>
      </trkpt>
      <trkpt lat="45.662072" lon="10.339458">
        <ele>516.056651</ele>
        <time>2021-03-10T19:52:36.817Z</time>
      </trkpt>
      <trkpt lat="45.662047" lon="10.339699">
        <ele>514.834738</ele>
        <time>2021-03-10T19:52:38.289Z</time>
      </trkpt>
      <trkpt lat="45.661995" lon="10.339799">
        <ele>514.209623</ele>
        <time>2021-03-10T19:52:39.045Z</time>
      </trkpt>
      <trkpt lat="45.661603" lon="10.340389">
        <ele>509.914073</ele>
        <time>2021-03-10T19:52:43.958Z</time>
      </trkpt>
      <trkpt lat="45.661502" lon="10.340502">
        <ele>508.858234</ele>
        <time>2021-03-10T19:52:45.067Z</time>
      </trkpt>
      <trkpt lat="45.661396" lon="10.340603">
        <ele>507.809462</ele>
        <time>2021-03-10T19:52:46.177Z</time>
      </trkpt>
      <trkpt lat="45.661044" lon="10.340790">
        <ele>504.717324</ele>
        <time>2021-03-10T19:52:49.440Z</time>
      </trkpt>
      <trkpt lat="45.660954" lon="10.340885">
        <ele>503.796296</ele>
        <time>2021-03-10T19:52:50.419Z</time>
      </trkpt>
      <trkpt lat="45.660891" lon="10.341008">
        <ele>502.918603</ele>
        <time>2021-03-10T19:52:51.360Z</time>
      </trkpt>
      <trkpt lat="45.660854" lon="10.341152">
        <ele>502.035563</ele>
        <time>2021-03-10T19:52:52.326Z</time>
      </trkpt>
      <trkpt lat="45.660768" lon="10.342042">
        <ele>496.864355</ele>
        <time>2021-03-10T19:52:57.980Z</time>
      </trkpt>
      <trkpt lat="45.660721" lon="10.342197">
        <ele>496.016589</ele>
        <time>2021-03-10T19:52:59.059Z</time>
      </trkpt>
      <trkpt lat="45.660585" lon="10.342455">
        <ele>494.424819</ele>
        <time>2021-03-10T19:53:01.094Z</time>
      </trkpt>
      <trkpt lat="45.659948" lon="10.343055">
        <ele>489.049921</ele>
        <time>2021-03-10T19:53:07.851Z</time>
      </trkpt>
      <trkpt lat="45.659142" lon="10.343528">
        <ele>483.345386</ele>
        <time>2021-03-10T19:53:15.689Z</time>
      </trkpt>
      <trkpt lat="45.658991" lon="10.343705">
        <ele>482.481304</ele>
        <time>2021-03-10T19:53:17.501Z</time>
      </trkpt>
      <trkpt lat="45.658894" lon="10.343656">
        <ele>482.025955</ele>
        <time>2021-03-10T19:53:18.595Z</time>
      </trkpt>
      <trkpt lat="45.658797" lon="10.343702">
        <ele>481.573611</ele>
        <time>2021-03-10T19:53:19.575Z</time>
      </trkpt>
      <trkpt lat="45.658742" lon="10.343825">
        <ele>481.121855</ele>
        <time>2021-03-10T19:53:20.527Z</time>
      </trkpt>
      <trkpt lat="45.658738" lon="10.343899">
        <ele>480.892227</ele>
        <time>2021-03-10T19:53:20.997Z</time>
      </trkpt>
      <trkpt lat="45.658767" lon="10.344009">
        <ele>480.528500</ele>
        <time>2021-03-10T19:53:21.867Z</time>
      </trkpt>
      <trkpt lat="45.658831" lon="10.344082">
        <ele>480.166194</ele>
        <time>2021-03-10T19:53:22.661Z</time>
      </trkpt>
      <trkpt lat="45.658706" lon="10.344237">
        <ele>479.433991</ele>
        <time>2021-03-10T19:53:24.212Z</time>
      </trkpt>
      <trkpt lat="45.658640" lon="10.344275">
        <ele>479.119073</ele>
        <time>2021-03-10T19:53:24.907Z</time>
      </trkpt>
      <trkpt lat="45.658212" lon="10.344254">
        <ele>477.223406</ele>
        <time>2021-03-10T19:53:29.052Z</time>
      </trkpt>
      <trkpt lat="45.658084" lon="10.344300">
        <ele>476.639210</ele>
        <time>2021-03-10T19:53:30.310Z</time>
      </trkpt>
      <trkpt lat="45.656969" lon="10.345426">
        <ele>474.734302</ele>
        <time>2021-03-10T19:53:46.120Z</time>
      </trkpt>
      <trkpt lat="45.656744" lon="10.345545">
        <ele>474.468046</ele>
        <time>2021-03-10T19:53:49.654Z</time>
      </trkpt>
      <trkpt lat="45.656389" lon="10.345538">
        <ele>474.185908</ele>
        <time>2021-03-10T19:53:55.559Z</time>
      </trkpt>
      <trkpt lat="45.656150" lon="10.345570">
        <ele>474.538086</ele>
        <time>2021-03-10T19:53:59.954Z</time>
      </trkpt>
      <trkpt lat="45.655927" lon="10.345736">
        <ele>474.906893</ele>
        <time>2021-03-10T19:54:04.448Z</time>
      </trkpt>
      <trkpt lat="45.655714" lon="10.345834">
        <ele>475.235155</ele>
        <time>2021-03-10T19:54:08.471Z</time>
      </trkpt>
      <trkpt lat="45.655353" lon="10.345815">
        <ele>475.765150</ele>
        <time>2021-03-10T19:54:15.738Z</time>
      </trkpt>
      <trkpt lat="45.655242" lon="10.345838">
        <ele>475.929701</ele>
        <time>2021-03-10T19:54:18.469Z</time>
      </trkpt>
      <trkpt lat="45.655130" lon="10.345891">
        <ele>476.102776</ele>
        <time>2021-03-10T19:54:21.485Z</time>
      </trkpt>
      <trkpt lat="45.654936" lon="10.346073">
        <ele>476.443137</ele>
        <time>2021-03-10T19:54:26.976Z</time>
      </trkpt>
      <trkpt lat="45.654759" lon="10.346225">
        <ele>476.746010</ele>
        <time>2021-03-10T19:54:32.230Z</time>
      </trkpt>
      <trkpt lat="45.654122" lon="10.346633">
        <ele>478.309219</ele>
        <time>2021-03-10T19:54:50.107Z</time>
      </trkpt>
      <trkpt lat="45.654000" lon="10.346744">
        <ele>478.634716</ele>
        <time>2021-03-10T19:54:53.424Z</time>
      </trkpt>
      <trkpt lat="45.653739" lon="10.346862">
        <ele>479.250949</ele>
        <time>2021-03-10T19:55:00.238Z</time>
      </trkpt>
      <trkpt lat="45.653349" lon="10.346987">
        <ele>480.150722</ele>
        <time>2021-03-10T19:55:10.272Z</time>
      </trkpt>
      <trkpt lat="45.653154" lon="10.347102">
        <ele>480.625564</ele>
        <time>2021-03-10T19:55:15.039Z</time>
      </trkpt>
      <trkpt lat="45.652641" lon="10.347763">
        <ele>480.556551</ele>
        <time>2021-03-10T19:55:28.135Z</time>
      </trkpt>
      <trkpt lat="45.652324" lon="10.348092">
        <ele>480.393170</ele>
        <time>2021-03-10T19:55:33.868Z</time>
      </trkpt>
      <trkpt lat="45.652243" lon="10.348137">
        <ele>480.356920</ele>
        <time>2021-03-10T19:55:35.523Z</time>
      </trkpt>
      <trkpt lat="45.652180" lon="10.348218">
        <ele>480.321583</ele>
        <time>2021-03-10T19:55:36.778Z</time>
      </trkpt>
      <trkpt lat="45.651875" lon="10.348998">
        <ele>480.060955</ele>
        <time>2021-03-10T19:55:43.427Z</time>
      </trkpt>
      <trkpt lat="45.651807" lon="10.349112">
        <ele>479.933631</ele>
        <time>2021-03-10T19:55:44.622Z</time>
      </trkpt>
      <trkpt lat="45.651397" lon="10.349565">
        <ele>479.294531</ele>
        <time>2021-03-10T19:55:49.747Z</time>
      </trkpt>
      <trkpt lat="45.651169" lon="10.349640">
        <ele>479.005913</ele>
        <time>2021-03-10T19:55:52.211Z</time>
      </trkpt>
      <trkpt lat="45.651184" lon="10.349859">
        <ele>478.816149</ele>
        <time>2021-03-10T19:55:54.276Z</time>
      </trkpt>
      <trkpt lat="45.651143" lon="10.349961">
        <ele>478.714682</ele>
        <time>2021-03-10T19:55:55.504Z</time>
      </trkpt>
      <trkpt lat="45.651081" lon="10.350067">
        <ele>478.595491</ele>
        <time>2021-03-10T19:55:57.137Z</time>
      </trkpt>
      <trkpt lat="45.650705" lon="10.350489">
        <ele>478.005909</ele>
        <time>2021-03-10T19:56:07.046Z</time>
      </trkpt>
      <trkpt lat="45.650586" lon="10.350693">
        <ele>477.996016</ele>
        <time>2021-03-10T19:56:13.961Z</time>
      </trkpt>
      <trkpt lat="45.650407" lon="10.350902">
        <ele>478.683467</ele>
        <time>2021-03-10T19:56:22.551Z</time>
      </trkpt>
      <trkpt lat="45.650100" lon="10.351277">
        <ele>479.884565</ele>
        <time>2021-03-10T19:56:34.183Z</time>
      </trkpt>
      <trkpt lat="45.649971" lon="10.351470">
        <ele>480.439941</ele>
        <time>2021-03-10T19:56:39.551Z</time>
      </trkpt>
      <trkpt lat="45.649790" lon="10.351618">
        <ele>481.060236</ele>
        <time>2021-03-10T19:56:45.374Z</time>
      </trkpt>
      <trkpt lat="45.649591" lon="10.351621">
        <ele>481.652352</ele>
        <time>2021-03-10T19:56:51.362Z</time>
      </trkpt>
      <trkpt lat="45.649266" lon="10.351544">
        <ele>482.632496</ele>
        <time>2021-03-10T19:56:59.882Z</time>
      </trkpt>
      <trkpt lat="45.649180" lon="10.351568">
        <ele>482.893195</ele>
        <time>2021-03-10T19:57:02.687Z</time>
      </trkpt>
      <trkpt lat="45.649184" lon="10.351843">
        <ele>483.047158</ele>
        <time>2021-03-10T19:57:06.946Z</time>
      </trkpt>
      <trkpt lat="45.649236" lon="10.352038">
        <ele>482.815798</ele>
        <time>2021-03-10T19:57:10.919Z</time>
      </trkpt>
      <trkpt lat="45.649279" lon="10.352109">
        <ele>482.711662</ele>
        <time>2021-03-10T19:57:11.818Z</time>
      </trkpt>
      <trkpt lat="45.649250" lon="10.352180">
        <ele>482.620505</ele>
        <time>2021-03-10T19:57:12.678Z</time>
      </trkpt>
      <trkpt lat="45.649177" lon="10.352676">
        <ele>482.058613</ele>
        <time>2021-03-10T19:57:18.900Z</time>
      </trkpt>
      <trkpt lat="45.649117" lon="10.352840">
        <ele>481.853419</ele>
        <time>2021-03-10T19:57:20.947Z</time>
      </trkpt>
      <trkpt lat="45.648976" lon="10.353030">
        <ele>481.546242</ele>
        <time>2021-03-10T19:57:23.177Z</time>
      </trkpt>
      <trkpt lat="45.648918" lon="10.353153">
        <ele>481.381770</ele>
        <time>2021-03-10T19:57:24.257Z</time>
      </trkpt>
      <trkpt lat="45.648744" lon="10.353973">
        <ele>480.431802</ele>
        <time>2021-03-10T19:57:29.794Z</time>
      </trkpt>
      <trkpt lat="45.648758" lon="10.354059">
        <ele>480.324227</ele>
        <time>2021-03-10T19:57:30.620Z</time>
      </trkpt>
      <trkpt lat="45.648732" lon="10.354464">
        <ele>479.185639</ele>
        <time>2021-03-10T19:57:34.503Z</time>
      </trkpt>
      <trkpt lat="45.648491" lon="10.355109">
        <ele>477.138174</ele>
        <time>2021-03-10T19:57:41.633Z</time>
      </trkpt>
      <trkpt lat="45.648144" lon="10.356203">
        <ele>473.774925</ele>
        <time>2021-03-10T19:57:53.485Z</time>
      </trkpt>
      <trkpt lat="45.648099" lon="10.356280">
        <ele>473.493951</ele>
        <time>2021-03-10T19:57:54.496Z</time>
      </trkpt>
      <trkpt lat="45.647962" lon="10.356436">
        <ele>472.754857</ele>
        <time>2021-03-10T19:57:56.408Z</time>
      </trkpt>
      <trkpt lat="45.647846" lon="10.356525">
        <ele>472.169789</ele>
        <time>2021-03-10T19:57:57.828Z</time>
      </trkpt>
      <trkpt lat="45.647828" lon="10.356606">
        <ele>471.905699</ele>
        <time>2021-03-10T19:57:58.434Z</time>
      </trkpt>
      <trkpt lat="45.647887" lon="10.356776">
        <ele>471.315968</ele>
        <time>2021-03-10T19:57:59.808Z</time>
      </trkpt>
      <trkpt lat="45.647878" lon="10.357072">
        <ele>470.395380</ele>
        <time>2021-03-10T19:58:01.970Z</time>
      </trkpt>
      <trkpt lat="45.647897" lon="10.357228">
        <ele>469.903362</ele>
        <time>2021-03-10T19:58:03.049Z</time>
      </trkpt>
      <trkpt lat="45.647623" lon="10.357377">
        <ele>468.600476</ele>
        <time>2021-03-10T19:58:05.932Z</time>
      </trkpt>
      <trkpt lat="45.647392" lon="10.357649">
        <ele>467.270641</ele>
        <time>2021-03-10T19:58:08.757Z</time>
      </trkpt>
      <trkpt lat="45.647306" lon="10.357822">
        <ele>466.611046</ele>
        <time>2021-03-10T19:58:10.119Z</time>
      </trkpt>
      <trkpt lat="45.647215" lon="10.358103">
        <ele>465.648790</ele>
        <time>2021-03-10T19:58:12.114Z</time>
      </trkpt>
      <trkpt lat="45.647115" lon="10.358804">
        <ele>462.571534</ele>
        <time>2021-03-10T19:58:16.591Z</time>
      </trkpt>
      <trkpt lat="45.647318" lon="10.359488">
        <ele>459.113838</ele>
        <time>2021-03-10T19:58:21.336Z</time>
      </trkpt>
      <trkpt lat="45.647347" lon="10.359640">
        <ele>458.380694</ele>
        <time>2021-03-10T19:58:22.340Z</time>
      </trkpt>
      <trkpt lat="45.647348" lon="10.359895">
        <ele>457.194125</ele>
        <time>2021-03-10T19:58:23.935Z</time>
      </trkpt>
      <trkpt lat="45.647284" lon="10.360173">
        <ele>455.832214</ele>
        <time>2021-03-10T19:58:25.783Z</time>
      </trkpt>
      <trkpt lat="45.647145" lon="10.360570">
        <ele>453.766174</ele>
        <time>2021-03-10T19:58:28.554Z</time>
      </trkpt>
      <trkpt lat="45.647016" lon="10.360772">
        <ele>452.634256</ele>
        <time>2021-03-10T19:58:30.269Z</time>
      </trkpt>
      <trkpt lat="45.646800" lon="10.360970">
        <ele>451.282452</ele>
        <time>2021-03-10T19:58:32.583Z</time>
      </trkpt>
      <trkpt lat="45.646529" lon="10.361222">
        <ele>449.579279</ele>
        <time>2021-03-10T19:58:35.501Z</time>
      </trkpt>
      <trkpt lat="45.645869" lon="10.361826">
        <ele>445.450740</ele>
        <time>2021-03-10T19:58:42.839Z</time>
      </trkpt>
      <trkpt lat="45.645497" lon="10.362235">
        <ele>443.347291</ele>
        <time>2021-03-10T19:58:47.697Z</time>
      </trkpt>
      <trkpt lat="45.645356" lon="10.362485">
        <ele>442.774739</ele>
        <time>2021-03-10T19:58:50.127Z</time>
      </trkpt>
      <trkpt lat="45.645107" lon="10.363065">
        <ele>441.561535</ele>
        <time>2021-03-10T19:58:55.250Z</time>
      </trkpt>
      <trkpt lat="45.644928" lon="10.363125">
        <ele>441.092781</ele>
        <time>2021-03-10T19:58:57.274Z</time>
      </trkpt>
      <trkpt lat="45.644618" lon="10.363055">
        <ele>440.292597</ele>
        <time>2021-03-10T19:59:00.743Z</time>
      </trkpt>
      <trkpt lat="45.644510" lon="10.363060">
        <ele>440.017088</ele>
        <time>2021-03-10T19:59:01.926Z</time>
      </trkpt>
      <trkpt lat="45.644355" lon="10.363237">
        <ele>439.511398</ele>
        <time>2021-03-10T19:59:04.151Z</time>
      </trkpt>
      <trkpt lat="45.644265" lon="10.363513">
        <ele>438.877449</ele>
        <time>2021-03-10T19:59:06.551Z</time>
      </trkpt>
      <trkpt lat="45.644138" lon="10.364200">
        <ele>436.778251</ele>
        <time>2021-03-10T19:59:11.269Z</time>
      </trkpt>
      <trkpt lat="45.644092" lon="10.364343">
        <ele>436.313246</ele>
        <time>2021-03-10T19:59:12.371Z</time>
      </trkpt>
      <trkpt lat="45.644018" lon="10.364462">
        <ele>435.842769</ele>
        <time>2021-03-10T19:59:13.443Z</time>
      </trkpt>
      <trkpt lat="45.643928" lon="10.364548">
        <ele>435.385425</ele>
        <time>2021-03-10T19:59:14.456Z</time>
      </trkpt>
      <trkpt lat="45.643742" lon="10.364662">
        <ele>434.530377</ele>
        <time>2021-03-10T19:59:16.477Z</time>
      </trkpt>
      <trkpt lat="45.643673" lon="10.364765">
        <ele>434.108966</ele>
        <time>2021-03-10T19:59:17.427Z</time>
      </trkpt>
      <trkpt lat="45.643632" lon="10.364893">
        <ele>433.693044</ele>
        <time>2021-03-10T19:59:18.341Z</time>
      </trkpt>
      <trkpt lat="45.643615" lon="10.365032">
        <ele>433.276188</ele>
        <time>2021-03-10T19:59:19.361Z</time>
      </trkpt>
      <trkpt lat="45.643632" lon="10.365307">
        <ele>432.460640</ele>
        <time>2021-03-10T19:59:21.184Z</time>
      </trkpt>
      <trkpt lat="45.643692" lon="10.365547">
        <ele>431.707689</ele>
        <time>2021-03-10T19:59:22.892Z</time>
      </trkpt>
      <trkpt lat="45.643786" lon="10.365762">
        <ele>431.002882</ele>
        <time>2021-03-10T19:59:24.534Z</time>
      </trkpt>
      <trkpt lat="45.643771" lon="10.365860">
        <ele>430.730459</ele>
        <time>2021-03-10T19:59:25.163Z</time>
      </trkpt>
      <trkpt lat="45.643719" lon="10.365947">
        <ele>430.419638</ele>
        <time>2021-03-10T19:59:25.946Z</time>
      </trkpt>
      <trkpt lat="45.643192" lon="10.366340">
        <ele>428.111169</ele>
        <time>2021-03-10T19:59:31.432Z</time>
      </trkpt>
      <trkpt lat="45.642806" lon="10.366672">
        <ele>426.361676</ele>
        <time>2021-03-10T19:59:35.756Z</time>
      </trkpt>
      <trkpt lat="45.642712" lon="10.366854">
        <ele>425.747205</ele>
        <time>2021-03-10T19:59:37.499Z</time>
      </trkpt>
      <trkpt lat="45.642367" lon="10.367734">
        <ele>423.258645</ele>
        <time>2021-03-10T19:59:47.468Z</time>
      </trkpt>
      <trkpt lat="45.642048" lon="10.368339">
        <ele>421.542466</ele>
        <time>2021-03-10T19:59:53.258Z</time>
      </trkpt>
      <trkpt lat="45.641944" lon="10.368639">
        <ele>420.784091</ele>
        <time>2021-03-10T19:59:55.676Z</time>
      </trkpt>
      <trkpt lat="45.641600" lon="10.370696">
        <ele>413.058725</ele>
        <time>2021-03-10T20:00:09.295Z</time>
      </trkpt>
      <trkpt lat="45.641487" lon="10.371064">
        <ele>411.158918</ele>
        <time>2021-03-10T20:00:11.773Z</time>
      </trkpt>
      <trkpt lat="45.641224" lon="10.371658">
        <ele>407.835577</ele>
        <time>2021-03-10T20:00:16.114Z</time>
      </trkpt>
      <trkpt lat="45.640920" lon="10.372171">
        <ele>405.267785</ele>
        <time>2021-03-10T20:00:20.325Z</time>
      </trkpt>
      <trkpt lat="45.640570" lon="10.372691">
        <ele>402.966213</ele>
        <time>2021-03-10T20:00:24.951Z</time>
      </trkpt>
      <trkpt lat="45.640182" lon="10.373166">
        <ele>400.636979</ele>
        <time>2021-03-10T20:00:29.924Z</time>
      </trkpt>
      <trkpt lat="45.639955" lon="10.373522">
        <ele>399.100621</ele>
        <time>2021-03-10T20:00:33.517Z</time>
      </trkpt>
      <trkpt lat="45.639703" lon="10.373760">
        <ele>398.348820</ele>
        <time>2021-03-10T20:00:36.884Z</time>
      </trkpt>
      <trkpt lat="45.639267" lon="10.373866">
        <ele>398.407721</ele>
        <time>2021-03-10T20:00:42.106Z</time>
      </trkpt>
      <trkpt lat="45.638765" lon="10.373850">
        <ele>398.474594</ele>
        <time>2021-03-10T20:00:49.499Z</time>
      </trkpt>
      <trkpt lat="45.638723" lon="10.373864">
        <ele>398.480338</ele>
        <time>2021-03-10T20:00:50.280Z</time>
      </trkpt>
      <trkpt lat="45.638669" lon="10.374010">
        <ele>398.495718</ele>
        <time>2021-03-10T20:00:52.475Z</time>
      </trkpt>
      <trkpt lat="45.638337" lon="10.373924">
        <ele>398.540654</ele>
        <time>2021-03-10T20:00:59.328Z</time>
      </trkpt>
      <trkpt lat="45.637757" lon="10.373952">
        <ele>399.730970</ele>
        <time>2021-03-10T20:01:13.111Z</time>
      </trkpt>
      <trkpt lat="45.636766" lon="10.374020">
        <ele>402.970916</ele>
        <time>2021-03-10T20:01:42.360Z</time>
      </trkpt>
      <trkpt lat="45.635055" lon="10.374325">
        <ele>408.994756</ele>
        <time>2021-03-10T20:02:33.139Z</time>
      </trkpt>
      <trkpt lat="45.634985" lon="10.374337">
        <ele>409.246757</ele>
        <time>2021-03-10T20:02:34.517Z</time>
      </trkpt>
      <trkpt lat="45.633445" lon="10.374631">
        <ele>412.487187</ele>
        <time>2021-03-10T20:03:20.232Z</time>
      </trkpt>
      <trkpt lat="45.633203" lon="10.374659">
        <ele>412.843837</ele>
        <time>2021-03-10T20:03:23.628Z</time>
      </trkpt>
      <trkpt lat="45.632888" lon="10.374640">
        <ele>413.306972</ele>
        <time>2021-03-10T20:03:26.884Z</time>
      </trkpt>
      <trkpt lat="45.632765" lon="10.374602">
        <ele>413.491822</ele>
        <time>2021-03-10T20:03:28.136Z</time>
      </trkpt>
      <trkpt lat="45.632306" lon="10.374304">
        <ele>413.627953</ele>
        <time>2021-03-10T20:03:33.735Z</time>
      </trkpt>
      <trkpt lat="45.631688" lon="10.373858">
        <ele>413.787413</ele>
        <time>2021-03-10T20:03:42.515Z</time>
      </trkpt>
      <trkpt lat="45.631536" lon="10.373762">
        <ele>413.825690</ele>
        <time>2021-03-10T20:03:44.461Z</time>
      </trkpt>
      <trkpt lat="45.631452" lon="10.373754">
        <ele>413.845082</ele>
        <time>2021-03-10T20:03:45.713Z</time>
      </trkpt>
      <trkpt lat="45.631220" lon="10.373812">
        <ele>413.899335</ele>
        <time>2021-03-10T20:03:49.759Z</time>
      </trkpt>
      <trkpt lat="45.630439" lon="10.374313">
        <ele>422.209117</ele>
        <time>2021-03-10T20:04:25.236Z</time>
      </trkpt>
      <trkpt lat="45.630049" lon="10.374629">
        <ele>427.339551</ele>
        <time>2021-03-10T20:04:58.779Z</time>
      </trkpt>
      <trkpt lat="45.629902" lon="10.374633">
        <ele>429.022333</ele>
        <time>2021-03-10T20:05:10.940Z</time>
      </trkpt>
      <trkpt lat="45.629695" lon="10.374433">
        <ele>431.881614</ele>
        <time>2021-03-10T20:05:31.927Z</time>
      </trkpt>
      <trkpt lat="45.629327" lon="10.373986">
        <ele>437.601993</ele>
        <time>2021-03-10T20:06:10.683Z</time>
      </trkpt>
      <trkpt lat="45.629117" lon="10.373805">
        <ele>440.596706</ele>
        <time>2021-03-10T20:06:29.515Z</time>
      </trkpt>
      <trkpt lat="45.628156" lon="10.373239">
        <ele>453.290519</ele>
        <time>2021-03-10T20:07:35.768Z</time>
      </trkpt>
      <trkpt lat="45.627906" lon="10.373023">
        <ele>456.704622</ele>
        <time>2021-03-10T20:07:48.907Z</time>
      </trkpt>
      <trkpt lat="45.627563" lon="10.372733">
        <ele>459.575590</ele>
        <time>2021-03-10T20:08:04.585Z</time>
      </trkpt>
      <trkpt lat="45.627343" lon="10.372499">
        <ele>461.551104</ele>
        <time>2021-03-10T20:08:14.032Z</time>
      </trkpt>
      <trkpt lat="45.627173" lon="10.372219">
        <ele>463.419432</ele>
        <time>2021-03-10T20:08:23.018Z</time>
      </trkpt>
      <trkpt lat="45.627007" lon="10.371835">
        <ele>465.694092</ele>
        <time>2021-03-10T20:08:36.619Z</time>
      </trkpt>
      <trkpt lat="45.626815" lon="10.371304">
        <ele>468.706086</ele>
        <time>2021-03-10T20:08:57.071Z</time>
      </trkpt>
      <trkpt lat="45.626755" lon="10.371117">
        <ele>469.759191</ele>
        <time>2021-03-10T20:09:04.649Z</time>
      </trkpt>
      <trkpt lat="45.626597" lon="10.370404">
        <ele>473.734615</ele>
        <time>2021-03-10T20:09:30.046Z</time>
      </trkpt>
      <trkpt lat="45.626498" lon="10.370297">
        <ele>474.677805</ele>
        <time>2021-03-10T20:09:35.982Z</time>
      </trkpt>
      <trkpt lat="45.626420" lon="10.370273">
        <ele>475.284203</ele>
        <time>2021-03-10T20:09:39.991Z</time>
      </trkpt>
      <trkpt lat="45.626303" lon="10.370286">
        <ele>476.176127</ele>
        <time>2021-03-10T20:09:45.011Z</time>
      </trkpt>
      <trkpt lat="45.626202" lon="10.370361">
        <ele>477.041101</ele>
        <time>2021-03-10T20:09:50.215Z</time>
      </trkpt>
      <trkpt lat="45.626138" lon="10.370496">
        <ele>477.907987</ele>
        <time>2021-03-10T20:09:55.497Z</time>
      </trkpt>
      <trkpt lat="45.626131" lon="10.370602">
        <ele>478.473907</ele>
        <time>2021-03-10T20:09:58.736Z</time>
      </trkpt>
      <trkpt lat="45.626217" lon="10.371029">
        <ele>480.835750</ele>
        <time>2021-03-10T20:10:12.236Z</time>
      </trkpt>
      <trkpt lat="45.626530" lon="10.372190">
        <ele>485.278408</ele>
        <time>2021-03-10T20:10:47.848Z</time>
      </trkpt>
      <trkpt lat="45.626573" lon="10.372391">
        <ele>485.836232</ele>
        <time>2021-03-10T20:10:52.440Z</time>
      </trkpt>
      <trkpt lat="45.626582" lon="10.372555">
        <ele>486.272801</ele>
        <time>2021-03-10T20:10:55.214Z</time>
      </trkpt>
      <trkpt lat="45.626558" lon="10.372746">
        <ele>486.787804</ele>
        <time>2021-03-10T20:10:57.707Z</time>
      </trkpt>
      <trkpt lat="45.626502" lon="10.372911">
        <ele>487.274532</ele>
        <time>2021-03-10T20:11:00.131Z</time>
      </trkpt>
      <trkpt lat="45.626297" lon="10.373228">
        <ele>488.420365</ele>
        <time>2021-03-10T20:11:05.069Z</time>
      </trkpt>
      <trkpt lat="45.626233" lon="10.373375">
        <ele>488.879905</ele>
        <time>2021-03-10T20:11:07.528Z</time>
      </trkpt>
      <trkpt lat="45.626213" lon="10.373471">
        <ele>489.145741</ele>
        <time>2021-03-10T20:11:09.096Z</time>
      </trkpt>
      <trkpt lat="45.626219" lon="10.373611">
        <ele>489.517979</ele>
        <time>2021-03-10T20:11:11.260Z</time>
      </trkpt>
      <trkpt lat="45.626264" lon="10.373753">
        <ele>489.931714</ele>
        <time>2021-03-10T20:11:13.838Z</time>
      </trkpt>
      <trkpt lat="45.626306" lon="10.373803">
        <ele>490.172825</ele>
        <time>2021-03-10T20:11:15.660Z</time>
      </trkpt>
      <trkpt lat="45.626444" lon="10.373876">
        <ele>490.825348</ele>
        <time>2021-03-10T20:11:20.587Z</time>
      </trkpt>
      <trkpt lat="45.626548" lon="10.373859">
        <ele>491.289561</ele>
        <time>2021-03-10T20:11:24.563Z</time>
      </trkpt>
      <trkpt lat="45.626820" lon="10.373726">
        <ele>492.564375</ele>
        <time>2021-03-10T20:11:37.032Z</time>
      </trkpt>
      <trkpt lat="45.626958" lon="10.373713">
        <ele>493.177691</ele>
        <time>2021-03-10T20:11:42.803Z</time>
      </trkpt>
      <trkpt lat="45.627076" lon="10.373752">
        <ele>493.714782</ele>
        <time>2021-03-10T20:11:47.497Z</time>
      </trkpt>
      <trkpt lat="45.627261" lon="10.373961">
        <ele>494.760352</ele>
        <time>2021-03-10T20:11:55.076Z</time>
      </trkpt>
      <trkpt lat="45.627427" lon="10.374358">
        <ele>496.194860</ele>
        <time>2021-03-10T20:12:04.440Z</time>
      </trkpt>
      <trkpt lat="45.627504" lon="10.374650">
        <ele>497.162676</ele>
        <time>2021-03-10T20:12:09.864Z</time>
      </trkpt>
      <trkpt lat="45.627448" lon="10.374848">
        <ele>497.825048</ele>
        <time>2021-03-10T20:12:14.280Z</time>
      </trkpt>
      <trkpt lat="45.627330" lon="10.374980">
        <ele>498.752037</ele>
        <time>2021-03-10T20:12:18.436Z</time>
      </trkpt>
      <trkpt lat="45.627219" lon="10.375002">
        <ele>499.476392</ele>
        <time>2021-03-10T20:12:22.204Z</time>
      </trkpt>
      <trkpt lat="45.627132" lon="10.374972">
        <ele>500.054874</ele>
        <time>2021-03-10T20:12:25.602Z</time>
      </trkpt>
      <trkpt lat="45.627015" lon="10.374833">
        <ele>501.038115</ele>
        <time>2021-03-10T20:12:31.092Z</time>
      </trkpt>
      <trkpt lat="45.626774" lon="10.374456">
        <ele>503.347019</ele>
        <time>2021-03-10T20:12:46.569Z</time>
      </trkpt>
      <trkpt lat="45.626611" lon="10.374323">
        <ele>504.560105</ele>
        <time>2021-03-10T20:12:55.913Z</time>
      </trkpt>
      <trkpt lat="45.626416" lon="10.374286">
        <ele>505.831620</ele>
        <time>2021-03-10T20:13:04.937Z</time>
      </trkpt>
      <trkpt lat="45.626259" lon="10.374334">
        <ele>506.869394</ele>
        <time>2021-03-10T20:13:12.971Z</time>
      </trkpt>
      <trkpt lat="45.626131" lon="10.374437">
        <ele>507.818791</ele>
        <time>2021-03-10T20:13:19.218Z</time>
      </trkpt>
      <trkpt lat="45.626013" lon="10.374592">
        <ele>508.854513</ele>
        <time>2021-03-10T20:13:26.016Z</time>
      </trkpt>
      <trkpt lat="45.624989" lon="10.376008">
        <ele>516.939796</ele>
        <time>2021-03-10T20:14:24.247Z</time>
      </trkpt>
      <trkpt lat="45.624898" lon="10.376077">
        <ele>517.517877</ele>
        <time>2021-03-10T20:14:28.326Z</time>
      </trkpt>
      <trkpt lat="45.624798" lon="10.376091">
        <ele>518.081788</ele>
        <time>2021-03-10T20:14:31.800Z</time>
      </trkpt>
      <trkpt lat="45.624683" lon="10.376049">
        <ele>518.747920</ele>
        <time>2021-03-10T20:14:35.225Z</time>
      </trkpt>
      <trkpt lat="45.624576" lon="10.375946">
        <ele>519.471835</ele>
        <time>2021-03-10T20:14:39.146Z</time>
      </trkpt>
      <trkpt lat="45.624506" lon="10.375790">
        <ele>519.672412</ele>
        <time>2021-03-10T20:14:42.506Z</time>
      </trkpt>
      <trkpt lat="45.624500" lon="10.375721">
        <ele>519.689890</ele>
        <time>2021-03-10T20:14:43.449Z</time>
      </trkpt>
      <trkpt lat="45.624500" lon="10.375516">
        <ele>519.741424</ele>
        <time>2021-03-10T20:14:46.451Z</time>
      </trkpt>
      <trkpt lat="45.624620" lon="10.374916">
        <ele>519.898299</ele>
        <time>2021-03-10T20:14:53.648Z</time>
      </trkpt>
      <trkpt lat="45.624712" lon="10.374645">
        <ele>519.974025</ele>
        <time>2021-03-10T20:14:56.395Z</time>
      </trkpt>
      <trkpt lat="45.624880" lon="10.374281">
        <ele>520.083658</ele>
        <time>2021-03-10T20:15:00.584Z</time>
      </trkpt>
      <trkpt lat="45.625377" lon="10.373531">
        <ele>520.518623</ele>
        <time>2021-03-10T20:15:08.924Z</time>
      </trkpt>
      <trkpt lat="45.625471" lon="10.373309">
        <ele>520.772769</ele>
        <time>2021-03-10T20:15:11.491Z</time>
      </trkpt>
      <trkpt lat="45.625553" lon="10.372898">
        <ele>521.191318</ele>
        <time>2021-03-10T20:15:16.017Z</time>
      </trkpt>
      <trkpt lat="45.625551" lon="10.372608">
        <ele>521.475327</ele>
        <time>2021-03-10T20:15:18.936Z</time>
      </trkpt>
      <trkpt lat="45.625508" lon="10.372338">
        <ele>521.746505</ele>
        <time>2021-03-10T20:15:22.589Z</time>
      </trkpt>
      <trkpt lat="45.624962" lon="10.371084">
        <ele>524.571318</ele>
        <time>2021-03-10T20:15:51.546Z</time>
      </trkpt>
      <trkpt lat="45.624859" lon="10.370907">
        <ele>525.590457</ele>
        <time>2021-03-10T20:15:57.519Z</time>
      </trkpt>
      <trkpt lat="45.624780" lon="10.370817">
        <ele>526.229711</ele>
        <time>2021-03-10T20:16:01.561Z</time>
      </trkpt>
      <trkpt lat="45.624601" lon="10.370715">
        <ele>527.449197</ele>
        <time>2021-03-10T20:16:09.588Z</time>
      </trkpt>
      <trkpt lat="45.624492" lon="10.370692">
        <ele>528.146499</ele>
        <time>2021-03-10T20:16:13.862Z</time>
      </trkpt>
      <trkpt lat="45.624278" lon="10.370755">
        <ele>529.529255</ele>
        <time>2021-03-10T20:16:23.142Z</time>
      </trkpt>
      <trkpt lat="45.624133" lon="10.370897">
        <ele>530.641516</ele>
        <time>2021-03-10T20:16:30.653Z</time>
      </trkpt>
      <trkpt lat="45.623498" lon="10.371919">
        <ele>536.252738</ele>
        <time>2021-03-10T20:17:15.316Z</time>
      </trkpt>
      <trkpt lat="45.623398" lon="10.372013">
        <ele>536.877358</ele>
        <time>2021-03-10T20:17:21.129Z</time>
      </trkpt>
      <trkpt lat="45.623249" lon="10.372074">
        <ele>537.686291</ele>
        <time>2021-03-10T20:17:29.122Z</time>
      </trkpt>
      <trkpt lat="45.622932" lon="10.372059">
        <ele>539.341732</ele>
        <time>2021-03-10T20:17:44.070Z</time>
      </trkpt>
      <trkpt lat="45.622784" lon="10.372108">
        <ele>540.134634</ele>
        <time>2021-03-10T20:17:50.652Z</time>
      </trkpt>
      <trkpt lat="45.622332" lon="10.372515">
        <ele>542.922612</ele>
        <time>2021-03-10T20:18:06.693Z</time>
      </trkpt>
      <trkpt lat="45.622218" lon="10.372573">
        <ele>543.554164</ele>
        <time>2021-03-10T20:18:08.221Z</time>
      </trkpt>
      <trkpt lat="45.621991" lon="10.372569">
        <ele>542.366590</ele>
        <time>2021-03-10T20:18:10.495Z</time>
      </trkpt>
      <trkpt lat="45.621830" lon="10.372457">
        <ele>541.400728</ele>
        <time>2021-03-10T20:18:12.224Z</time>
      </trkpt>
      <trkpt lat="45.621158" lon="10.371822">
        <ele>537.055449</ele>
        <time>2021-03-10T20:18:19.502Z</time>
      </trkpt>
      <trkpt lat="45.621066" lon="10.371722">
        <ele>536.432021</ele>
        <time>2021-03-10T20:18:20.506Z</time>
      </trkpt>
      <trkpt lat="45.620892" lon="10.371432">
        <ele>534.990410</ele>
        <time>2021-03-10T20:18:22.903Z</time>
      </trkpt>
      <trkpt lat="45.620868" lon="10.371323">
        <ele>534.559260</ele>
        <time>2021-03-10T20:18:23.603Z</time>
      </trkpt>
      <trkpt lat="45.620838" lon="10.371082">
        <ele>533.641084</ele>
        <time>2021-03-10T20:18:25.139Z</time>
      </trkpt>
      <trkpt lat="45.620836" lon="10.370195">
        <ele>530.371692</ele>
        <time>2021-03-10T20:18:30.718Z</time>
      </trkpt>
      <trkpt lat="45.620835" lon="10.369323">
        <ele>527.157600</ele>
        <time>2021-03-10T20:18:36.292Z</time>
      </trkpt>
      <trkpt lat="45.620851" lon="10.369247">
        <ele>526.865057</ele>
        <time>2021-03-10T20:18:36.814Z</time>
      </trkpt>
      <trkpt lat="45.621081" lon="10.368815">
        <ele>524.863904</ele>
        <time>2021-03-10T20:18:40.588Z</time>
      </trkpt>
      <trkpt lat="45.621121" lon="10.368680">
        <ele>524.443303</ele>
        <time>2021-03-10T20:18:41.605Z</time>
      </trkpt>
      <trkpt lat="45.621122" lon="10.368545">
        <ele>524.833745</ele>
        <time>2021-03-10T20:18:42.671Z</time>
      </trkpt>
      <trkpt lat="45.621048" lon="10.368016">
        <ele>526.393917</ele>
        <time>2021-03-10T20:18:48.712Z</time>
      </trkpt>
      <trkpt lat="45.620995" lon="10.367830">
        <ele>526.974761</ele>
        <time>2021-03-10T20:18:52.533Z</time>
      </trkpt>
      <trkpt lat="45.620866" lon="10.367698">
        <ele>527.630702</ele>
        <time>2021-03-10T20:18:56.179Z</time>
      </trkpt>
      <trkpt lat="45.620518" lon="10.367558">
        <ele>529.125552</ele>
        <time>2021-03-10T20:19:08.224Z</time>
      </trkpt>
      <trkpt lat="45.620299" lon="10.367410">
        <ele>530.127172</ele>
        <time>2021-03-10T20:19:18.426Z</time>
      </trkpt>
      <trkpt lat="45.620190" lon="10.367267">
        <ele>530.738872</ele>
        <time>2021-03-10T20:19:24.778Z</time>
      </trkpt>
      <trkpt lat="45.619360" lon="10.365805">
        <ele>541.846400</ele>
        <time>2021-03-10T20:20:42.842Z</time>
      </trkpt>
      <trkpt lat="45.619192" lon="10.365562">
        <ele>544.118746</ele>
        <time>2021-03-10T20:20:58.756Z</time>
      </trkpt>
      <trkpt lat="45.619067" lon="10.365584">
        <ele>545.316294</ele>
        <time>2021-03-10T20:21:06.668Z</time>
      </trkpt>
      <trkpt lat="45.619016" lon="10.365627">
        <ele>545.879274</ele>
        <time>2021-03-10T20:21:10.252Z</time>
      </trkpt>
      <trkpt lat="45.618655" lon="10.366185">
        <ele>549.079980</ele>
        <time>2021-03-10T20:21:31.761Z</time>
      </trkpt>
      <trkpt lat="45.618280" lon="10.366540">
        <ele>549.398814</ele>
        <time>2021-03-10T20:21:38.623Z</time>
      </trkpt>
      <trkpt lat="45.617972" lon="10.367035">
        <ele>549.727317</ele>
        <time>2021-03-10T20:21:43.648Z</time>
      </trkpt>
      <trkpt lat="45.617729" lon="10.367584">
        <ele>550.049461</ele>
        <time>2021-03-10T20:21:48.520Z</time>
      </trkpt>
      <trkpt lat="45.617600" lon="10.367717">
        <ele>550.162208</ele>
        <time>2021-03-10T20:21:50.562Z</time>
      </trkpt>
      <trkpt lat="45.617490" lon="10.367776">
        <ele>550.398348</ele>
        <time>2021-03-10T20:21:52.605Z</time>
      </trkpt>
      <trkpt lat="45.617355" lon="10.367797">
        <ele>550.863998</ele>
        <time>2021-03-10T20:21:55.054Z</time>
      </trkpt>
      <trkpt lat="45.617264" lon="10.367765">
        <ele>551.185339</ele>
        <time>2021-03-10T20:21:57.478Z</time>
      </trkpt>
      <trkpt lat="45.617193" lon="10.367717">
        <ele>551.454647</ele>
        <time>2021-03-10T20:21:59.310Z</time>
      </trkpt>
      <trkpt lat="45.617041" lon="10.367494">
        <ele>552.201457</ele>
        <time>2021-03-10T20:22:02.698Z</time>
      </trkpt>
      <trkpt lat="45.616765" lon="10.366917">
        <ele>553.878020</ele>
        <time>2021-03-10T20:22:13.202Z</time>
      </trkpt>
      <trkpt lat="45.616512" lon="10.366199">
        <ele>555.806286</ele>
        <time>2021-03-10T20:22:35.396Z</time>
      </trkpt>
      <trkpt lat="45.616436" lon="10.366087">
        <ele>556.180553</ele>
        <time>2021-03-10T20:22:41.110Z</time>
      </trkpt>
      <trkpt lat="45.616399" lon="10.366077">
        <ele>556.309674</ele>
        <time>2021-03-10T20:22:43.278Z</time>
      </trkpt>
      <trkpt lat="45.616288" lon="10.366096">
        <ele>556.611725</ele>
        <time>2021-03-10T20:22:49.929Z</time>
      </trkpt>
      <trkpt lat="45.616262" lon="10.366116">
        <ele>556.687229</ele>
        <time>2021-03-10T20:22:51.384Z</time>
      </trkpt>
      <trkpt lat="45.616168" lon="10.366269">
        <ele>557.051492</ele>
        <time>2021-03-10T20:22:57.464Z</time>
      </trkpt>
      <trkpt lat="45.616021" lon="10.366614">
        <ele>557.774098</ele>
        <time>2021-03-10T20:23:11.375Z</time>
      </trkpt>
      <trkpt lat="45.615886" lon="10.366775">
        <ele>558.223686</ele>
        <time>2021-03-10T20:23:18.442Z</time>
      </trkpt>
      <trkpt lat="45.615660" lon="10.366891">
        <ele>558.837762</ele>
        <time>2021-03-10T20:23:25.086Z</time>
      </trkpt>
      <trkpt lat="45.615438" lon="10.366930">
        <ele>559.409759</ele>
        <time>2021-03-10T20:23:30.049Z</time>
      </trkpt>
      <trkpt lat="45.615147" lon="10.366961">
        <ele>560.156006</ele>
        <time>2021-03-10T20:23:33.102Z</time>
      </trkpt>
      <trkpt lat="45.615042" lon="10.366939">
        <ele>560.427394</ele>
        <time>2021-03-10T20:23:34.086Z</time>
      </trkpt>
      <trkpt lat="45.614935" lon="10.366855">
        <ele>560.739569</ele>
        <time>2021-03-10T20:23:35.187Z</time>
      </trkpt>
      <trkpt lat="45.614801" lon="10.366610">
        <ele>561.014594</ele>
        <time>2021-03-10T20:23:37.339Z</time>
      </trkpt>
      <trkpt lat="45.614755" lon="10.366429">
        <ele>561.058997</ele>
        <time>2021-03-10T20:23:38.651Z</time>
      </trkpt>
      <trkpt lat="45.614771" lon="10.365823">
        <ele>561.198825</ele>
        <time>2021-03-10T20:23:44.059Z</time>
      </trkpt>
      <trkpt lat="45.614665" lon="10.365601">
        <ele>561.260802</ele>
        <time>2021-03-10T20:23:47.424Z</time>
      </trkpt>
      <trkpt lat="45.614283" lon="10.365093">
        <ele>561.432779</ele>
        <time>2021-03-10T20:23:57.100Z</time>
      </trkpt>
      <trkpt lat="45.614183" lon="10.364798">
        <ele>561.508366</ele>
        <time>2021-03-10T20:24:02.919Z</time>
      </trkpt>
      <trkpt lat="45.614169" lon="10.364680">
        <ele>561.535963</ele>
        <time>2021-03-10T20:24:05.311Z</time>
      </trkpt>
      <trkpt lat="45.614190" lon="10.364417">
        <ele>561.816709</ele>
        <time>2021-03-10T20:24:10.972Z</time>
      </trkpt>
      <trkpt lat="45.614305" lon="10.363961">
        <ele>562.717354</ele>
        <time>2021-03-10T20:24:21.778Z</time>
      </trkpt>
      <trkpt lat="45.614277" lon="10.363755">
        <ele>563.107266</ele>
        <time>2021-03-10T20:24:26.608Z</time>
      </trkpt>
      <trkpt lat="45.614173" lon="10.363606">
        <ele>563.498366</ele>
        <time>2021-03-10T20:24:31.742Z</time>
      </trkpt>
      <trkpt lat="45.614008" lon="10.363550">
        <ele>563.948833</ele>
        <time>2021-03-10T20:24:37.884Z</time>
      </trkpt>
      <trkpt lat="45.613411" lon="10.363655">
        <ele>565.546584</ele>
        <time>2021-03-10T20:24:55.442Z</time>
      </trkpt>
      <trkpt lat="45.613254" lon="10.363741">
        <ele>565.993185</ele>
        <time>2021-03-10T20:24:58.727Z</time>
      </trkpt>
      <trkpt lat="45.612559" lon="10.364300">
        <ele>563.167257</ele>
        <time>2021-03-10T20:25:07.078Z</time>
      </trkpt>
      <trkpt lat="45.612223" lon="10.364535">
        <ele>561.382074</ele>
        <time>2021-03-10T20:25:10.503Z</time>
      </trkpt>
      <trkpt lat="45.612010" lon="10.364580">
        <ele>560.354492</ele>
        <time>2021-03-10T20:25:12.417Z</time>
      </trkpt>
      <trkpt lat="45.611856" lon="10.364545">
        <ele>559.610298</ele>
        <time>2021-03-10T20:25:13.793Z</time>
      </trkpt>
      <trkpt lat="45.611770" lon="10.364494">
        <ele>559.165950</ele>
        <time>2021-03-10T20:25:14.611Z</time>
      </trkpt>
      <trkpt lat="45.611621" lon="10.364291">
        <ele>558.183632</ele>
        <time>2021-03-10T20:25:16.430Z</time>
      </trkpt>
      <trkpt lat="45.611575" lon="10.364126">
        <ele>557.719983</ele>
        <time>2021-03-10T20:25:17.525Z</time>
      </trkpt>
      <trkpt lat="45.611502" lon="10.363610">
        <ele>557.308312</ele>
        <time>2021-03-10T20:25:20.894Z</time>
      </trkpt>
      <trkpt lat="45.611359" lon="10.363378">
        <ele>557.066511</ele>
        <time>2021-03-10T20:25:22.993Z</time>
      </trkpt>
      <trkpt lat="45.610679" lon="10.362930">
        <ele>556.229508</ele>
        <time>2021-03-10T20:25:32.486Z</time>
      </trkpt>
      <trkpt lat="45.610565" lon="10.362785">
        <ele>556.058928</ele>
        <time>2021-03-10T20:25:37.317Z</time>
      </trkpt>
      <trkpt lat="45.610108" lon="10.361966">
        <ele>558.536818</ele>
        <time>2021-03-10T20:26:03.292Z</time>
      </trkpt>
      <trkpt lat="45.609936" lon="10.361811">
        <ele>559.781287</ele>
        <time>2021-03-10T20:26:11.450Z</time>
      </trkpt>
      <trkpt lat="45.609681" lon="10.361683">
        <ele>561.435470</ele>
        <time>2021-03-10T20:26:24.289Z</time>
      </trkpt>
      <trkpt lat="45.609595" lon="10.361574">
        <ele>562.138945</ele>
        <time>2021-03-10T20:26:29.771Z</time>
      </trkpt>
      <trkpt lat="45.609578" lon="10.361428">
        <ele>562.772664</ele>
        <time>2021-03-10T20:26:35.741Z</time>
      </trkpt>
      <trkpt lat="45.609628" lon="10.361265">
        <ele>563.534720</ele>
        <time>2021-03-10T20:26:42.433Z</time>
      </trkpt>
      <trkpt lat="45.609735" lon="10.361174">
        <ele>564.296765</ele>
        <time>2021-03-10T20:26:47.997Z</time>
      </trkpt>
      <trkpt lat="45.610298" lon="10.361175">
        <ele>566.523432</ele>
        <time>2021-03-10T20:27:09.795Z</time>
      </trkpt>
      <trkpt lat="45.610734" lon="10.361137">
        <ele>565.887618</ele>
        <time>2021-03-10T20:27:18.793Z</time>
      </trkpt>
      <trkpt lat="45.610997" lon="10.361106">
        <ele>565.503500</ele>
        <time>2021-03-10T20:27:22.830Z</time>
      </trkpt>
      <trkpt lat="45.611133" lon="10.361031">
        <ele>565.291321</ele>
        <time>2021-03-10T20:27:24.374Z</time>
      </trkpt>
      <trkpt lat="45.611295" lon="10.360871">
        <ele>565.004711</ele>
        <time>2021-03-10T20:27:26.284Z</time>
      </trkpt>
      <trkpt lat="45.611382" lon="10.360691">
        <ele>564.781938</ele>
        <time>2021-03-10T20:27:27.738Z</time>
      </trkpt>
      <trkpt lat="45.611713" lon="10.359600">
        <ele>561.007361</ele>
        <time>2021-03-10T20:27:35.267Z</time>
      </trkpt>
      <trkpt lat="45.612391" lon="10.358162">
        <ele>551.279084</ele>
        <time>2021-03-10T20:27:45.782Z</time>
      </trkpt>
      <trkpt lat="45.612675" lon="10.357501">
        <ele>548.168345</ele>
        <time>2021-03-10T20:27:50.739Z</time>
      </trkpt>
      <trkpt lat="45.612686" lon="10.357323">
        <ele>547.612132</ele>
        <time>2021-03-10T20:27:51.887Z</time>
      </trkpt>
      <trkpt lat="45.612620" lon="10.357194">
        <ele>547.114656</ele>
        <time>2021-03-10T20:27:52.924Z</time>
      </trkpt>
      <trkpt lat="45.612554" lon="10.357183">
        <ele>546.818980</ele>
        <time>2021-03-10T20:27:53.548Z</time>
      </trkpt>
      <trkpt lat="45.612481" lon="10.357209">
        <ele>546.484213</ele>
        <time>2021-03-10T20:27:54.240Z</time>
      </trkpt>
      <trkpt lat="45.612452" lon="10.357251">
        <ele>546.300519</ele>
        <time>2021-03-10T20:27:54.618Z</time>
      </trkpt>
      <trkpt lat="45.612345" lon="10.357902">
        <ele>544.218976</ele>
        <time>2021-03-10T20:27:59.029Z</time>
      </trkpt>
      <trkpt lat="45.612237" lon="10.358156">
        <ele>543.293750</ele>
        <time>2021-03-10T20:28:01.095Z</time>
      </trkpt>
      <trkpt lat="45.612008" lon="10.358436">
        <ele>541.952860</ele>
        <time>2021-03-10T20:28:04.338Z</time>
      </trkpt>
      <trkpt lat="45.611880" lon="10.358550">
        <ele>541.926369</ele>
        <time>2021-03-10T20:28:06.148Z</time>
      </trkpt>
      <trkpt lat="45.611563" lon="10.358755">
        <ele>542.700201</ele>
        <time>2021-03-10T20:28:12.576Z</time>
      </trkpt>
      <trkpt lat="45.611419" lon="10.358916">
        <ele>543.106796</ele>
        <time>2021-03-10T20:28:17.326Z</time>
      </trkpt>
      <trkpt lat="45.611336" lon="10.359089">
        <ele>543.433175</ele>
        <time>2021-03-10T20:28:21.409Z</time>
      </trkpt>
      <trkpt lat="45.611190" lon="10.359588">
        <ele>544.274707</ele>
        <time>2021-03-10T20:28:34.675Z</time>
      </trkpt>
      <trkpt lat="45.611137" lon="10.359697">
        <ele>544.481236</ele>
        <time>2021-03-10T20:28:38.487Z</time>
      </trkpt>
      <trkpt lat="45.611063" lon="10.359780">
        <ele>544.690435</ele>
        <time>2021-03-10T20:28:42.105Z</time>
      </trkpt>
      <trkpt lat="45.610988" lon="10.359818">
        <ele>544.867411</ele>
        <time>2021-03-10T20:28:44.583Z</time>
      </trkpt>
      <trkpt lat="45.610449" lon="10.359896">
        <ele>545.262074</ele>
        <time>2021-03-10T20:28:57.633Z</time>
      </trkpt>
      <trkpt lat="45.609747" lon="10.360074">
        <ele>543.282473</ele>
        <time>2021-03-10T20:29:07.954Z</time>
      </trkpt>
      <trkpt lat="45.609682" lon="10.360057">
        <ele>543.098998</ele>
        <time>2021-03-10T20:29:08.723Z</time>
      </trkpt>
      <trkpt lat="45.609623" lon="10.359986">
        <ele>542.884859</ele>
        <time>2021-03-10T20:29:09.547Z</time>
      </trkpt>
      <trkpt lat="45.609596" lon="10.359914">
        <ele>542.726183</ele>
        <time>2021-03-10T20:29:10.114Z</time>
      </trkpt>
      <trkpt lat="45.609608" lon="10.359834">
        <ele>542.567262</ele>
        <time>2021-03-10T20:29:10.647Z</time>
      </trkpt>
      <trkpt lat="45.609624" lon="10.359775">
        <ele>542.444354</ele>
        <time>2021-03-10T20:29:11.062Z</time>
      </trkpt>
      <trkpt lat="45.609787" lon="10.359682">
        <ele>541.957050</ele>
        <time>2021-03-10T20:29:12.776Z</time>
      </trkpt>
      <trkpt lat="45.610158" lon="10.359673">
        <ele>540.926781</ele>
        <time>2021-03-10T20:29:16.120Z</time>
      </trkpt>
      <trkpt lat="45.610266" lon="10.359639">
        <ele>540.326601</ele>
        <time>2021-03-10T20:29:17.078Z</time>
      </trkpt>
      <trkpt lat="45.610463" lon="10.359544">
        <ele>538.024846</ele>
        <time>2021-03-10T20:29:18.877Z</time>
      </trkpt>
      <trkpt lat="45.610700" lon="10.359312">
        <ele>534.844779</ele>
        <time>2021-03-10T20:29:21.309Z</time>
      </trkpt>
      <trkpt lat="45.610794" lon="10.359172">
        <ele>533.341921</ele>
        <time>2021-03-10T20:29:22.455Z</time>
      </trkpt>
      <trkpt lat="45.611497" lon="10.357762">
        <ele>520.114738</ele>
        <time>2021-03-10T20:29:32.675Z</time>
      </trkpt>
      <trkpt lat="45.611619" lon="10.357477">
        <ele>518.067815</ele>
        <time>2021-03-10T20:29:34.684Z</time>
      </trkpt>
      <trkpt lat="45.611860" lon="10.356714">
        <ele>512.939167</ele>
        <time>2021-03-10T20:29:39.789Z</time>
      </trkpt>
      <trkpt lat="45.612123" lon="10.355854">
        <ele>507.189256</ele>
        <time>2021-03-10T20:29:45.613Z</time>
      </trkpt>
      <trkpt lat="45.612214" lon="10.355487">
        <ele>504.867291</ele>
        <time>2021-03-10T20:29:48.063Z</time>
      </trkpt>
      <trkpt lat="45.612419" lon="10.354461">
        <ele>499.993286</ele>
        <time>2021-03-10T20:29:54.808Z</time>
      </trkpt>
      <trkpt lat="45.612454" lon="10.354194">
        <ele>498.752455</ele>
        <time>2021-03-10T20:29:56.535Z</time>
      </trkpt>
      <trkpt lat="45.612452" lon="10.353659">
        <ele>496.308649</ele>
        <time>2021-03-10T20:29:59.942Z</time>
      </trkpt>
      <trkpt lat="45.612439" lon="10.352811">
        <ele>492.584920</ele>
        <time>2021-03-10T20:30:05.366Z</time>
      </trkpt>
      <trkpt lat="45.612516" lon="10.352201">
        <ele>490.241916</ele>
        <time>2021-03-10T20:30:09.326Z</time>
      </trkpt>
      <trkpt lat="45.612623" lon="10.351612">
        <ele>487.941682</ele>
        <time>2021-03-10T20:30:13.237Z</time>
      </trkpt>
      <trkpt lat="45.612840" lon="10.350422">
        <ele>483.475817</ele>
        <time>2021-03-10T20:30:21.339Z</time>
      </trkpt>
      <trkpt lat="45.612961" lon="10.349725">
        <ele>482.439532</ele>
        <time>2021-03-10T20:30:26.437Z</time>
      </trkpt>
      <trkpt lat="45.613048" lon="10.349002">
        <ele>481.380918</ele>
        <time>2021-03-10T20:30:32.264Z</time>
      </trkpt>
      <trkpt lat="45.613104" lon="10.348541">
        <ele>480.705738</ele>
        <time>2021-03-10T20:30:36.260Z</time>
      </trkpt>
      <trkpt lat="45.613252" lon="10.347454">
        <ele>478.890309</ele>
        <time>2021-03-10T20:30:46.310Z</time>
      </trkpt>
      <trkpt lat="45.613311" lon="10.347159">
        <ele>478.322593</ele>
        <time>2021-03-10T20:30:48.959Z</time>
      </trkpt>
      <trkpt lat="45.613779" lon="10.345770">
        <ele>475.469905</ele>
        <time>2021-03-10T20:30:59.835Z</time>
      </trkpt>
      <trkpt lat="45.613880" lon="10.345399">
        <ele>474.391053</ele>
        <time>2021-03-10T20:31:02.481Z</time>
      </trkpt>
      <trkpt lat="45.613943" lon="10.345134">
        <ele>473.415281</ele>
        <time>2021-03-10T20:31:04.362Z</time>
      </trkpt>
      <trkpt lat="45.613974" lon="10.344699">
        <ele>471.890889</ele>
        <time>2021-03-10T20:31:07.378Z</time>
      </trkpt>
      <trkpt lat="45.614015" lon="10.344109">
        <ele>469.823846</ele>
        <time>2021-03-10T20:31:11.183Z</time>
      </trkpt>
      <trkpt lat="45.614108" lon="10.343739">
        <ele>468.453165</ele>
        <time>2021-03-10T20:31:13.675Z</time>
      </trkpt>
      <trkpt lat="45.614263" lon="10.343401">
        <ele>467.044141</ele>
        <time>2021-03-10T20:31:16.263Z</time>
      </trkpt>
      <trkpt lat="45.614622" lon="10.343030">
        <ele>466.013925</ele>
        <time>2021-03-10T20:31:20.417Z</time>
      </trkpt>
      <trkpt lat="45.614665" lon="10.342930">
        <ele>465.969927</ele>
        <time>2021-03-10T20:31:21.362Z</time>
      </trkpt>
      <trkpt lat="45.614650" lon="10.342766">
        <ele>465.907932</ele>
        <time>2021-03-10T20:31:22.558Z</time>
      </trkpt>
      <trkpt lat="45.614618" lon="10.342703">
        <ele>465.878749</ele>
        <time>2021-03-10T20:31:23.088Z</time>
      </trkpt>
      <trkpt lat="45.614505" lon="10.342674">
        <ele>465.817228</ele>
        <time>2021-03-10T20:31:24.429Z</time>
      </trkpt>
      <trkpt lat="45.614415" lon="10.342743">
        <ele>465.762503</ele>
        <time>2021-03-10T20:31:26.439Z</time>
      </trkpt>
      <trkpt lat="45.613859" lon="10.343839">
        <ele>465.255024</ele>
        <time>2021-03-10T20:31:45.260Z</time>
      </trkpt>
      <trkpt lat="45.613565" lon="10.344732">
        <ele>466.530910</ele>
        <time>2021-03-10T20:32:01.963Z</time>
      </trkpt>
      <trkpt lat="45.613032" lon="10.345990">
        <ele>468.936246</ele>
        <time>2021-03-10T20:32:32.239Z</time>
      </trkpt>
      <trkpt lat="45.612972" lon="10.346066">
        <ele>469.123668</ele>
        <time>2021-03-10T20:32:34.064Z</time>
      </trkpt>
      <trkpt lat="45.612838" lon="10.346083">
        <ele>469.298534</ele>
        <time>2021-03-10T20:32:36.758Z</time>
      </trkpt>
      <trkpt lat="45.612798" lon="10.345965">
        <ele>468.782619</ele>
        <time>2021-03-10T20:32:38.496Z</time>
      </trkpt>
      <trkpt lat="45.612819" lon="10.345784">
        <ele>468.060745</ele>
        <time>2021-03-10T20:32:40.275Z</time>
      </trkpt>
      <trkpt lat="45.613185" lon="10.345019">
        <ele>464.414182</ele>
        <time>2021-03-10T20:32:46.794Z</time>
      </trkpt>
      <trkpt lat="45.613303" lon="10.344561">
        <ele>462.493848</ele>
        <time>2021-03-10T20:32:49.827Z</time>
      </trkpt>
      <trkpt lat="45.613329" lon="10.344140">
        <ele>460.830993</ele>
        <time>2021-03-10T20:32:52.374Z</time>
      </trkpt>
      <trkpt lat="45.613299" lon="10.343299">
        <ele>455.628813</ele>
        <time>2021-03-10T20:32:57.379Z</time>
      </trkpt>
      <trkpt lat="45.613371" lon="10.342867">
        <ele>452.008912</ele>
        <time>2021-03-10T20:32:59.998Z</time>
      </trkpt>
      <trkpt lat="45.613471" lon="10.342466">
        <ele>448.538769</ele>
        <time>2021-03-10T20:33:02.495Z</time>
      </trkpt>
      <trkpt lat="45.613595" lon="10.341657">
        <ele>441.787998</ele>
        <time>2021-03-10T20:33:07.380Z</time>
      </trkpt>
      <trkpt lat="45.613757" lon="10.340312">
        <ele>433.766133</ele>
        <time>2021-03-10T20:33:15.592Z</time>
      </trkpt>
      <trkpt lat="45.613779" lon="10.340126">
        <ele>432.851546</ele>
        <time>2021-03-10T20:33:16.779Z</time>
      </trkpt>
      <trkpt lat="45.613856" lon="10.339484">
        <ele>429.693508</ele>
        <time>2021-03-10T20:33:21.000Z</time>
      </trkpt>
      <trkpt lat="45.613867" lon="10.339409">
        <ele>429.321977</ele>
        <time>2021-03-10T20:33:21.505Z</time>
      </trkpt>
      <trkpt lat="45.613881" lon="10.339304">
        <ele>428.803740</ele>
        <time>2021-03-10T20:33:22.213Z</time>
      </trkpt>
      <trkpt lat="45.613889" lon="10.339248">
        <ele>428.526630</ele>
        <time>2021-03-10T20:33:22.605Z</time>
      </trkpt>
      <trkpt lat="45.614008" lon="10.338273">
        <ele>424.684068</ele>
        <time>2021-03-10T20:33:29.455Z</time>
      </trkpt>
      <trkpt lat="45.614032" lon="10.337789">
        <ele>423.389415</ele>
        <time>2021-03-10T20:33:32.928Z</time>
      </trkpt>
      <trkpt lat="45.613946" lon="10.336844">
        <ele>420.846708</ele>
        <time>2021-03-10T20:33:39.587Z</time>
      </trkpt>
      <trkpt lat="45.613969" lon="10.336233">
        <ele>419.214073</ele>
        <time>2021-03-10T20:33:43.740Z</time>
      </trkpt>
      <trkpt lat="45.614060" lon="10.335028">
        <ele>416.175191</ele>
        <time>2021-03-10T20:33:51.797Z</time>
      </trkpt>
      <trkpt lat="45.614074" lon="10.333774">
        <ele>413.045407</ele>
        <time>2021-03-10T20:34:00.439Z</time>
      </trkpt>
      <trkpt lat="45.614072" lon="10.333130">
        <ele>412.633414</ele>
        <time>2021-03-10T20:34:05.991Z</time>
      </trkpt>
      <trkpt lat="45.614027" lon="10.332948">
        <ele>412.657638</ele>
        <time>2021-03-10T20:34:08.232Z</time>
      </trkpt>
      <trkpt lat="45.613967" lon="10.332810">
        <ele>412.678029</ele>
        <time>2021-03-10T20:34:10.162Z</time>
      </trkpt>
      <trkpt lat="45.613670" lon="10.332154">
        <ele>412.776089</ele>
        <time>2021-03-10T20:34:20.797Z</time>
      </trkpt>
      <trkpt lat="45.613138" lon="10.331152">
        <ele>412.348458</ele>
        <time>2021-03-10T20:34:37.638Z</time>
      </trkpt>
      <trkpt lat="45.613082" lon="10.330890">
        <ele>411.808986</ele>
        <time>2021-03-10T20:34:40.774Z</time>
      </trkpt>
      <trkpt lat="45.613115" lon="10.330108">
        <ele>410.266293</ele>
        <time>2021-03-10T20:34:47.279Z</time>
      </trkpt>
      <trkpt lat="45.613218" lon="10.328499">
        <ele>405.889066</ele>
        <time>2021-03-10T20:34:57.803Z</time>
      </trkpt>
      <trkpt lat="45.613246" lon="10.328057">
        <ele>403.623511</ele>
        <time>2021-03-10T20:35:00.593Z</time>
      </trkpt>
      <trkpt lat="45.613321" lon="10.326668">
        <ele>396.511857</ele>
        <time>2021-03-10T20:35:09.254Z</time>
      </trkpt>
      <trkpt lat="45.613319" lon="10.326425">
        <ele>395.271307</ele>
        <time>2021-03-10T20:35:10.737Z</time>
      </trkpt>
      <trkpt lat="45.613296" lon="10.326287">
        <ele>394.526069</ele>
        <time>2021-03-10T20:35:11.596Z</time>
      </trkpt>
      <trkpt lat="45.613203" lon="10.325987">
        <ele>392.633549</ele>
        <time>2021-03-10T20:35:13.601Z</time>
      </trkpt>
      <trkpt lat="45.613122" lon="10.325709">
        <ele>390.896677</ele>
        <time>2021-03-10T20:35:15.447Z</time>
      </trkpt>
      <trkpt lat="45.613114" lon="10.325517">
        <ele>389.787371</ele>
        <time>2021-03-10T20:35:16.636Z</time>
      </trkpt>
      <trkpt lat="45.613142" lon="10.325374">
        <ele>388.930928</ele>
        <time>2021-03-10T20:35:17.540Z</time>
      </trkpt>
      <trkpt lat="45.613156" lon="10.325313">
        <ele>388.560663</ele>
        <time>2021-03-10T20:35:17.944Z</time>
      </trkpt>
      <trkpt lat="45.613168" lon="10.325278">
        <ele>388.335860</ele>
        <time>2021-03-10T20:35:18.184Z</time>
      </trkpt>
      <trkpt lat="45.613474" lon="10.324459">
        <ele>382.980780</ele>
        <time>2021-03-10T20:35:23.948Z</time>
      </trkpt>
      <trkpt lat="45.613571" lon="10.324088">
        <ele>380.696500</ele>
        <time>2021-03-10T20:35:26.387Z</time>
      </trkpt>
      <trkpt lat="45.613577" lon="10.323890">
        <ele>379.647772</ele>
        <time>2021-03-10T20:35:27.592Z</time>
      </trkpt>
      <trkpt lat="45.613536" lon="10.323609">
        <ele>378.471140</ele>
        <time>2021-03-10T20:35:29.343Z</time>
      </trkpt>
      <trkpt lat="45.613473" lon="10.323318">
        <ele>377.222482</ele>
        <time>2021-03-10T20:35:31.185Z</time>
      </trkpt>
      <trkpt lat="45.613360" lon="10.322859">
        <ele>375.227873</ele>
        <time>2021-03-10T20:35:34.209Z</time>
      </trkpt>
      <trkpt lat="45.613332" lon="10.322635">
        <ele>374.295130</ele>
        <time>2021-03-10T20:35:35.669Z</time>
      </trkpt>
      <trkpt lat="45.613302" lon="10.321776">
        <ele>370.769620</ele>
        <time>2021-03-10T20:35:41.561Z</time>
      </trkpt>
      <trkpt lat="45.613288" lon="10.321449">
        <ele>369.426707</ele>
        <time>2021-03-10T20:35:44.013Z</time>
      </trkpt>
      <trkpt lat="45.613283" lon="10.321287">
        <ele>369.064431</ele>
        <time>2021-03-10T20:35:45.187Z</time>
      </trkpt>
      <trkpt lat="45.613174" lon="10.320209">
        <ele>366.938726</ele>
        <time>2021-03-10T20:35:52.895Z</time>
      </trkpt>
      <trkpt lat="45.613160" lon="10.319522">
        <ele>365.597398</ele>
        <time>2021-03-10T20:35:57.870Z</time>
      </trkpt>
      <trkpt lat="45.613173" lon="10.319090">
        <ele>364.753520</ele>
        <time>2021-03-10T20:36:01.266Z</time>
      </trkpt>
      <trkpt lat="45.613214" lon="10.318602">
        <ele>363.769807</ele>
        <time>2021-03-10T20:36:05.118Z</time>
      </trkpt>
      <trkpt lat="45.613228" lon="10.318430">
        <ele>363.416158</ele>
        <time>2021-03-10T20:36:06.395Z</time>
      </trkpt>
      <trkpt lat="45.613225" lon="10.318180">
        <ele>362.905504</ele>
        <time>2021-03-10T20:36:08.215Z</time>
      </trkpt>
      <trkpt lat="45.613132" lon="10.317916">
        <ele>362.301819</ele>
        <time>2021-03-10T20:36:10.314Z</time>
      </trkpt>
      <trkpt lat="45.613034" lon="10.317688">
        <ele>361.755285</ele>
        <time>2021-03-10T20:36:12.224Z</time>
      </trkpt>
      <trkpt lat="45.612991" lon="10.317448">
        <ele>361.249304</ele>
        <time>2021-03-10T20:36:13.945Z</time>
      </trkpt>
      <trkpt lat="45.613003" lon="10.316981">
        <ele>360.294895</ele>
        <time>2021-03-10T20:36:17.210Z</time>
      </trkpt>
      <trkpt lat="45.612982" lon="10.316903">
        <ele>360.124201</ele>
        <time>2021-03-10T20:36:17.822Z</time>
      </trkpt>
      <trkpt lat="45.612778" lon="10.316754">
        <ele>359.455350</ele>
        <time>2021-03-10T20:36:20.175Z</time>
      </trkpt>
      <trkpt lat="45.612434" lon="10.316621">
        <ele>358.206166</ele>
        <time>2021-03-10T20:36:23.845Z</time>
      </trkpt>
      <trkpt lat="45.612228" lon="10.316451">
        <ele>357.290264</ele>
        <time>2021-03-10T20:36:26.306Z</time>
      </trkpt>
      <trkpt lat="45.611866" lon="10.315967">
        <ele>355.381711</ele>
        <time>2021-03-10T20:36:31.267Z</time>
      </trkpt>
      <trkpt lat="45.611695" lon="10.315674">
        <ele>354.353890</ele>
        <time>2021-03-10T20:36:33.818Z</time>
      </trkpt>
      <trkpt lat="45.611613" lon="10.315515">
        <ele>353.821801</ele>
        <time>2021-03-10T20:36:35.137Z</time>
      </trkpt>
      <trkpt lat="45.611586" lon="10.315486">
        <ele>353.691760</ele>
        <time>2021-03-10T20:36:35.461Z</time>
      </trkpt>
      <trkpt lat="45.611100" lon="10.315116">
        <ele>351.336550</ele>
        <time>2021-03-10T20:36:40.720Z</time>
      </trkpt>
      <trkpt lat="45.610833" lon="10.314897">
        <ele>349.664423</ele>
        <time>2021-03-10T20:36:43.655Z</time>
      </trkpt>
      <trkpt lat="45.610554" lon="10.314474">
        <ele>347.455266</ele>
        <time>2021-03-10T20:36:47.483Z</time>
      </trkpt>
      <trkpt lat="45.610203" lon="10.314201">
        <ele>345.284691</ele>
        <time>2021-03-10T20:36:51.158Z</time>
      </trkpt>
      <trkpt lat="45.609790" lon="10.314077">
        <ele>342.992320</ele>
        <time>2021-03-10T20:36:55.006Z</time>
      </trkpt>
      <trkpt lat="45.609572" lon="10.313947">
        <ele>341.717728</ele>
        <time>2021-03-10T20:36:57.159Z</time>
      </trkpt>
      <trkpt lat="45.609322" lon="10.313705">
        <ele>340.098634</ele>
        <time>2021-03-10T20:36:59.950Z</time>
      </trkpt>
      <trkpt lat="45.609068" lon="10.313217">
        <ele>337.816828</ele>
        <time>2021-03-10T20:37:03.913Z</time>
      </trkpt>
      <trkpt lat="45.608768" lon="10.312201">
        <ele>333.679800</ele>
        <time>2021-03-10T20:37:11.148Z</time>
      </trkpt>
      <trkpt lat="45.608704" lon="10.312050">
        <ele>333.017480</ele>
        <time>2021-03-10T20:37:12.320Z</time>
      </trkpt>
      <trkpt lat="45.608445" lon="10.311739">
        <ele>331.490776</ele>
        <time>2021-03-10T20:37:15.546Z</time>
      </trkpt>
      <trkpt lat="45.608081" lon="10.311414">
        <ele>329.622875</ele>
        <time>2021-03-10T20:37:19.634Z</time>
      </trkpt>
      <trkpt lat="45.607543" lon="10.310960">
        <ele>326.903731</ele>
        <time>2021-03-10T20:37:25.680Z</time>
      </trkpt>
      <trkpt lat="45.607196" lon="10.310791">
        <ele>325.308211</ele>
        <time>2021-03-10T20:37:29.275Z</time>
      </trkpt>
      <trkpt lat="45.606242" lon="10.310369">
        <ele>321.566675</ele>
        <time>2021-03-10T20:37:39.131Z</time>
      </trkpt>
      <trkpt lat="45.605644" lon="10.310138">
        <ele>319.284723</ele>
        <time>2021-03-10T20:37:45.256Z</time>
      </trkpt>
      <trkpt lat="45.605249" lon="10.310014">
        <ele>317.848374</ele>
        <time>2021-03-10T20:37:49.289Z</time>
      </trkpt>
      <trkpt lat="45.604298" lon="10.310019">
        <ele>314.735941</ele>
        <time>2021-03-10T20:37:58.951Z</time>
      </trkpt>
      <trkpt lat="45.604117" lon="10.309963">
        <ele>314.129850</ele>
        <time>2021-03-10T20:38:00.824Z</time>
      </trkpt>
      <trkpt lat="45.604005" lon="10.309848">
        <ele>313.678526</ele>
        <time>2021-03-10T20:38:02.227Z</time>
      </trkpt>
      <trkpt lat="45.603456" lon="10.309071">
        <ele>311.258042</ele>
        <time>2021-03-10T20:38:10.051Z</time>
      </trkpt>
      <trkpt lat="45.603400" lon="10.308990">
        <ele>311.020068</ele>
        <time>2021-03-10T20:38:10.839Z</time>
      </trkpt>
      <trkpt lat="45.603310" lon="10.308860">
        <ele>310.637874</ele>
        <time>2021-03-10T20:38:12.102Z</time>
      </trkpt>
      <trkpt lat="45.602560" lon="10.307744">
        <ele>307.404030</ele>
        <time>2021-03-10T20:38:23.127Z</time>
      </trkpt>
      <trkpt lat="45.602449" lon="10.307629">
        <ele>307.001527</ele>
        <time>2021-03-10T20:38:24.597Z</time>
      </trkpt>
      <trkpt lat="45.602411" lon="10.307595">
        <ele>306.913790</ele>
        <time>2021-03-10T20:38:25.096Z</time>
      </trkpt>
      <trkpt lat="45.602242" lon="10.307468">
        <ele>306.540121</ele>
        <time>2021-03-10T20:38:27.247Z</time>
      </trkpt>
      <trkpt lat="45.602185" lon="10.307437">
        <ele>306.420766</ele>
        <time>2021-03-10T20:38:27.913Z</time>
      </trkpt>
      <trkpt lat="45.601419" lon="10.307178">
        <ele>304.880286</ele>
        <time>2021-03-10T20:38:36.739Z</time>
      </trkpt>
      <trkpt lat="45.600975" lon="10.307158">
        <ele>304.010922</ele>
        <time>2021-03-10T20:38:41.636Z</time>
      </trkpt>
      <trkpt lat="45.600932" lon="10.307164">
        <ele>303.926369</ele>
        <time>2021-03-10T20:38:42.127Z</time>
      </trkpt>
      <trkpt lat="45.600659" lon="10.307256">
        <ele>303.339603</ele>
        <time>2021-03-10T20:38:45.290Z</time>
      </trkpt>
      <trkpt lat="45.599757" lon="10.307879">
        <ele>300.746683</ele>
        <time>2021-03-10T20:38:56.386Z</time>
      </trkpt>
      <trkpt lat="45.598894" lon="10.308440">
        <ele>298.061535</ele>
        <time>2021-03-10T20:39:05.854Z</time>
      </trkpt>
      <trkpt lat="45.598750" lon="10.308566">
        <ele>297.439596</ele>
        <time>2021-03-10T20:39:07.469Z</time>
      </trkpt>
      <trkpt lat="45.598341" lon="10.309144">
        <ele>295.320902</ele>
        <time>2021-03-10T20:39:13.163Z</time>
      </trkpt>
      <trkpt lat="45.598117" lon="10.309328">
        <ele>294.369221</ele>
        <time>2021-03-10T20:39:15.701Z</time>
      </trkpt>
      <trkpt lat="45.598028" lon="10.309361">
        <ele>294.030535</ele>
        <time>2021-03-10T20:39:16.613Z</time>
      </trkpt>
      <trkpt lat="45.597857" lon="10.309360">
        <ele>293.400646</ele>
        <time>2021-03-10T20:39:18.259Z</time>
      </trkpt>
      <trkpt lat="45.597259" lon="10.309230">
        <ele>291.265973</ele>
        <time>2021-03-10T20:39:24.276Z</time>
      </trkpt>
      <trkpt lat="45.596980" lon="10.309233">
        <ele>290.330417</ele>
        <time>2021-03-10T20:39:27.174Z</time>
      </trkpt>
      <trkpt lat="45.596838" lon="10.309273">
        <ele>289.845109</ele>
        <time>2021-03-10T20:39:28.658Z</time>
      </trkpt>
      <trkpt lat="45.596536" lon="10.309525">
        <ele>288.672490</ele>
        <time>2021-03-10T20:39:32.339Z</time>
      </trkpt>
      <trkpt lat="45.596422" lon="10.309581">
        <ele>288.268281</ele>
        <time>2021-03-10T20:39:33.588Z</time>
      </trkpt>
      <trkpt lat="45.596055" lon="10.309552">
        <ele>287.035795</ele>
        <time>2021-03-10T20:39:37.324Z</time>
      </trkpt>
      <trkpt lat="45.595704" lon="10.309621">
        <ele>285.745206</ele>
        <time>2021-03-10T20:39:40.796Z</time>
      </trkpt>
      <trkpt lat="45.595206" lon="10.310061">
        <ele>283.181329</ele>
        <time>2021-03-10T20:39:46.312Z</time>
      </trkpt>
      <trkpt lat="45.594819" lon="10.310310">
        <ele>281.322798</ele>
        <time>2021-03-10T20:39:50.331Z</time>
      </trkpt>
      <trkpt lat="45.594580" lon="10.310425">
        <ele>280.218472</ele>
        <time>2021-03-10T20:39:52.826Z</time>
      </trkpt>
      <trkpt lat="45.594327" lon="10.310450">
        <ele>279.107922</ele>
        <time>2021-03-10T20:39:55.348Z</time>
      </trkpt>
      <trkpt lat="45.593748" lon="10.310427">
        <ele>276.497472</ele>
        <time>2021-03-10T20:40:00.981Z</time>
      </trkpt>
      <trkpt lat="45.593516" lon="10.310515">
        <ele>275.401529</ele>
        <time>2021-03-10T20:40:03.220Z</time>
      </trkpt>
      <trkpt lat="45.593047" lon="10.310783">
        <ele>273.095325</ele>
        <time>2021-03-10T20:40:07.955Z</time>
      </trkpt>
      <trkpt lat="45.592908" lon="10.310791">
        <ele>272.460164</ele>
        <time>2021-03-10T20:40:09.255Z</time>
      </trkpt>
      <trkpt lat="45.592790" lon="10.310746">
        <ele>271.902545</ele>
        <time>2021-03-10T20:40:10.406Z</time>
      </trkpt>
      <trkpt lat="45.592634" lon="10.310603">
        <ele>271.056343</ele>
        <time>2021-03-10T20:40:12.220Z</time>
      </trkpt>
      <trkpt lat="45.592382" lon="10.310280">
        <ele>269.516617</ele>
        <time>2021-03-10T20:40:15.565Z</time>
      </trkpt>
      <trkpt lat="45.591824" lon="10.309264">
        <ele>265.431479</ele>
        <time>2021-03-10T20:40:24.317Z</time>
      </trkpt>
      <trkpt lat="45.590717" lon="10.307125">
        <ele>257.147240</ele>
        <time>2021-03-10T20:40:41.878Z</time>
      </trkpt>
      <trkpt lat="45.590360" lon="10.306482">
        <ele>254.619590</ele>
        <time>2021-03-10T20:40:47.575Z</time>
      </trkpt>
      <trkpt lat="45.589790" lon="10.305720">
        <ele>252.242935</ele>
        <time>2021-03-10T20:40:55.448Z</time>
      </trkpt>
      <trkpt lat="45.589176" lon="10.304565">
        <ele>249.426339</ele>
        <time>2021-03-10T20:41:06.102Z</time>
      </trkpt>
      <trkpt lat="45.589039" lon="10.304293">
        <ele>248.851785</ele>
        <time>2021-03-10T20:41:08.708Z</time>
      </trkpt>
      <trkpt lat="45.588848" lon="10.303826">
        <ele>248.084756</ele>
        <time>2021-03-10T20:41:12.905Z</time>
      </trkpt>
      <trkpt lat="45.588693" lon="10.303265">
        <ele>247.229476</ele>
        <time>2021-03-10T20:41:17.710Z</time>
      </trkpt>
      <trkpt lat="45.588649" lon="10.302974">
        <ele>246.807303</ele>
        <time>2021-03-10T20:41:20.045Z</time>
      </trkpt>
      <trkpt lat="45.588578" lon="10.301602">
        <ele>244.794342</ele>
        <time>2021-03-10T20:41:30.405Z</time>
      </trkpt>
      <trkpt lat="45.588517" lon="10.301319">
        <ele>244.327623</ele>
        <time>2021-03-10T20:41:32.613Z</time>
      </trkpt>
      <trkpt lat="45.588456" lon="10.301158">
        <ele>244.039064</ele>
        <time>2021-03-10T20:41:33.962Z</time>
      </trkpt>
      <trkpt lat="45.588040" lon="10.300378">
        <ele>242.493363</ele>
        <time>2021-03-10T20:41:41.328Z</time>
      </trkpt>
      <trkpt lat="45.587938" lon="10.300016">
        <ele>241.878293</ele>
        <time>2021-03-10T20:41:44.286Z</time>
      </trkpt>
      <trkpt lat="45.587843" lon="10.299542">
        <ele>241.151334</ele>
        <time>2021-03-10T20:41:48.002Z</time>
      </trkpt>
      <trkpt lat="45.587813" lon="10.299387">
        <ele>240.946516</ele>
        <time>2021-03-10T20:41:49.194Z</time>
      </trkpt>
      <trkpt lat="45.587364" lon="10.297170">
        <ele>238.024312</ele>
        <time>2021-03-10T20:42:07.242Z</time>
      </trkpt>
      <trkpt lat="45.587112" lon="10.295860">
        <ele>236.657182</ele>
        <time>2021-03-10T20:42:18.557Z</time>
      </trkpt>
      <trkpt lat="45.587020" lon="10.295490">
        <ele>236.262052</ele>
        <time>2021-03-10T20:42:21.833Z</time>
      </trkpt>
      <trkpt lat="45.586639" lon="10.293052">
        <ele>233.318606</ele>
        <time>2021-03-10T20:42:41.632Z</time>
      </trkpt>
      <trkpt lat="45.586606" lon="10.292843">
        <ele>233.050205</ele>
        <time>2021-03-10T20:42:43.240Z</time>
      </trkpt>
      <trkpt lat="45.586393" lon="10.291333">
        <ele>231.393725</ele>
        <time>2021-03-10T20:42:55.058Z</time>
      </trkpt>
      <trkpt lat="45.586370" lon="10.291189">
        <ele>231.252169</ele>
        <time>2021-03-10T20:42:56.206Z</time>
      </trkpt>
      <trkpt lat="45.586304" lon="10.290742">
        <ele>230.814341</ele>
        <time>2021-03-10T20:42:59.921Z</time>
      </trkpt>
      <trkpt lat="45.586287" lon="10.290627">
        <ele>230.701695</ele>
        <time>2021-03-10T20:43:00.884Z</time>
      </trkpt>
      <trkpt lat="45.586133" lon="10.289484">
        <ele>229.681660</ele>
        <time>2021-03-10T20:43:11.279Z</time>
      </trkpt>
      <trkpt lat="45.586125" lon="10.289421">
        <ele>229.645353</ele>
        <time>2021-03-10T20:43:11.934Z</time>
      </trkpt>
      <trkpt lat="45.586016" lon="10.288606">
        <ele>229.174850</ele>
        <time>2021-03-10T20:43:19.995Z</time>
      </trkpt>
      <trkpt lat="45.586001" lon="10.288511">
        <ele>229.119627</ele>
        <time>2021-03-10T20:43:20.875Z</time>
      </trkpt>
      <trkpt lat="45.585839" lon="10.287477">
        <ele>228.518790</ele>
        <time>2021-03-10T20:43:30.007Z</time>
      </trkpt>
      <trkpt lat="45.585830" lon="10.287421">
        <ele>228.486209</ele>
        <time>2021-03-10T20:43:30.494Z</time>
      </trkpt>
      <trkpt lat="45.585797" lon="10.287193">
        <ele>228.342580</ele>
        <time>2021-03-10T20:43:32.463Z</time>
      </trkpt>
      <trkpt lat="45.585730" lon="10.286740">
        <ele>227.722421</ele>
        <time>2021-03-10T20:43:36.232Z</time>
      </trkpt>
      <trkpt lat="45.585722" lon="10.286680">
        <ele>227.640611</ele>
        <time>2021-03-10T20:43:36.717Z</time>
      </trkpt>
      <trkpt lat="45.585656" lon="10.286217">
        <ele>227.007726</ele>
        <time>2021-03-10T20:43:40.364Z</time>
      </trkpt>
      <trkpt lat="45.585651" lon="10.286189">
        <ele>226.969021</ele>
        <time>2021-03-10T20:43:40.586Z</time>
      </trkpt>
      <trkpt lat="45.585557" lon="10.285550">
        <ele>226.094427</ele>
        <time>2021-03-10T20:43:45.471Z</time>
      </trkpt>
      <trkpt lat="45.585422" lon="10.284743">
        <ele>224.983061</ele>
        <time>2021-03-10T20:43:51.670Z</time>
      </trkpt>
      <trkpt lat="45.585284" lon="10.283806">
        <ele>224.026563</ele>
        <time>2021-03-10T20:43:59.256Z</time>
      </trkpt>
      <trkpt lat="45.585239" lon="10.283500">
        <ele>223.719692</ele>
        <time>2021-03-10T20:44:01.860Z</time>
      </trkpt>
      <trkpt lat="45.585211" lon="10.283306">
        <ele>223.525291</ele>
        <time>2021-03-10T20:44:03.571Z</time>
      </trkpt>
      <trkpt lat="45.585202" lon="10.283246">
        <ele>223.465069</ele>
        <time>2021-03-10T20:44:04.105Z</time>
      </trkpt>
      <trkpt lat="45.585111" lon="10.282573">
        <ele>222.792363</ele>
        <time>2021-03-10T20:44:09.886Z</time>
      </trkpt>
      <trkpt lat="45.585028" lon="10.281960">
        <ele>222.191818</ele>
        <time>2021-03-10T20:44:15.055Z</time>
      </trkpt>
      <trkpt lat="45.585022" lon="10.281920">
        <ele>222.153916</ele>
        <time>2021-03-10T20:44:15.386Z</time>
      </trkpt>
      <trkpt lat="45.584910" lon="10.281084">
        <ele>221.365285</ele>
        <time>2021-03-10T20:44:22.450Z</time>
      </trkpt>
      <trkpt lat="45.584837" lon="10.280575">
        <ele>220.883887</ele>
        <time>2021-03-10T20:44:26.782Z</time>
      </trkpt>
      <trkpt lat="45.584862" lon="10.280440">
        <ele>220.754503</ele>
        <time>2021-03-10T20:44:27.959Z</time>
      </trkpt>
      <trkpt lat="45.584884" lon="10.280402">
        <ele>220.708810</ele>
        <time>2021-03-10T20:44:28.363Z</time>
      </trkpt>
      <trkpt lat="45.584888" lon="10.280293">
        <ele>220.607681</ele>
        <time>2021-03-10T20:44:29.234Z</time>
      </trkpt>
      <trkpt lat="45.584866" lon="10.280248">
        <ele>220.556822</ele>
        <time>2021-03-10T20:44:29.681Z</time>
      </trkpt>
      <trkpt lat="45.584815" lon="10.280216">
        <ele>220.483081</ele>
        <time>2021-03-10T20:44:30.325Z</time>
      </trkpt>
      <trkpt lat="45.584590" lon="10.278823">
        <ele>219.003731</ele>
        <time>2021-03-10T20:44:41.756Z</time>
      </trkpt>
      <trkpt lat="45.584556" lon="10.278587">
        <ele>218.740230</ele>
        <time>2021-03-10T20:44:43.713Z</time>
      </trkpt>
      <trkpt lat="45.584433" lon="10.277751">
        <ele>217.805995</ele>
        <time>2021-03-10T20:44:50.654Z</time>
      </trkpt>
      <trkpt lat="45.584378" lon="10.277534">
        <ele>217.553600</ele>
        <time>2021-03-10T20:44:52.464Z</time>
      </trkpt>
      <trkpt lat="45.584355" lon="10.277443">
        <ele>217.447791</ele>
        <time>2021-03-10T20:44:53.240Z</time>
      </trkpt>
      <trkpt lat="45.584302" lon="10.277101">
        <ele>217.047156</ele>
        <time>2021-03-10T20:44:55.971Z</time>
      </trkpt>
      <trkpt lat="45.584200" lon="10.276425">
        <ele>216.197060</ele>
        <time>2021-03-10T20:45:01.335Z</time>
      </trkpt>
      <trkpt lat="45.584178" lon="10.276279">
        <ele>216.013470</ele>
        <time>2021-03-10T20:45:02.505Z</time>
      </trkpt>
      <trkpt lat="45.584013" lon="10.275126">
        <ele>214.566764</ele>
        <time>2021-03-10T20:45:11.836Z</time>
      </trkpt>
      <trkpt lat="45.583939" lon="10.274331">
        <ele>213.560005</ele>
        <time>2021-03-10T20:45:18.136Z</time>
      </trkpt>
      <trkpt lat="45.583919" lon="10.274075">
        <ele>213.229178</ele>
        <time>2021-03-10T20:45:20.128Z</time>
      </trkpt>
      <trkpt lat="45.583915" lon="10.274029">
        <ele>213.169646</ele>
        <time>2021-03-10T20:45:20.485Z</time>
      </trkpt>
      <trkpt lat="45.583901" lon="10.273625">
        <ele>212.650146</ele>
        <time>2021-03-10T20:45:23.577Z</time>
      </trkpt>
      <trkpt lat="45.583915" lon="10.273535">
        <ele>212.531737</ele>
        <time>2021-03-10T20:45:24.285Z</time>
      </trkpt>
      <trkpt lat="45.583896" lon="10.273447">
        <ele>212.413461</ele>
        <time>2021-03-10T20:45:24.991Z</time>
      </trkpt>
      <trkpt lat="45.583883" lon="10.273101">
        <ele>211.968448</ele>
        <time>2021-03-10T20:45:27.670Z</time>
      </trkpt>
      <trkpt lat="45.583854" lon="10.272930">
        <ele>211.742474</ele>
        <time>2021-03-10T20:45:29.028Z</time>
      </trkpt>
      <trkpt lat="45.583839" lon="10.272686">
        <ele>211.427894</ele>
        <time>2021-03-10T20:45:30.944Z</time>
      </trkpt>
      <trkpt lat="45.583647" lon="10.269456">
        <ele>207.445285</ele>
        <time>2021-03-10T20:45:56.408Z</time>
      </trkpt>
      <trkpt lat="45.583675" lon="10.268374">
        <ele>206.211465</ele>
        <time>2021-03-10T20:46:05.068Z</time>
      </trkpt>
      <trkpt lat="45.583710" lon="10.268023">
        <ele>205.807449</ele>
        <time>2021-03-10T20:46:07.946Z</time>
      </trkpt>
      <trkpt lat="45.583740" lon="10.267877">
        <ele>205.634054</ele>
        <time>2021-03-10T20:46:09.116Z</time>
      </trkpt>
      <trkpt lat="45.583780" lon="10.267799">
        <ele>205.523863</ele>
        <time>2021-03-10T20:46:09.877Z</time>
      </trkpt>
      <trkpt lat="45.583861" lon="10.267699">
        <ele>205.349567</ele>
        <time>2021-03-10T20:46:11.192Z</time>
      </trkpt>
      <trkpt lat="45.583869" lon="10.267533">
        <ele>205.159957</ele>
        <time>2021-03-10T20:46:12.482Z</time>
      </trkpt>
      <trkpt lat="45.583838" lon="10.267461">
        <ele>205.063628</ele>
        <time>2021-03-10T20:46:13.127Z</time>
      </trkpt>
      <trkpt lat="45.583819" lon="10.267438">
        <ele>205.023082</ele>
        <time>2021-03-10T20:46:13.396Z</time>
      </trkpt>
      <trkpt lat="45.583753" lon="10.267035">
        <ele>204.546301</ele>
        <time>2021-03-10T20:46:16.712Z</time>
      </trkpt>
      <trkpt lat="45.583869" lon="10.264695">
        <ele>201.763881</ele>
        <time>2021-03-10T20:46:35.137Z</time>
      </trkpt>
      <trkpt lat="45.583919" lon="10.263783">
        <ele>200.918414</ele>
        <time>2021-03-10T20:46:42.525Z</time>
      </trkpt>
      <trkpt lat="45.583928" lon="10.263655">
        <ele>200.804299</ele>
        <time>2021-03-10T20:46:43.563Z</time>
      </trkpt>
      <trkpt lat="45.583973" lon="10.263393">
        <ele>200.564993</ele>
        <time>2021-03-10T20:46:45.806Z</time>
      </trkpt>
      <trkpt lat="45.583997" lon="10.262918">
        <ele>200.142543</ele>
        <time>2021-03-10T20:46:49.792Z</time>
      </trkpt>
      <trkpt lat="45.584012" lon="10.262635">
        <ele>199.890787</ele>
        <time>2021-03-10T20:46:52.210Z</time>
      </trkpt>
      <trkpt lat="45.583990" lon="10.262459">
        <ele>199.732194</ele>
        <time>2021-03-10T20:46:53.752Z</time>
      </trkpt>
      <trkpt lat="45.584051" lon="10.261180">
        <ele>198.744637</ele>
        <time>2021-03-10T20:47:04.633Z</time>
      </trkpt>
      <trkpt lat="45.584076" lon="10.260531">
        <ele>198.282432</ele>
        <time>2021-03-10T20:47:10.122Z</time>
      </trkpt>
      <trkpt lat="45.584115" lon="10.260372">
        <ele>198.162623</ele>
        <time>2021-03-10T20:47:11.556Z</time>
      </trkpt>
      <trkpt lat="45.584134" lon="10.260359">
        <ele>198.141219</ele>
        <time>2021-03-10T20:47:11.825Z</time>
      </trkpt>
      <trkpt lat="45.584193" lon="10.260255">
        <ele>198.046019</ele>
        <time>2021-03-10T20:47:13.011Z</time>
      </trkpt>
      <trkpt lat="45.584200" lon="10.260211">
        <ele>198.013932</ele>
        <time>2021-03-10T20:47:13.407Z</time>
      </trkpt>
      <trkpt lat="45.584170" lon="10.260067">
        <ele>197.907093</ele>
        <time>2021-03-10T20:47:14.687Z</time>
      </trkpt>
      <trkpt lat="45.584145" lon="10.259318">
        <ele>197.377289</ele>
        <time>2021-03-10T20:47:21.214Z</time>
      </trkpt>
      <trkpt lat="45.584290" lon="10.256061">
        <ele>195.210709</ele>
        <time>2021-03-10T20:47:49.148Z</time>
      </trkpt>
      <trkpt lat="45.584301" lon="10.255611">
        <ele>194.948122</ele>
        <time>2021-03-10T20:47:52.994Z</time>
      </trkpt>
      <trkpt lat="45.584313" lon="10.255104">
        <ele>194.652285</ele>
        <time>2021-03-10T20:47:57.480Z</time>
      </trkpt>
      <trkpt lat="45.584315" lon="10.255059">
        <ele>194.625990</ele>
        <time>2021-03-10T20:47:57.938Z</time>
      </trkpt>
      <trkpt lat="45.584316" lon="10.255033">
        <ele>194.610805</ele>
        <time>2021-03-10T20:47:58.204Z</time>
      </trkpt>
      <trkpt lat="45.584339" lon="10.254469">
        <ele>194.281338</ele>
        <time>2021-03-10T20:48:03.381Z</time>
      </trkpt>
      <trkpt lat="45.584374" lon="10.253809">
        <ele>193.892317</ele>
        <time>2021-03-10T20:48:09.389Z</time>
      </trkpt>
      <trkpt lat="45.584457" lon="10.252366">
        <ele>193.040505</ele>
        <time>2021-03-10T20:48:22.162Z</time>
      </trkpt>
      <trkpt lat="45.584466" lon="10.252170">
        <ele>192.924946</ele>
        <time>2021-03-10T20:48:23.819Z</time>
      </trkpt>
      <trkpt lat="45.584560" lon="10.250091">
        <ele>191.273187</ele>
        <time>2021-03-10T20:48:41.071Z</time>
      </trkpt>
      <trkpt lat="45.584569" lon="10.249950">
        <ele>191.155313</ele>
        <time>2021-03-10T20:48:42.206Z</time>
      </trkpt>
      <trkpt lat="45.584595" lon="10.249536">
        <ele>190.809259</ele>
        <time>2021-03-10T20:48:45.592Z</time>
      </trkpt>
      <trkpt lat="45.584600" lon="10.249446">
        <ele>190.734095</ele>
        <time>2021-03-10T20:48:46.340Z</time>
      </trkpt>
      <trkpt lat="45.584607" lon="10.249365">
        <ele>190.666148</ele>
        <time>2021-03-10T20:48:47.016Z</time>
      </trkpt>
      <trkpt lat="45.584769" lon="10.247158">
        <ele>189.213407</ele>
        <time>2021-03-10T20:49:06.745Z</time>
      </trkpt>
      <trkpt lat="45.584857" lon="10.246760">
        <ele>188.943524</ele>
        <time>2021-03-10T20:49:10.209Z</time>
      </trkpt>
      <trkpt lat="45.584919" lon="10.246646">
        <ele>188.837833</ele>
        <time>2021-03-10T20:49:11.395Z</time>
      </trkpt>
      <trkpt lat="45.585009" lon="10.246527">
        <ele>188.705698</ele>
        <time>2021-03-10T20:49:12.843Z</time>
      </trkpt>
      <trkpt lat="45.585026" lon="10.246458">
        <ele>188.650532</ele>
        <time>2021-03-10T20:49:13.450Z</time>
      </trkpt>
      <trkpt lat="45.585017" lon="10.246314">
        <ele>188.541502</ele>
        <time>2021-03-10T20:49:14.645Z</time>
      </trkpt>
      <trkpt lat="45.584933" lon="10.246180">
        <ele>188.405834</ele>
        <time>2021-03-10T20:49:16.117Z</time>
      </trkpt>
      <trkpt lat="45.584903" lon="10.246030">
        <ele>188.288183</ele>
        <time>2021-03-10T20:49:17.402Z</time>
      </trkpt>
      <trkpt lat="45.584883" lon="10.245647">
        <ele>187.998540</ele>
        <time>2021-03-10T20:49:20.587Z</time>
      </trkpt>
      <trkpt lat="45.584917" lon="10.245125">
        <ele>187.603172</ele>
        <time>2021-03-10T20:49:25.045Z</time>
      </trkpt>
      <trkpt lat="45.584980" lon="10.243803">
        <ele>186.916135</ele>
        <time>2021-03-10T20:49:36.318Z</time>
      </trkpt>
      <trkpt lat="45.584885" lon="10.242994">
        <ele>186.802829</ele>
        <time>2021-03-10T20:49:45.319Z</time>
      </trkpt>
      <trkpt lat="45.584719" lon="10.242168">
        <ele>186.684126</ele>
        <time>2021-03-10T20:49:54.706Z</time>
      </trkpt>
      <trkpt lat="45.584676" lon="10.241961">
        <ele>186.654301</ele>
        <time>2021-03-10T20:49:56.988Z</time>
      </trkpt>
      <trkpt lat="45.584619" lon="10.241726">
        <ele>186.585179</ele>
        <time>2021-03-10T20:49:59.338Z</time>
      </trkpt>
      <trkpt lat="45.584506" lon="10.241388">
        <ele>186.373030</ele>
        <time>2021-03-10T20:50:03.000Z</time>
      </trkpt>
      <trkpt lat="45.584412" lon="10.241188">
        <ele>186.236585</ele>
        <time>2021-03-10T20:50:05.290Z</time>
      </trkpt>
      <trkpt lat="45.584349" lon="10.241078">
        <ele>186.156084</ele>
        <time>2021-03-10T20:50:06.614Z</time>
      </trkpt>
      <trkpt lat="45.584386" lon="10.241030">
        <ele>186.115642</ele>
        <time>2021-03-10T20:50:10.043Z</time>
      </trkpt>
      <trkpt lat="45.584456" lon="10.240378">
        <ele>185.742056</ele>
        <time>2021-03-10T20:50:15.726Z</time>
      </trkpt>
      <trkpt lat="45.584499" lon="10.239754">
        <ele>185.386940</ele>
        <time>2021-03-10T20:50:21.053Z</time>
      </trkpt>
      <trkpt lat="45.584500" lon="10.239643">
        <ele>185.324069</ele>
        <time>2021-03-10T20:50:22.002Z</time>
      </trkpt>
      <trkpt lat="45.584512" lon="10.239506">
        <ele>185.245872</ele>
        <time>2021-03-10T20:50:23.123Z</time>
      </trkpt>
      <trkpt lat="45.584522" lon="10.239375">
        <ele>185.170657</ele>
        <time>2021-03-10T20:50:24.186Z</time>
      </trkpt>
      <trkpt lat="45.584554" lon="10.238954">
        <ele>184.898864</ele>
        <time>2021-03-10T20:50:27.594Z</time>
      </trkpt>
      <trkpt lat="45.584608" lon="10.238255">
        <ele>184.447511</ele>
        <time>2021-03-10T20:50:33.371Z</time>
      </trkpt>
      <trkpt lat="45.584662" lon="10.237541">
        <ele>183.986588</ele>
        <time>2021-03-10T20:50:39.757Z</time>
      </trkpt>
      <trkpt lat="45.584715" lon="10.236880">
        <ele>183.559575</ele>
        <time>2021-03-10T20:50:45.901Z</time>
      </trkpt>
      <trkpt lat="45.584761" lon="10.236235">
        <ele>183.498435</ele>
        <time>2021-03-10T20:50:52.098Z</time>
      </trkpt>
      <trkpt lat="45.583662" lon="10.236029">
        <ele>183.424851</ele>
        <time>2021-03-10T20:51:08.514Z</time>
      </trkpt>
      <trkpt lat="45.583716" lon="10.235427">
        <ele>183.386407</ele>
        <time>2021-03-10T20:51:15.274Z</time>
      </trkpt>
      <trkpt lat="45.583764" lon="10.234828">
        <ele>183.329921</ele>
        <time>2021-03-10T20:51:21.867Z</time>
      </trkpt>
      <trkpt lat="45.583816" lon="10.234226">
        <ele>183.273092</ele>
        <time>2021-03-10T20:51:28.058Z</time>
      </trkpt>
      <trkpt lat="45.583820" lon="10.234087">
        <ele>183.260058</ele>
        <time>2021-03-10T20:51:29.365Z</time>
      </trkpt>
      <trkpt lat="45.583763" lon="10.233809">
        <ele>183.232917</ele>
        <time>2021-03-10T20:51:32.082Z</time>
      </trkpt>
      <trkpt lat="45.583668" lon="10.233740">
        <ele>183.218651</ele>
        <time>2021-03-10T20:51:33.491Z</time>
      </trkpt>
      <trkpt lat="45.583472" lon="10.233638">
        <ele>183.190727</ele>
        <time>2021-03-10T20:51:36.286Z</time>
      </trkpt>
      <trkpt lat="45.583431" lon="10.233617">
        <ele>183.184896</ele>
        <time>2021-03-10T20:51:36.875Z</time>
      </trkpt>
      <trkpt lat="45.583043" lon="10.233415">
        <ele>182.974591</ele>
        <time>2021-03-10T20:51:42.532Z</time>
      </trkpt>
      <trkpt lat="45.582391" lon="10.233080">
        <ele>182.486108</ele>
        <time>2021-03-10T20:51:51.671Z</time>
      </trkpt>
      <trkpt lat="45.582333" lon="10.232878">
        <ele>182.378374</ele>
        <time>2021-03-10T20:51:53.543Z</time>
      </trkpt>
      <trkpt lat="45.582330" lon="10.232799">
        <ele>182.339336</ele>
        <time>2021-03-10T20:51:54.256Z</time>
      </trkpt>
      <trkpt lat="45.582305" lon="10.232638">
        <ele>182.257963</ele>
        <time>2021-03-10T20:51:55.763Z</time>
      </trkpt>
      <trkpt lat="45.582290" lon="10.232543">
        <ele>182.209909</ele>
        <time>2021-03-10T20:51:56.574Z</time>
      </trkpt>
      <trkpt lat="45.582272" lon="10.232367">
        <ele>182.122144</ele>
        <time>2021-03-10T20:51:57.999Z</time>
      </trkpt>
      <trkpt lat="45.582247" lon="10.232127">
        <ele>182.002418</ele>
        <time>2021-03-10T20:52:00.065Z</time>
      </trkpt>
      <trkpt lat="45.581964" lon="10.232074">
        <ele>181.815854</ele>
        <time>2021-03-10T20:52:03.431Z</time>
      </trkpt>
      <trkpt lat="45.581932" lon="10.232045">
        <ele>181.793188</ele>
        <time>2021-03-10T20:52:03.906Z</time>
      </trkpt>
      <trkpt lat="45.581696" lon="10.231036">
        <ele>181.347839</ele>
        <time>2021-03-10T20:52:13.639Z</time>
      </trkpt>
      <trkpt lat="45.581201" lon="10.230905">
        <ele>181.046733</ele>
        <time>2021-03-10T20:52:20.545Z</time>
      </trkpt>
      <trkpt lat="45.580791" lon="10.230761">
        <ele>180.799213</ele>
        <time>2021-03-10T20:52:26.262Z</time>
      </trkpt>
      <trkpt lat="45.579989" lon="10.230575">
        <ele>180.400583</ele>
        <time>2021-03-10T20:52:36.796Z</time>
      </trkpt>
      <trkpt lat="45.580098" lon="10.230161">
        <ele>180.248692</ele>
        <time>2021-03-10T20:52:41.026Z</time>
      </trkpt>
      <trkpt lat="45.580163" lon="10.229914">
        <ele>180.158076</ele>
        <time>2021-03-10T20:52:43.559Z</time>
      </trkpt>
      <trkpt lat="45.580212" lon="10.229727">
        <ele>180.089509</ele>
        <time>2021-03-10T20:52:45.419Z</time>
      </trkpt>
      <trkpt lat="45.580254" lon="10.229680">
        <ele>180.063335</ele>
        <time>2021-03-10T20:52:46.101Z</time>
      </trkpt>
      <trkpt lat="45.580280" lon="10.229579">
        <ele>180.026381</ele>
        <time>2021-03-10T20:52:47.098Z</time>
      </trkpt>
      <trkpt lat="45.580229" lon="10.229433">
        <ele>179.970348</ele>
        <time>2021-03-10T20:52:48.640Z</time>
      </trkpt>
      <trkpt lat="45.580196" lon="10.229409">
        <ele>179.952181</ele>
        <time>2021-03-10T20:52:49.119Z</time>
      </trkpt>
      <trkpt lat="45.580176" lon="10.229285">
        <ele>179.939624</ele>
        <time>2021-03-10T20:52:50.247Z</time>
      </trkpt>
      <trkpt lat="45.580190" lon="10.229191">
        <ele>179.939624</ele>
        <time>2021-03-10T20:52:51.126Z</time>
      </trkpt>
      <trkpt lat="45.580257" lon="10.229066">
        <ele>179.939624</ele>
        <time>2021-03-10T20:52:52.624Z</time>
      </trkpt>
      <trkpt lat="45.580465" lon="10.228986">
        <ele>179.939624</ele>
        <time>2021-03-10T20:52:55.463Z</time>
      </trkpt>
      <trkpt lat="45.580567" lon="10.228962">
        <ele>179.939624</ele>
        <time>2021-03-10T20:52:56.876Z</time>
      </trkpt>
      <trkpt lat="45.580657" lon="10.228938">
        <ele>179.939624</ele>
        <time>2021-03-10T20:52:58.196Z</time>
      </trkpt>
      <trkpt lat="45.580697" lon="10.228873">
        <ele>179.939624</ele>
        <time>2021-03-10T20:52:59.019Z</time>
      </trkpt>
      <trkpt lat="45.580741" lon="10.228370">
        <ele>179.939624</ele>
        <time>2021-03-10T20:53:03.742Z</time>
      </trkpt>
      <trkpt lat="45.580696" lon="10.228282">
        <ele>179.939624</ele>
        <time>2021-03-10T20:53:04.703Z</time>
      </trkpt>
      <trkpt lat="45.580638" lon="10.228259">
        <ele>179.939624</ele>
        <time>2021-03-10T20:53:05.524Z</time>
      </trkpt>
      <trkpt lat="45.580582" lon="10.228288">
        <ele>179.939624</ele>
        <time>2021-03-10T20:53:06.340Z</time>
      </trkpt>
      <trkpt lat="45.580548" lon="10.228360">
        <ele>179.939624</ele>
        <time>2021-03-10T20:53:07.166Z</time>
      </trkpt>
      <trkpt lat="45.580356" lon="10.228308">
        <ele>179.939624</ele>
        <time>2021-03-10T20:53:09.789Z</time>
      </trkpt>
      <trkpt lat="45.580237" lon="10.227849">
        <ele>179.939624</ele>
        <time>2021-03-10T20:53:14.661Z</time>
      </trkpt>
      <trkpt lat="45.580190" lon="10.227654">
        <ele>179.939624</ele>
        <time>2021-03-10T20:53:16.815Z</time>
      </trkpt>
      <trkpt lat="45.580143" lon="10.227461">
        <ele>179.939624</ele>
        <time>2021-03-10T20:53:18.841Z</time>
      </trkpt>
      <trkpt lat="45.580095" lon="10.227265">
        <ele>179.939624</ele>
        <time>2021-03-10T20:53:20.884Z</time>
      </trkpt>
      <trkpt lat="45.580418" lon="10.227166">
        <ele>179.939624</ele>
        <time>2021-03-10T20:53:25.530Z</time>
      </trkpt>
    </trkseg>
  </trk>
</gpx>